<?xml version='1.0' encoding='UTF-8'?><gpx version="1.1" creator="JPX - https://github.com/jenetics/jpx" xmlns="http://www.topografix.com/GPX/1/1"><trk><trkseg><trkpt lat="40.8133348" lon="16.5436777"><ele>427.0</ele><time>2026-04-25T12:30:45.835Z</time></trkpt><trkpt lat="40.8134091" lon="16.5436819"><ele>427.00000000000006</ele><time>2026-04-25T12:30:46.836Z</time></trkpt><trkpt lat="40.8134695" lon="16.5437069"><ele>427.00000000000006</ele><time>2026-04-25T12:30:47.833Z</time></trkpt><trkpt lat="40.8135684" lon="16.5437891"><ele>427.0</ele><time>2026-04-25T12:30:49.833Z</time></trkpt><trkpt lat="40.8136142" lon="16.5439325"><ele>427.0</ele><time>2026-04-25T12:30:51.832Z</time></trkpt><trkpt lat="40.8136238" lon="16.5440358"><ele>428.25</ele><time>2026-04-25T12:30:52.833Z</time></trkpt><trkpt lat="40.8136266" lon="16.5441688"><ele>429.5</ele><time>2026-04-25T12:30:53.836Z</time></trkpt><trkpt lat="40.8136205" lon="16.5443051"><ele>430.75</ele><time>2026-04-25T12:30:54.832Z</time></trkpt><trkpt lat="40.8136033" lon="16.5444983"><ele>432.0</ele><time>2026-04-25T12:30:55.833Z</time></trkpt><trkpt lat="40.8135833" lon="16.5447133"><ele>432.0</ele><time>2026-04-25T12:30:56.834Z</time></trkpt><trkpt lat="40.8135667" lon="16.5449383"><ele>432.0</ele><time>2026-04-25T12:30:57.832Z</time></trkpt><trkpt lat="40.813545" lon="16.5451683"><ele>432.0</ele><time>2026-04-25T12:30:58.833Z</time></trkpt><trkpt lat="40.8135267" lon="16.5453883"><ele>431.25</ele><time>2026-04-25T12:30:59.833Z</time></trkpt><trkpt lat="40.8135167" lon="16.5455933"><ele>430.5</ele><time>2026-04-25T12:31:00.832Z</time></trkpt><trkpt lat="40.813515" lon="16.5457817"><ele>429.75</ele><time>2026-04-25T12:31:01.832Z</time></trkpt><trkpt lat="40.8135267" lon="16.5459667"><ele>429.0</ele><time>2026-04-25T12:31:02.836Z</time></trkpt><trkpt lat="40.81355" lon="16.5461533"><ele>429.25</ele><time>2026-04-25T12:31:03.834Z</time></trkpt><trkpt lat="40.8135767" lon="16.54634"><ele>429.5</ele><time>2026-04-25T12:31:04.833Z</time></trkpt><trkpt lat="40.813605" lon="16.546525"><ele>429.75</ele><time>2026-04-25T12:31:05.833Z</time></trkpt><trkpt lat="40.8136333" lon="16.54671"><ele>430.0</ele><time>2026-04-25T12:31:06.833Z</time></trkpt><trkpt lat="40.8136567" lon="16.5468917"><ele>429.75</ele><time>2026-04-25T12:31:07.836Z</time></trkpt><trkpt lat="40.8136767" lon="16.547075"><ele>429.5</ele><time>2026-04-25T12:31:08.833Z</time></trkpt><trkpt lat="40.8136967" lon="16.54726"><ele>429.25</ele><time>2026-04-25T12:31:09.833Z</time></trkpt><trkpt lat="40.8137167" lon="16.547455"><ele>429.0</ele><time>2026-04-25T12:31:10.834Z</time></trkpt><trkpt lat="40.8137333" lon="16.547655"><ele>429.0</ele><time>2026-04-25T12:31:11.834Z</time></trkpt><trkpt lat="40.8137467" lon="16.5478417"><ele>429.0</ele><time>2026-04-25T12:31:12.833Z</time></trkpt><trkpt lat="40.8137667" lon="16.548"><ele>429.0</ele><time>2026-04-25T12:31:13.835Z</time></trkpt><trkpt lat="40.8137933" lon="16.5481333"><ele>429.0</ele><time>2026-04-25T12:31:14.833Z</time></trkpt><trkpt lat="40.8138383" lon="16.5482467"><ele>428.5</ele><time>2026-04-25T12:31:15.833Z</time></trkpt><trkpt lat="40.8139117" lon="16.548345"><ele>428.0</ele><time>2026-04-25T12:31:16.833Z</time></trkpt><trkpt lat="40.8140033" lon="16.5484233"><ele>427.5</ele><time>2026-04-25T12:31:17.833Z</time></trkpt><trkpt lat="40.8141133" lon="16.5484833"><ele>427.0</ele><time>2026-04-25T12:31:18.833Z</time></trkpt><trkpt lat="40.81424" lon="16.5485117"><ele>427.75</ele><time>2026-04-25T12:31:19.833Z</time></trkpt><trkpt lat="40.814375" lon="16.54851"><ele>428.5</ele><time>2026-04-25T12:31:20.834Z</time></trkpt><trkpt lat="40.8144983" lon="16.548495"><ele>429.25</ele><time>2026-04-25T12:31:21.833Z</time></trkpt><trkpt lat="40.814605" lon="16.5484833"><ele>430.0</ele><time>2026-04-25T12:31:22.833Z</time></trkpt><trkpt lat="40.8147033" lon="16.5484833"><ele>430.0</ele><time>2026-04-25T12:31:23.834Z</time></trkpt><trkpt lat="40.8147933" lon="16.5485"><ele>430.0</ele><time>2026-04-25T12:31:24.834Z</time></trkpt><trkpt lat="40.8148733" lon="16.5485433"><ele>430.0</ele><time>2026-04-25T12:31:25.833Z</time></trkpt><trkpt lat="40.8149467" lon="16.5486117"><ele>430.0</ele><time>2026-04-25T12:31:26.833Z</time></trkpt><trkpt lat="40.8150283" lon="16.5486967"><ele>430.0</ele><time>2026-04-25T12:31:27.834Z</time></trkpt><trkpt lat="40.815115" lon="16.54878"><ele>430.0</ele><time>2026-04-25T12:31:28.832Z</time></trkpt><trkpt lat="40.8151967" lon="16.54885"><ele>430.0</ele><time>2026-04-25T12:31:29.833Z</time></trkpt><trkpt lat="40.8152667" lon="16.54891"><ele>430.0</ele><time>2026-04-25T12:31:30.835Z</time></trkpt><trkpt lat="40.8153233" lon="16.54896"><ele>430.0</ele><time>2026-04-25T12:31:31.835Z</time></trkpt><trkpt lat="40.8153883" lon="16.5490667"><ele>430.0</ele><time>2026-04-25T12:31:33.834Z</time></trkpt><trkpt lat="40.8153733" lon="16.5491933"><ele>430.00000000000006</ele><time>2026-04-25T12:31:35.834Z</time></trkpt><trkpt lat="40.8153383" lon="16.5492683"><ele>430.0</ele><time>2026-04-25T12:31:36.834Z</time></trkpt><trkpt lat="40.8152983" lon="16.549355"><ele>430.0</ele><time>2026-04-25T12:31:37.834Z</time></trkpt><trkpt lat="40.8152633" lon="16.5494333"><ele>430.0</ele><time>2026-04-25T12:31:38.834Z</time></trkpt><trkpt lat="40.815225" lon="16.5495483"><ele>430.00000000000006</ele><time>2026-04-25T12:31:40.834Z</time></trkpt><trkpt lat="40.8152517" lon="16.5496467"><ele>430.0</ele><time>2026-04-25T12:31:42.833Z</time></trkpt><trkpt lat="40.815305" lon="16.549695"><ele>430.25</ele><time>2026-04-25T12:31:43.835Z</time></trkpt><trkpt lat="40.8153833" lon="16.549735"><ele>430.5</ele><time>2026-04-25T12:31:44.834Z</time></trkpt><trkpt lat="40.815475" lon="16.5497733"><ele>430.75</ele><time>2026-04-25T12:31:45.834Z</time></trkpt><trkpt lat="40.8155983" lon="16.5498217"><ele>431.0</ele><time>2026-04-25T12:31:46.834Z</time></trkpt><trkpt lat="40.8157333" lon="16.5498767"><ele>431.0</ele><time>2026-04-25T12:31:47.835Z</time></trkpt><trkpt lat="40.815855" lon="16.5499233"><ele>431.0</ele><time>2026-04-25T12:31:48.834Z</time></trkpt><trkpt lat="40.8159567" lon="16.54996"><ele>431.0</ele><time>2026-04-25T12:31:49.834Z</time></trkpt><trkpt lat="40.8160383" lon="16.5499717"><ele>431.0</ele><time>2026-04-25T12:31:50.834Z</time></trkpt><trkpt lat="40.8161067" lon="16.5499617"><ele>431.0</ele><time>2026-04-25T12:31:51.835Z</time></trkpt><trkpt lat="40.8161833" lon="16.5498667"><ele>430.99999999999994</ele><time>2026-04-25T12:31:53.833Z</time></trkpt><trkpt lat="40.8161667" lon="16.5497533"><ele>431.0</ele><time>2026-04-25T12:31:55.832Z</time></trkpt><trkpt lat="40.8160983" lon="16.5496917"><ele>431.0</ele><time>2026-04-25T12:31:58.833Z</time></trkpt><trkpt lat="40.8160067" lon="16.5496567"><ele>431.0</ele><time>2026-04-25T12:32:12.833Z</time></trkpt><trkpt lat="40.81593" lon="16.549655"><ele>430.99999999999994</ele><time>2026-04-25T12:32:13.836Z</time></trkpt><trkpt lat="40.815855" lon="16.5496867"><ele>431.0</ele><time>2026-04-25T12:32:14.834Z</time></trkpt><trkpt lat="40.8157817" lon="16.5497333"><ele>430.99999999999994</ele><time>2026-04-25T12:32:15.833Z</time></trkpt><trkpt lat="40.8157067" lon="16.549765"><ele>431.0</ele><time>2026-04-25T12:32:16.834Z</time></trkpt><trkpt lat="40.8156233" lon="16.5497617"><ele>431.0</ele><time>2026-04-25T12:32:17.834Z</time></trkpt><trkpt lat="40.8155283" lon="16.5497317"><ele>431.0</ele><time>2026-04-25T12:32:18.834Z</time></trkpt><trkpt lat="40.8154383" lon="16.5496933"><ele>430.99999999999994</ele><time>2026-04-25T12:32:19.835Z</time></trkpt><trkpt lat="40.8153633" lon="16.5496583"><ele>431.0</ele><time>2026-04-25T12:32:20.834Z</time></trkpt><trkpt lat="40.8152883" lon="16.549595"><ele>430.75</ele><time>2026-04-25T12:32:22.834Z</time></trkpt><trkpt lat="40.81527" lon="16.549465"><ele>430.5</ele><time>2026-04-25T12:32:33.833Z</time></trkpt><trkpt lat="40.81533" lon="16.5492983"><ele>430.25</ele><time>2026-04-25T12:32:35.833Z</time></trkpt><trkpt lat="40.8153817" lon="16.549195"><ele>430.0</ele><time>2026-04-25T12:32:36.833Z</time></trkpt><trkpt lat="40.8154483" lon="16.5490533"><ele>430.0</ele><time>2026-04-25T12:32:37.835Z</time></trkpt><trkpt lat="40.8155183" lon="16.5488867"><ele>430.0</ele><time>2026-04-25T12:32:38.834Z</time></trkpt><trkpt lat="40.8155967" lon="16.5486967"><ele>430.0</ele><time>2026-04-25T12:32:39.835Z</time></trkpt><trkpt lat="40.8156817" lon="16.54849"><ele>430.0</ele><time>2026-04-25T12:32:40.833Z</time></trkpt><trkpt lat="40.8157667" lon="16.5482733"><ele>430.0</ele><time>2026-04-25T12:32:41.834Z</time></trkpt><trkpt lat="40.8158517" lon="16.548055"><ele>430.0</ele><time>2026-04-25T12:32:42.834Z</time></trkpt><trkpt lat="40.8159517" lon="16.5478383"><ele>430.33333333333337</ele><time>2026-04-25T12:32:43.835Z</time></trkpt><trkpt lat="40.816065" lon="16.5476233"><ele>430.66666666666663</ele><time>2026-04-25T12:32:44.838Z</time></trkpt><trkpt lat="40.8161783" lon="16.5474233"><ele>431.0</ele><time>2026-04-25T12:32:45.834Z</time></trkpt><trkpt lat="40.8162867" lon="16.5472367"><ele>431.0</ele><time>2026-04-25T12:32:46.834Z</time></trkpt><trkpt lat="40.8163933" lon="16.5470483"><ele>431.0</ele><time>2026-04-25T12:32:47.834Z</time></trkpt><trkpt lat="40.8165017" lon="16.5468633"><ele>431.0</ele><time>2026-04-25T12:32:48.834Z</time></trkpt><trkpt lat="40.8166067" lon="16.5466967"><ele>431.66666666666663</ele><time>2026-04-25T12:32:49.834Z</time></trkpt><trkpt lat="40.8167117" lon="16.546545"><ele>432.33333333333337</ele><time>2026-04-25T12:32:50.835Z</time></trkpt><trkpt lat="40.8168283" lon="16.5464117"><ele>433.0</ele><time>2026-04-25T12:32:51.834Z</time></trkpt><trkpt lat="40.8169467" lon="16.5462933"><ele>433.5</ele><time>2026-04-25T12:32:52.834Z</time></trkpt><trkpt lat="40.8170617" lon="16.5461733"><ele>434.0</ele><time>2026-04-25T12:32:53.835Z</time></trkpt><trkpt lat="40.8171683" lon="16.54603"><ele>434.5</ele><time>2026-04-25T12:32:54.833Z</time></trkpt><trkpt lat="40.8172633" lon="16.5458817"><ele>435.0</ele><time>2026-04-25T12:32:55.836Z</time></trkpt><trkpt lat="40.8173417" lon="16.5457433"><ele>435.0</ele><time>2026-04-25T12:32:56.835Z</time></trkpt><trkpt lat="40.81741" lon="16.54563"><ele>435.0</ele><time>2026-04-25T12:32:57.834Z</time></trkpt><trkpt lat="40.81746" lon="16.5455417"><ele>435.0</ele><time>2026-04-25T12:32:58.834Z</time></trkpt><trkpt lat="40.8174933" lon="16.5454683"><ele>435.0</ele><time>2026-04-25T12:32:59.834Z</time></trkpt><trkpt lat="40.817465" lon="16.545335"><ele>435.0</ele><time>2026-04-25T12:33:01.835Z</time></trkpt><trkpt lat="40.817415" lon="16.5452833"><ele>435.0</ele><time>2026-04-25T12:33:02.835Z</time></trkpt><trkpt lat="40.8173483" lon="16.5452433"><ele>435.4</ele><time>2026-04-25T12:33:03.833Z</time></trkpt><trkpt lat="40.81726" lon="16.5451633"><ele>435.8</ele><time>2026-04-25T12:33:05.834Z</time></trkpt><trkpt lat="40.8172717" lon="16.5450483"><ele>436.20000000000005</ele><time>2026-04-25T12:33:07.834Z</time></trkpt><trkpt lat="40.8173317" lon="16.5449717"><ele>436.6</ele><time>2026-04-25T12:33:08.834Z</time></trkpt><trkpt lat="40.8174183" lon="16.544875"><ele>437.0</ele><time>2026-04-25T12:33:09.834Z</time></trkpt><trkpt lat="40.817525" lon="16.5447567"><ele>437.0</ele><time>2026-04-25T12:33:10.834Z</time></trkpt><trkpt lat="40.8176433" lon="16.5446267"><ele>437.0</ele><time>2026-04-25T12:33:11.833Z</time></trkpt><trkpt lat="40.8177517" lon="16.54449"><ele>437.0</ele><time>2026-04-25T12:33:12.833Z</time></trkpt><trkpt lat="40.8178533" lon="16.5443533"><ele>437.0</ele><time>2026-04-25T12:33:13.834Z</time></trkpt><trkpt lat="40.8179383" lon="16.5442167"><ele>437.25</ele><time>2026-04-25T12:33:14.836Z</time></trkpt><trkpt lat="40.8180017" lon="16.5440783"><ele>437.5</ele><time>2026-04-25T12:33:15.834Z</time></trkpt><trkpt lat="40.8180383" lon="16.5439333"><ele>437.75</ele><time>2026-04-25T12:33:16.835Z</time></trkpt><trkpt lat="40.8180517" lon="16.5437917"><ele>438.0</ele><time>2026-04-25T12:33:17.834Z</time></trkpt><trkpt lat="40.8180483" lon="16.543655"><ele>438.0</ele><time>2026-04-25T12:33:18.834Z</time></trkpt><trkpt lat="40.8180417" lon="16.5435367"><ele>438.0</ele><time>2026-04-25T12:33:19.834Z</time></trkpt><trkpt lat="40.818045" lon="16.543445"><ele>438.0</ele><time>2026-04-25T12:33:20.834Z</time></trkpt><trkpt lat="40.8180967" lon="16.54334"><ele>438.0</ele><time>2026-04-25T12:33:22.834Z</time></trkpt><trkpt lat="40.8182117" lon="16.5433517"><ele>438.0</ele><time>2026-04-25T12:33:24.833Z</time></trkpt><trkpt lat="40.818275" lon="16.5433983"><ele>438.0</ele><time>2026-04-25T12:33:25.834Z</time></trkpt><trkpt lat="40.81835" lon="16.5435"><ele>438.0</ele><time>2026-04-25T12:33:26.835Z</time></trkpt><trkpt lat="40.8184167" lon="16.5435917"><ele>438.0</ele><time>2026-04-25T12:33:27.834Z</time></trkpt><trkpt lat="40.81848" lon="16.54366"><ele>438.0</ele><time>2026-04-25T12:33:28.834Z</time></trkpt><trkpt lat="40.8185467" lon="16.5436983"><ele>438.0</ele><time>2026-04-25T12:33:29.836Z</time></trkpt><trkpt lat="40.8186167" lon="16.543705"><ele>438.0</ele><time>2026-04-25T12:33:30.834Z</time></trkpt><trkpt lat="40.8186767" lon="16.54367"><ele>438.0</ele><time>2026-04-25T12:33:31.833Z</time></trkpt><trkpt lat="40.8187183" lon="16.5435983"><ele>438.4</ele><time>2026-04-25T12:33:32.833Z</time></trkpt><trkpt lat="40.8187517" lon="16.5435133"><ele>438.79999999999995</ele><time>2026-04-25T12:33:33.832Z</time></trkpt><trkpt lat="40.8187517" lon="16.54339"><ele>439.2</ele><time>2026-04-25T12:33:34.833Z</time></trkpt><trkpt lat="40.81875" lon="16.5432517"><ele>439.6</ele><time>2026-04-25T12:33:35.834Z</time></trkpt><trkpt lat="40.8187633" lon="16.543075"><ele>440.0</ele><time>2026-04-25T12:33:36.834Z</time></trkpt><trkpt lat="40.818805" lon="16.542885"><ele>439.66666666666663</ele><time>2026-04-25T12:33:37.835Z</time></trkpt><trkpt lat="40.8188633" lon="16.5426717"><ele>439.33333333333337</ele><time>2026-04-25T12:33:38.835Z</time></trkpt><trkpt lat="40.8189333" lon="16.542435"><ele>439.0</ele><time>2026-04-25T12:33:39.834Z</time></trkpt><trkpt lat="40.8190083" lon="16.5421817"><ele>438.6666666666667</ele><time>2026-04-25T12:33:40.836Z</time></trkpt><trkpt lat="40.81909" lon="16.541915"><ele>438.33333333333337</ele><time>2026-04-25T12:33:41.836Z</time></trkpt><trkpt lat="40.8191767" lon="16.5416383"><ele>438.0</ele><time>2026-04-25T12:33:42.834Z</time></trkpt><trkpt lat="40.8192667" lon="16.5413517"><ele>438.5</ele><time>2026-04-25T12:33:43.835Z</time></trkpt><trkpt lat="40.8193567" lon="16.541065"><ele>439.0</ele><time>2026-04-25T12:33:44.835Z</time></trkpt><trkpt lat="40.8194467" lon="16.54078"><ele>439.0</ele><time>2026-04-25T12:33:45.834Z</time></trkpt><trkpt lat="40.8195367" lon="16.5404917"><ele>439.0</ele><time>2026-04-25T12:33:46.834Z</time></trkpt><trkpt lat="40.81963" lon="16.5401983"><ele>438.5</ele><time>2026-04-25T12:33:47.835Z</time></trkpt><trkpt lat="40.8197217" lon="16.5399"><ele>438.0</ele><time>2026-04-25T12:33:48.834Z</time></trkpt><trkpt lat="40.819815" lon="16.539605"><ele>437.5</ele><time>2026-04-25T12:33:49.835Z</time></trkpt><trkpt lat="40.8199083" lon="16.5393133"><ele>437.0</ele><time>2026-04-25T12:33:50.837Z</time></trkpt><trkpt lat="40.82" lon="16.5390217"><ele>437.0</ele><time>2026-04-25T12:33:51.834Z</time></trkpt><trkpt lat="40.820095" lon="16.5387317"><ele>437.0</ele><time>2026-04-25T12:33:52.834Z</time></trkpt><trkpt lat="40.8201883" lon="16.5384417"><ele>437.5</ele><time>2026-04-25T12:33:53.836Z</time></trkpt><trkpt lat="40.8202817" lon="16.5381517"><ele>438.0</ele><time>2026-04-25T12:33:54.836Z</time></trkpt><trkpt lat="40.8203717" lon="16.537865"><ele>438.0</ele><time>2026-04-25T12:33:55.835Z</time></trkpt><trkpt lat="40.8204617" lon="16.5375733"><ele>438.0</ele><time>2026-04-25T12:33:56.836Z</time></trkpt><trkpt lat="40.8205533" lon="16.5372833"><ele>438.5</ele><time>2026-04-25T12:33:57.834Z</time></trkpt><trkpt lat="40.8206467" lon="16.5369933"><ele>439.0</ele><time>2026-04-25T12:33:58.835Z</time></trkpt><trkpt lat="40.82074" lon="16.5367033"><ele>439.0</ele><time>2026-04-25T12:33:59.835Z</time></trkpt><trkpt lat="40.8208317" lon="16.5364067"><ele>439.0</ele><time>2026-04-25T12:34:00.834Z</time></trkpt><trkpt lat="40.820925" lon="16.5361133"><ele>440.5</ele><time>2026-04-25T12:34:01.833Z</time></trkpt><trkpt lat="40.8210167" lon="16.53582"><ele>442.0</ele><time>2026-04-25T12:34:02.833Z</time></trkpt><trkpt lat="40.8211083" lon="16.53553"><ele>442.5</ele><time>2026-04-25T12:34:03.833Z</time></trkpt><trkpt lat="40.8211983" lon="16.5352417"><ele>443.0</ele><time>2026-04-25T12:34:04.833Z</time></trkpt><trkpt lat="40.8212833" lon="16.534965"><ele>443.0</ele><time>2026-04-25T12:34:05.834Z</time></trkpt><trkpt lat="40.8213667" lon="16.5346983"><ele>443.0</ele><time>2026-04-25T12:34:06.833Z</time></trkpt><trkpt lat="40.8214517" lon="16.534435"><ele>443.0</ele><time>2026-04-25T12:34:07.834Z</time></trkpt><trkpt lat="40.821535" lon="16.5341667"><ele>442.0</ele><time>2026-04-25T12:34:08.835Z</time></trkpt><trkpt lat="40.8216167" lon="16.5339067"><ele>441.0</ele><time>2026-04-25T12:34:09.835Z</time></trkpt><trkpt lat="40.8216933" lon="16.5336617"><ele>440.0</ele><time>2026-04-25T12:34:10.835Z</time></trkpt><trkpt lat="40.8217683" lon="16.5334183"><ele>440.0</ele><time>2026-04-25T12:34:11.839Z</time></trkpt><trkpt lat="40.82185" lon="16.5331667"><ele>440.0</ele><time>2026-04-25T12:34:12.834Z</time></trkpt><trkpt lat="40.82193" lon="16.5329133"><ele>440.0</ele><time>2026-04-25T12:34:13.841Z</time></trkpt><trkpt lat="40.8220067" lon="16.53267"><ele>439.66666666666663</ele><time>2026-04-25T12:34:14.835Z</time></trkpt><trkpt lat="40.82208" lon="16.5324317"><ele>439.33333333333337</ele><time>2026-04-25T12:34:15.836Z</time></trkpt><trkpt lat="40.82215" lon="16.5322017"><ele>439.0</ele><time>2026-04-25T12:34:16.834Z</time></trkpt><trkpt lat="40.8222183" lon="16.5319867"><ele>439.0</ele><time>2026-04-25T12:34:17.834Z</time></trkpt><trkpt lat="40.8222783" lon="16.531795"><ele>439.0</ele><time>2026-04-25T12:34:18.835Z</time></trkpt><trkpt lat="40.8223317" lon="16.5316283"><ele>439.0</ele><time>2026-04-25T12:34:19.834Z</time></trkpt><trkpt lat="40.822375" lon="16.5314883"><ele>439.0</ele><time>2026-04-25T12:34:20.834Z</time></trkpt><trkpt lat="40.8224133" lon="16.53136"><ele>439.0</ele><time>2026-04-25T12:34:21.834Z</time></trkpt><trkpt lat="40.8224567" lon="16.5312233"><ele>439.0</ele><time>2026-04-25T12:34:22.835Z</time></trkpt><trkpt lat="40.822515" lon="16.5310667"><ele>439.0</ele><time>2026-04-25T12:34:23.833Z</time></trkpt><trkpt lat="40.822585" lon="16.530875"><ele>439.0</ele><time>2026-04-25T12:34:24.833Z</time></trkpt><trkpt lat="40.8226583" lon="16.530655"><ele>439.33333333333337</ele><time>2026-04-25T12:34:25.834Z</time></trkpt><trkpt lat="40.8227333" lon="16.530405"><ele>439.66666666666663</ele><time>2026-04-25T12:34:26.834Z</time></trkpt><trkpt lat="40.822815" lon="16.530135"><ele>440.0</ele><time>2026-04-25T12:34:27.833Z</time></trkpt><trkpt lat="40.8229017" lon="16.5298617"><ele>440.0</ele><time>2026-04-25T12:34:28.833Z</time></trkpt><trkpt lat="40.822995" lon="16.5295733"><ele>440.0</ele><time>2026-04-25T12:34:29.832Z</time></trkpt><trkpt lat="40.82309" lon="16.5292767"><ele>439.5</ele><time>2026-04-25T12:34:30.833Z</time></trkpt><trkpt lat="40.823185" lon="16.5289767"><ele>439.0</ele><time>2026-04-25T12:34:31.833Z</time></trkpt><trkpt lat="40.8232817" lon="16.5286733"><ele>439.0</ele><time>2026-04-25T12:34:32.835Z</time></trkpt><trkpt lat="40.8233783" lon="16.5283667"><ele>439.0</ele><time>2026-04-25T12:34:33.834Z</time></trkpt><trkpt lat="40.823475" lon="16.52806"><ele>439.0</ele><time>2026-04-25T12:34:34.835Z</time></trkpt><trkpt lat="40.82357" lon="16.5277567"><ele>439.0</ele><time>2026-04-25T12:34:35.837Z</time></trkpt><trkpt lat="40.8236633" lon="16.5274567"><ele>439.0</ele><time>2026-04-25T12:34:36.834Z</time></trkpt><trkpt lat="40.8237583" lon="16.52716"><ele>439.0</ele><time>2026-04-25T12:34:37.835Z</time></trkpt><trkpt lat="40.8238533" lon="16.526865"><ele>438.0</ele><time>2026-04-25T12:34:38.835Z</time></trkpt><trkpt lat="40.8239433" lon="16.5265767"><ele>437.0</ele><time>2026-04-25T12:34:39.835Z</time></trkpt><trkpt lat="40.82403" lon="16.5262983"><ele>436.66666666666663</ele><time>2026-04-25T12:34:40.834Z</time></trkpt><trkpt lat="40.8241133" lon="16.526035"><ele>436.33333333333337</ele><time>2026-04-25T12:34:41.834Z</time></trkpt><trkpt lat="40.8241933" lon="16.525785"><ele>436.0</ele><time>2026-04-25T12:34:42.835Z</time></trkpt><trkpt lat="40.8242717" lon="16.5255417"><ele>435.6666666666667</ele><time>2026-04-25T12:34:43.834Z</time></trkpt><trkpt lat="40.8243467" lon="16.5253033"><ele>435.33333333333337</ele><time>2026-04-25T12:34:44.836Z</time></trkpt><trkpt lat="40.82442" lon="16.5250833"><ele>435.0</ele><time>2026-04-25T12:34:45.835Z</time></trkpt><trkpt lat="40.8244883" lon="16.52489"><ele>435.0</ele><time>2026-04-25T12:34:46.838Z</time></trkpt><trkpt lat="40.8245467" lon="16.5247083"><ele>435.0</ele><time>2026-04-25T12:34:47.835Z</time></trkpt><trkpt lat="40.8245967" lon="16.52454"><ele>435.0</ele><time>2026-04-25T12:34:48.834Z</time></trkpt><trkpt lat="40.8246433" lon="16.52438"><ele>435.0</ele><time>2026-04-25T12:34:49.835Z</time></trkpt><trkpt lat="40.8246867" lon="16.524225"><ele>435.0</ele><time>2026-04-25T12:34:50.836Z</time></trkpt><trkpt lat="40.8247283" lon="16.524075"><ele>435.0</ele><time>2026-04-25T12:34:51.835Z</time></trkpt><trkpt lat="40.82478" lon="16.5239267"><ele>435.0</ele><time>2026-04-25T12:34:52.834Z</time></trkpt><trkpt lat="40.824845" lon="16.5237533"><ele>435.0</ele><time>2026-04-25T12:34:53.835Z</time></trkpt><trkpt lat="40.824915" lon="16.5235533"><ele>435.0</ele><time>2026-04-25T12:34:54.835Z</time></trkpt><trkpt lat="40.8249867" lon="16.5233333"><ele>435.0</ele><time>2026-04-25T12:34:55.835Z</time></trkpt><trkpt lat="40.825065" lon="16.5230883"><ele>435.0</ele><time>2026-04-25T12:34:56.835Z</time></trkpt><trkpt lat="40.8251467" lon="16.5228167"><ele>434.0</ele><time>2026-04-25T12:34:57.833Z</time></trkpt><trkpt lat="40.82523" lon="16.5225317"><ele>433.0</ele><time>2026-04-25T12:34:58.833Z</time></trkpt><trkpt lat="40.8253117" lon="16.5222333"><ele>433.0</ele><time>2026-04-25T12:34:59.834Z</time></trkpt><trkpt lat="40.825395" lon="16.5219233"><ele>433.0</ele><time>2026-04-25T12:35:00.832Z</time></trkpt><trkpt lat="40.8254833" lon="16.5216017"><ele>433.0</ele><time>2026-04-25T12:35:01.837Z</time></trkpt><trkpt lat="40.8255717" lon="16.5212883"><ele>433.0</ele><time>2026-04-25T12:35:02.834Z</time></trkpt><trkpt lat="40.825655" lon="16.520995"><ele>433.33333333333337</ele><time>2026-04-25T12:35:03.833Z</time></trkpt><trkpt lat="40.8257267" lon="16.5207183"><ele>433.66666666666663</ele><time>2026-04-25T12:35:04.833Z</time></trkpt><trkpt lat="40.8257917" lon="16.5204567"><ele>434.0</ele><time>2026-04-25T12:35:05.835Z</time></trkpt><trkpt lat="40.825855" lon="16.5201917"><ele>434.0</ele><time>2026-04-25T12:35:06.833Z</time></trkpt><trkpt lat="40.825925" lon="16.5199133"><ele>434.0</ele><time>2026-04-25T12:35:07.835Z</time></trkpt><trkpt lat="40.8259933" lon="16.51962"><ele>432.5</ele><time>2026-04-25T12:35:08.835Z</time></trkpt><trkpt lat="40.8260617" lon="16.5193117"><ele>431.0</ele><time>2026-04-25T12:35:09.834Z</time></trkpt><trkpt lat="40.82613" lon="16.5189917"><ele>430.5</ele><time>2026-04-25T12:35:10.834Z</time></trkpt><trkpt lat="40.826195" lon="16.518665"><ele>430.0</ele><time>2026-04-25T12:35:11.835Z</time></trkpt><trkpt lat="40.8262617" lon="16.5183383"><ele>430.0</ele><time>2026-04-25T12:35:12.834Z</time></trkpt><trkpt lat="40.8263267" lon="16.5180117"><ele>430.0</ele><time>2026-04-25T12:35:13.835Z</time></trkpt><trkpt lat="40.82639" lon="16.51768"><ele>427.5</ele><time>2026-04-25T12:35:14.833Z</time></trkpt><trkpt lat="40.8264517" lon="16.5173483"><ele>425.0</ele><time>2026-04-25T12:35:15.833Z</time></trkpt><trkpt lat="40.826515" lon="16.5170117"><ele>423.0</ele><time>2026-04-25T12:35:16.834Z</time></trkpt><trkpt lat="40.8265783" lon="16.5166817"><ele>421.0</ele><time>2026-04-25T12:35:17.832Z</time></trkpt><trkpt lat="40.8266383" lon="16.516355"><ele>417.5</ele><time>2026-04-25T12:35:18.832Z</time></trkpt><trkpt lat="40.8267" lon="16.5160317"><ele>414.0</ele><time>2026-04-25T12:35:19.833Z</time></trkpt><trkpt lat="40.8267617" lon="16.5157067"><ele>409.5</ele><time>2026-04-25T12:35:20.833Z</time></trkpt><trkpt lat="40.826825" lon="16.5153783"><ele>405.0</ele><time>2026-04-25T12:35:21.833Z</time></trkpt><trkpt lat="40.8268867" lon="16.5150483"><ele>405.0</ele><time>2026-04-25T12:35:22.832Z</time></trkpt><trkpt lat="40.82695" lon="16.5147167"><ele>405.0</ele><time>2026-04-25T12:35:23.834Z</time></trkpt><trkpt lat="40.8270117" lon="16.5143833"><ele>404.5</ele><time>2026-04-25T12:35:24.832Z</time></trkpt><trkpt lat="40.8270733" lon="16.5140517"><ele>404.0</ele><time>2026-04-25T12:35:25.834Z</time></trkpt><trkpt lat="40.8271367" lon="16.5137167"><ele>403.0</ele><time>2026-04-25T12:35:26.834Z</time></trkpt><trkpt lat="40.8271983" lon="16.5133817"><ele>402.0</ele><time>2026-04-25T12:35:27.833Z</time></trkpt><trkpt lat="40.82726" lon="16.513045"><ele>401.5</ele><time>2026-04-25T12:35:28.832Z</time></trkpt><trkpt lat="40.8273217" lon="16.51271"><ele>401.0</ele><time>2026-04-25T12:35:29.832Z</time></trkpt><trkpt lat="40.8273833" lon="16.5123767"><ele>399.5</ele><time>2026-04-25T12:35:30.832Z</time></trkpt><trkpt lat="40.827445" lon="16.512045"><ele>398.0</ele><time>2026-04-25T12:35:31.832Z</time></trkpt><trkpt lat="40.8275083" lon="16.5117167"><ele>398.0</ele><time>2026-04-25T12:35:32.834Z</time></trkpt><trkpt lat="40.8275717" lon="16.5113883"><ele>398.0</ele><time>2026-04-25T12:35:33.832Z</time></trkpt><trkpt lat="40.8276333" lon="16.5110617"><ele>396.0</ele><time>2026-04-25T12:35:34.834Z</time></trkpt><trkpt lat="40.8276933" lon="16.5107333"><ele>394.0</ele><time>2026-04-25T12:35:35.833Z</time></trkpt><trkpt lat="40.827755" lon="16.510405"><ele>393.5</ele><time>2026-04-25T12:35:36.832Z</time></trkpt><trkpt lat="40.8278167" lon="16.5100783"><ele>393.0</ele><time>2026-04-25T12:35:37.833Z</time></trkpt><trkpt lat="40.8278783" lon="16.5097533"><ele>392.5</ele><time>2026-04-25T12:35:38.832Z</time></trkpt><trkpt lat="40.8279383" lon="16.5094283"><ele>392.0</ele><time>2026-04-25T12:35:39.833Z</time></trkpt><trkpt lat="40.8279917" lon="16.5091033"><ele>392.0</ele><time>2026-04-25T12:35:40.832Z</time></trkpt><trkpt lat="40.8280383" lon="16.5087767"><ele>392.0</ele><time>2026-04-25T12:35:41.833Z</time></trkpt><trkpt lat="40.828075" lon="16.50845"><ele>390.0</ele><time>2026-04-25T12:35:42.831Z</time></trkpt><trkpt lat="40.828105" lon="16.5081217"><ele>388.0</ele><time>2026-04-25T12:35:43.832Z</time></trkpt><trkpt lat="40.8281283" lon="16.5077933"><ele>388.0</ele><time>2026-04-25T12:35:44.834Z</time></trkpt><trkpt lat="40.8281467" lon="16.507465"><ele>388.0</ele><time>2026-04-25T12:35:45.833Z</time></trkpt><trkpt lat="40.82816" lon="16.5071367"><ele>388.5</ele><time>2026-04-25T12:35:46.833Z</time></trkpt><trkpt lat="40.8281633" lon="16.5068083"><ele>389.0</ele><time>2026-04-25T12:35:47.833Z</time></trkpt><trkpt lat="40.8281583" lon="16.50648"><ele>389.5</ele><time>2026-04-25T12:35:48.832Z</time></trkpt><trkpt lat="40.828145" lon="16.5061517"><ele>390.0</ele><time>2026-04-25T12:35:49.834Z</time></trkpt><trkpt lat="40.8281267" lon="16.5058217"><ele>390.0</ele><time>2026-04-25T12:35:50.833Z</time></trkpt><trkpt lat="40.8281017" lon="16.5054917"><ele>390.0</ele><time>2026-04-25T12:35:51.834Z</time></trkpt><trkpt lat="40.82807" lon="16.5051633"><ele>390.0</ele><time>2026-04-25T12:35:52.832Z</time></trkpt><trkpt lat="40.8280317" lon="16.504835"><ele>390.0</ele><time>2026-04-25T12:35:53.833Z</time></trkpt><trkpt lat="40.8279867" lon="16.5045067"><ele>390.5</ele><time>2026-04-25T12:35:54.832Z</time></trkpt><trkpt lat="40.8279333" lon="16.50418"><ele>391.0</ele><time>2026-04-25T12:35:55.833Z</time></trkpt><trkpt lat="40.827875" lon="16.5038533"><ele>390.5</ele><time>2026-04-25T12:35:56.834Z</time></trkpt><trkpt lat="40.8278083" lon="16.5035283"><ele>390.0</ele><time>2026-04-25T12:35:57.833Z</time></trkpt><trkpt lat="40.8277417" lon="16.5032133"><ele>390.0</ele><time>2026-04-25T12:35:58.832Z</time></trkpt><trkpt lat="40.8276733" lon="16.502905"><ele>390.0</ele><time>2026-04-25T12:35:59.833Z</time></trkpt><trkpt lat="40.827605" lon="16.5025883"><ele>389.5</ele><time>2026-04-25T12:36:00.833Z</time></trkpt><trkpt lat="40.8275367" lon="16.5022617"><ele>389.0</ele><time>2026-04-25T12:36:01.832Z</time></trkpt><trkpt lat="40.8274667" lon="16.5019233"><ele>389.0</ele><time>2026-04-25T12:36:02.833Z</time></trkpt><trkpt lat="40.827395" lon="16.5015783"><ele>389.0</ele><time>2026-04-25T12:36:03.831Z</time></trkpt><trkpt lat="40.82732" lon="16.5012283"><ele>388.5</ele><time>2026-04-25T12:36:04.832Z</time></trkpt><trkpt lat="40.8272467" lon="16.50088"><ele>388.0</ele><time>2026-04-25T12:36:05.834Z</time></trkpt><trkpt lat="40.827175" lon="16.5005317"><ele>388.5</ele><time>2026-04-25T12:36:06.833Z</time></trkpt><trkpt lat="40.827105" lon="16.5001867"><ele>389.0</ele><time>2026-04-25T12:36:07.832Z</time></trkpt><trkpt lat="40.8270333" lon="16.4998433"><ele>388.0</ele><time>2026-04-25T12:36:08.833Z</time></trkpt><trkpt lat="40.8269633" lon="16.4995017"><ele>387.0</ele><time>2026-04-25T12:36:09.833Z</time></trkpt><trkpt lat="40.8268917" lon="16.4991633"><ele>387.0</ele><time>2026-04-25T12:36:10.832Z</time></trkpt><trkpt lat="40.82682" lon="16.4988217"><ele>387.0</ele><time>2026-04-25T12:36:11.832Z</time></trkpt><trkpt lat="40.8267483" lon="16.4984817"><ele>388.0</ele><time>2026-04-25T12:36:12.832Z</time></trkpt><trkpt lat="40.8266767" lon="16.4981433"><ele>389.0</ele><time>2026-04-25T12:36:13.833Z</time></trkpt><trkpt lat="40.8266033" lon="16.4978133"><ele>389.0</ele><time>2026-04-25T12:36:14.834Z</time></trkpt><trkpt lat="40.8265283" lon="16.49748"><ele>389.0</ele><time>2026-04-25T12:36:15.833Z</time></trkpt><trkpt lat="40.82645" lon="16.4971383"><ele>389.5</ele><time>2026-04-25T12:36:16.832Z</time></trkpt><trkpt lat="40.8263783" lon="16.4967883"><ele>390.0</ele><time>2026-04-25T12:36:17.834Z</time></trkpt><trkpt lat="40.8263117" lon="16.4964367"><ele>390.5</ele><time>2026-04-25T12:36:18.834Z</time></trkpt><trkpt lat="40.8262433" lon="16.4960867"><ele>391.0</ele><time>2026-04-25T12:36:19.834Z</time></trkpt><trkpt lat="40.8261717" lon="16.4957417"><ele>391.0</ele><time>2026-04-25T12:36:20.836Z</time></trkpt><trkpt lat="40.8261" lon="16.495405"><ele>391.0</ele><time>2026-04-25T12:36:21.833Z</time></trkpt><trkpt lat="40.8260283" lon="16.4950717"><ele>391.0</ele><time>2026-04-25T12:36:22.832Z</time></trkpt><trkpt lat="40.8259583" lon="16.4947433"><ele>391.0</ele><time>2026-04-25T12:36:23.833Z</time></trkpt><trkpt lat="40.82589" lon="16.494415"><ele>391.0</ele><time>2026-04-25T12:36:24.833Z</time></trkpt><trkpt lat="40.82582" lon="16.4940867"><ele>391.0</ele><time>2026-04-25T12:36:25.835Z</time></trkpt><trkpt lat="40.82575" lon="16.4937583"><ele>391.0</ele><time>2026-04-25T12:36:26.834Z</time></trkpt><trkpt lat="40.82568" lon="16.4934317"><ele>391.0</ele><time>2026-04-25T12:36:27.834Z</time></trkpt><trkpt lat="40.82561" lon="16.4931033"><ele>391.0</ele><time>2026-04-25T12:36:28.832Z</time></trkpt><trkpt lat="40.8255383" lon="16.4927717"><ele>391.0</ele><time>2026-04-25T12:36:29.834Z</time></trkpt><trkpt lat="40.82547" lon="16.4924417"><ele>391.0</ele><time>2026-04-25T12:36:30.832Z</time></trkpt><trkpt lat="40.8254017" lon="16.49211"><ele>391.0</ele><time>2026-04-25T12:36:31.834Z</time></trkpt><trkpt lat="40.8253333" lon="16.4917783"><ele>390.5</ele><time>2026-04-25T12:36:32.834Z</time></trkpt><trkpt lat="40.8252617" lon="16.4914467"><ele>390.0</ele><time>2026-04-25T12:36:33.833Z</time></trkpt><trkpt lat="40.82519" lon="16.491115"><ele>391.0</ele><time>2026-04-25T12:36:34.833Z</time></trkpt><trkpt lat="40.8251167" lon="16.4907817"><ele>392.0</ele><time>2026-04-25T12:36:35.833Z</time></trkpt><trkpt lat="40.8250483" lon="16.4904517"><ele>391.5</ele><time>2026-04-25T12:36:36.832Z</time></trkpt><trkpt lat="40.82498" lon="16.49012"><ele>391.0</ele><time>2026-04-25T12:36:37.834Z</time></trkpt><trkpt lat="40.8249117" lon="16.4897933"><ele>390.5</ele><time>2026-04-25T12:36:38.835Z</time></trkpt><trkpt lat="40.8248417" lon="16.489465"><ele>390.0</ele><time>2026-04-25T12:36:39.834Z</time></trkpt><trkpt lat="40.8247717" lon="16.4891383"><ele>390.0</ele><time>2026-04-25T12:36:40.835Z</time></trkpt><trkpt lat="40.8247033" lon="16.4888117"><ele>390.0</ele><time>2026-04-25T12:36:41.835Z</time></trkpt><trkpt lat="40.824635" lon="16.4884817"><ele>389.0</ele><time>2026-04-25T12:36:42.834Z</time></trkpt><trkpt lat="40.824565" lon="16.48815"><ele>388.0</ele><time>2026-04-25T12:36:43.835Z</time></trkpt><trkpt lat="40.824495" lon="16.4878167"><ele>387.0</ele><time>2026-04-25T12:36:44.834Z</time></trkpt><trkpt lat="40.8244267" lon="16.4874817"><ele>386.0</ele><time>2026-04-25T12:36:45.834Z</time></trkpt><trkpt lat="40.8243583" lon="16.487145"><ele>384.5</ele><time>2026-04-25T12:36:46.832Z</time></trkpt><trkpt lat="40.8242883" lon="16.4868067"><ele>383.0</ele><time>2026-04-25T12:36:47.833Z</time></trkpt><trkpt lat="40.824215" lon="16.4864667"><ele>383.0</ele><time>2026-04-25T12:36:48.833Z</time></trkpt><trkpt lat="40.8241417" lon="16.4861283"><ele>383.0</ele><time>2026-04-25T12:36:49.834Z</time></trkpt><trkpt lat="40.82407" lon="16.48579"><ele>383.0</ele><time>2026-04-25T12:36:50.834Z</time></trkpt><trkpt lat="40.8239983" lon="16.4854533"><ele>383.0</ele><time>2026-04-25T12:36:51.833Z</time></trkpt><trkpt lat="40.8239283" lon="16.48512"><ele>384.0</ele><time>2026-04-25T12:36:52.833Z</time></trkpt><trkpt lat="40.8238583" lon="16.4847867"><ele>385.0</ele><time>2026-04-25T12:36:53.833Z</time></trkpt><trkpt lat="40.8237883" lon="16.4844567"><ele>386.5</ele><time>2026-04-25T12:36:54.833Z</time></trkpt><trkpt lat="40.82372" lon="16.4841283"><ele>388.0</ele><time>2026-04-25T12:36:55.832Z</time></trkpt><trkpt lat="40.82365" lon="16.4837983"><ele>390.0</ele><time>2026-04-25T12:36:56.832Z</time></trkpt><trkpt lat="40.82358" lon="16.48347"><ele>392.0</ele><time>2026-04-25T12:36:57.832Z</time></trkpt><trkpt lat="40.82351" lon="16.4831417"><ele>391.5</ele><time>2026-04-25T12:36:58.833Z</time></trkpt><trkpt lat="40.8234433" lon="16.4828167"><ele>391.0</ele><time>2026-04-25T12:36:59.835Z</time></trkpt><trkpt lat="40.8233733" lon="16.48249"><ele>391.0</ele><time>2026-04-25T12:37:00.833Z</time></trkpt><trkpt lat="40.8233033" lon="16.482165"><ele>391.0</ele><time>2026-04-25T12:37:01.831Z</time></trkpt><trkpt lat="40.8232333" lon="16.4818383"><ele>392.0</ele><time>2026-04-25T12:37:02.833Z</time></trkpt><trkpt lat="40.8231667" lon="16.4815133"><ele>393.0</ele><time>2026-04-25T12:37:03.832Z</time></trkpt><trkpt lat="40.8231" lon="16.4811867"><ele>395.5</ele><time>2026-04-25T12:37:04.832Z</time></trkpt><trkpt lat="40.8230317" lon="16.48086"><ele>398.0</ele><time>2026-04-25T12:37:05.834Z</time></trkpt><trkpt lat="40.8229633" lon="16.4805317"><ele>399.0</ele><time>2026-04-25T12:37:06.833Z</time></trkpt><trkpt lat="40.822895" lon="16.4802033"><ele>400.0</ele><time>2026-04-25T12:37:07.833Z</time></trkpt><trkpt lat="40.8228283" lon="16.4798733"><ele>399.0</ele><time>2026-04-25T12:37:08.833Z</time></trkpt><trkpt lat="40.82276" lon="16.4795417"><ele>398.0</ele><time>2026-04-25T12:37:09.832Z</time></trkpt><trkpt lat="40.8226917" lon="16.47921"><ele>396.0</ele><time>2026-04-25T12:37:10.832Z</time></trkpt><trkpt lat="40.822625" lon="16.4788783"><ele>394.0</ele><time>2026-04-25T12:37:11.834Z</time></trkpt><trkpt lat="40.8225617" lon="16.4785417"><ele>393.5</ele><time>2026-04-25T12:37:12.832Z</time></trkpt><trkpt lat="40.8225017" lon="16.4782017"><ele>393.0</ele><time>2026-04-25T12:37:13.833Z</time></trkpt><trkpt lat="40.8224483" lon="16.4778567"><ele>392.5</ele><time>2026-04-25T12:37:14.833Z</time></trkpt><trkpt lat="40.8224017" lon="16.47751"><ele>392.0</ele><time>2026-04-25T12:37:15.833Z</time></trkpt><trkpt lat="40.82236" lon="16.4771617"><ele>391.0</ele><time>2026-04-25T12:37:16.833Z</time></trkpt><trkpt lat="40.822325" lon="16.4768133"><ele>390.0</ele><time>2026-04-25T12:37:17.833Z</time></trkpt><trkpt lat="40.8222933" lon="16.4764683"><ele>388.5</ele><time>2026-04-25T12:37:18.833Z</time></trkpt><trkpt lat="40.8222617" lon="16.47612"><ele>387.0</ele><time>2026-04-25T12:37:19.833Z</time></trkpt><trkpt lat="40.82223" lon="16.475775"><ele>387.5</ele><time>2026-04-25T12:37:20.833Z</time></trkpt><trkpt lat="40.8221983" lon="16.47543"><ele>388.0</ele><time>2026-04-25T12:37:21.834Z</time></trkpt><trkpt lat="40.822165" lon="16.4750867"><ele>388.0</ele><time>2026-04-25T12:37:22.833Z</time></trkpt><trkpt lat="40.8221317" lon="16.4747433"><ele>388.0</ele><time>2026-04-25T12:37:23.833Z</time></trkpt><trkpt lat="40.8220967" lon="16.4744017"><ele>387.5</ele><time>2026-04-25T12:37:24.834Z</time></trkpt><trkpt lat="40.8220583" lon="16.4740583"><ele>387.0</ele><time>2026-04-25T12:37:25.833Z</time></trkpt><trkpt lat="40.822025" lon="16.4737167"><ele>388.0</ele><time>2026-04-25T12:37:26.833Z</time></trkpt><trkpt lat="40.8219933" lon="16.473375"><ele>389.0</ele><time>2026-04-25T12:37:27.832Z</time></trkpt><trkpt lat="40.8219617" lon="16.473035"><ele>390.0</ele><time>2026-04-25T12:37:28.833Z</time></trkpt><trkpt lat="40.82193" lon="16.4726967"><ele>391.0</ele><time>2026-04-25T12:37:29.831Z</time></trkpt><trkpt lat="40.8218967" lon="16.47236"><ele>390.5</ele><time>2026-04-25T12:37:30.832Z</time></trkpt><trkpt lat="40.8218683" lon="16.4720217"><ele>390.0</ele><time>2026-04-25T12:37:31.832Z</time></trkpt><trkpt lat="40.821845" lon="16.4716933"><ele>390.0</ele><time>2026-04-25T12:37:32.833Z</time></trkpt><trkpt lat="40.8218233" lon="16.4713817"><ele>390.0</ele><time>2026-04-25T12:37:33.832Z</time></trkpt><trkpt lat="40.8217983" lon="16.47108"><ele>390.0</ele><time>2026-04-25T12:37:34.832Z</time></trkpt><trkpt lat="40.821775" lon="16.4707933"><ele>390.0</ele><time>2026-04-25T12:37:35.835Z</time></trkpt><trkpt lat="40.8217517" lon="16.470525"><ele>390.0</ele><time>2026-04-25T12:37:36.833Z</time></trkpt><trkpt lat="40.82173" lon="16.4702683"><ele>390.0</ele><time>2026-04-25T12:37:37.833Z</time></trkpt><trkpt lat="40.82171" lon="16.470025"><ele>390.0</ele><time>2026-04-25T12:37:38.833Z</time></trkpt><trkpt lat="40.8216917" lon="16.469795"><ele>390.0</ele><time>2026-04-25T12:37:39.832Z</time></trkpt><trkpt lat="40.8216717" lon="16.4695767"><ele>390.5</ele><time>2026-04-25T12:37:40.832Z</time></trkpt><trkpt lat="40.8216517" lon="16.46937"><ele>391.0</ele><time>2026-04-25T12:37:41.833Z</time></trkpt><trkpt lat="40.8216317" lon="16.469185"><ele>391.5</ele><time>2026-04-25T12:37:42.833Z</time></trkpt><trkpt lat="40.82161" lon="16.46902"><ele>392.0</ele><time>2026-04-25T12:37:43.833Z</time></trkpt><trkpt lat="40.821585" lon="16.468865"><ele>391.8</ele><time>2026-04-25T12:37:44.833Z</time></trkpt><trkpt lat="40.821565" lon="16.468715"><ele>391.6</ele><time>2026-04-25T12:37:45.833Z</time></trkpt><trkpt lat="40.821555" lon="16.46858"><ele>391.40000000000003</ele><time>2026-04-25T12:37:46.833Z</time></trkpt><trkpt lat="40.8215433" lon="16.4684567"><ele>391.20000000000005</ele><time>2026-04-25T12:37:47.833Z</time></trkpt><trkpt lat="40.8215283" lon="16.4683217"><ele>391.0</ele><time>2026-04-25T12:37:48.833Z</time></trkpt><trkpt lat="40.8215183" lon="16.46816"><ele>391.0</ele><time>2026-04-25T12:37:49.835Z</time></trkpt><trkpt lat="40.8215117" lon="16.4679667"><ele>391.0</ele><time>2026-04-25T12:37:50.833Z</time></trkpt><trkpt lat="40.8214967" lon="16.4677367"><ele>391.0</ele><time>2026-04-25T12:37:51.837Z</time></trkpt><trkpt lat="40.821475" lon="16.46748"><ele>390.6666666666667</ele><time>2026-04-25T12:37:52.833Z</time></trkpt><trkpt lat="40.8214483" lon="16.4672083"><ele>390.33333333333337</ele><time>2026-04-25T12:37:53.833Z</time></trkpt><trkpt lat="40.82142" lon="16.4669133"><ele>390.0</ele><time>2026-04-25T12:37:54.834Z</time></trkpt><trkpt lat="40.8213933" lon="16.466605"><ele>390.0</ele><time>2026-04-25T12:37:55.834Z</time></trkpt><trkpt lat="40.8213633" lon="16.4662867"><ele>390.0</ele><time>2026-04-25T12:37:56.833Z</time></trkpt><trkpt lat="40.8213333" lon="16.4659533"><ele>390.0</ele><time>2026-04-25T12:37:57.832Z</time></trkpt><trkpt lat="40.8213033" lon="16.46561"><ele>390.0</ele><time>2026-04-25T12:37:58.833Z</time></trkpt><trkpt lat="40.8212717" lon="16.4652733"><ele>391.0</ele><time>2026-04-25T12:37:59.834Z</time></trkpt><trkpt lat="40.82124" lon="16.46494"><ele>392.0</ele><time>2026-04-25T12:38:00.832Z</time></trkpt><trkpt lat="40.8212083" lon="16.46461"><ele>392.5</ele><time>2026-04-25T12:38:01.832Z</time></trkpt><trkpt lat="40.821175" lon="16.4642833"><ele>393.0</ele><time>2026-04-25T12:38:02.833Z</time></trkpt><trkpt lat="40.8211433" lon="16.46396"><ele>393.0</ele><time>2026-04-25T12:38:03.833Z</time></trkpt><trkpt lat="40.8211133" lon="16.4636417"><ele>393.0</ele><time>2026-04-25T12:38:04.833Z</time></trkpt><trkpt lat="40.8210833" lon="16.4633267"><ele>393.0</ele><time>2026-04-25T12:38:05.833Z</time></trkpt><trkpt lat="40.8210533" lon="16.4630133"><ele>393.0</ele><time>2026-04-25T12:38:06.833Z</time></trkpt><trkpt lat="40.821025" lon="16.4627"><ele>393.5</ele><time>2026-04-25T12:38:07.834Z</time></trkpt><trkpt lat="40.8209967" lon="16.4623883"><ele>394.0</ele><time>2026-04-25T12:38:08.833Z</time></trkpt><trkpt lat="40.8209683" lon="16.462075"><ele>394.0</ele><time>2026-04-25T12:38:09.833Z</time></trkpt><trkpt lat="40.8209383" lon="16.461765"><ele>394.0</ele><time>2026-04-25T12:38:10.832Z</time></trkpt><trkpt lat="40.82091" lon="16.4614533"><ele>394.0</ele><time>2026-04-25T12:38:11.832Z</time></trkpt><trkpt lat="40.8208783" lon="16.4611417"><ele>394.0</ele><time>2026-04-25T12:38:12.834Z</time></trkpt><trkpt lat="40.8208483" lon="16.4608283"><ele>394.0</ele><time>2026-04-25T12:38:13.833Z</time></trkpt><trkpt lat="40.8208217" lon="16.4605133"><ele>394.0</ele><time>2026-04-25T12:38:14.834Z</time></trkpt><trkpt lat="40.8207933" lon="16.4601983"><ele>394.0</ele><time>2026-04-25T12:38:15.833Z</time></trkpt><trkpt lat="40.8207633" lon="16.4598817"><ele>394.0</ele><time>2026-04-25T12:38:16.832Z</time></trkpt><trkpt lat="40.82073" lon="16.4595667"><ele>395.0</ele><time>2026-04-25T12:38:17.833Z</time></trkpt><trkpt lat="40.8206967" lon="16.4592517"><ele>396.0</ele><time>2026-04-25T12:38:18.833Z</time></trkpt><trkpt lat="40.8206606" lon="16.4589367"><ele>396.5</ele><time>2026-04-25T12:38:19.833Z</time></trkpt><trkpt lat="40.820622" lon="16.4586227"><ele>397.0</ele><time>2026-04-25T12:38:20.834Z</time></trkpt><trkpt lat="40.8205729" lon="16.458311"><ele>397.0</ele><time>2026-04-25T12:38:21.833Z</time></trkpt><trkpt lat="40.8205116" lon="16.4580083"><ele>397.0</ele><time>2026-04-25T12:38:22.833Z</time></trkpt><trkpt lat="40.8204359" lon="16.4577101"><ele>397.5</ele><time>2026-04-25T12:38:23.834Z</time></trkpt><trkpt lat="40.8203455" lon="16.4574173"><ele>398.0</ele><time>2026-04-25T12:38:24.832Z</time></trkpt><trkpt lat="40.820239" lon="16.4571305"><ele>398.0</ele><time>2026-04-25T12:38:25.833Z</time></trkpt><trkpt lat="40.8201193" lon="16.456854"><ele>398.0</ele><time>2026-04-25T12:38:26.834Z</time></trkpt><trkpt lat="40.8199858" lon="16.4565863"><ele>398.0</ele><time>2026-04-25T12:38:27.833Z</time></trkpt><trkpt lat="40.8198384" lon="16.4563288"><ele>398.0</ele><time>2026-04-25T12:38:28.833Z</time></trkpt><trkpt lat="40.819674" lon="16.4560845"><ele>398.0</ele><time>2026-04-25T12:38:29.833Z</time></trkpt><trkpt lat="40.8194927" lon="16.4558551"><ele>398.0</ele><time>2026-04-25T12:38:30.833Z</time></trkpt><trkpt lat="40.8192974" lon="16.455639"><ele>399.0</ele><time>2026-04-25T12:38:31.835Z</time></trkpt><trkpt lat="40.8190903" lon="16.4554412"><ele>400.0</ele><time>2026-04-25T12:38:32.835Z</time></trkpt><trkpt lat="40.8188745" lon="16.4552627"><ele>400.0</ele><time>2026-04-25T12:38:33.833Z</time></trkpt><trkpt lat="40.8186531" lon="16.4550996"><ele>400.0</ele><time>2026-04-25T12:38:34.833Z</time></trkpt><trkpt lat="40.8184275" lon="16.4549405"><ele>400.5</ele><time>2026-04-25T12:38:35.833Z</time></trkpt><trkpt lat="40.8182045" lon="16.4547798"><ele>401.0</ele><time>2026-04-25T12:38:36.833Z</time></trkpt><trkpt lat="40.8179828" lon="16.4546222"><ele>401.0</ele><time>2026-04-25T12:38:37.833Z</time></trkpt><trkpt lat="40.8177617" lon="16.4544668"><ele>401.0</ele><time>2026-04-25T12:38:38.834Z</time></trkpt><trkpt lat="40.8175404" lon="16.4543117"><ele>401.5</ele><time>2026-04-25T12:38:39.833Z</time></trkpt><trkpt lat="40.8173188" lon="16.4541568"><ele>402.0</ele><time>2026-04-25T12:38:40.832Z</time></trkpt><trkpt lat="40.8170962" lon="16.4540041"><ele>402.0</ele><time>2026-04-25T12:38:41.832Z</time></trkpt><trkpt lat="40.8168705" lon="16.4538487"><ele>402.0</ele><time>2026-04-25T12:38:42.832Z</time></trkpt><trkpt lat="40.8166447" lon="16.4536942"><ele>403.0</ele><time>2026-04-25T12:38:43.832Z</time></trkpt><trkpt lat="40.8164222" lon="16.453542"><ele>404.0</ele><time>2026-04-25T12:38:44.832Z</time></trkpt><trkpt lat="40.8162014" lon="16.4533922"><ele>404.5</ele><time>2026-04-25T12:38:45.832Z</time></trkpt><trkpt lat="40.8159795" lon="16.4532383"><ele>405.0</ele><time>2026-04-25T12:38:46.832Z</time></trkpt><trkpt lat="40.8157553" lon="16.4530781"><ele>406.0</ele><time>2026-04-25T12:38:47.833Z</time></trkpt><trkpt lat="40.8155285" lon="16.4529121"><ele>407.0</ele><time>2026-04-25T12:38:48.833Z</time></trkpt><trkpt lat="40.8153" lon="16.4527517"><ele>408.0</ele><time>2026-04-25T12:38:49.832Z</time></trkpt><trkpt lat="40.8150686" lon="16.4525931"><ele>409.0</ele><time>2026-04-25T12:38:50.833Z</time></trkpt><trkpt lat="40.8148366" lon="16.4524321"><ele>409.0</ele><time>2026-04-25T12:38:51.832Z</time></trkpt><trkpt lat="40.8146067" lon="16.4522683"><ele>409.0</ele><time>2026-04-25T12:38:52.833Z</time></trkpt><trkpt lat="40.814375" lon="16.452105"><ele>409.5</ele><time>2026-04-25T12:38:53.834Z</time></trkpt><trkpt lat="40.8141417" lon="16.45194"><ele>410.0</ele><time>2026-04-25T12:38:54.833Z</time></trkpt><trkpt lat="40.81391" lon="16.4517733"><ele>410.0</ele><time>2026-04-25T12:38:55.833Z</time></trkpt><trkpt lat="40.8136767" lon="16.451605"><ele>410.0</ele><time>2026-04-25T12:38:56.834Z</time></trkpt><trkpt lat="40.8134433" lon="16.4514333"><ele>410.0</ele><time>2026-04-25T12:38:57.834Z</time></trkpt><trkpt lat="40.8132133" lon="16.4512633"><ele>410.0</ele><time>2026-04-25T12:38:58.833Z</time></trkpt><trkpt lat="40.812985" lon="16.451095"><ele>410.0</ele><time>2026-04-25T12:38:59.833Z</time></trkpt><trkpt lat="40.8127583" lon="16.4509267"><ele>410.0</ele><time>2026-04-25T12:39:00.834Z</time></trkpt><trkpt lat="40.8125333" lon="16.4507617"><ele>412.5</ele><time>2026-04-25T12:39:01.839Z</time></trkpt><trkpt lat="40.8123083" lon="16.450595"><ele>415.0</ele><time>2026-04-25T12:39:02.835Z</time></trkpt><trkpt lat="40.8120817" lon="16.4504283"><ele>416.0</ele><time>2026-04-25T12:39:03.832Z</time></trkpt><trkpt lat="40.8118583" lon="16.4502617"><ele>417.0</ele><time>2026-04-25T12:39:04.834Z</time></trkpt><trkpt lat="40.8116333" lon="16.4500967"><ele>418.5</ele><time>2026-04-25T12:39:05.835Z</time></trkpt><trkpt lat="40.8114083" lon="16.44993"><ele>420.0</ele><time>2026-04-25T12:39:06.832Z</time></trkpt><trkpt lat="40.8111817" lon="16.4497617"><ele>420.0</ele><time>2026-04-25T12:39:07.833Z</time></trkpt><trkpt lat="40.810955" lon="16.4495917"><ele>420.0</ele><time>2026-04-25T12:39:08.833Z</time></trkpt><trkpt lat="40.8107267" lon="16.4494217"><ele>420.0</ele><time>2026-04-25T12:39:09.832Z</time></trkpt><trkpt lat="40.8104983" lon="16.44925"><ele>420.0</ele><time>2026-04-25T12:39:10.832Z</time></trkpt><trkpt lat="40.8102717" lon="16.4490783"><ele>420.0</ele><time>2026-04-25T12:39:11.832Z</time></trkpt><trkpt lat="40.8100467" lon="16.4489017"><ele>420.0</ele><time>2026-04-25T12:39:12.832Z</time></trkpt><trkpt lat="40.80983" lon="16.4487133"><ele>420.5</ele><time>2026-04-25T12:39:13.833Z</time></trkpt><trkpt lat="40.8096183" lon="16.448515"><ele>421.0</ele><time>2026-04-25T12:39:14.834Z</time></trkpt><trkpt lat="40.8094133" lon="16.448305"><ele>420.0</ele><time>2026-04-25T12:39:15.832Z</time></trkpt><trkpt lat="40.8092167" lon="16.4480867"><ele>419.0</ele><time>2026-04-25T12:39:16.833Z</time></trkpt><trkpt lat="40.809025" lon="16.4478567"><ele>419.0</ele><time>2026-04-25T12:39:17.834Z</time></trkpt><trkpt lat="40.80884" lon="16.4476183"><ele>419.0</ele><time>2026-04-25T12:39:18.832Z</time></trkpt><trkpt lat="40.8086583" lon="16.4473717"><ele>419.0</ele><time>2026-04-25T12:39:19.834Z</time></trkpt><trkpt lat="40.8084833" lon="16.447115"><ele>419.0</ele><time>2026-04-25T12:39:20.834Z</time></trkpt><trkpt lat="40.808315" lon="16.4468467"><ele>419.0</ele><time>2026-04-25T12:39:21.833Z</time></trkpt><trkpt lat="40.8081517" lon="16.4465733"><ele>419.0</ele><time>2026-04-25T12:39:22.832Z</time></trkpt><trkpt lat="40.80799" lon="16.446295"><ele>420.5</ele><time>2026-04-25T12:39:23.833Z</time></trkpt><trkpt lat="40.8078283" lon="16.446015"><ele>422.0</ele><time>2026-04-25T12:39:24.833Z</time></trkpt><trkpt lat="40.8076683" lon="16.4457367"><ele>420.0</ele><time>2026-04-25T12:39:25.834Z</time></trkpt><trkpt lat="40.8075083" lon="16.4454617"><ele>418.0</ele><time>2026-04-25T12:39:26.834Z</time></trkpt><trkpt lat="40.8073517" lon="16.44519"><ele>418.0</ele><time>2026-04-25T12:39:27.833Z</time></trkpt><trkpt lat="40.8072" lon="16.4449233"><ele>418.0</ele><time>2026-04-25T12:39:28.833Z</time></trkpt><trkpt lat="40.8070533" lon="16.4446517"><ele>420.5</ele><time>2026-04-25T12:39:29.832Z</time></trkpt><trkpt lat="40.8069283" lon="16.444385"><ele>423.0</ele><time>2026-04-25T12:39:30.832Z</time></trkpt><trkpt lat="40.8067967" lon="16.4441183"><ele>423.0</ele><time>2026-04-25T12:39:31.833Z</time></trkpt><trkpt lat="40.8066467" lon="16.4438383"><ele>423.0</ele><time>2026-04-25T12:39:32.834Z</time></trkpt><trkpt lat="40.8065067" lon="16.443565"><ele>423.5</ele><time>2026-04-25T12:39:33.832Z</time></trkpt><trkpt lat="40.8063667" lon="16.44329"><ele>424.0</ele><time>2026-04-25T12:39:34.832Z</time></trkpt><trkpt lat="40.8062267" lon="16.4430133"><ele>424.5</ele><time>2026-04-25T12:39:35.832Z</time></trkpt><trkpt lat="40.8060867" lon="16.4427333"><ele>425.0</ele><time>2026-04-25T12:39:36.832Z</time></trkpt><trkpt lat="40.8059483" lon="16.4424483"><ele>425.0</ele><time>2026-04-25T12:39:37.832Z</time></trkpt><trkpt lat="40.8058067" lon="16.4421667"><ele>425.0</ele><time>2026-04-25T12:39:38.832Z</time></trkpt><trkpt lat="40.805665" lon="16.4418817"><ele>425.0</ele><time>2026-04-25T12:39:39.833Z</time></trkpt><trkpt lat="40.8038812" lon="16.4389646"><ele>384.0</ele><time>2026-04-25T12:39:49.844Z</time></trkpt><trkpt lat="40.8034933" lon="16.437175"><ele>381.0</ele><time>2026-04-25T12:39:55.831Z</time></trkpt><trkpt lat="40.803435" lon="16.4368333"><ele>378.0</ele><time>2026-04-25T12:39:56.833Z</time></trkpt><trkpt lat="40.803395" lon="16.43649"><ele>376.5</ele><time>2026-04-25T12:39:57.832Z</time></trkpt><trkpt lat="40.803365" lon="16.43615"><ele>375.0</ele><time>2026-04-25T12:39:58.832Z</time></trkpt><trkpt lat="40.8033417" lon="16.43581"><ele>372.5</ele><time>2026-04-25T12:39:59.831Z</time></trkpt><trkpt lat="40.8033283" lon="16.43547"><ele>370.0</ele><time>2026-04-25T12:40:00.832Z</time></trkpt><trkpt lat="40.803325" lon="16.4351317"><ele>370.0</ele><time>2026-04-25T12:40:01.831Z</time></trkpt><trkpt lat="40.80333" lon="16.4347983"><ele>370.0</ele><time>2026-04-25T12:40:02.833Z</time></trkpt><trkpt lat="40.8033467" lon="16.4344717"><ele>368.0</ele><time>2026-04-25T12:40:03.832Z</time></trkpt><trkpt lat="40.8033733" lon="16.434145"><ele>366.0</ele><time>2026-04-25T12:40:04.833Z</time></trkpt><trkpt lat="40.8034067" lon="16.43382"><ele>364.5</ele><time>2026-04-25T12:40:05.832Z</time></trkpt><trkpt lat="40.8034467" lon="16.4334933"><ele>363.0</ele><time>2026-04-25T12:40:06.831Z</time></trkpt><trkpt lat="40.8034967" lon="16.4331667"><ele>370.0</ele><time>2026-04-25T12:40:07.836Z</time></trkpt><trkpt lat="40.8035567" lon="16.4328417"><ele>377.0</ele><time>2026-04-25T12:40:08.833Z</time></trkpt><trkpt lat="40.8036267" lon="16.4325167"><ele>377.0</ele><time>2026-04-25T12:40:09.832Z</time></trkpt><trkpt lat="40.8037083" lon="16.432195"><ele>377.0</ele><time>2026-04-25T12:40:10.833Z</time></trkpt><trkpt lat="40.8038017" lon="16.4318783"><ele>375.0</ele><time>2026-04-25T12:40:11.833Z</time></trkpt><trkpt lat="40.8039" lon="16.4315617"><ele>373.0</ele><time>2026-04-25T12:40:12.832Z</time></trkpt><trkpt lat="40.8039983" lon="16.4312433"><ele>369.5</ele><time>2026-04-25T12:40:13.834Z</time></trkpt><trkpt lat="40.8040933" lon="16.4309233"><ele>366.0</ele><time>2026-04-25T12:40:14.834Z</time></trkpt><trkpt lat="40.8041867" lon="16.4306017"><ele>368.5</ele><time>2026-04-25T12:40:15.834Z</time></trkpt><trkpt lat="40.8042817" lon="16.4302817"><ele>371.0</ele><time>2026-04-25T12:40:16.832Z</time></trkpt><trkpt lat="40.804375" lon="16.4299633"><ele>371.0</ele><time>2026-04-25T12:40:17.833Z</time></trkpt><trkpt lat="40.8044667" lon="16.4296467"><ele>371.0</ele><time>2026-04-25T12:40:18.833Z</time></trkpt><trkpt lat="40.8045567" lon="16.4293333"><ele>366.0</ele><time>2026-04-25T12:40:19.833Z</time></trkpt><trkpt lat="40.8046467" lon="16.4290183"><ele>361.0</ele><time>2026-04-25T12:40:20.834Z</time></trkpt><trkpt lat="40.804735" lon="16.4287067"><ele>357.5</ele><time>2026-04-25T12:40:21.833Z</time></trkpt><trkpt lat="40.8048233" lon="16.4283967"><ele>354.0</ele><time>2026-04-25T12:40:22.832Z</time></trkpt><trkpt lat="40.8049117" lon="16.4280883"><ele>350.0</ele><time>2026-04-25T12:40:23.833Z</time></trkpt><trkpt lat="40.805" lon="16.42778"><ele>346.0</ele><time>2026-04-25T12:40:24.832Z</time></trkpt><trkpt lat="40.8050867" lon="16.42747"><ele>344.0</ele><time>2026-04-25T12:40:25.832Z</time></trkpt><trkpt lat="40.80517" lon="16.4271583"><ele>342.0</ele><time>2026-04-25T12:40:26.833Z</time></trkpt><trkpt lat="40.805245" lon="16.426845"><ele>342.0</ele><time>2026-04-25T12:40:27.833Z</time></trkpt><trkpt lat="40.8053133" lon="16.4265283"><ele>342.0</ele><time>2026-04-25T12:40:28.833Z</time></trkpt><trkpt lat="40.8053733" lon="16.4262067"><ele>339.5</ele><time>2026-04-25T12:40:29.833Z</time></trkpt><trkpt lat="40.8054267" lon="16.4258817"><ele>337.0</ele><time>2026-04-25T12:40:30.832Z</time></trkpt><trkpt lat="40.80547" lon="16.4255517"><ele>335.0</ele><time>2026-04-25T12:40:31.833Z</time></trkpt><trkpt lat="40.805505" lon="16.4252183"><ele>333.0</ele><time>2026-04-25T12:40:32.833Z</time></trkpt><trkpt lat="40.80553" lon="16.424885"><ele>331.0</ele><time>2026-04-25T12:40:33.832Z</time></trkpt><trkpt lat="40.8055483" lon="16.42455"><ele>329.0</ele><time>2026-04-25T12:40:34.831Z</time></trkpt><trkpt lat="40.8055583" lon="16.424215"><ele>329.0</ele><time>2026-04-25T12:40:35.832Z</time></trkpt><trkpt lat="40.8055583" lon="16.42388"><ele>329.0</ele><time>2026-04-25T12:40:36.833Z</time></trkpt><trkpt lat="40.80555" lon="16.423545"><ele>326.5</ele><time>2026-04-25T12:40:37.834Z</time></trkpt><trkpt lat="40.80553" lon="16.4232083"><ele>324.0</ele><time>2026-04-25T12:40:38.834Z</time></trkpt><trkpt lat="40.8055017" lon="16.422875"><ele>320.5</ele><time>2026-04-25T12:40:39.832Z</time></trkpt><trkpt lat="40.805465" lon="16.4225417"><ele>317.0</ele><time>2026-04-25T12:40:40.833Z</time></trkpt><trkpt lat="40.805425" lon="16.4222067"><ele>315.0</ele><time>2026-04-25T12:40:41.833Z</time></trkpt><trkpt lat="40.8053767" lon="16.421875"><ele>313.0</ele><time>2026-04-25T12:40:42.833Z</time></trkpt><trkpt lat="40.8053217" lon="16.4215417"><ele>310.0</ele><time>2026-04-25T12:40:43.832Z</time></trkpt><trkpt lat="40.805265" lon="16.42121"><ele>307.0</ele><time>2026-04-25T12:40:44.834Z</time></trkpt><trkpt lat="40.8052083" lon="16.4208783"><ele>304.5</ele><time>2026-04-25T12:40:45.833Z</time></trkpt><trkpt lat="40.8051567" lon="16.420545"><ele>302.0</ele><time>2026-04-25T12:40:46.832Z</time></trkpt><trkpt lat="40.8051167" lon="16.4202067"><ele>301.0</ele><time>2026-04-25T12:40:47.833Z</time></trkpt><trkpt lat="40.8050833" lon="16.4198667"><ele>300.0</ele><time>2026-04-25T12:40:48.833Z</time></trkpt><trkpt lat="40.80506" lon="16.4195217"><ele>298.0</ele><time>2026-04-25T12:40:49.833Z</time></trkpt><trkpt lat="40.8050467" lon="16.4191733"><ele>296.0</ele><time>2026-04-25T12:40:50.837Z</time></trkpt><trkpt lat="40.805045" lon="16.4188233"><ele>294.0</ele><time>2026-04-25T12:40:51.833Z</time></trkpt><trkpt lat="40.8050617" lon="16.418475"><ele>292.0</ele><time>2026-04-25T12:40:52.832Z</time></trkpt><trkpt lat="40.8050933" lon="16.4181317"><ele>291.0</ele><time>2026-04-25T12:40:53.833Z</time></trkpt><trkpt lat="40.8051383" lon="16.4177933"><ele>290.0</ele><time>2026-04-25T12:40:54.833Z</time></trkpt><trkpt lat="40.8051983" lon="16.4174567"><ele>287.5</ele><time>2026-04-25T12:40:55.834Z</time></trkpt><trkpt lat="40.8052683" lon="16.417125"><ele>285.0</ele><time>2026-04-25T12:40:56.833Z</time></trkpt><trkpt lat="40.8053483" lon="16.4168017"><ele>285.0</ele><time>2026-04-25T12:40:57.834Z</time></trkpt><trkpt lat="40.80543" lon="16.4164883"><ele>285.0</ele><time>2026-04-25T12:40:58.833Z</time></trkpt><trkpt lat="40.80551" lon="16.41618"><ele>285.5</ele><time>2026-04-25T12:40:59.833Z</time></trkpt><trkpt lat="40.805595" lon="16.415865"><ele>286.0</ele><time>2026-04-25T12:41:00.834Z</time></trkpt><trkpt lat="40.8056833" lon="16.415545"><ele>285.5</ele><time>2026-04-25T12:41:01.833Z</time></trkpt><trkpt lat="40.805775" lon="16.4152217"><ele>285.0</ele><time>2026-04-25T12:41:02.833Z</time></trkpt><trkpt lat="40.8058683" lon="16.4148933"><ele>285.0</ele><time>2026-04-25T12:41:03.835Z</time></trkpt><trkpt lat="40.80596" lon="16.414565"><ele>285.0</ele><time>2026-04-25T12:41:04.832Z</time></trkpt><trkpt lat="40.80605" lon="16.414235"><ele>284.5</ele><time>2026-04-25T12:41:05.834Z</time></trkpt><trkpt lat="40.8061367" lon="16.413905"><ele>284.0</ele><time>2026-04-25T12:41:06.834Z</time></trkpt><trkpt lat="40.806225" lon="16.4135767"><ele>285.0</ele><time>2026-04-25T12:41:07.833Z</time></trkpt><trkpt lat="40.8063133" lon="16.4132483"><ele>286.0</ele><time>2026-04-25T12:41:08.833Z</time></trkpt><trkpt lat="40.8064017" lon="16.4129183"><ele>287.5</ele><time>2026-04-25T12:41:09.834Z</time></trkpt><trkpt lat="40.80649" lon="16.4125917"><ele>289.0</ele><time>2026-04-25T12:41:10.832Z</time></trkpt><trkpt lat="40.8065783" lon="16.4122633"><ele>289.5</ele><time>2026-04-25T12:41:11.833Z</time></trkpt><trkpt lat="40.8066667" lon="16.4119333"><ele>290.0</ele><time>2026-04-25T12:41:12.832Z</time></trkpt><trkpt lat="40.8067583" lon="16.4116083"><ele>289.0</ele><time>2026-04-25T12:41:13.832Z</time></trkpt><trkpt lat="40.8068533" lon="16.4112867"><ele>288.0</ele><time>2026-04-25T12:41:14.834Z</time></trkpt><trkpt lat="40.80696" lon="16.4109717"><ele>288.0</ele><time>2026-04-25T12:41:15.833Z</time></trkpt><trkpt lat="40.8070783" lon="16.410665"><ele>288.0</ele><time>2026-04-25T12:41:16.833Z</time></trkpt><trkpt lat="40.8072083" lon="16.4103667"><ele>290.5</ele><time>2026-04-25T12:41:17.832Z</time></trkpt><trkpt lat="40.80735" lon="16.41008"><ele>293.0</ele><time>2026-04-25T12:41:18.833Z</time></trkpt><trkpt lat="40.8075017" lon="16.409805"><ele>294.0</ele><time>2026-04-25T12:41:19.833Z</time></trkpt><trkpt lat="40.807665" lon="16.409545"><ele>295.0</ele><time>2026-04-25T12:41:20.834Z</time></trkpt><trkpt lat="40.8078367" lon="16.4092983"><ele>295.0</ele><time>2026-04-25T12:41:21.832Z</time></trkpt><trkpt lat="40.80802" lon="16.40907"><ele>295.0</ele><time>2026-04-25T12:41:22.833Z</time></trkpt><trkpt lat="40.8082117" lon="16.4088567"><ele>296.0</ele><time>2026-04-25T12:41:23.833Z</time></trkpt><trkpt lat="40.80841" lon="16.4086583"><ele>297.0</ele><time>2026-04-25T12:41:24.834Z</time></trkpt><trkpt lat="40.8086133" lon="16.4084733"><ele>297.0</ele><time>2026-04-25T12:41:25.832Z</time></trkpt><trkpt lat="40.80882" lon="16.4082967"><ele>297.0</ele><time>2026-04-25T12:41:26.833Z</time></trkpt><trkpt lat="40.8090267" lon="16.4081233"><ele>299.0</ele><time>2026-04-25T12:41:27.833Z</time></trkpt><trkpt lat="40.8092317" lon="16.407945"><ele>301.0</ele><time>2026-04-25T12:41:28.832Z</time></trkpt><trkpt lat="40.809435" lon="16.40776"><ele>301.0</ele><time>2026-04-25T12:41:29.833Z</time></trkpt><trkpt lat="40.8096317" lon="16.4075717"><ele>301.0</ele><time>2026-04-25T12:41:30.833Z</time></trkpt><trkpt lat="40.809825" lon="16.4073733"><ele>301.0</ele><time>2026-04-25T12:41:31.832Z</time></trkpt><trkpt lat="40.8100083" lon="16.4071633"><ele>301.0</ele><time>2026-04-25T12:41:32.834Z</time></trkpt><trkpt lat="40.8101867" lon="16.4069367"><ele>302.0</ele><time>2026-04-25T12:41:33.833Z</time></trkpt><trkpt lat="40.8103633" lon="16.406685"><ele>303.0</ele><time>2026-04-25T12:41:34.834Z</time></trkpt><trkpt lat="40.8105317" lon="16.4064133"><ele>308.5</ele><time>2026-04-25T12:41:35.833Z</time></trkpt><trkpt lat="40.8106883" lon="16.4061317"><ele>314.0</ele><time>2026-04-25T12:41:36.834Z</time></trkpt><trkpt lat="40.8108333" lon="16.4058467"><ele>314.0</ele><time>2026-04-25T12:41:37.833Z</time></trkpt><trkpt lat="40.8109667" lon="16.4055567"><ele>314.0</ele><time>2026-04-25T12:41:38.833Z</time></trkpt><trkpt lat="40.8110867" lon="16.405265"><ele>311.5</ele><time>2026-04-25T12:41:39.833Z</time></trkpt><trkpt lat="40.811195" lon="16.4049667"><ele>309.0</ele><time>2026-04-25T12:41:40.833Z</time></trkpt><trkpt lat="40.8112883" lon="16.4046617"><ele>314.0</ele><time>2026-04-25T12:41:41.834Z</time></trkpt><trkpt lat="40.8113683" lon="16.40435"><ele>319.0</ele><time>2026-04-25T12:41:42.834Z</time></trkpt><trkpt lat="40.8114367" lon="16.404035"><ele>320.5</ele><time>2026-04-25T12:41:43.833Z</time></trkpt><trkpt lat="40.811495" lon="16.4037167"><ele>322.0</ele><time>2026-04-25T12:41:44.833Z</time></trkpt><trkpt lat="40.8115417" lon="16.4033967"><ele>322.0</ele><time>2026-04-25T12:41:45.833Z</time></trkpt><trkpt lat="40.811575" lon="16.403075"><ele>322.0</ele><time>2026-04-25T12:41:46.833Z</time></trkpt><trkpt lat="40.8115933" lon="16.4027533"><ele>326.5</ele><time>2026-04-25T12:41:47.833Z</time></trkpt><trkpt lat="40.8116033" lon="16.4024317"><ele>331.0</ele><time>2026-04-25T12:41:48.833Z</time></trkpt><trkpt lat="40.8116" lon="16.40211"><ele>335.0</ele><time>2026-04-25T12:41:49.833Z</time></trkpt><trkpt lat="40.8115833" lon="16.40179"><ele>339.0</ele><time>2026-04-25T12:41:50.836Z</time></trkpt><trkpt lat="40.8115583" lon="16.40147"><ele>340.0</ele><time>2026-04-25T12:41:51.833Z</time></trkpt><trkpt lat="40.81153" lon="16.4011467"><ele>341.0</ele><time>2026-04-25T12:41:52.833Z</time></trkpt><trkpt lat="40.8115067" lon="16.40082"><ele>340.5</ele><time>2026-04-25T12:41:53.834Z</time></trkpt><trkpt lat="40.81149" lon="16.400495"><ele>340.0</ele><time>2026-04-25T12:41:54.833Z</time></trkpt><trkpt lat="40.8114683" lon="16.4001583"><ele>340.0</ele><time>2026-04-25T12:41:55.833Z</time></trkpt><trkpt lat="40.8114083" lon="16.39982"><ele>340.0</ele><time>2026-04-25T12:41:56.833Z</time></trkpt><trkpt lat="40.8113783" lon="16.3994883"><ele>338.5</ele><time>2026-04-25T12:41:57.833Z</time></trkpt><trkpt lat="40.811345" lon="16.3991633"><ele>337.0</ele><time>2026-04-25T12:41:58.834Z</time></trkpt><trkpt lat="40.8113083" lon="16.3988317"><ele>335.5</ele><time>2026-04-25T12:41:59.832Z</time></trkpt><trkpt lat="40.8112733" lon="16.3984967"><ele>334.0</ele><time>2026-04-25T12:42:00.833Z</time></trkpt><trkpt lat="40.81124" lon="16.3981617"><ele>333.0</ele><time>2026-04-25T12:42:01.832Z</time></trkpt><trkpt lat="40.8112067" lon="16.39783"><ele>332.0</ele><time>2026-04-25T12:42:02.833Z</time></trkpt><trkpt lat="40.8111733" lon="16.397495"><ele>331.5</ele><time>2026-04-25T12:42:03.832Z</time></trkpt><trkpt lat="40.81114" lon="16.3971567"><ele>331.0</ele><time>2026-04-25T12:42:04.833Z</time></trkpt><trkpt lat="40.8111067" lon="16.3968183"><ele>331.0</ele><time>2026-04-25T12:42:05.833Z</time></trkpt><trkpt lat="40.8110733" lon="16.396475"><ele>331.0</ele><time>2026-04-25T12:42:06.833Z</time></trkpt><trkpt lat="40.81104" lon="16.3961333"><ele>330.0</ele><time>2026-04-25T12:42:07.833Z</time></trkpt><trkpt lat="40.811005" lon="16.3957917"><ele>329.0</ele><time>2026-04-25T12:42:08.835Z</time></trkpt><trkpt lat="40.8109717" lon="16.3954483"><ele>326.0</ele><time>2026-04-25T12:42:09.833Z</time></trkpt><trkpt lat="40.81094" lon="16.3951083"><ele>323.0</ele><time>2026-04-25T12:42:10.833Z</time></trkpt><trkpt lat="40.8109067" lon="16.3947683"><ele>321.5</ele><time>2026-04-25T12:42:11.833Z</time></trkpt><trkpt lat="40.810875" lon="16.3944283"><ele>320.0</ele><time>2026-04-25T12:42:12.831Z</time></trkpt><trkpt lat="40.8108417" lon="16.3940883"><ele>319.5</ele><time>2026-04-25T12:42:13.833Z</time></trkpt><trkpt lat="40.81081" lon="16.3937517"><ele>319.0</ele><time>2026-04-25T12:42:14.833Z</time></trkpt><trkpt lat="40.8107767" lon="16.3934133"><ele>319.0</ele><time>2026-04-25T12:42:15.833Z</time></trkpt><trkpt lat="40.8107433" lon="16.3930783"><ele>319.0</ele><time>2026-04-25T12:42:16.832Z</time></trkpt><trkpt lat="40.8107117" lon="16.3927433"><ele>318.0</ele><time>2026-04-25T12:42:17.833Z</time></trkpt><trkpt lat="40.8106783" lon="16.3924083"><ele>317.0</ele><time>2026-04-25T12:42:18.832Z</time></trkpt><trkpt lat="40.810645" lon="16.3920783"><ele>317.0</ele><time>2026-04-25T12:42:19.833Z</time></trkpt><trkpt lat="40.8106117" lon="16.3917483"><ele>317.0</ele><time>2026-04-25T12:42:20.834Z</time></trkpt><trkpt lat="40.8105817" lon="16.3914217"><ele>317.0</ele><time>2026-04-25T12:42:21.833Z</time></trkpt><trkpt lat="40.8105517" lon="16.391095"><ele>317.0</ele><time>2026-04-25T12:42:22.834Z</time></trkpt><trkpt lat="40.8105233" lon="16.3907683"><ele>317.0</ele><time>2026-04-25T12:42:23.832Z</time></trkpt><trkpt lat="40.8104933" lon="16.3904433"><ele>317.0</ele><time>2026-04-25T12:42:24.833Z</time></trkpt><trkpt lat="40.81046" lon="16.3901167"><ele>317.0</ele><time>2026-04-25T12:42:25.832Z</time></trkpt><trkpt lat="40.8104267" lon="16.3897883"><ele>317.0</ele><time>2026-04-25T12:42:26.833Z</time></trkpt><trkpt lat="40.8103933" lon="16.3894567"><ele>316.5</ele><time>2026-04-25T12:42:27.832Z</time></trkpt><trkpt lat="40.81036" lon="16.389125"><ele>316.0</ele><time>2026-04-25T12:42:28.832Z</time></trkpt><trkpt lat="40.8103267" lon="16.3887917"><ele>315.5</ele><time>2026-04-25T12:42:29.833Z</time></trkpt><trkpt lat="40.8102933" lon="16.3884583"><ele>315.0</ele><time>2026-04-25T12:42:30.833Z</time></trkpt><trkpt lat="40.8102583" lon="16.3881217"><ele>315.5</ele><time>2026-04-25T12:42:31.832Z</time></trkpt><trkpt lat="40.8102217" lon="16.3877833"><ele>316.0</ele><time>2026-04-25T12:42:32.833Z</time></trkpt><trkpt lat="40.81019" lon="16.3874433"><ele>316.0</ele><time>2026-04-25T12:42:33.832Z</time></trkpt><trkpt lat="40.81016" lon="16.3871067"><ele>316.0</ele><time>2026-04-25T12:42:34.833Z</time></trkpt><trkpt lat="40.8101317" lon="16.3867683"><ele>316.0</ele><time>2026-04-25T12:42:35.834Z</time></trkpt><trkpt lat="40.8101017" lon="16.3864317"><ele>316.0</ele><time>2026-04-25T12:42:36.833Z</time></trkpt><trkpt lat="40.81007" lon="16.3860933"><ele>315.5</ele><time>2026-04-25T12:42:37.832Z</time></trkpt><trkpt lat="40.810035" lon="16.3857517"><ele>315.0</ele><time>2026-04-25T12:42:38.833Z</time></trkpt><trkpt lat="40.8100017" lon="16.3854083"><ele>315.0</ele><time>2026-04-25T12:42:39.832Z</time></trkpt><trkpt lat="40.8099683" lon="16.3850683"><ele>315.0</ele><time>2026-04-25T12:42:40.834Z</time></trkpt><trkpt lat="40.809935" lon="16.3847267"><ele>315.5</ele><time>2026-04-25T12:42:41.832Z</time></trkpt><trkpt lat="40.8099017" lon="16.3843883"><ele>316.0</ele><time>2026-04-25T12:42:42.833Z</time></trkpt><trkpt lat="40.80987" lon="16.38405"><ele>317.0</ele><time>2026-04-25T12:42:43.832Z</time></trkpt><trkpt lat="40.8098383" lon="16.383715"><ele>318.0</ele><time>2026-04-25T12:42:44.833Z</time></trkpt><trkpt lat="40.8098067" lon="16.38338"><ele>318.0</ele><time>2026-04-25T12:42:45.832Z</time></trkpt><trkpt lat="40.8097733" lon="16.3830483"><ele>318.0</ele><time>2026-04-25T12:42:46.832Z</time></trkpt><trkpt lat="40.8097417" lon="16.382715"><ele>318.0</ele><time>2026-04-25T12:42:47.832Z</time></trkpt><trkpt lat="40.80971" lon="16.3823833"><ele>318.0</ele><time>2026-04-25T12:42:48.832Z</time></trkpt><trkpt lat="40.8096817" lon="16.3820517"><ele>318.0</ele><time>2026-04-25T12:42:49.832Z</time></trkpt><trkpt lat="40.8096567" lon="16.3817217"><ele>318.0</ele><time>2026-04-25T12:42:50.833Z</time></trkpt><trkpt lat="40.8096317" lon="16.38139"><ele>318.5</ele><time>2026-04-25T12:42:51.833Z</time></trkpt><trkpt lat="40.80961" lon="16.38106"><ele>319.0</ele><time>2026-04-25T12:42:52.832Z</time></trkpt><trkpt lat="40.8095867" lon="16.3807283"><ele>320.0</ele><time>2026-04-25T12:42:53.832Z</time></trkpt><trkpt lat="40.8095667" lon="16.3803983"><ele>321.0</ele><time>2026-04-25T12:42:54.832Z</time></trkpt><trkpt lat="40.8095467" lon="16.3800667"><ele>321.0</ele><time>2026-04-25T12:42:55.832Z</time></trkpt><trkpt lat="40.8095267" lon="16.3797383"><ele>321.0</ele><time>2026-04-25T12:42:56.832Z</time></trkpt><trkpt lat="40.8095067" lon="16.3794083"><ele>322.0</ele><time>2026-04-25T12:42:57.832Z</time></trkpt><trkpt lat="40.8094867" lon="16.3790817"><ele>323.0</ele><time>2026-04-25T12:42:58.832Z</time></trkpt><trkpt lat="40.8094667" lon="16.3787567"><ele>323.0</ele><time>2026-04-25T12:42:59.834Z</time></trkpt><trkpt lat="40.8094433" lon="16.3784317"><ele>323.0</ele><time>2026-04-25T12:43:00.832Z</time></trkpt><trkpt lat="40.80942" lon="16.3781083"><ele>324.5</ele><time>2026-04-25T12:43:01.833Z</time></trkpt><trkpt lat="40.809395" lon="16.3777867"><ele>326.0</ele><time>2026-04-25T12:43:02.834Z</time></trkpt><trkpt lat="40.809375" lon="16.377465"><ele>327.0</ele><time>2026-04-25T12:43:03.835Z</time></trkpt><trkpt lat="40.8093583" lon="16.3771433"><ele>328.0</ele><time>2026-04-25T12:43:04.834Z</time></trkpt><trkpt lat="40.8093383" lon="16.37682"><ele>331.0</ele><time>2026-04-25T12:43:05.835Z</time></trkpt><trkpt lat="40.809315" lon="16.3764967"><ele>334.0</ele><time>2026-04-25T12:43:06.834Z</time></trkpt><trkpt lat="40.80929" lon="16.3761717"><ele>335.0</ele><time>2026-04-25T12:43:07.834Z</time></trkpt><trkpt lat="40.80927" lon="16.3758483"><ele>336.0</ele><time>2026-04-25T12:43:08.834Z</time></trkpt><trkpt lat="40.80925" lon="16.375525"><ele>336.5</ele><time>2026-04-25T12:43:09.834Z</time></trkpt><trkpt lat="40.80923" lon="16.3752033"><ele>337.0</ele><time>2026-04-25T12:43:10.834Z</time></trkpt><trkpt lat="40.8092083" lon="16.37488"><ele>336.0</ele><time>2026-04-25T12:43:11.833Z</time></trkpt><trkpt lat="40.8091867" lon="16.374555"><ele>335.0</ele><time>2026-04-25T12:43:12.832Z</time></trkpt><trkpt lat="40.8091667" lon="16.37423"><ele>335.0</ele><time>2026-04-25T12:43:13.833Z</time></trkpt><trkpt lat="40.8091467" lon="16.3739033"><ele>335.0</ele><time>2026-04-25T12:43:14.831Z</time></trkpt><trkpt lat="40.80913" lon="16.373575"><ele>336.5</ele><time>2026-04-25T12:43:15.832Z</time></trkpt><trkpt lat="40.8091067" lon="16.3732433"><ele>338.0</ele><time>2026-04-25T12:43:16.832Z</time></trkpt><trkpt lat="40.8090833" lon="16.3729067"><ele>339.0</ele><time>2026-04-25T12:43:17.833Z</time></trkpt><trkpt lat="40.8090617" lon="16.3725667"><ele>340.0</ele><time>2026-04-25T12:43:18.832Z</time></trkpt><trkpt lat="40.80904" lon="16.372225"><ele>341.5</ele><time>2026-04-25T12:43:19.832Z</time></trkpt><trkpt lat="40.8090183" lon="16.3718833"><ele>343.0</ele><time>2026-04-25T12:43:20.833Z</time></trkpt><trkpt lat="40.808995" lon="16.3715433"><ele>343.5</ele><time>2026-04-25T12:43:21.832Z</time></trkpt><trkpt lat="40.8089717" lon="16.3712067"><ele>344.0</ele><time>2026-04-25T12:43:22.832Z</time></trkpt><trkpt lat="40.8089517" lon="16.3708733"><ele>344.0</ele><time>2026-04-25T12:43:23.833Z</time></trkpt><trkpt lat="40.8089333" lon="16.3705433"><ele>344.0</ele><time>2026-04-25T12:43:24.833Z</time></trkpt><trkpt lat="40.8089183" lon="16.370215"><ele>344.5</ele><time>2026-04-25T12:43:25.834Z</time></trkpt><trkpt lat="40.808905" lon="16.3698883"><ele>345.0</ele><time>2026-04-25T12:43:26.834Z</time></trkpt><trkpt lat="40.8088967" lon="16.36956"><ele>346.0</ele><time>2026-04-25T12:43:27.833Z</time></trkpt><trkpt lat="40.8088933" lon="16.3692317"><ele>347.0</ele><time>2026-04-25T12:43:28.833Z</time></trkpt><trkpt lat="40.8088917" lon="16.3689033"><ele>347.0</ele><time>2026-04-25T12:43:29.834Z</time></trkpt><trkpt lat="40.8088933" lon="16.3685767"><ele>347.0</ele><time>2026-04-25T12:43:30.833Z</time></trkpt><trkpt lat="40.8089" lon="16.3682483"><ele>348.0</ele><time>2026-04-25T12:43:31.833Z</time></trkpt><trkpt lat="40.8089067" lon="16.3679217"><ele>349.0</ele><time>2026-04-25T12:43:32.834Z</time></trkpt><trkpt lat="40.8089167" lon="16.367595"><ele>349.0</ele><time>2026-04-25T12:43:33.832Z</time></trkpt><trkpt lat="40.8089283" lon="16.3672667"><ele>349.0</ele><time>2026-04-25T12:43:34.832Z</time></trkpt><trkpt lat="40.8089417" lon="16.3669367"><ele>349.5</ele><time>2026-04-25T12:43:35.833Z</time></trkpt><trkpt lat="40.8089517" lon="16.3666067"><ele>350.0</ele><time>2026-04-25T12:43:36.832Z</time></trkpt><trkpt lat="40.8089617" lon="16.3662767"><ele>351.0</ele><time>2026-04-25T12:43:37.835Z</time></trkpt><trkpt lat="40.8089683" lon="16.3659467"><ele>352.0</ele><time>2026-04-25T12:43:38.836Z</time></trkpt><trkpt lat="40.8089667" lon="16.3656167"><ele>352.5</ele><time>2026-04-25T12:43:39.833Z</time></trkpt><trkpt lat="40.8089583" lon="16.3652867"><ele>353.0</ele><time>2026-04-25T12:43:40.833Z</time></trkpt><trkpt lat="40.808945" lon="16.364955"><ele>352.5</ele><time>2026-04-25T12:43:41.833Z</time></trkpt><trkpt lat="40.8089233" lon="16.364625"><ele>352.0</ele><time>2026-04-25T12:43:42.833Z</time></trkpt><trkpt lat="40.808895" lon="16.364295"><ele>352.0</ele><time>2026-04-25T12:43:43.833Z</time></trkpt><trkpt lat="40.80886" lon="16.363965"><ele>352.0</ele><time>2026-04-25T12:43:44.833Z</time></trkpt><trkpt lat="40.808815" lon="16.3636333"><ele>352.0</ele><time>2026-04-25T12:43:45.832Z</time></trkpt><trkpt lat="40.808765" lon="16.363305"><ele>352.0</ele><time>2026-04-25T12:43:46.832Z</time></trkpt><trkpt lat="40.8087067" lon="16.3629767"><ele>352.5</ele><time>2026-04-25T12:43:47.833Z</time></trkpt><trkpt lat="40.8086433" lon="16.3626517"><ele>353.0</ele><time>2026-04-25T12:43:48.832Z</time></trkpt><trkpt lat="40.808575" lon="16.3623283"><ele>352.5</ele><time>2026-04-25T12:43:49.833Z</time></trkpt><trkpt lat="40.8085017" lon="16.3620067"><ele>352.0</ele><time>2026-04-25T12:43:50.835Z</time></trkpt><trkpt lat="40.80843" lon="16.361685"><ele>354.0</ele><time>2026-04-25T12:43:51.832Z</time></trkpt><trkpt lat="40.8083633" lon="16.36136"><ele>356.0</ele><time>2026-04-25T12:43:52.833Z</time></trkpt><trkpt lat="40.8082983" lon="16.3610367"><ele>356.0</ele><time>2026-04-25T12:43:53.833Z</time></trkpt><trkpt lat="40.8082367" lon="16.3607133"><ele>356.0</ele><time>2026-04-25T12:43:54.833Z</time></trkpt><trkpt lat="40.80818" lon="16.3603867"><ele>356.0</ele><time>2026-04-25T12:43:55.835Z</time></trkpt><trkpt lat="40.8081317" lon="16.3600583"><ele>356.0</ele><time>2026-04-25T12:43:56.834Z</time></trkpt><trkpt lat="40.80809" lon="16.3597233"><ele>357.5</ele><time>2026-04-25T12:43:57.832Z</time></trkpt><trkpt lat="40.8080567" lon="16.3593867"><ele>359.0</ele><time>2026-04-25T12:43:58.833Z</time></trkpt><trkpt lat="40.808025" lon="16.3590517"><ele>361.0</ele><time>2026-04-25T12:43:59.832Z</time></trkpt><trkpt lat="40.8079983" lon="16.3587167"><ele>363.0</ele><time>2026-04-25T12:44:00.832Z</time></trkpt><trkpt lat="40.8079717" lon="16.3583783"><ele>361.0</ele><time>2026-04-25T12:44:01.832Z</time></trkpt><trkpt lat="40.8079483" lon="16.3580333"><ele>359.0</ele><time>2026-04-25T12:44:02.833Z</time></trkpt><trkpt lat="40.807925" lon="16.3577133"><ele>359.0</ele><time>2026-04-25T12:44:03.832Z</time></trkpt><trkpt lat="40.8079433" lon="16.3573933"><ele>359.0</ele><time>2026-04-25T12:44:04.832Z</time></trkpt><trkpt lat="40.8079633" lon="16.357045"><ele>355.5</ele><time>2026-04-25T12:44:05.833Z</time></trkpt><trkpt lat="40.8080017" lon="16.3566917"><ele>352.0</ele><time>2026-04-25T12:44:06.834Z</time></trkpt><trkpt lat="40.8080417" lon="16.3563483"><ele>348.0</ele><time>2026-04-25T12:44:07.834Z</time></trkpt><trkpt lat="40.808085" lon="16.3560067"><ele>344.0</ele><time>2026-04-25T12:44:08.834Z</time></trkpt><trkpt lat="40.808135" lon="16.35567"><ele>339.0</ele><time>2026-04-25T12:44:09.833Z</time></trkpt><trkpt lat="40.8081817" lon="16.355335"><ele>334.0</ele><time>2026-04-25T12:44:10.834Z</time></trkpt><trkpt lat="40.8082283" lon="16.3550017"><ele>329.0</ele><time>2026-04-25T12:44:11.834Z</time></trkpt><trkpt lat="40.8082717" lon="16.3546667"><ele>324.0</ele><time>2026-04-25T12:44:12.833Z</time></trkpt><trkpt lat="40.8083133" lon="16.3543283"><ele>324.0</ele><time>2026-04-25T12:44:13.835Z</time></trkpt><trkpt lat="40.8083483" lon="16.353985"><ele>324.0</ele><time>2026-04-25T12:44:14.834Z</time></trkpt><trkpt lat="40.8083817" lon="16.35364"><ele>321.5</ele><time>2026-04-25T12:44:15.833Z</time></trkpt><trkpt lat="40.808405" lon="16.3532917"><ele>319.0</ele><time>2026-04-25T12:44:16.833Z</time></trkpt><trkpt lat="40.8084183" lon="16.35294"><ele>316.0</ele><time>2026-04-25T12:44:17.834Z</time></trkpt><trkpt lat="40.8084233" lon="16.352585"><ele>313.0</ele><time>2026-04-25T12:44:18.833Z</time></trkpt><trkpt lat="40.8084233" lon="16.3522317"><ele>313.0</ele><time>2026-04-25T12:44:19.833Z</time></trkpt><trkpt lat="40.80841" lon="16.351875"><ele>313.0</ele><time>2026-04-25T12:44:20.834Z</time></trkpt><trkpt lat="40.80839" lon="16.3515217"><ele>312.5</ele><time>2026-04-25T12:44:21.834Z</time></trkpt><trkpt lat="40.8083633" lon="16.3511683"><ele>312.0</ele><time>2026-04-25T12:44:22.834Z</time></trkpt><trkpt lat="40.8083267" lon="16.3508133"><ele>313.0</ele><time>2026-04-25T12:44:23.833Z</time></trkpt><trkpt lat="40.8082833" lon="16.3504617"><ele>314.0</ele><time>2026-04-25T12:44:24.833Z</time></trkpt><trkpt lat="40.8082333" lon="16.3501167"><ele>314.0</ele><time>2026-04-25T12:44:25.832Z</time></trkpt><trkpt lat="40.8081733" lon="16.34978"><ele>314.0</ele><time>2026-04-25T12:44:26.833Z</time></trkpt><trkpt lat="40.808105" lon="16.349445"><ele>314.5</ele><time>2026-04-25T12:44:27.834Z</time></trkpt><trkpt lat="40.8080317" lon="16.3491117"><ele>315.0</ele><time>2026-04-25T12:44:28.833Z</time></trkpt><trkpt lat="40.8079533" lon="16.3487767"><ele>315.0</ele><time>2026-04-25T12:44:29.833Z</time></trkpt><trkpt lat="40.8078683" lon="16.3484467"><ele>315.0</ele><time>2026-04-25T12:44:30.833Z</time></trkpt><trkpt lat="40.8077733" lon="16.3481217"><ele>312.0</ele><time>2026-04-25T12:44:31.833Z</time></trkpt><trkpt lat="40.80767" lon="16.3478017"><ele>309.0</ele><time>2026-04-25T12:44:32.834Z</time></trkpt><trkpt lat="40.8075567" lon="16.3474883"><ele>301.5</ele><time>2026-04-25T12:44:33.833Z</time></trkpt><trkpt lat="40.8074383" lon="16.3471767"><ele>294.0</ele><time>2026-04-25T12:44:34.833Z</time></trkpt><trkpt lat="40.8073167" lon="16.3468683"><ele>294.0</ele><time>2026-04-25T12:44:35.833Z</time></trkpt><trkpt lat="40.807185" lon="16.3465617"><ele>294.0</ele><time>2026-04-25T12:44:36.834Z</time></trkpt><trkpt lat="40.8070433" lon="16.3462583"><ele>294.5</ele><time>2026-04-25T12:44:37.834Z</time></trkpt><trkpt lat="40.8068917" lon="16.3459617"><ele>295.0</ele><time>2026-04-25T12:44:38.834Z</time></trkpt><trkpt lat="40.8067367" lon="16.34567"><ele>293.0</ele><time>2026-04-25T12:44:39.832Z</time></trkpt><trkpt lat="40.8065767" lon="16.3453833"><ele>291.0</ele><time>2026-04-25T12:44:40.833Z</time></trkpt><trkpt lat="40.8064117" lon="16.3451033"><ele>291.0</ele><time>2026-04-25T12:44:41.833Z</time></trkpt><trkpt lat="40.80624" lon="16.3448317"><ele>291.0</ele><time>2026-04-25T12:44:42.832Z</time></trkpt><trkpt lat="40.806065" lon="16.3445717"><ele>287.0</ele><time>2026-04-25T12:44:43.833Z</time></trkpt><trkpt lat="40.8058833" lon="16.3443183"><ele>283.0</ele><time>2026-04-25T12:44:44.835Z</time></trkpt><trkpt lat="40.8056983" lon="16.3440733"><ele>285.5</ele><time>2026-04-25T12:44:45.832Z</time></trkpt><trkpt lat="40.8055067" lon="16.343835"><ele>288.0</ele><time>2026-04-25T12:44:46.832Z</time></trkpt><trkpt lat="40.80531" lon="16.3436067"><ele>285.0</ele><time>2026-04-25T12:44:47.833Z</time></trkpt><trkpt lat="40.8051067" lon="16.3433817"><ele>282.0</ele><time>2026-04-25T12:44:48.833Z</time></trkpt><trkpt lat="40.8049" lon="16.343165"><ele>287.0</ele><time>2026-04-25T12:44:49.836Z</time></trkpt><trkpt lat="40.80469" lon="16.342955"><ele>292.0</ele><time>2026-04-25T12:44:50.834Z</time></trkpt><trkpt lat="40.8044767" lon="16.3427483"><ele>288.0</ele><time>2026-04-25T12:44:51.834Z</time></trkpt><trkpt lat="40.8042633" lon="16.3425417"><ele>284.0</ele><time>2026-04-25T12:44:52.834Z</time></trkpt><trkpt lat="40.8040517" lon="16.3423283"><ele>289.5</ele><time>2026-04-25T12:44:53.832Z</time></trkpt><trkpt lat="40.8038467" lon="16.3421133"><ele>295.0</ele><time>2026-04-25T12:44:54.833Z</time></trkpt><trkpt lat="40.8036417" lon="16.3418933"><ele>288.0</ele><time>2026-04-25T12:44:55.832Z</time></trkpt><trkpt lat="40.80344" lon="16.3416633"><ele>281.0</ele><time>2026-04-25T12:44:56.835Z</time></trkpt><trkpt lat="40.8032483" lon="16.3414217"><ele>283.5</ele><time>2026-04-25T12:44:57.833Z</time></trkpt><trkpt lat="40.80306" lon="16.3411667"><ele>286.0</ele><time>2026-04-25T12:44:58.833Z</time></trkpt><trkpt lat="40.8028767" lon="16.3409"><ele>286.0</ele><time>2026-04-25T12:44:59.832Z</time></trkpt><trkpt lat="40.8027033" lon="16.3406217"><ele>286.0</ele><time>2026-04-25T12:45:00.833Z</time></trkpt><trkpt lat="40.8025367" lon="16.340335"><ele>284.0</ele><time>2026-04-25T12:45:01.832Z</time></trkpt><trkpt lat="40.8023783" lon="16.34004"><ele>282.0</ele><time>2026-04-25T12:45:02.834Z</time></trkpt><trkpt lat="40.8022233" lon="16.3397417"><ele>284.5</ele><time>2026-04-25T12:45:03.832Z</time></trkpt><trkpt lat="40.8020717" lon="16.33945"><ele>287.0</ele><time>2026-04-25T12:45:04.832Z</time></trkpt><trkpt lat="40.8019233" lon="16.3391683"><ele>280.0</ele><time>2026-04-25T12:45:05.832Z</time></trkpt><trkpt lat="40.801775" lon="16.3388967"><ele>273.0</ele><time>2026-04-25T12:45:06.834Z</time></trkpt><trkpt lat="40.8016217" lon="16.3386333"><ele>273.0</ele><time>2026-04-25T12:45:07.833Z</time></trkpt><trkpt lat="40.8014617" lon="16.338375"><ele>273.0</ele><time>2026-04-25T12:45:08.833Z</time></trkpt><trkpt lat="40.8012967" lon="16.33812"><ele>272.5</ele><time>2026-04-25T12:45:09.833Z</time></trkpt><trkpt lat="40.8011267" lon="16.3378717"><ele>272.0</ele><time>2026-04-25T12:45:10.834Z</time></trkpt><trkpt lat="40.8009517" lon="16.33763"><ele>272.0</ele><time>2026-04-25T12:45:11.833Z</time></trkpt><trkpt lat="40.80077" lon="16.3373933"><ele>272.0</ele><time>2026-04-25T12:45:12.834Z</time></trkpt><trkpt lat="40.800585" lon="16.3371617"><ele>272.0</ele><time>2026-04-25T12:45:13.834Z</time></trkpt><trkpt lat="40.8003933" lon="16.3369383"><ele>272.0</ele><time>2026-04-25T12:45:14.833Z</time></trkpt><trkpt lat="40.800195" lon="16.33672"><ele>272.5</ele><time>2026-04-25T12:45:15.832Z</time></trkpt><trkpt lat="40.7999933" lon="16.3365083"><ele>273.0</ele><time>2026-04-25T12:45:16.833Z</time></trkpt><trkpt lat="40.7997833" lon="16.336305"><ele>273.0</ele><time>2026-04-25T12:45:17.833Z</time></trkpt><trkpt lat="40.79957" lon="16.3361117"><ele>273.0</ele><time>2026-04-25T12:45:18.833Z</time></trkpt><trkpt lat="40.79935" lon="16.3359217"><ele>267.5</ele><time>2026-04-25T12:45:19.833Z</time></trkpt><trkpt lat="40.7991267" lon="16.3357417"><ele>262.0</ele><time>2026-04-25T12:45:20.834Z</time></trkpt><trkpt lat="40.7988983" lon="16.3355683"><ele>260.5</ele><time>2026-04-25T12:45:21.832Z</time></trkpt><trkpt lat="40.7986667" lon="16.335405"><ele>259.0</ele><time>2026-04-25T12:45:22.833Z</time></trkpt><trkpt lat="40.7984283" lon="16.33525"><ele>259.0</ele><time>2026-04-25T12:45:23.832Z</time></trkpt><trkpt lat="40.7981883" lon="16.3351033"><ele>259.0</ele><time>2026-04-25T12:45:24.832Z</time></trkpt><trkpt lat="40.797945" lon="16.3349683"><ele>259.0</ele><time>2026-04-25T12:45:25.833Z</time></trkpt><trkpt lat="40.7976983" lon="16.33484"><ele>259.0</ele><time>2026-04-25T12:45:26.833Z</time></trkpt><trkpt lat="40.79745" lon="16.334715"><ele>260.5</ele><time>2026-04-25T12:45:27.833Z</time></trkpt><trkpt lat="40.7971983" lon="16.334595"><ele>262.0</ele><time>2026-04-25T12:45:28.832Z</time></trkpt><trkpt lat="40.7969467" lon="16.3344783"><ele>260.0</ele><time>2026-04-25T12:45:29.832Z</time></trkpt><trkpt lat="40.796695" lon="16.3343583"><ele>258.0</ele><time>2026-04-25T12:45:30.833Z</time></trkpt><trkpt lat="40.796445" lon="16.3342333"><ele>258.0</ele><time>2026-04-25T12:45:31.833Z</time></trkpt><trkpt lat="40.7962017" lon="16.3340983"><ele>258.0</ele><time>2026-04-25T12:45:32.835Z</time></trkpt><trkpt lat="40.795965" lon="16.3339467"><ele>259.0</ele><time>2026-04-25T12:45:33.833Z</time></trkpt><trkpt lat="40.79574" lon="16.3337733"><ele>260.0</ele><time>2026-04-25T12:45:34.832Z</time></trkpt><trkpt lat="40.7955217" lon="16.3335833"><ele>260.0</ele><time>2026-04-25T12:45:35.834Z</time></trkpt><trkpt lat="40.7953083" lon="16.33338"><ele>260.0</ele><time>2026-04-25T12:45:36.835Z</time></trkpt><trkpt lat="40.7951017" lon="16.33316"><ele>255.0</ele><time>2026-04-25T12:45:37.835Z</time></trkpt><trkpt lat="40.7949017" lon="16.3329317"><ele>250.0</ele><time>2026-04-25T12:45:38.835Z</time></trkpt><trkpt lat="40.7947067" lon="16.3326967"><ele>250.0</ele><time>2026-04-25T12:45:39.833Z</time></trkpt><trkpt lat="40.7945133" lon="16.33246"><ele>250.0</ele><time>2026-04-25T12:45:40.832Z</time></trkpt><trkpt lat="40.7943233" lon="16.3322283"><ele>246.5</ele><time>2026-04-25T12:45:41.832Z</time></trkpt><trkpt lat="40.7941317" lon="16.3319983"><ele>243.0</ele><time>2026-04-25T12:45:42.832Z</time></trkpt><trkpt lat="40.793935" lon="16.3317767"><ele>243.0</ele><time>2026-04-25T12:45:43.832Z</time></trkpt><trkpt lat="40.7937317" lon="16.3315633"><ele>243.0</ele><time>2026-04-25T12:45:44.832Z</time></trkpt><trkpt lat="40.7935217" lon="16.3313617"><ele>242.0</ele><time>2026-04-25T12:45:45.832Z</time></trkpt><trkpt lat="40.793305" lon="16.33117"><ele>241.0</ele><time>2026-04-25T12:45:46.832Z</time></trkpt><trkpt lat="40.79308" lon="16.3309883"><ele>241.0</ele><time>2026-04-25T12:45:47.832Z</time></trkpt><trkpt lat="40.79285" lon="16.33082"><ele>241.0</ele><time>2026-04-25T12:45:48.831Z</time></trkpt><trkpt lat="40.792615" lon="16.33066"><ele>243.5</ele><time>2026-04-25T12:45:49.832Z</time></trkpt><trkpt lat="40.7923767" lon="16.3305083"><ele>246.0</ele><time>2026-04-25T12:45:50.832Z</time></trkpt><trkpt lat="40.792135" lon="16.33036"><ele>246.0</ele><time>2026-04-25T12:45:51.831Z</time></trkpt><trkpt lat="40.7918967" lon="16.3302117"><ele>246.0</ele><time>2026-04-25T12:45:52.833Z</time></trkpt><trkpt lat="40.7916567" lon="16.33006"><ele>244.0</ele><time>2026-04-25T12:45:53.832Z</time></trkpt><trkpt lat="40.7914167" lon="16.3299067"><ele>242.0</ele><time>2026-04-25T12:45:54.83Z</time></trkpt><trkpt lat="40.79118" lon="16.3297467"><ele>242.0</ele><time>2026-04-25T12:45:55.832Z</time></trkpt><trkpt lat="40.7909467" lon="16.3295733"><ele>242.0</ele><time>2026-04-25T12:45:56.832Z</time></trkpt><trkpt lat="40.7907217" lon="16.329385"><ele>242.0</ele><time>2026-04-25T12:45:57.831Z</time></trkpt><trkpt lat="40.7904983" lon="16.3291817"><ele>242.0</ele><time>2026-04-25T12:45:58.832Z</time></trkpt><trkpt lat="40.79028" lon="16.328965"><ele>238.5</ele><time>2026-04-25T12:45:59.831Z</time></trkpt><trkpt lat="40.79007" lon="16.3287383"><ele>235.0</ele><time>2026-04-25T12:46:00.831Z</time></trkpt><trkpt lat="40.789865" lon="16.3285033"><ele>235.0</ele><time>2026-04-25T12:46:01.833Z</time></trkpt><trkpt lat="40.7896683" lon="16.32826"><ele>235.0</ele><time>2026-04-25T12:46:02.833Z</time></trkpt><trkpt lat="40.7894783" lon="16.3280067"><ele>233.5</ele><time>2026-04-25T12:46:03.831Z</time></trkpt><trkpt lat="40.7892967" lon="16.327735"><ele>232.0</ele><time>2026-04-25T12:46:04.831Z</time></trkpt><trkpt lat="40.7891233" lon="16.327455"><ele>234.5</ele><time>2026-04-25T12:46:05.833Z</time></trkpt><trkpt lat="40.78896" lon="16.327165"><ele>237.0</ele><time>2026-04-25T12:46:06.831Z</time></trkpt><trkpt lat="40.7888067" lon="16.3268717"><ele>237.0</ele><time>2026-04-25T12:46:07.831Z</time></trkpt><trkpt lat="40.7886633" lon="16.3265733"><ele>237.0</ele><time>2026-04-25T12:46:08.833Z</time></trkpt><trkpt lat="40.7885283" lon="16.3262717"><ele>238.5</ele><time>2026-04-25T12:46:09.833Z</time></trkpt><trkpt lat="40.7884017" lon="16.3259633"><ele>240.0</ele><time>2026-04-25T12:46:10.834Z</time></trkpt><trkpt lat="40.7882833" lon="16.3256567"><ele>240.5</ele><time>2026-04-25T12:46:11.831Z</time></trkpt><trkpt lat="40.7881683" lon="16.32535"><ele>241.0</ele><time>2026-04-25T12:46:12.832Z</time></trkpt><trkpt lat="40.7880517" lon="16.3250483"><ele>241.0</ele><time>2026-04-25T12:46:13.832Z</time></trkpt><trkpt lat="40.7879367" lon="16.32475"><ele>241.0</ele><time>2026-04-25T12:46:14.833Z</time></trkpt><trkpt lat="40.7878167" lon="16.32446"><ele>240.5</ele><time>2026-04-25T12:46:15.832Z</time></trkpt><trkpt lat="40.7876883" lon="16.32418"><ele>240.0</ele><time>2026-04-25T12:46:16.831Z</time></trkpt><trkpt lat="40.7875433" lon="16.323915"><ele>240.0</ele><time>2026-04-25T12:46:17.832Z</time></trkpt><trkpt lat="40.787385" lon="16.3236633"><ele>240.0</ele><time>2026-04-25T12:46:18.831Z</time></trkpt><trkpt lat="40.787215" lon="16.323425"><ele>240.0</ele><time>2026-04-25T12:46:19.832Z</time></trkpt><trkpt lat="40.7870367" lon="16.3231983"><ele>240.0</ele><time>2026-04-25T12:46:20.834Z</time></trkpt><trkpt lat="40.78685" lon="16.32298"><ele>240.5</ele><time>2026-04-25T12:46:21.832Z</time></trkpt><trkpt lat="40.7866533" lon="16.3227733"><ele>241.0</ele><time>2026-04-25T12:46:22.834Z</time></trkpt><trkpt lat="40.7864467" lon="16.32258"><ele>241.0</ele><time>2026-04-25T12:46:23.831Z</time></trkpt><trkpt lat="40.7862317" lon="16.3223983"><ele>241.0</ele><time>2026-04-25T12:46:24.832Z</time></trkpt><trkpt lat="40.7860117" lon="16.322225"><ele>241.0</ele><time>2026-04-25T12:46:25.831Z</time></trkpt><trkpt lat="40.78579" lon="16.3220633"><ele>241.0</ele><time>2026-04-25T12:46:26.832Z</time></trkpt><trkpt lat="40.7855733" lon="16.3219117"><ele>241.0</ele><time>2026-04-25T12:46:27.832Z</time></trkpt><trkpt lat="40.7853633" lon="16.32176"><ele>241.0</ele><time>2026-04-25T12:46:28.832Z</time></trkpt><trkpt lat="40.785165" lon="16.321595"><ele>239.5</ele><time>2026-04-25T12:46:29.832Z</time></trkpt><trkpt lat="40.7849733" lon="16.3214067"><ele>238.0</ele><time>2026-04-25T12:46:30.832Z</time></trkpt><trkpt lat="40.7847967" lon="16.3212017"><ele>236.5</ele><time>2026-04-25T12:46:31.833Z</time></trkpt><trkpt lat="40.7846367" lon="16.320975"><ele>235.0</ele><time>2026-04-25T12:46:32.834Z</time></trkpt><trkpt lat="40.7844933" lon="16.320725"><ele>234.0</ele><time>2026-04-25T12:46:33.832Z</time></trkpt><trkpt lat="40.7843717" lon="16.3204517"><ele>233.0</ele><time>2026-04-25T12:46:34.832Z</time></trkpt><trkpt lat="40.7842667" lon="16.3201617"><ele>232.0</ele><time>2026-04-25T12:46:35.833Z</time></trkpt><trkpt lat="40.7841817" lon="16.319855"><ele>231.0</ele><time>2026-04-25T12:46:36.833Z</time></trkpt><trkpt lat="40.7841133" lon="16.3195367"><ele>231.0</ele><time>2026-04-25T12:46:37.833Z</time></trkpt><trkpt lat="40.7840683" lon="16.3192117"><ele>231.0</ele><time>2026-04-25T12:46:38.832Z</time></trkpt><trkpt lat="40.7840467" lon="16.3188833"><ele>228.5</ele><time>2026-04-25T12:46:39.832Z</time></trkpt><trkpt lat="40.7840483" lon="16.318555"><ele>226.0</ele><time>2026-04-25T12:46:40.833Z</time></trkpt><trkpt lat="40.7840767" lon="16.3182267"><ele>223.5</ele><time>2026-04-25T12:46:41.833Z</time></trkpt><trkpt lat="40.7841217" lon="16.3179017"><ele>221.0</ele><time>2026-04-25T12:46:42.832Z</time></trkpt><trkpt lat="40.7841867" lon="16.317575"><ele>221.0</ele><time>2026-04-25T12:46:43.832Z</time></trkpt><trkpt lat="40.784265" lon="16.31725"><ele>221.0</ele><time>2026-04-25T12:46:44.836Z</time></trkpt><trkpt lat="40.7843467" lon="16.316925"><ele>216.5</ele><time>2026-04-25T12:46:45.832Z</time></trkpt><trkpt lat="40.7844267" lon="16.3165967"><ele>212.0</ele><time>2026-04-25T12:46:46.832Z</time></trkpt><trkpt lat="40.7845067" lon="16.3162683"><ele>211.5</ele><time>2026-04-25T12:46:47.834Z</time></trkpt><trkpt lat="40.7845867" lon="16.3159383"><ele>211.0</ele><time>2026-04-25T12:46:48.832Z</time></trkpt><trkpt lat="40.784665" lon="16.3156117"><ele>209.0</ele><time>2026-04-25T12:46:49.832Z</time></trkpt><trkpt lat="40.7847433" lon="16.3152867"><ele>207.0</ele><time>2026-04-25T12:46:50.833Z</time></trkpt><trkpt lat="40.7848183" lon="16.3149633"><ele>204.5</ele><time>2026-04-25T12:46:51.832Z</time></trkpt><trkpt lat="40.784895" lon="16.31464"><ele>202.0</ele><time>2026-04-25T12:46:52.833Z</time></trkpt><trkpt lat="40.78497" lon="16.3143217"><ele>202.0</ele><time>2026-04-25T12:46:53.833Z</time></trkpt><trkpt lat="40.7850467" lon="16.3140017"><ele>202.0</ele><time>2026-04-25T12:46:54.832Z</time></trkpt><trkpt lat="40.785125" lon="16.3136817"><ele>202.0</ele><time>2026-04-25T12:46:55.832Z</time></trkpt><trkpt lat="40.7852033" lon="16.3133583"><ele>202.0</ele><time>2026-04-25T12:46:56.832Z</time></trkpt><trkpt lat="40.78528" lon="16.31303"><ele>202.0</ele><time>2026-04-25T12:46:57.833Z</time></trkpt><trkpt lat="40.7853483" lon="16.3126983"><ele>202.0</ele><time>2026-04-25T12:46:58.833Z</time></trkpt><trkpt lat="40.785405" lon="16.3123633"><ele>202.0</ele><time>2026-04-25T12:46:59.833Z</time></trkpt><trkpt lat="40.78545" lon="16.3120267"><ele>202.0</ele><time>2026-04-25T12:47:00.833Z</time></trkpt><trkpt lat="40.7854883" lon="16.3116867"><ele>200.5</ele><time>2026-04-25T12:47:01.832Z</time></trkpt><trkpt lat="40.7855217" lon="16.3113483"><ele>199.0</ele><time>2026-04-25T12:47:02.834Z</time></trkpt><trkpt lat="40.78555" lon="16.3110067"><ele>199.0</ele><time>2026-04-25T12:47:03.834Z</time></trkpt><trkpt lat="40.78557" lon="16.310665"><ele>199.0</ele><time>2026-04-25T12:47:04.832Z</time></trkpt><trkpt lat="40.7855833" lon="16.3103233"><ele>199.5</ele><time>2026-04-25T12:47:05.833Z</time></trkpt><trkpt lat="40.7855867" lon="16.3099833"><ele>200.0</ele><time>2026-04-25T12:47:06.832Z</time></trkpt><trkpt lat="40.7855867" lon="16.309645"><ele>199.0</ele><time>2026-04-25T12:47:07.832Z</time></trkpt><trkpt lat="40.785585" lon="16.30931"><ele>198.0</ele><time>2026-04-25T12:47:08.833Z</time></trkpt><trkpt lat="40.785585" lon="16.30898"><ele>199.0</ele><time>2026-04-25T12:47:09.832Z</time></trkpt><trkpt lat="40.7855833" lon="16.30865"><ele>200.0</ele><time>2026-04-25T12:47:10.833Z</time></trkpt><trkpt lat="40.7855817" lon="16.3083217"><ele>199.5</ele><time>2026-04-25T12:47:11.833Z</time></trkpt><trkpt lat="40.7855783" lon="16.308005"><ele>199.0</ele><time>2026-04-25T12:47:12.832Z</time></trkpt><trkpt lat="40.785575" lon="16.30769"><ele>199.0</ele><time>2026-04-25T12:47:13.832Z</time></trkpt><trkpt lat="40.7855767" lon="16.307375"><ele>199.0</ele><time>2026-04-25T12:47:14.832Z</time></trkpt><trkpt lat="40.7855783" lon="16.3070483"><ele>199.5</ele><time>2026-04-25T12:47:15.832Z</time></trkpt><trkpt lat="40.7855767" lon="16.3067067"><ele>200.0</ele><time>2026-04-25T12:47:16.832Z</time></trkpt><trkpt lat="40.785575" lon="16.3063567"><ele>200.0</ele><time>2026-04-25T12:47:17.832Z</time></trkpt><trkpt lat="40.7855733" lon="16.3060017"><ele>200.0</ele><time>2026-04-25T12:47:18.832Z</time></trkpt><trkpt lat="40.7855733" lon="16.3056483"><ele>200.0</ele><time>2026-04-25T12:47:19.834Z</time></trkpt><trkpt lat="40.7855717" lon="16.3053"><ele>200.0</ele><time>2026-04-25T12:47:20.835Z</time></trkpt><trkpt lat="40.7855717" lon="16.3049567"><ele>200.0</ele><time>2026-04-25T12:47:21.833Z</time></trkpt><trkpt lat="40.78557" lon="16.304615"><ele>200.0</ele><time>2026-04-25T12:47:22.833Z</time></trkpt><trkpt lat="40.7855683" lon="16.3042767"><ele>200.0</ele><time>2026-04-25T12:47:23.834Z</time></trkpt><trkpt lat="40.7855667" lon="16.30394"><ele>200.0</ele><time>2026-04-25T12:47:24.833Z</time></trkpt><trkpt lat="40.785565" lon="16.3036067"><ele>200.0</ele><time>2026-04-25T12:47:25.832Z</time></trkpt><trkpt lat="40.785565" lon="16.303275"><ele>200.0</ele><time>2026-04-25T12:47:26.833Z</time></trkpt><trkpt lat="40.785565" lon="16.3029517"><ele>200.0</ele><time>2026-04-25T12:47:27.832Z</time></trkpt><trkpt lat="40.785565" lon="16.3026367"><ele>200.0</ele><time>2026-04-25T12:47:28.833Z</time></trkpt><trkpt lat="40.7855667" lon="16.302325"><ele>200.0</ele><time>2026-04-25T12:47:29.833Z</time></trkpt><trkpt lat="40.7855667" lon="16.30201"><ele>200.0</ele><time>2026-04-25T12:47:30.834Z</time></trkpt><trkpt lat="40.785565" lon="16.3016967"><ele>200.5</ele><time>2026-04-25T12:47:31.832Z</time></trkpt><trkpt lat="40.7855617" lon="16.3013833"><ele>201.0</ele><time>2026-04-25T12:47:32.832Z</time></trkpt><trkpt lat="40.78556" lon="16.3010717"><ele>201.0</ele><time>2026-04-25T12:47:33.831Z</time></trkpt><trkpt lat="40.7855617" lon="16.3007617"><ele>201.0</ele><time>2026-04-25T12:47:34.831Z</time></trkpt><trkpt lat="40.785565" lon="16.3004483"><ele>202.0</ele><time>2026-04-25T12:47:35.832Z</time></trkpt><trkpt lat="40.7855767" lon="16.3001367"><ele>203.0</ele><time>2026-04-25T12:47:36.832Z</time></trkpt><trkpt lat="40.7856" lon="16.2998233"><ele>204.0</ele><time>2026-04-25T12:47:37.832Z</time></trkpt><trkpt lat="40.78564" lon="16.2995083"><ele>205.0</ele><time>2026-04-25T12:47:38.832Z</time></trkpt><trkpt lat="40.7857" lon="16.2991917"><ele>206.0</ele><time>2026-04-25T12:47:39.833Z</time></trkpt><trkpt lat="40.7857833" lon="16.298875"><ele>207.0</ele><time>2026-04-25T12:47:40.832Z</time></trkpt><trkpt lat="40.7858883" lon="16.29856"><ele>207.0</ele><time>2026-04-25T12:47:41.833Z</time></trkpt><trkpt lat="40.7860083" lon="16.2982517"><ele>207.0</ele><time>2026-04-25T12:47:42.832Z</time></trkpt><trkpt lat="40.7861467" lon="16.2979583"><ele>205.5</ele><time>2026-04-25T12:47:43.832Z</time></trkpt><trkpt lat="40.7863033" lon="16.2976733"><ele>204.0</ele><time>2026-04-25T12:47:44.832Z</time></trkpt><trkpt lat="40.7864733" lon="16.2973967"><ele>206.5</ele><time>2026-04-25T12:47:45.833Z</time></trkpt><trkpt lat="40.7866417" lon="16.29712"><ele>209.0</ele><time>2026-04-25T12:47:46.832Z</time></trkpt><trkpt lat="40.7867983" lon="16.29684"><ele>207.5</ele><time>2026-04-25T12:47:47.832Z</time></trkpt><trkpt lat="40.7869417" lon="16.29656"><ele>206.0</ele><time>2026-04-25T12:47:48.931Z</time></trkpt><trkpt lat="40.7870717" lon="16.2962717"><ele>206.0</ele><time>2026-04-25T12:47:49.834Z</time></trkpt><trkpt lat="40.7871867" lon="16.2959767"><ele>206.0</ele><time>2026-04-25T12:47:50.834Z</time></trkpt><trkpt lat="40.7872917" lon="16.2956783"><ele>206.5</ele><time>2026-04-25T12:47:51.834Z</time></trkpt><trkpt lat="40.7873867" lon="16.2953733"><ele>207.0</ele><time>2026-04-25T12:47:52.832Z</time></trkpt><trkpt lat="40.7874733" lon="16.2950667"><ele>207.0</ele><time>2026-04-25T12:47:53.833Z</time></trkpt><trkpt lat="40.787555" lon="16.29476"><ele>207.0</ele><time>2026-04-25T12:47:54.832Z</time></trkpt><trkpt lat="40.787635" lon="16.29445"><ele>207.5</ele><time>2026-04-25T12:47:55.832Z</time></trkpt><trkpt lat="40.7877167" lon="16.29414"><ele>208.0</ele><time>2026-04-25T12:47:56.834Z</time></trkpt><trkpt lat="40.7877967" lon="16.29383"><ele>208.0</ele><time>2026-04-25T12:47:57.833Z</time></trkpt><trkpt lat="40.7878783" lon="16.2935167"><ele>208.0</ele><time>2026-04-25T12:47:58.831Z</time></trkpt><trkpt lat="40.7879617" lon="16.2932033"><ele>209.0</ele><time>2026-04-25T12:47:59.832Z</time></trkpt><trkpt lat="40.78804" lon="16.29289"><ele>210.0</ele><time>2026-04-25T12:48:00.831Z</time></trkpt><trkpt lat="40.7881167" lon="16.29257"><ele>210.0</ele><time>2026-04-25T12:48:01.833Z</time></trkpt><trkpt lat="40.7882017" lon="16.2922567"><ele>210.0</ele><time>2026-04-25T12:48:02.833Z</time></trkpt><trkpt lat="40.7882867" lon="16.2919433"><ele>210.0</ele><time>2026-04-25T12:48:03.833Z</time></trkpt><trkpt lat="40.7883683" lon="16.2916317"><ele>210.0</ele><time>2026-04-25T12:48:04.833Z</time></trkpt><trkpt lat="40.78845" lon="16.29132"><ele>207.5</ele><time>2026-04-25T12:48:05.832Z</time></trkpt><trkpt lat="40.7885317" lon="16.2910067"><ele>205.0</ele><time>2026-04-25T12:48:06.834Z</time></trkpt><trkpt lat="40.7886117" lon="16.2906933"><ele>206.5</ele><time>2026-04-25T12:48:07.833Z</time></trkpt><trkpt lat="40.7886917" lon="16.2903817"><ele>208.0</ele><time>2026-04-25T12:48:08.833Z</time></trkpt><trkpt lat="40.7887733" lon="16.2900733"><ele>208.0</ele><time>2026-04-25T12:48:09.833Z</time></trkpt><trkpt lat="40.7888517" lon="16.289765"><ele>208.0</ele><time>2026-04-25T12:48:10.833Z</time></trkpt><trkpt lat="40.7889317" lon="16.2894583"><ele>208.5</ele><time>2026-04-25T12:48:11.833Z</time></trkpt><trkpt lat="40.7890117" lon="16.2891567"><ele>209.0</ele><time>2026-04-25T12:48:12.831Z</time></trkpt><trkpt lat="40.7890933" lon="16.2888567"><ele>209.0</ele><time>2026-04-25T12:48:13.832Z</time></trkpt><trkpt lat="40.789175" lon="16.2885567"><ele>209.0</ele><time>2026-04-25T12:48:14.833Z</time></trkpt><trkpt lat="40.7892517" lon="16.2882567"><ele>209.5</ele><time>2026-04-25T12:48:15.831Z</time></trkpt><trkpt lat="40.7893283" lon="16.2879567"><ele>210.0</ele><time>2026-04-25T12:48:16.832Z</time></trkpt><trkpt lat="40.7894" lon="16.28766"><ele>210.0</ele><time>2026-04-25T12:48:17.832Z</time></trkpt><trkpt lat="40.7894617" lon="16.2873767"><ele>210.0</ele><time>2026-04-25T12:48:18.832Z</time></trkpt><trkpt lat="40.7895133" lon="16.2871017"><ele>210.0</ele><time>2026-04-25T12:48:19.833Z</time></trkpt><trkpt lat="40.789555" lon="16.2868333"><ele>210.33333333333331</ele><time>2026-04-25T12:48:20.833Z</time></trkpt><trkpt lat="40.7895867" lon="16.286575"><ele>210.66666666666666</ele><time>2026-04-25T12:48:21.834Z</time></trkpt><trkpt lat="40.78961" lon="16.2863317"><ele>211.0</ele><time>2026-04-25T12:48:22.832Z</time></trkpt><trkpt lat="40.7896283" lon="16.2861017"><ele>211.0</ele><time>2026-04-25T12:48:23.833Z</time></trkpt><trkpt lat="40.789645" lon="16.285885"><ele>211.0</ele><time>2026-04-25T12:48:24.834Z</time></trkpt><trkpt lat="40.789655" lon="16.2856817"><ele>211.0</ele><time>2026-04-25T12:48:25.831Z</time></trkpt><trkpt lat="40.789665" lon="16.285485"><ele>211.5</ele><time>2026-04-25T12:48:26.834Z</time></trkpt><trkpt lat="40.7896733" lon="16.285305"><ele>212.0</ele><time>2026-04-25T12:48:27.832Z</time></trkpt><trkpt lat="40.7896917" lon="16.2851417"><ele>212.5</ele><time>2026-04-25T12:48:28.831Z</time></trkpt><trkpt lat="40.7897233" lon="16.284995"><ele>213.0</ele><time>2026-04-25T12:48:29.832Z</time></trkpt><trkpt lat="40.7897583" lon="16.28487"><ele>212.60000000000002</ele><time>2026-04-25T12:48:30.831Z</time></trkpt><trkpt lat="40.789775" lon="16.28474"><ele>212.20000000000002</ele><time>2026-04-25T12:48:31.831Z</time></trkpt><trkpt lat="40.7897667" lon="16.2846083"><ele>211.8</ele><time>2026-04-25T12:48:32.834Z</time></trkpt><trkpt lat="40.7897417" lon="16.28447"><ele>211.4</ele><time>2026-04-25T12:48:33.831Z</time></trkpt><trkpt lat="40.789725" lon="16.28434"><ele>211.0</ele><time>2026-04-25T12:48:34.83Z</time></trkpt><trkpt lat="40.7897233" lon="16.284215"><ele>211.0</ele><time>2026-04-25T12:48:35.831Z</time></trkpt><trkpt lat="40.7897283" lon="16.284095"><ele>211.0</ele><time>2026-04-25T12:48:36.834Z</time></trkpt><trkpt lat="40.7897333" lon="16.2839733"><ele>211.0</ele><time>2026-04-25T12:48:37.832Z</time></trkpt><trkpt lat="40.7897367" lon="16.2838483"><ele>211.0</ele><time>2026-04-25T12:48:38.833Z</time></trkpt><trkpt lat="40.7897383" lon="16.283725"><ele>211.0</ele><time>2026-04-25T12:48:39.831Z</time></trkpt><trkpt lat="40.7897417" lon="16.2836067"><ele>211.4</ele><time>2026-04-25T12:48:40.831Z</time></trkpt><trkpt lat="40.789745" lon="16.2834883"><ele>211.8</ele><time>2026-04-25T12:48:41.833Z</time></trkpt><trkpt lat="40.78975" lon="16.28337"><ele>212.20000000000002</ele><time>2026-04-25T12:48:42.832Z</time></trkpt><trkpt lat="40.789755" lon="16.2832467"><ele>212.60000000000002</ele><time>2026-04-25T12:48:43.832Z</time></trkpt><trkpt lat="40.7897633" lon="16.2831017"><ele>213.0</ele><time>2026-04-25T12:48:44.832Z</time></trkpt><trkpt lat="40.7897733" lon="16.2829233"><ele>213.0</ele><time>2026-04-25T12:48:45.833Z</time></trkpt><trkpt lat="40.7897833" lon="16.2827067"><ele>213.0</ele><time>2026-04-25T12:48:46.832Z</time></trkpt><trkpt lat="40.7897933" lon="16.282465"><ele>213.0</ele><time>2026-04-25T12:48:47.832Z</time></trkpt><trkpt lat="40.789805" lon="16.2821983"><ele>213.33333333333331</ele><time>2026-04-25T12:48:48.836Z</time></trkpt><trkpt lat="40.7898183" lon="16.281915"><ele>213.66666666666666</ele><time>2026-04-25T12:48:49.832Z</time></trkpt><trkpt lat="40.7898283" lon="16.2816367"><ele>214.0</ele><time>2026-04-25T12:48:50.835Z</time></trkpt><trkpt lat="40.7898333" lon="16.2813567"><ele>214.0</ele><time>2026-04-25T12:48:51.832Z</time></trkpt><trkpt lat="40.78983" lon="16.2810733"><ele>214.0</ele><time>2026-04-25T12:48:52.832Z</time></trkpt><trkpt lat="40.789825" lon="16.2807867"><ele>214.0</ele><time>2026-04-25T12:48:53.833Z</time></trkpt><trkpt lat="40.7898133" lon="16.2804983"><ele>214.0</ele><time>2026-04-25T12:48:54.833Z</time></trkpt><trkpt lat="40.7897967" lon="16.28021"><ele>214.0</ele><time>2026-04-25T12:48:55.832Z</time></trkpt><trkpt lat="40.7897733" lon="16.2799217"><ele>214.0</ele><time>2026-04-25T12:48:56.832Z</time></trkpt><trkpt lat="40.7897417" lon="16.2796333"><ele>214.0</ele><time>2026-04-25T12:48:57.833Z</time></trkpt><trkpt lat="40.7897067" lon="16.27935"><ele>214.0</ele><time>2026-04-25T12:48:58.832Z</time></trkpt><trkpt lat="40.78967" lon="16.27907"><ele>214.0</ele><time>2026-04-25T12:48:59.833Z</time></trkpt><trkpt lat="40.78963" lon="16.27879"><ele>214.0</ele><time>2026-04-25T12:49:00.833Z</time></trkpt><trkpt lat="40.7895883" lon="16.2785083"><ele>214.0</ele><time>2026-04-25T12:49:01.832Z</time></trkpt><trkpt lat="40.7895483" lon="16.2782267"><ele>214.0</ele><time>2026-04-25T12:49:02.833Z</time></trkpt><trkpt lat="40.7895083" lon="16.2779433"><ele>214.33333333333331</ele><time>2026-04-25T12:49:03.833Z</time></trkpt><trkpt lat="40.7894667" lon="16.2776583"><ele>214.66666666666669</ele><time>2026-04-25T12:49:04.832Z</time></trkpt><trkpt lat="40.789425" lon="16.277376"><ele>215.0</ele><time>2026-04-25T12:49:05.832Z</time></trkpt><trkpt lat="40.7893833" lon="16.2770942"><ele>217.33333333333334</ele><time>2026-04-25T12:49:06.834Z</time></trkpt><trkpt lat="40.7893416" lon="16.2768115"><ele>219.66666666666669</ele><time>2026-04-25T12:49:07.834Z</time></trkpt><trkpt lat="40.7892977" lon="16.2765286"><ele>222.0</ele><time>2026-04-25T12:49:08.833Z</time></trkpt><trkpt lat="40.7892529" lon="16.2762451"><ele>222.0</ele><time>2026-04-25T12:49:09.834Z</time></trkpt><trkpt lat="40.789209" lon="16.2759585"><ele>222.0</ele><time>2026-04-25T12:49:10.834Z</time></trkpt><trkpt lat="40.7891642" lon="16.2756689"><ele>222.0</ele><time>2026-04-25T12:49:11.832Z</time></trkpt><trkpt lat="40.7891215" lon="16.2753758"><ele>220.0</ele><time>2026-04-25T12:49:12.833Z</time></trkpt><trkpt lat="40.7890793" lon="16.2750791"><ele>218.0</ele><time>2026-04-25T12:49:13.833Z</time></trkpt><trkpt lat="40.7890375" lon="16.2747831"><ele>218.0</ele><time>2026-04-25T12:49:14.834Z</time></trkpt><trkpt lat="40.788997" lon="16.2744938"><ele>218.0</ele><time>2026-04-25T12:49:15.834Z</time></trkpt><trkpt lat="40.7889562" lon="16.2742132"><ele>218.0</ele><time>2026-04-25T12:49:16.833Z</time></trkpt><trkpt lat="40.7889171" lon="16.2739341"><ele>218.0</ele><time>2026-04-25T12:49:17.833Z</time></trkpt><trkpt lat="40.7888764" lon="16.2736559"><ele>218.0</ele><time>2026-04-25T12:49:18.832Z</time></trkpt><trkpt lat="40.788835" lon="16.273375"><ele>218.0</ele><time>2026-04-25T12:49:19.832Z</time></trkpt><trkpt lat="40.7887934" lon="16.2730935"><ele>219.0</ele><time>2026-04-25T12:49:20.833Z</time></trkpt><trkpt lat="40.788754" lon="16.2728118"><ele>220.0</ele><time>2026-04-25T12:49:21.832Z</time></trkpt><trkpt lat="40.7887142" lon="16.2725275"><ele>221.0</ele><time>2026-04-25T12:49:22.834Z</time></trkpt><trkpt lat="40.7886729" lon="16.2722434"><ele>222.0</ele><time>2026-04-25T12:49:23.833Z</time></trkpt><trkpt lat="40.7886257" lon="16.2719599"><ele>223.0</ele><time>2026-04-25T12:49:24.832Z</time></trkpt><trkpt lat="40.788573" lon="16.2716781"><ele>224.0</ele><time>2026-04-25T12:49:25.832Z</time></trkpt><trkpt lat="40.7885165" lon="16.2713967"><ele>224.0</ele><time>2026-04-25T12:49:26.832Z</time></trkpt><trkpt lat="40.7884575" lon="16.2711153"><ele>224.0</ele><time>2026-04-25T12:49:27.832Z</time></trkpt><trkpt lat="40.7884" lon="16.2708333"><ele>224.0</ele><time>2026-04-25T12:49:28.832Z</time></trkpt><trkpt lat="40.7883454" lon="16.2705541"><ele>224.33333333333334</ele><time>2026-04-25T12:49:29.833Z</time></trkpt><trkpt lat="40.7882862" lon="16.2702763"><ele>224.66666666666669</ele><time>2026-04-25T12:49:30.832Z</time></trkpt><trkpt lat="40.7882263" lon="16.2699982"><ele>225.0</ele><time>2026-04-25T12:49:31.831Z</time></trkpt><trkpt lat="40.7881641" lon="16.26972"><ele>225.66666666666669</ele><time>2026-04-25T12:49:32.835Z</time></trkpt><trkpt lat="40.7881034" lon="16.269443"><ele>226.33333333333334</ele><time>2026-04-25T12:49:33.832Z</time></trkpt><trkpt lat="40.7880421" lon="16.2691649"><ele>227.0</ele><time>2026-04-25T12:49:34.831Z</time></trkpt><trkpt lat="40.7879816" lon="16.2688849"><ele>227.66666666666669</ele><time>2026-04-25T12:49:35.832Z</time></trkpt><trkpt lat="40.7879214" lon="16.2686062"><ele>228.33333333333331</ele><time>2026-04-25T12:49:36.834Z</time></trkpt><trkpt lat="40.7878614" lon="16.2683255"><ele>229.0</ele><time>2026-04-25T12:49:37.833Z</time></trkpt><trkpt lat="40.7878017" lon="16.2680433"><ele>229.33333333333331</ele><time>2026-04-25T12:49:38.833Z</time></trkpt><trkpt lat="40.7877417" lon="16.2677633"><ele>229.66666666666669</ele><time>2026-04-25T12:49:39.832Z</time></trkpt><trkpt lat="40.7876833" lon="16.2674833"><ele>230.0</ele><time>2026-04-25T12:49:40.832Z</time></trkpt><trkpt lat="40.787625" lon="16.267205"><ele>230.0</ele><time>2026-04-25T12:49:41.832Z</time></trkpt><trkpt lat="40.7875667" lon="16.2669267"><ele>230.0</ele><time>2026-04-25T12:49:42.832Z</time></trkpt><trkpt lat="40.7875083" lon="16.26665"><ele>230.0</ele><time>2026-04-25T12:49:43.831Z</time></trkpt><trkpt lat="40.7874517" lon="16.2663717"><ele>230.0</ele><time>2026-04-25T12:49:44.833Z</time></trkpt><trkpt lat="40.7873967" lon="16.2660917"><ele>230.0</ele><time>2026-04-25T12:49:45.832Z</time></trkpt><trkpt lat="40.7873433" lon="16.2658117"><ele>230.0</ele><time>2026-04-25T12:49:46.832Z</time></trkpt><trkpt lat="40.7872933" lon="16.2655317"><ele>230.66666666666669</ele><time>2026-04-25T12:49:47.832Z</time></trkpt><trkpt lat="40.7872417" lon="16.265255"><ele>231.33333333333331</ele><time>2026-04-25T12:49:48.832Z</time></trkpt><trkpt lat="40.7871933" lon="16.2649783"><ele>232.0</ele><time>2026-04-25T12:49:49.833Z</time></trkpt><trkpt lat="40.7871483" lon="16.264705"><ele>233.0</ele><time>2026-04-25T12:49:50.834Z</time></trkpt><trkpt lat="40.7871033" lon="16.26443"><ele>234.0</ele><time>2026-04-25T12:49:51.833Z</time></trkpt><trkpt lat="40.7870617" lon="16.2641533"><ele>235.0</ele><time>2026-04-25T12:49:52.832Z</time></trkpt><trkpt lat="40.78702" lon="16.2638767"><ele>235.0</ele><time>2026-04-25T12:49:53.832Z</time></trkpt><trkpt lat="40.7869817" lon="16.2635983"><ele>235.0</ele><time>2026-04-25T12:49:54.833Z</time></trkpt><trkpt lat="40.786945" lon="16.2633167"><ele>235.0</ele><time>2026-04-25T12:49:55.832Z</time></trkpt><trkpt lat="40.7869067" lon="16.2630383"><ele>234.66666666666666</ele><time>2026-04-25T12:49:56.833Z</time></trkpt><trkpt lat="40.7868667" lon="16.26276"><ele>234.33333333333331</ele><time>2026-04-25T12:49:57.832Z</time></trkpt><trkpt lat="40.78683" lon="16.2624817"><ele>234.0</ele><time>2026-04-25T12:49:58.831Z</time></trkpt><trkpt lat="40.7867933" lon="16.2622033"><ele>234.0</ele><time>2026-04-25T12:49:59.832Z</time></trkpt><trkpt lat="40.7867567" lon="16.2619283"><ele>234.0</ele><time>2026-04-25T12:50:00.832Z</time></trkpt><trkpt lat="40.7867217" lon="16.2616533"><ele>234.0</ele><time>2026-04-25T12:50:01.832Z</time></trkpt><trkpt lat="40.7866833" lon="16.2613783"><ele>234.0</ele><time>2026-04-25T12:50:02.832Z</time></trkpt><trkpt lat="40.786645" lon="16.2611017"><ele>234.0</ele><time>2026-04-25T12:50:03.835Z</time></trkpt><trkpt lat="40.7866083" lon="16.2608267"><ele>234.0</ele><time>2026-04-25T12:50:04.832Z</time></trkpt><trkpt lat="40.78657" lon="16.2605517"><ele>234.33333333333331</ele><time>2026-04-25T12:50:05.832Z</time></trkpt><trkpt lat="40.7865333" lon="16.260275"><ele>234.66666666666666</ele><time>2026-04-25T12:50:06.832Z</time></trkpt><trkpt lat="40.7864967" lon="16.2600017"><ele>235.0</ele><time>2026-04-25T12:50:07.833Z</time></trkpt><trkpt lat="40.7864633" lon="16.25973"><ele>235.0</ele><time>2026-04-25T12:50:08.832Z</time></trkpt><trkpt lat="40.7864367" lon="16.259455"><ele>235.0</ele><time>2026-04-25T12:50:09.833Z</time></trkpt><trkpt lat="40.7864217" lon="16.2591767"><ele>235.0</ele><time>2026-04-25T12:50:10.832Z</time></trkpt><trkpt lat="40.78642" lon="16.2588967"><ele>235.66666666666666</ele><time>2026-04-25T12:50:11.832Z</time></trkpt><trkpt lat="40.786435" lon="16.2586167"><ele>236.33333333333331</ele><time>2026-04-25T12:50:12.832Z</time></trkpt><trkpt lat="40.7864683" lon="16.25834"><ele>237.0</ele><time>2026-04-25T12:50:13.832Z</time></trkpt><trkpt lat="40.78652" lon="16.2580667"><ele>237.66666666666669</ele><time>2026-04-25T12:50:14.832Z</time></trkpt><trkpt lat="40.78659" lon="16.2577983"><ele>238.33333333333334</ele><time>2026-04-25T12:50:15.832Z</time></trkpt><trkpt lat="40.7866767" lon="16.2575383"><ele>239.0</ele><time>2026-04-25T12:50:16.832Z</time></trkpt><trkpt lat="40.7867767" lon="16.25729"><ele>239.0</ele><time>2026-04-25T12:50:17.833Z</time></trkpt><trkpt lat="40.7868933" lon="16.2570483"><ele>239.0</ele><time>2026-04-25T12:50:18.833Z</time></trkpt><trkpt lat="40.787025" lon="16.25682"><ele>239.0</ele><time>2026-04-25T12:50:19.831Z</time></trkpt><trkpt lat="40.7871667" lon="16.2566033"><ele>239.0</ele><time>2026-04-25T12:50:20.834Z</time></trkpt><trkpt lat="40.7873117" lon="16.2563883"><ele>239.0</ele><time>2026-04-25T12:50:21.832Z</time></trkpt><trkpt lat="40.7874533" lon="16.2561733"><ele>239.0</ele><time>2026-04-25T12:50:22.833Z</time></trkpt><trkpt lat="40.7875883" lon="16.25595"><ele>239.0</ele><time>2026-04-25T12:50:23.831Z</time></trkpt><trkpt lat="40.7877083" lon="16.255715"><ele>239.0</ele><time>2026-04-25T12:50:24.831Z</time></trkpt><trkpt lat="40.7878183" lon="16.25547"><ele>239.0</ele><time>2026-04-25T12:50:25.833Z</time></trkpt><trkpt lat="40.7879133" lon="16.2552133"><ele>239.66666666666669</ele><time>2026-04-25T12:50:26.833Z</time></trkpt><trkpt lat="40.7879933" lon="16.2549483"><ele>240.33333333333331</ele><time>2026-04-25T12:50:27.832Z</time></trkpt><trkpt lat="40.7880617" lon="16.2546817"><ele>241.0</ele><time>2026-04-25T12:50:28.833Z</time></trkpt><trkpt lat="40.7881233" lon="16.25441"><ele>241.33333333333331</ele><time>2026-04-25T12:50:29.833Z</time></trkpt><trkpt lat="40.7881817" lon="16.2541383"><ele>241.66666666666669</ele><time>2026-04-25T12:50:30.832Z</time></trkpt><trkpt lat="40.7882417" lon="16.253865"><ele>242.0</ele><time>2026-04-25T12:50:31.832Z</time></trkpt><trkpt lat="40.7883017" lon="16.2535917"><ele>242.66666666666669</ele><time>2026-04-25T12:50:32.833Z</time></trkpt><trkpt lat="40.7883633" lon="16.2533183"><ele>243.33333333333331</ele><time>2026-04-25T12:50:33.833Z</time></trkpt><trkpt lat="40.7884233" lon="16.253045"><ele>244.0</ele><time>2026-04-25T12:50:34.833Z</time></trkpt><trkpt lat="40.788485" lon="16.2527717"><ele>243.0</ele><time>2026-04-25T12:50:35.833Z</time></trkpt><trkpt lat="40.788545" lon="16.2524967"><ele>242.0</ele><time>2026-04-25T12:50:36.833Z</time></trkpt><trkpt lat="40.788605" lon="16.2522233"><ele>241.0</ele><time>2026-04-25T12:50:37.834Z</time></trkpt><trkpt lat="40.7886667" lon="16.2519517"><ele>241.0</ele><time>2026-04-25T12:50:38.833Z</time></trkpt><trkpt lat="40.7887283" lon="16.25168"><ele>241.0</ele><time>2026-04-25T12:50:39.833Z</time></trkpt><trkpt lat="40.7887883" lon="16.2514083"><ele>241.0</ele><time>2026-04-25T12:50:40.832Z</time></trkpt><trkpt lat="40.78885" lon="16.2511367"><ele>241.66666666666666</ele><time>2026-04-25T12:50:41.833Z</time></trkpt><trkpt lat="40.78891" lon="16.2508667"><ele>242.33333333333331</ele><time>2026-04-25T12:50:42.832Z</time></trkpt><trkpt lat="40.7889683" lon="16.2505933"><ele>243.0</ele><time>2026-04-25T12:50:43.832Z</time></trkpt><trkpt lat="40.7890283" lon="16.25032"><ele>244.66666666666669</ele><time>2026-04-25T12:50:44.834Z</time></trkpt><trkpt lat="40.789085" lon="16.2500433"><ele>246.33333333333334</ele><time>2026-04-25T12:50:45.834Z</time></trkpt><trkpt lat="40.789145" lon="16.2497667"><ele>248.0</ele><time>2026-04-25T12:50:46.832Z</time></trkpt><trkpt lat="40.789205" lon="16.2494867"><ele>248.66666666666669</ele><time>2026-04-25T12:50:47.833Z</time></trkpt><trkpt lat="40.789265" lon="16.2492067"><ele>249.33333333333331</ele><time>2026-04-25T12:50:48.833Z</time></trkpt><trkpt lat="40.789325" lon="16.248925"><ele>250.0</ele><time>2026-04-25T12:50:49.832Z</time></trkpt><trkpt lat="40.7893833" lon="16.2486417"><ele>250.0</ele><time>2026-04-25T12:50:50.833Z</time></trkpt><trkpt lat="40.7894467" lon="16.2483583"><ele>250.0</ele><time>2026-04-25T12:50:51.832Z</time></trkpt><trkpt lat="40.78951" lon="16.248075"><ele>250.0</ele><time>2026-04-25T12:50:52.832Z</time></trkpt><trkpt lat="40.7895717" lon="16.2477933"><ele>250.0</ele><time>2026-04-25T12:50:53.833Z</time></trkpt><trkpt lat="40.7896283" lon="16.247515"><ele>250.0</ele><time>2026-04-25T12:50:54.833Z</time></trkpt><trkpt lat="40.7896867" lon="16.247235"><ele>250.0</ele><time>2026-04-25T12:50:55.832Z</time></trkpt><trkpt lat="40.7897433" lon="16.246955"><ele>250.0</ele><time>2026-04-25T12:50:56.833Z</time></trkpt><trkpt lat="40.7898017" lon="16.2466767"><ele>250.0</ele><time>2026-04-25T12:50:57.832Z</time></trkpt><trkpt lat="40.78986" lon="16.2463983"><ele>250.0</ele><time>2026-04-25T12:50:58.832Z</time></trkpt><trkpt lat="40.7899183" lon="16.2461233"><ele>250.66666666666666</ele><time>2026-04-25T12:50:59.832Z</time></trkpt><trkpt lat="40.7899783" lon="16.2458483"><ele>251.33333333333331</ele><time>2026-04-25T12:51:00.832Z</time></trkpt><trkpt lat="40.7900367" lon="16.2455717"><ele>252.0</ele><time>2026-04-25T12:51:01.832Z</time></trkpt><trkpt lat="40.7900933" lon="16.2452933"><ele>252.0</ele><time>2026-04-25T12:51:02.833Z</time></trkpt><trkpt lat="40.7901483" lon="16.2450133"><ele>252.0</ele><time>2026-04-25T12:51:03.833Z</time></trkpt><trkpt lat="40.7902017" lon="16.244735"><ele>252.0</ele><time>2026-04-25T12:51:04.832Z</time></trkpt><trkpt lat="40.7902567" lon="16.2444583"><ele>252.0</ele><time>2026-04-25T12:51:05.831Z</time></trkpt><trkpt lat="40.790315" lon="16.2441817"><ele>252.0</ele><time>2026-04-25T12:51:06.833Z</time></trkpt><trkpt lat="40.7903717" lon="16.24391"><ele>252.0</ele><time>2026-04-25T12:51:07.832Z</time></trkpt><trkpt lat="40.79043" lon="16.243635"><ele>252.66666666666669</ele><time>2026-04-25T12:51:08.833Z</time></trkpt><trkpt lat="40.7904867" lon="16.243365"><ele>253.33333333333334</ele><time>2026-04-25T12:51:09.832Z</time></trkpt><trkpt lat="40.7905433" lon="16.2430967"><ele>254.0</ele><time>2026-04-25T12:51:10.832Z</time></trkpt><trkpt lat="40.7905983" lon="16.24282"><ele>253.33333333333334</ele><time>2026-04-25T12:51:11.833Z</time></trkpt><trkpt lat="40.7906533" lon="16.2425383"><ele>252.66666666666669</ele><time>2026-04-25T12:51:12.833Z</time></trkpt><trkpt lat="40.7907083" lon="16.2422533"><ele>252.0</ele><time>2026-04-25T12:51:13.833Z</time></trkpt><trkpt lat="40.7907633" lon="16.2419683"><ele>252.0</ele><time>2026-04-25T12:51:14.832Z</time></trkpt><trkpt lat="40.7908167" lon="16.2416817"><ele>252.0</ele><time>2026-04-25T12:51:15.83Z</time></trkpt><trkpt lat="40.7908633" lon="16.2413933"><ele>252.0</ele><time>2026-04-25T12:51:16.832Z</time></trkpt><trkpt lat="40.7908933" lon="16.2411067"><ele>253.0</ele><time>2026-04-25T12:51:17.833Z</time></trkpt><trkpt lat="40.7909067" lon="16.2408217"><ele>254.0</ele><time>2026-04-25T12:51:18.832Z</time></trkpt><trkpt lat="40.7909033" lon="16.240535"><ele>255.0</ele><time>2026-04-25T12:51:19.839Z</time></trkpt><trkpt lat="40.7908783" lon="16.2402467"><ele>255.0</ele><time>2026-04-25T12:51:20.833Z</time></trkpt><trkpt lat="40.7908383" lon="16.23996"><ele>255.0</ele><time>2026-04-25T12:51:21.834Z</time></trkpt><trkpt lat="40.79078" lon="16.239675"><ele>255.0</ele><time>2026-04-25T12:51:22.834Z</time></trkpt><trkpt lat="40.790705" lon="16.2393933"><ele>255.0</ele><time>2026-04-25T12:51:23.833Z</time></trkpt><trkpt lat="40.7906133" lon="16.2391183"><ele>255.0</ele><time>2026-04-25T12:51:24.832Z</time></trkpt><trkpt lat="40.7905033" lon="16.2388567"><ele>256.5</ele><time>2026-04-25T12:51:25.833Z</time></trkpt><trkpt lat="40.79038" lon="16.2386067"><ele>258.0</ele><time>2026-04-25T12:51:26.833Z</time></trkpt><trkpt lat="40.7902483" lon="16.2383617"><ele>257.6666666666667</ele><time>2026-04-25T12:51:27.833Z</time></trkpt><trkpt lat="40.7901133" lon="16.2381233"><ele>257.33333333333337</ele><time>2026-04-25T12:51:28.833Z</time></trkpt><trkpt lat="40.7899767" lon="16.2378933"><ele>257.0</ele><time>2026-04-25T12:51:29.833Z</time></trkpt><trkpt lat="40.7898433" lon="16.237665"><ele>257.0</ele><time>2026-04-25T12:51:30.832Z</time></trkpt><trkpt lat="40.7897133" lon="16.2374383"><ele>257.0</ele><time>2026-04-25T12:51:31.833Z</time></trkpt><trkpt lat="40.7895833" lon="16.23721"><ele>257.0</ele><time>2026-04-25T12:51:32.834Z</time></trkpt><trkpt lat="40.7894617" lon="16.236975"><ele>257.33333333333337</ele><time>2026-04-25T12:51:33.833Z</time></trkpt><trkpt lat="40.7893483" lon="16.2367283"><ele>257.6666666666667</ele><time>2026-04-25T12:51:34.833Z</time></trkpt><trkpt lat="40.78925" lon="16.23647"><ele>258.0</ele><time>2026-04-25T12:51:35.833Z</time></trkpt><trkpt lat="40.7891667" lon="16.2362"><ele>258.3333333333333</ele><time>2026-04-25T12:51:36.832Z</time></trkpt><trkpt lat="40.7891017" lon="16.2359217"><ele>258.66666666666663</ele><time>2026-04-25T12:51:37.834Z</time></trkpt><trkpt lat="40.7890567" lon="16.23564"><ele>259.0</ele><time>2026-04-25T12:51:38.834Z</time></trkpt><trkpt lat="40.7890317" lon="16.235355"><ele>259.0</ele><time>2026-04-25T12:51:39.833Z</time></trkpt><trkpt lat="40.7890217" lon="16.2350683"><ele>259.0</ele><time>2026-04-25T12:51:40.833Z</time></trkpt><trkpt lat="40.7890267" lon="16.2347833"><ele>259.0</ele><time>2026-04-25T12:51:41.834Z</time></trkpt><trkpt lat="40.7890517" lon="16.2345"><ele>259.66666666666663</ele><time>2026-04-25T12:51:42.833Z</time></trkpt><trkpt lat="40.7890933" lon="16.23422"><ele>260.3333333333333</ele><time>2026-04-25T12:51:43.833Z</time></trkpt><trkpt lat="40.7891517" lon="16.233945"><ele>261.0</ele><time>2026-04-25T12:51:44.833Z</time></trkpt><trkpt lat="40.7892267" lon="16.233675"><ele>261.6666666666667</ele><time>2026-04-25T12:51:45.835Z</time></trkpt><trkpt lat="40.7893133" lon="16.2334117"><ele>262.33333333333337</ele><time>2026-04-25T12:51:46.832Z</time></trkpt><trkpt lat="40.7894083" lon="16.2331533"><ele>263.0</ele><time>2026-04-25T12:51:47.833Z</time></trkpt><trkpt lat="40.7895017" lon="16.2328967"><ele>263.0</ele><time>2026-04-25T12:51:48.833Z</time></trkpt><trkpt lat="40.789595" lon="16.232645"><ele>263.0</ele><time>2026-04-25T12:51:49.833Z</time></trkpt><trkpt lat="40.789685" lon="16.2323933"><ele>263.0</ele><time>2026-04-25T12:51:50.834Z</time></trkpt><trkpt lat="40.7897767" lon="16.232145"><ele>263.33333333333337</ele><time>2026-04-25T12:51:51.834Z</time></trkpt><trkpt lat="40.7898667" lon="16.231895"><ele>263.6666666666667</ele><time>2026-04-25T12:51:52.834Z</time></trkpt><trkpt lat="40.7899567" lon="16.2316467"><ele>264.0</ele><time>2026-04-25T12:51:53.834Z</time></trkpt><trkpt lat="40.7900467" lon="16.2313967"><ele>264.3333333333333</ele><time>2026-04-25T12:51:54.833Z</time></trkpt><trkpt lat="40.7901367" lon="16.2311467"><ele>264.66666666666663</ele><time>2026-04-25T12:51:55.833Z</time></trkpt><trkpt lat="40.7902267" lon="16.2308917"><ele>265.0</ele><time>2026-04-25T12:51:56.833Z</time></trkpt><trkpt lat="40.7903167" lon="16.23063"><ele>265.3333333333333</ele><time>2026-04-25T12:51:57.833Z</time></trkpt><trkpt lat="40.7904017" lon="16.2303633"><ele>265.6666666666667</ele><time>2026-04-25T12:51:58.833Z</time></trkpt><trkpt lat="40.7904817" lon="16.23009"><ele>266.0</ele><time>2026-04-25T12:51:59.833Z</time></trkpt><trkpt lat="40.7905467" lon="16.2298083"><ele>266.0</ele><time>2026-04-25T12:52:00.833Z</time></trkpt><trkpt lat="40.790595" lon="16.22952"><ele>266.0</ele><time>2026-04-25T12:52:01.833Z</time></trkpt><trkpt lat="40.7906283" lon="16.2292267"><ele>266.0</ele><time>2026-04-25T12:52:02.833Z</time></trkpt><trkpt lat="40.7906417" lon="16.2289283"><ele>267.0</ele><time>2026-04-25T12:52:03.833Z</time></trkpt><trkpt lat="40.7906383" lon="16.2286317"><ele>268.0</ele><time>2026-04-25T12:52:04.832Z</time></trkpt><trkpt lat="40.7906167" lon="16.2283333"><ele>268.5</ele><time>2026-04-25T12:52:05.834Z</time></trkpt><trkpt lat="40.7905833" lon="16.2280383"><ele>269.0</ele><time>2026-04-25T12:52:06.833Z</time></trkpt><trkpt lat="40.7905483" lon="16.227745"><ele>269.0</ele><time>2026-04-25T12:52:07.833Z</time></trkpt><trkpt lat="40.7905117" lon="16.2274517"><ele>269.0</ele><time>2026-04-25T12:52:08.837Z</time></trkpt><trkpt lat="40.79048" lon="16.2271567"><ele>269.0</ele><time>2026-04-25T12:52:09.834Z</time></trkpt><trkpt lat="40.7904483" lon="16.2268633"><ele>269.0</ele><time>2026-04-25T12:52:10.832Z</time></trkpt><trkpt lat="40.7904167" lon="16.22657"><ele>269.0</ele><time>2026-04-25T12:52:11.833Z</time></trkpt><trkpt lat="40.7903833" lon="16.2262767"><ele>269.6666666666667</ele><time>2026-04-25T12:52:12.833Z</time></trkpt><trkpt lat="40.7903483" lon="16.2259833"><ele>270.3333333333333</ele><time>2026-04-25T12:52:13.833Z</time></trkpt><trkpt lat="40.790315" lon="16.2256917"><ele>271.0</ele><time>2026-04-25T12:52:14.833Z</time></trkpt><trkpt lat="40.7902817" lon="16.2254"><ele>271.66666666666663</ele><time>2026-04-25T12:52:15.832Z</time></trkpt><trkpt lat="40.7902483" lon="16.22511"><ele>272.3333333333333</ele><time>2026-04-25T12:52:16.832Z</time></trkpt><trkpt lat="40.790215" lon="16.2248217"><ele>273.0</ele><time>2026-04-25T12:52:17.833Z</time></trkpt><trkpt lat="40.7901817" lon="16.2245333"><ele>275.0</ele><time>2026-04-25T12:52:18.832Z</time></trkpt><trkpt lat="40.7901483" lon="16.2242483"><ele>277.0</ele><time>2026-04-25T12:52:19.834Z</time></trkpt><trkpt lat="40.7901167" lon="16.223965"><ele>279.0</ele><time>2026-04-25T12:52:20.834Z</time></trkpt><trkpt lat="40.7900833" lon="16.2236833"><ele>279.0</ele><time>2026-04-25T12:52:21.834Z</time></trkpt><trkpt lat="40.7900517" lon="16.2234033"><ele>279.0</ele><time>2026-04-25T12:52:22.833Z</time></trkpt><trkpt lat="40.7900217" lon="16.2231217"><ele>279.0</ele><time>2026-04-25T12:52:23.834Z</time></trkpt><trkpt lat="40.78999" lon="16.22284"><ele>279.6666666666667</ele><time>2026-04-25T12:52:24.833Z</time></trkpt><trkpt lat="40.7899567" lon="16.22256"><ele>280.33333333333337</ele><time>2026-04-25T12:52:25.833Z</time></trkpt><trkpt lat="40.78992" lon="16.2222783"><ele>281.0</ele><time>2026-04-25T12:52:26.834Z</time></trkpt><trkpt lat="40.7898733" lon="16.2219933"><ele>283.0</ele><time>2026-04-25T12:52:27.833Z</time></trkpt><trkpt lat="40.7898233" lon="16.2217067"><ele>285.0</ele><time>2026-04-25T12:52:28.833Z</time></trkpt><trkpt lat="40.7897683" lon="16.22142"><ele>287.0</ele><time>2026-04-25T12:52:29.833Z</time></trkpt><trkpt lat="40.7897033" lon="16.2211317"><ele>288.5</ele><time>2026-04-25T12:52:30.834Z</time></trkpt><trkpt lat="40.7896333" lon="16.220845"><ele>290.0</ele><time>2026-04-25T12:52:31.834Z</time></trkpt><trkpt lat="40.7895583" lon="16.2205583"><ele>292.0</ele><time>2026-04-25T12:52:32.833Z</time></trkpt><trkpt lat="40.78948" lon="16.2202717"><ele>294.0</ele><time>2026-04-25T12:52:33.833Z</time></trkpt><trkpt lat="40.7894017" lon="16.2199917"><ele>296.3333333333333</ele><time>2026-04-25T12:52:34.833Z</time></trkpt><trkpt lat="40.7893233" lon="16.2197217"><ele>298.66666666666663</ele><time>2026-04-25T12:52:35.834Z</time></trkpt><trkpt lat="40.78925" lon="16.2194667"><ele>301.0</ele><time>2026-04-25T12:52:36.833Z</time></trkpt><trkpt lat="40.7891767" lon="16.21922"><ele>300.3333333333333</ele><time>2026-04-25T12:52:37.833Z</time></trkpt><trkpt lat="40.7891017" lon="16.21898"><ele>299.6666666666667</ele><time>2026-04-25T12:52:38.833Z</time></trkpt><trkpt lat="40.7890283" lon="16.2187333"><ele>299.0</ele><time>2026-04-25T12:52:39.832Z</time></trkpt><trkpt lat="40.78895" lon="16.21847"><ele>299.0</ele><time>2026-04-25T12:52:40.832Z</time></trkpt><trkpt lat="40.788875" lon="16.218195"><ele>299.0</ele><time>2026-04-25T12:52:41.832Z</time></trkpt><trkpt lat="40.78879" lon="16.2179133"><ele>296.0</ele><time>2026-04-25T12:52:42.833Z</time></trkpt><trkpt lat="40.7886933" lon="16.21763"><ele>293.0</ele><time>2026-04-25T12:52:43.832Z</time></trkpt><trkpt lat="40.7885917" lon="16.2173483"><ele>289.0</ele><time>2026-04-25T12:52:44.832Z</time></trkpt><trkpt lat="40.78849" lon="16.2170667"><ele>285.0</ele><time>2026-04-25T12:52:45.834Z</time></trkpt><trkpt lat="40.7883867" lon="16.216785"><ele>285.0</ele><time>2026-04-25T12:52:46.832Z</time></trkpt><trkpt lat="40.7882883" lon="16.2165117"><ele>285.0</ele><time>2026-04-25T12:52:47.833Z</time></trkpt><trkpt lat="40.7881917" lon="16.2162433"><ele>283.5</ele><time>2026-04-25T12:52:48.833Z</time></trkpt><trkpt lat="40.7880917" lon="16.215975"><ele>282.0</ele><time>2026-04-25T12:52:49.834Z</time></trkpt><trkpt lat="40.7879917" lon="16.21571"><ele>283.6666666666667</ele><time>2026-04-25T12:52:50.833Z</time></trkpt><trkpt lat="40.7878917" lon="16.2154467"><ele>285.33333333333337</ele><time>2026-04-25T12:52:51.833Z</time></trkpt><trkpt lat="40.787795" lon="16.215185"><ele>287.0</ele><time>2026-04-25T12:52:52.833Z</time></trkpt><trkpt lat="40.7876983" lon="16.2149233"><ele>284.33333333333337</ele><time>2026-04-25T12:52:53.833Z</time></trkpt><trkpt lat="40.7876017" lon="16.2146633"><ele>281.6666666666667</ele><time>2026-04-25T12:52:54.838Z</time></trkpt><trkpt lat="40.7875017" lon="16.2144033"><ele>279.0</ele><time>2026-04-25T12:52:55.833Z</time></trkpt><trkpt lat="40.7874" lon="16.2141483"><ele>279.0</ele><time>2026-04-25T12:52:56.834Z</time></trkpt><trkpt lat="40.7872917" lon="16.213895"><ele>279.0</ele><time>2026-04-25T12:52:57.834Z</time></trkpt><trkpt lat="40.7871783" lon="16.213645"><ele>279.0</ele><time>2026-04-25T12:52:58.832Z</time></trkpt><trkpt lat="40.7870583" lon="16.2133983"><ele>279.0</ele><time>2026-04-25T12:52:59.833Z</time></trkpt><trkpt lat="40.7869317" lon="16.2131583"><ele>279.0</ele><time>2026-04-25T12:53:00.834Z</time></trkpt><trkpt lat="40.7868033" lon="16.2129217"><ele>279.0</ele><time>2026-04-25T12:53:01.834Z</time></trkpt><trkpt lat="40.7866717" lon="16.2126883"><ele>278.3333333333333</ele><time>2026-04-25T12:53:02.834Z</time></trkpt><trkpt lat="40.786535" lon="16.2124583"><ele>277.66666666666663</ele><time>2026-04-25T12:53:03.833Z</time></trkpt><trkpt lat="40.7863967" lon="16.21223"><ele>277.0</ele><time>2026-04-25T12:53:04.833Z</time></trkpt><trkpt lat="40.7862583" lon="16.2120017"><ele>276.3333333333333</ele><time>2026-04-25T12:53:05.834Z</time></trkpt><trkpt lat="40.7861217" lon="16.2117683"><ele>275.6666666666667</ele><time>2026-04-25T12:53:06.834Z</time></trkpt><trkpt lat="40.78599" lon="16.2115267"><ele>275.0</ele><time>2026-04-25T12:53:07.838Z</time></trkpt><trkpt lat="40.785865" lon="16.2112767"><ele>277.0</ele><time>2026-04-25T12:53:08.834Z</time></trkpt><trkpt lat="40.7857433" lon="16.2110167"><ele>279.0</ele><time>2026-04-25T12:53:09.834Z</time></trkpt><trkpt lat="40.7856317" lon="16.2107467"><ele>279.5</ele><time>2026-04-25T12:53:10.833Z</time></trkpt><trkpt lat="40.7855283" lon="16.2104667"><ele>280.0</ele><time>2026-04-25T12:53:11.833Z</time></trkpt><trkpt lat="40.7854367" lon="16.21018"><ele>280.0</ele><time>2026-04-25T12:53:12.832Z</time></trkpt><trkpt lat="40.7853533" lon="16.2098917"><ele>280.0</ele><time>2026-04-25T12:53:13.832Z</time></trkpt><trkpt lat="40.7852783" lon="16.2095983"><ele>281.0</ele><time>2026-04-25T12:53:14.833Z</time></trkpt><trkpt lat="40.7852117" lon="16.209305"><ele>282.0</ele><time>2026-04-25T12:53:15.832Z</time></trkpt><trkpt lat="40.7851567" lon="16.209005"><ele>275.0</ele><time>2026-04-25T12:53:16.832Z</time></trkpt><trkpt lat="40.7851133" lon="16.208705"><ele>268.0</ele><time>2026-04-25T12:53:17.833Z</time></trkpt><trkpt lat="40.7850733" lon="16.208405"><ele>268.0</ele><time>2026-04-25T12:53:18.832Z</time></trkpt><trkpt lat="40.7850333" lon="16.208105"><ele>268.0</ele><time>2026-04-25T12:53:19.834Z</time></trkpt><trkpt lat="40.78499" lon="16.2078067"><ele>268.0</ele><time>2026-04-25T12:53:20.836Z</time></trkpt><trkpt lat="40.7849467" lon="16.2075133"><ele>268.0</ele><time>2026-04-25T12:53:21.833Z</time></trkpt><trkpt lat="40.784905" lon="16.20722"><ele>268.0</ele><time>2026-04-25T12:53:22.832Z</time></trkpt><trkpt lat="40.784865" lon="16.206925"><ele>268.0</ele><time>2026-04-25T12:53:23.834Z</time></trkpt><trkpt lat="40.784825" lon="16.2066317"><ele>266.5</ele><time>2026-04-25T12:53:24.833Z</time></trkpt><trkpt lat="40.784785" lon="16.2063367"><ele>265.0</ele><time>2026-04-25T12:53:25.833Z</time></trkpt><trkpt lat="40.7847417" lon="16.2060417"><ele>265.0</ele><time>2026-04-25T12:53:26.833Z</time></trkpt><trkpt lat="40.7847" lon="16.2057483"><ele>265.0</ele><time>2026-04-25T12:53:27.832Z</time></trkpt><trkpt lat="40.7846583" lon="16.2054533"><ele>264.5</ele><time>2026-04-25T12:53:28.832Z</time></trkpt><trkpt lat="40.7846167" lon="16.2051583"><ele>264.0</ele><time>2026-04-25T12:53:29.834Z</time></trkpt><trkpt lat="40.7845717" lon="16.2048617"><ele>265.0</ele><time>2026-04-25T12:53:30.833Z</time></trkpt><trkpt lat="40.7845217" lon="16.2045667"><ele>266.0</ele><time>2026-04-25T12:53:31.834Z</time></trkpt><trkpt lat="40.7844667" lon="16.2042733"><ele>264.5</ele><time>2026-04-25T12:53:32.834Z</time></trkpt><trkpt lat="40.784405" lon="16.20398"><ele>263.0</ele><time>2026-04-25T12:53:33.833Z</time></trkpt><trkpt lat="40.7843367" lon="16.20369"><ele>263.0</ele><time>2026-04-25T12:53:34.832Z</time></trkpt><trkpt lat="40.784265" lon="16.2034083"><ele>263.0</ele><time>2026-04-25T12:53:35.833Z</time></trkpt><trkpt lat="40.7841896" lon="16.2031368"><ele>263.0</ele><time>2026-04-25T12:53:36.833Z</time></trkpt><trkpt lat="40.7841117" lon="16.2028745"><ele>263.0</ele><time>2026-04-25T12:53:37.833Z</time></trkpt><trkpt lat="40.7840286" lon="16.2026227"><ele>263.0</ele><time>2026-04-25T12:53:38.834Z</time></trkpt><trkpt lat="40.7839418" lon="16.2023789"><ele>263.0</ele><time>2026-04-25T12:53:39.832Z</time></trkpt><trkpt lat="40.7838525" lon="16.2021327"><ele>263.0</ele><time>2026-04-25T12:53:40.833Z</time></trkpt><trkpt lat="40.7837635" lon="16.2018833"><ele>263.0</ele><time>2026-04-25T12:53:41.833Z</time></trkpt><trkpt lat="40.7836737" lon="16.2016319"><ele>263.0</ele><time>2026-04-25T12:53:42.832Z</time></trkpt><trkpt lat="40.7835825" lon="16.2013786"><ele>263.33333333333337</ele><time>2026-04-25T12:53:43.832Z</time></trkpt><trkpt lat="40.7834918" lon="16.2011208"><ele>263.6666666666667</ele><time>2026-04-25T12:53:44.832Z</time></trkpt><trkpt lat="40.7833999" lon="16.2008589"><ele>264.0</ele><time>2026-04-25T12:53:45.832Z</time></trkpt><trkpt lat="40.783308" lon="16.2005968"><ele>264.0</ele><time>2026-04-25T12:53:46.833Z</time></trkpt><trkpt lat="40.7832163" lon="16.2003336"><ele>264.0</ele><time>2026-04-25T12:53:47.832Z</time></trkpt><trkpt lat="40.7831233" lon="16.200069"><ele>264.0</ele><time>2026-04-25T12:53:48.832Z</time></trkpt><trkpt lat="40.7830311" lon="16.1998036"><ele>266.0</ele><time>2026-04-25T12:53:49.833Z</time></trkpt><trkpt lat="40.7829378" lon="16.1995357"><ele>268.0</ele><time>2026-04-25T12:53:50.834Z</time></trkpt><trkpt lat="40.782841" lon="16.1992685"><ele>270.0</ele><time>2026-04-25T12:53:51.832Z</time></trkpt><trkpt lat="40.782743" lon="16.1989991"><ele>264.0</ele><time>2026-04-25T12:53:52.832Z</time></trkpt><trkpt lat="40.7826456" lon="16.1987285"><ele>258.0</ele><time>2026-04-25T12:53:53.835Z</time></trkpt><trkpt lat="40.7825476" lon="16.1984549"><ele>258.0</ele><time>2026-04-25T12:53:54.832Z</time></trkpt><trkpt lat="40.78245" lon="16.1981787"><ele>258.0</ele><time>2026-04-25T12:53:55.832Z</time></trkpt><trkpt lat="40.7823508" lon="16.1979036"><ele>257.0</ele><time>2026-04-25T12:53:56.834Z</time></trkpt><trkpt lat="40.7822519" lon="16.1976272"><ele>256.0</ele><time>2026-04-25T12:53:57.833Z</time></trkpt><trkpt lat="40.7821538" lon="16.1973516"><ele>256.3333333333333</ele><time>2026-04-25T12:53:58.833Z</time></trkpt><trkpt lat="40.7820611" lon="16.1970802"><ele>256.6666666666667</ele><time>2026-04-25T12:53:59.832Z</time></trkpt><trkpt lat="40.7819725" lon="16.1968193"><ele>257.0</ele><time>2026-04-25T12:54:00.833Z</time></trkpt><trkpt lat="40.7818867" lon="16.1965721"><ele>255.66666666666669</ele><time>2026-04-25T12:54:01.833Z</time></trkpt><trkpt lat="40.781805" lon="16.1963357"><ele>254.33333333333331</ele><time>2026-04-25T12:54:02.834Z</time></trkpt><trkpt lat="40.7817268" lon="16.1961121"><ele>253.0</ele><time>2026-04-25T12:54:03.833Z</time></trkpt><trkpt lat="40.7816502" lon="16.1958994"><ele>253.0</ele><time>2026-04-25T12:54:04.832Z</time></trkpt><trkpt lat="40.7815753" lon="16.1956918"><ele>253.0</ele><time>2026-04-25T12:54:05.834Z</time></trkpt><trkpt lat="40.781501" lon="16.195484"><ele>253.0</ele><time>2026-04-25T12:54:06.832Z</time></trkpt><trkpt lat="40.781425" lon="16.1952626"><ele>254.66666666666666</ele><time>2026-04-25T12:54:07.834Z</time></trkpt><trkpt lat="40.7813529" lon="16.1950307"><ele>256.3333333333333</ele><time>2026-04-25T12:54:08.833Z</time></trkpt><trkpt lat="40.7812861" lon="16.1947868"><ele>258.0</ele><time>2026-04-25T12:54:09.832Z</time></trkpt><trkpt lat="40.7812255" lon="16.1945351"><ele>259.3333333333333</ele><time>2026-04-25T12:54:10.834Z</time></trkpt><trkpt lat="40.7811736" lon="16.1942794"><ele>260.66666666666663</ele><time>2026-04-25T12:54:11.833Z</time></trkpt><trkpt lat="40.7811298" lon="16.1940196"><ele>262.0</ele><time>2026-04-25T12:54:12.833Z</time></trkpt><trkpt lat="40.7810927" lon="16.193752"><ele>262.3333333333333</ele><time>2026-04-25T12:54:13.834Z</time></trkpt><trkpt lat="40.7810554" lon="16.1934768"><ele>262.6666666666667</ele><time>2026-04-25T12:54:14.833Z</time></trkpt><trkpt lat="40.7810186" lon="16.1931921"><ele>263.0</ele><time>2026-04-25T12:54:15.834Z</time></trkpt><trkpt lat="40.7809796" lon="16.1929031"><ele>258.33333333333337</ele><time>2026-04-25T12:54:16.833Z</time></trkpt><trkpt lat="40.780932" lon="16.1926138"><ele>253.66666666666669</ele><time>2026-04-25T12:54:17.833Z</time></trkpt><trkpt lat="40.7808696" lon="16.1923279"><ele>249.0</ele><time>2026-04-25T12:54:18.834Z</time></trkpt><trkpt lat="40.7807903" lon="16.19205"><ele>249.0</ele><time>2026-04-25T12:54:19.833Z</time></trkpt><trkpt lat="40.7806883" lon="16.1917812"><ele>249.0</ele><time>2026-04-25T12:54:20.834Z</time></trkpt><trkpt lat="40.7805669" lon="16.1915256"><ele>252.0</ele><time>2026-04-25T12:54:21.832Z</time></trkpt><trkpt lat="40.7804272" lon="16.1912821"><ele>255.0</ele><time>2026-04-25T12:54:22.832Z</time></trkpt><trkpt lat="40.7802717" lon="16.1910505"><ele>252.5</ele><time>2026-04-25T12:54:23.833Z</time></trkpt><trkpt lat="40.7801005" lon="16.1908279"><ele>250.0</ele><time>2026-04-25T12:54:24.832Z</time></trkpt><trkpt lat="40.7799177" lon="16.1906149"><ele>250.0</ele><time>2026-04-25T12:54:25.832Z</time></trkpt><trkpt lat="40.779722" lon="16.1904106"><ele>250.0</ele><time>2026-04-25T12:54:26.834Z</time></trkpt><trkpt lat="40.7795222" lon="16.1902154"><ele>246.5</ele><time>2026-04-25T12:54:27.832Z</time></trkpt><trkpt lat="40.779332" lon="16.1900286"><ele>243.0</ele><time>2026-04-25T12:54:28.832Z</time></trkpt><trkpt lat="40.7791513" lon="16.1898461"><ele>243.33333333333331</ele><time>2026-04-25T12:54:29.832Z</time></trkpt><trkpt lat="40.7789789" lon="16.1896694"><ele>243.66666666666666</ele><time>2026-04-25T12:54:30.832Z</time></trkpt><trkpt lat="40.7788099" lon="16.1894979"><ele>244.0</ele><time>2026-04-25T12:54:31.833Z</time></trkpt><trkpt lat="40.7786464" lon="16.1893325"><ele>243.0</ele><time>2026-04-25T12:54:32.832Z</time></trkpt><trkpt lat="40.7784866" lon="16.1891722"><ele>242.0</ele><time>2026-04-25T12:54:33.833Z</time></trkpt><trkpt lat="40.7783343" lon="16.1890161"><ele>241.0</ele><time>2026-04-25T12:54:34.833Z</time></trkpt><trkpt lat="40.7781895" lon="16.1888659"><ele>241.0</ele><time>2026-04-25T12:54:35.833Z</time></trkpt><trkpt lat="40.7780544" lon="16.1887176"><ele>241.0</ele><time>2026-04-25T12:54:36.835Z</time></trkpt><trkpt lat="40.7779266" lon="16.1885657"><ele>241.0</ele><time>2026-04-25T12:54:37.834Z</time></trkpt><trkpt lat="40.7778065" lon="16.1884094"><ele>241.0</ele><time>2026-04-25T12:54:38.833Z</time></trkpt><trkpt lat="40.777699" lon="16.1882526"><ele>241.0</ele><time>2026-04-25T12:54:39.832Z</time></trkpt><trkpt lat="40.7776048" lon="16.1880957"><ele>241.0</ele><time>2026-04-25T12:54:40.833Z</time></trkpt><trkpt lat="40.7775222" lon="16.1879393"><ele>242.5</ele><time>2026-04-25T12:54:41.833Z</time></trkpt><trkpt lat="40.7774478" lon="16.1877812"><ele>244.0</ele><time>2026-04-25T12:54:42.832Z</time></trkpt><trkpt lat="40.7773817" lon="16.1876133"><ele>245.5</ele><time>2026-04-25T12:54:43.833Z</time></trkpt><trkpt lat="40.777315" lon="16.187435"><ele>247.0</ele><time>2026-04-25T12:54:44.833Z</time></trkpt><trkpt lat="40.7772567" lon="16.1872467"><ele>248.66666666666666</ele><time>2026-04-25T12:54:45.833Z</time></trkpt><trkpt lat="40.777205" lon="16.187045"><ele>250.33333333333331</ele><time>2026-04-25T12:54:46.833Z</time></trkpt><trkpt lat="40.77716" lon="16.186835"><ele>252.0</ele><time>2026-04-25T12:54:47.832Z</time></trkpt><trkpt lat="40.777125" lon="16.1866217"><ele>251.66666666666669</ele><time>2026-04-25T12:54:48.832Z</time></trkpt><trkpt lat="40.7770967" lon="16.1864017"><ele>251.33333333333334</ele><time>2026-04-25T12:54:49.834Z</time></trkpt><trkpt lat="40.7770817" lon="16.1861767"><ele>251.0</ele><time>2026-04-25T12:54:50.833Z</time></trkpt><trkpt lat="40.7770783" lon="16.1859567"><ele>251.0</ele><time>2026-04-25T12:54:51.832Z</time></trkpt><trkpt lat="40.777085" lon="16.185745"><ele>251.0</ele><time>2026-04-25T12:54:52.832Z</time></trkpt><trkpt lat="40.7771" lon="16.185545"><ele>251.0</ele><time>2026-04-25T12:54:53.833Z</time></trkpt><trkpt lat="40.7771233" lon="16.185355"><ele>250.25</ele><time>2026-04-25T12:54:54.833Z</time></trkpt><trkpt lat="40.777155" lon="16.1851767"><ele>249.5</ele><time>2026-04-25T12:54:55.833Z</time></trkpt><trkpt lat="40.77719" lon="16.1850117"><ele>248.75</ele><time>2026-04-25T12:54:56.833Z</time></trkpt><trkpt lat="40.7772217" lon="16.184875"><ele>248.0</ele><time>2026-04-25T12:54:57.832Z</time></trkpt><trkpt lat="40.7772483" lon="16.184765"><ele>246.83333333333334</ele><time>2026-04-25T12:54:58.832Z</time></trkpt><trkpt lat="40.77727" lon="16.1846717"><ele>245.66666666666669</ele><time>2026-04-25T12:54:59.833Z</time></trkpt><trkpt lat="40.7772817" lon="16.18459"><ele>244.5</ele><time>2026-04-25T12:55:00.832Z</time></trkpt><trkpt lat="40.7772583" lon="16.18449"><ele>243.33333333333331</ele><time>2026-04-25T12:55:02.833Z</time></trkpt><trkpt lat="40.77718" lon="16.18457"><ele>242.16666666666666</ele><time>2026-04-25T12:55:05.832Z</time></trkpt><trkpt lat="40.7771433" lon="16.1846383"><ele>241.0</ele><time>2026-04-25T12:55:06.832Z</time></trkpt><trkpt lat="40.7770933" lon="16.1847233"><ele>240.99999999999997</ele><time>2026-04-25T12:55:07.833Z</time></trkpt><trkpt lat="40.7770383" lon="16.1848217"><ele>241.0</ele><time>2026-04-25T12:55:08.832Z</time></trkpt><trkpt lat="40.7769817" lon="16.1849267"><ele>241.0</ele><time>2026-04-25T12:55:09.832Z</time></trkpt><trkpt lat="40.7769367" lon="16.1850283"><ele>241.0</ele><time>2026-04-25T12:55:10.833Z</time></trkpt><trkpt lat="40.7769017" lon="16.1851233"><ele>240.99999999999997</ele><time>2026-04-25T12:55:11.836Z</time></trkpt><trkpt lat="40.776875" lon="16.1852167"><ele>241.0</ele><time>2026-04-25T12:55:12.833Z</time></trkpt><trkpt lat="40.7768567" lon="16.185305"><ele>240.60000000000002</ele><time>2026-04-25T12:55:13.833Z</time></trkpt><trkpt lat="40.77683" lon="16.1854533"><ele>240.20000000000002</ele><time>2026-04-25T12:55:15.832Z</time></trkpt><trkpt lat="40.7768083" lon="16.1855733"><ele>239.79999999999998</ele><time>2026-04-25T12:55:17.832Z</time></trkpt><trkpt lat="40.77681" lon="16.1856933"><ele>239.39999999999998</ele><time>2026-04-25T12:55:19.832Z</time></trkpt><trkpt lat="40.7768267" lon="16.185825"><ele>239.0</ele><time>2026-04-25T12:55:21.834Z</time></trkpt><trkpt lat="40.77681" lon="16.18593"><ele>239.00000000000003</ele><time>2026-04-25T12:55:23.834Z</time></trkpt><trkpt lat="40.7767567" lon="16.1858767"><ele>239.0</ele><time>2026-04-25T12:55:28.832Z</time></trkpt><trkpt lat="40.77675" lon="16.1857867"><ele>239.00000000000003</ele><time>2026-04-25T12:55:59.832Z</time></trkpt><trkpt lat="40.776745" lon="16.185655"><ele>239.00000000000003</ele><time>2026-04-25T12:56:01.832Z</time></trkpt><trkpt lat="40.7767517" lon="16.1855633"><ele>239.0</ele><time>2026-04-25T12:56:02.833Z</time></trkpt><trkpt lat="40.7767583" lon="16.185475"><ele>239.00000000000003</ele><time>2026-04-25T12:56:03.833Z</time></trkpt><trkpt lat="40.776755" lon="16.1853917"><ele>239.00000000000003</ele><time>2026-04-25T12:56:04.832Z</time></trkpt><trkpt lat="40.7767317" lon="16.185305"><ele>238.79999999999998</ele><time>2026-04-25T12:56:05.832Z</time></trkpt><trkpt lat="40.7766883" lon="16.1852067"><ele>238.59999999999997</ele><time>2026-04-25T12:56:06.832Z</time></trkpt><trkpt lat="40.7766367" lon="16.1850967"><ele>238.4</ele><time>2026-04-25T12:56:07.832Z</time></trkpt><trkpt lat="40.7765917" lon="16.1849767"><ele>238.2</ele><time>2026-04-25T12:56:08.834Z</time></trkpt><trkpt lat="40.7765517" lon="16.1848483"><ele>238.0</ele><time>2026-04-25T12:56:09.832Z</time></trkpt><trkpt lat="40.7765117" lon="16.1847167"><ele>237.2</ele><time>2026-04-25T12:56:10.832Z</time></trkpt><trkpt lat="40.7764717" lon="16.184595"><ele>236.4</ele><time>2026-04-25T12:56:11.832Z</time></trkpt><trkpt lat="40.7764233" lon="16.1844767"><ele>235.59999999999997</ele><time>2026-04-25T12:56:12.832Z</time></trkpt><trkpt lat="40.7763833" lon="16.18436"><ele>234.79999999999998</ele><time>2026-04-25T12:56:13.832Z</time></trkpt><trkpt lat="40.7763567" lon="16.1842433"><ele>234.0</ele><time>2026-04-25T12:56:14.834Z</time></trkpt><trkpt lat="40.7763467" lon="16.18413"><ele>234.0</ele><time>2026-04-25T12:56:15.832Z</time></trkpt><trkpt lat="40.77633" lon="16.184025"><ele>234.0</ele><time>2026-04-25T12:56:16.832Z</time></trkpt><trkpt lat="40.7763017" lon="16.183935"><ele>234.0</ele><time>2026-04-25T12:56:17.833Z</time></trkpt><trkpt lat="40.7762533" lon="16.183875"><ele>234.0</ele><time>2026-04-25T12:56:18.832Z</time></trkpt><trkpt lat="40.7761733" lon="16.1838333"><ele>234.0</ele><time>2026-04-25T12:56:19.833Z</time></trkpt><trkpt lat="40.7760683" lon="16.1837883"><ele>234.0</ele><time>2026-04-25T12:56:20.833Z</time></trkpt><trkpt lat="40.7759717" lon="16.1837267"><ele>232.75</ele><time>2026-04-25T12:56:21.834Z</time></trkpt><trkpt lat="40.7758767" lon="16.18364"><ele>231.5</ele><time>2026-04-25T12:56:22.833Z</time></trkpt><trkpt lat="40.77578" lon="16.1835467"><ele>230.25</ele><time>2026-04-25T12:56:23.835Z</time></trkpt><trkpt lat="40.775685" lon="16.1834567"><ele>229.0</ele><time>2026-04-25T12:56:24.832Z</time></trkpt><trkpt lat="40.7756017" lon="16.1833783"><ele>228.99999999999997</ele><time>2026-04-25T12:56:25.833Z</time></trkpt><trkpt lat="40.7755233" lon="16.183305"><ele>229.0</ele><time>2026-04-25T12:56:26.833Z</time></trkpt><trkpt lat="40.7754617" lon="16.1832383"><ele>229.0</ele><time>2026-04-25T12:56:27.832Z</time></trkpt><trkpt lat="40.7754033" lon="16.1831767"><ele>229.0</ele><time>2026-04-25T12:56:28.835Z</time></trkpt><trkpt lat="40.7753417" lon="16.18311"><ele>228.99999999999997</ele><time>2026-04-25T12:56:29.833Z</time></trkpt><trkpt lat="40.7752667" lon="16.1830383"><ele>229.0</ele><time>2026-04-25T12:56:30.834Z</time></trkpt><trkpt lat="40.7751867" lon="16.182965"><ele>228.5</ele><time>2026-04-25T12:56:31.833Z</time></trkpt><trkpt lat="40.7751" lon="16.1828867"><ele>228.0</ele><time>2026-04-25T12:56:32.833Z</time></trkpt><trkpt lat="40.7750067" lon="16.1828"><ele>227.5</ele><time>2026-04-25T12:56:33.833Z</time></trkpt><trkpt lat="40.7749067" lon="16.182705"><ele>227.0</ele><time>2026-04-25T12:56:34.831Z</time></trkpt><trkpt lat="40.7748033" lon="16.1826033"><ele>227.0</ele><time>2026-04-25T12:56:35.832Z</time></trkpt><trkpt lat="40.7746883" lon="16.1824867"><ele>227.0</ele><time>2026-04-25T12:56:36.832Z</time></trkpt><trkpt lat="40.7745617" lon="16.18236"><ele>227.0</ele><time>2026-04-25T12:56:37.833Z</time></trkpt><trkpt lat="40.7744367" lon="16.1822383"><ele>228.33333333333334</ele><time>2026-04-25T12:56:38.834Z</time></trkpt><trkpt lat="40.7743117" lon="16.18212"><ele>229.66666666666669</ele><time>2026-04-25T12:56:39.833Z</time></trkpt><trkpt lat="40.77418" lon="16.1819983"><ele>231.0</ele><time>2026-04-25T12:56:40.834Z</time></trkpt><trkpt lat="40.774046" lon="16.1818734"><ele>231.0</ele><time>2026-04-25T12:56:41.833Z</time></trkpt><trkpt lat="40.7739139" lon="16.181746"><ele>231.0</ele><time>2026-04-25T12:56:42.833Z</time></trkpt><trkpt lat="40.7737833" lon="16.1816146"><ele>231.0</ele><time>2026-04-25T12:56:43.835Z</time></trkpt><trkpt lat="40.7736473" lon="16.1814839"><ele>232.0</ele><time>2026-04-25T12:56:44.834Z</time></trkpt><trkpt lat="40.7735117" lon="16.1813559"><ele>233.0</ele><time>2026-04-25T12:56:45.833Z</time></trkpt><trkpt lat="40.7733757" lon="16.1812235"><ele>234.0</ele><time>2026-04-25T12:56:46.833Z</time></trkpt><trkpt lat="40.7732332" lon="16.1810831"><ele>234.0</ele><time>2026-04-25T12:56:47.832Z</time></trkpt><trkpt lat="40.7730908" lon="16.1809425"><ele>234.0</ele><time>2026-04-25T12:56:48.832Z</time></trkpt><trkpt lat="40.7729565" lon="16.1808099"><ele>234.0</ele><time>2026-04-25T12:56:49.833Z</time></trkpt><trkpt lat="40.7728311" lon="16.1806896"><ele>236.5</ele><time>2026-04-25T12:56:50.833Z</time></trkpt><trkpt lat="40.7727109" lon="16.1805797"><ele>239.0</ele><time>2026-04-25T12:56:51.832Z</time></trkpt><trkpt lat="40.7725814" lon="16.1804813"><ele>241.5</ele><time>2026-04-25T12:56:52.834Z</time></trkpt><trkpt lat="40.7724432" lon="16.1804054"><ele>244.0</ele><time>2026-04-25T12:56:53.832Z</time></trkpt><trkpt lat="40.7722981" lon="16.1803599"><ele>244.0</ele><time>2026-04-25T12:56:54.832Z</time></trkpt><trkpt lat="40.7721357" lon="16.1803451"><ele>244.0</ele><time>2026-04-25T12:56:55.832Z</time></trkpt><trkpt lat="40.7719587" lon="16.1803506"><ele>244.0</ele><time>2026-04-25T12:56:56.833Z</time></trkpt><trkpt lat="40.7717753" lon="16.1803641"><ele>245.0</ele><time>2026-04-25T12:56:57.834Z</time></trkpt><trkpt lat="40.7716103" lon="16.1803741"><ele>246.0</ele><time>2026-04-25T12:56:58.833Z</time></trkpt><trkpt lat="40.7714613" lon="16.1803882"><ele>247.0</ele><time>2026-04-25T12:56:59.833Z</time></trkpt><trkpt lat="40.7713188" lon="16.1804037"><ele>247.0</ele><time>2026-04-25T12:57:00.833Z</time></trkpt><trkpt lat="40.7711836" lon="16.1804099"><ele>247.0</ele><time>2026-04-25T12:57:01.833Z</time></trkpt><trkpt lat="40.7710606" lon="16.1804006"><ele>247.0</ele><time>2026-04-25T12:57:02.834Z</time></trkpt><trkpt lat="40.7709464" lon="16.1803694"><ele>247.0</ele><time>2026-04-25T12:57:03.832Z</time></trkpt><trkpt lat="40.7708495" lon="16.1803143"><ele>247.0</ele><time>2026-04-25T12:57:04.834Z</time></trkpt><trkpt lat="40.7707712" lon="16.1802338"><ele>247.0</ele><time>2026-04-25T12:57:05.833Z</time></trkpt><trkpt lat="40.7707029" lon="16.1801225"><ele>247.0</ele><time>2026-04-25T12:57:06.832Z</time></trkpt><trkpt lat="40.7706466" lon="16.1799894"><ele>247.0</ele><time>2026-04-25T12:57:07.833Z</time></trkpt><trkpt lat="40.7706102" lon="16.1798457"><ele>247.0</ele><time>2026-04-25T12:57:08.834Z</time></trkpt><trkpt lat="40.7706001" lon="16.1797047"><ele>248.0</ele><time>2026-04-25T12:57:09.833Z</time></trkpt><trkpt lat="40.7706123" lon="16.1795615"><ele>249.0</ele><time>2026-04-25T12:57:10.834Z</time></trkpt><trkpt lat="40.7706423" lon="16.1794089"><ele>250.0</ele><time>2026-04-25T12:57:11.832Z</time></trkpt><trkpt lat="40.770688" lon="16.1792386"><ele>251.0</ele><time>2026-04-25T12:57:12.832Z</time></trkpt><trkpt lat="40.7707392" lon="16.1790464"><ele>251.66666666666669</ele><time>2026-04-25T12:57:13.834Z</time></trkpt><trkpt lat="40.77079" lon="16.1788317"><ele>252.33333333333331</ele><time>2026-04-25T12:57:14.833Z</time></trkpt><trkpt lat="40.77084" lon="16.17861"><ele>253.0</ele><time>2026-04-25T12:57:15.833Z</time></trkpt><trkpt lat="40.770895" lon="16.178385"><ele>254.33333333333331</ele><time>2026-04-25T12:57:16.835Z</time></trkpt><trkpt lat="40.7709517" lon="16.1781583"><ele>255.66666666666669</ele><time>2026-04-25T12:57:17.833Z</time></trkpt><trkpt lat="40.7710067" lon="16.1779283"><ele>257.0</ele><time>2026-04-25T12:57:18.832Z</time></trkpt><trkpt lat="40.7710617" lon="16.177695"><ele>260.33333333333337</ele><time>2026-04-25T12:57:19.834Z</time></trkpt><trkpt lat="40.771115" lon="16.1774667"><ele>263.6666666666667</ele><time>2026-04-25T12:57:20.834Z</time></trkpt><trkpt lat="40.77117" lon="16.1772417"><ele>267.0</ele><time>2026-04-25T12:57:21.837Z</time></trkpt><trkpt lat="40.7712317" lon="16.1770117"><ele>267.3333333333333</ele><time>2026-04-25T12:57:22.832Z</time></trkpt><trkpt lat="40.771295" lon="16.1767883"><ele>267.66666666666663</ele><time>2026-04-25T12:57:23.832Z</time></trkpt><trkpt lat="40.771355" lon="16.1765917"><ele>268.0</ele><time>2026-04-25T12:57:24.832Z</time></trkpt><trkpt lat="40.7714133" lon="16.1764067"><ele>267.0</ele><time>2026-04-25T12:57:25.832Z</time></trkpt><trkpt lat="40.7714683" lon="16.1762133"><ele>266.0</ele><time>2026-04-25T12:57:26.833Z</time></trkpt><trkpt lat="40.7715267" lon="16.1760167"><ele>265.0</ele><time>2026-04-25T12:57:27.832Z</time></trkpt><trkpt lat="40.7715917" lon="16.1758217"><ele>262.66666666666663</ele><time>2026-04-25T12:57:28.834Z</time></trkpt><trkpt lat="40.7716567" lon="16.1756117"><ele>260.3333333333333</ele><time>2026-04-25T12:57:29.835Z</time></trkpt><trkpt lat="40.7717183" lon="16.1753933"><ele>258.0</ele><time>2026-04-25T12:57:30.832Z</time></trkpt><trkpt lat="40.7717817" lon="16.1751717"><ele>258.0</ele><time>2026-04-25T12:57:31.833Z</time></trkpt><trkpt lat="40.7718483" lon="16.1749533"><ele>258.0</ele><time>2026-04-25T12:57:32.833Z</time></trkpt><trkpt lat="40.7719167" lon="16.17474"><ele>258.0</ele><time>2026-04-25T12:57:33.833Z</time></trkpt><trkpt lat="40.771985" lon="16.17452"><ele>260.3333333333333</ele><time>2026-04-25T12:57:34.834Z</time></trkpt><trkpt lat="40.7720517" lon="16.1742967"><ele>262.66666666666663</ele><time>2026-04-25T12:57:35.833Z</time></trkpt><trkpt lat="40.772115" lon="16.1740783"><ele>265.0</ele><time>2026-04-25T12:57:36.834Z</time></trkpt><trkpt lat="40.77218" lon="16.17387"><ele>265.0</ele><time>2026-04-25T12:57:37.834Z</time></trkpt><trkpt lat="40.7722467" lon="16.1736633"><ele>265.0</ele><time>2026-04-25T12:57:38.833Z</time></trkpt><trkpt lat="40.7723167" lon="16.1734467"><ele>265.0</ele><time>2026-04-25T12:57:39.837Z</time></trkpt><trkpt lat="40.77238" lon="16.1732383"><ele>263.75</ele><time>2026-04-25T12:57:40.833Z</time></trkpt><trkpt lat="40.7724433" lon="16.1730567"><ele>262.5</ele><time>2026-04-25T12:57:41.832Z</time></trkpt><trkpt lat="40.7725017" lon="16.1729017"><ele>261.25</ele><time>2026-04-25T12:57:42.832Z</time></trkpt><trkpt lat="40.7725533" lon="16.1727417"><ele>260.0</ele><time>2026-04-25T12:57:43.832Z</time></trkpt><trkpt lat="40.7726083" lon="16.172545"><ele>260.33333333333337</ele><time>2026-04-25T12:57:44.833Z</time></trkpt><trkpt lat="40.7726617" lon="16.1723383"><ele>260.6666666666667</ele><time>2026-04-25T12:57:45.833Z</time></trkpt><trkpt lat="40.772715" lon="16.1721367"><ele>261.0</ele><time>2026-04-25T12:57:46.833Z</time></trkpt><trkpt lat="40.7727767" lon="16.1719417"><ele>262.6666666666667</ele><time>2026-04-25T12:57:47.833Z</time></trkpt><trkpt lat="40.7728383" lon="16.17176"><ele>264.33333333333337</ele><time>2026-04-25T12:57:48.834Z</time></trkpt><trkpt lat="40.7728883" lon="16.171575"><ele>266.0</ele><time>2026-04-25T12:57:49.834Z</time></trkpt><trkpt lat="40.7729217" lon="16.1713783"><ele>266.0</ele><time>2026-04-25T12:57:50.833Z</time></trkpt><trkpt lat="40.7729383" lon="16.1711783"><ele>266.0</ele><time>2026-04-25T12:57:51.833Z</time></trkpt><trkpt lat="40.772935" lon="16.1709783"><ele>266.0</ele><time>2026-04-25T12:57:52.834Z</time></trkpt><trkpt lat="40.7729133" lon="16.1707683"><ele>265.6666666666667</ele><time>2026-04-25T12:57:53.833Z</time></trkpt><trkpt lat="40.7728717" lon="16.1705617"><ele>265.3333333333333</ele><time>2026-04-25T12:57:54.832Z</time></trkpt><trkpt lat="40.7728167" lon="16.1703533"><ele>265.0</ele><time>2026-04-25T12:57:55.833Z</time></trkpt><trkpt lat="40.7727483" lon="16.1701433"><ele>263.3333333333333</ele><time>2026-04-25T12:57:56.834Z</time></trkpt><trkpt lat="40.7726717" lon="16.1699283"><ele>261.6666666666667</ele><time>2026-04-25T12:57:57.832Z</time></trkpt><trkpt lat="40.77259" lon="16.1697117"><ele>260.0</ele><time>2026-04-25T12:57:58.832Z</time></trkpt><trkpt lat="40.7725133" lon="16.1694983"><ele>259.0</ele><time>2026-04-25T12:57:59.834Z</time></trkpt><trkpt lat="40.7724417" lon="16.169295"><ele>258.0</ele><time>2026-04-25T12:58:00.832Z</time></trkpt><trkpt lat="40.772365" lon="16.1690933"><ele>257.0</ele><time>2026-04-25T12:58:01.833Z</time></trkpt><trkpt lat="40.7722867" lon="16.1688833"><ele>256.33333333333337</ele><time>2026-04-25T12:58:02.833Z</time></trkpt><trkpt lat="40.7722067" lon="16.1686567"><ele>255.66666666666669</ele><time>2026-04-25T12:58:03.833Z</time></trkpt><trkpt lat="40.7721317" lon="16.1684283"><ele>255.0</ele><time>2026-04-25T12:58:04.834Z</time></trkpt><trkpt lat="40.7720583" lon="16.1682067"><ele>255.33333333333331</ele><time>2026-04-25T12:58:05.834Z</time></trkpt><trkpt lat="40.7719817" lon="16.1679817"><ele>255.66666666666666</ele><time>2026-04-25T12:58:06.833Z</time></trkpt><trkpt lat="40.7719017" lon="16.1677483"><ele>256.0</ele><time>2026-04-25T12:58:07.837Z</time></trkpt><trkpt lat="40.7718233" lon="16.16752"><ele>256.0</ele><time>2026-04-25T12:58:08.835Z</time></trkpt><trkpt lat="40.7717417" lon="16.1673"><ele>256.0</ele><time>2026-04-25T12:58:09.834Z</time></trkpt><trkpt lat="40.7716617" lon="16.1670833"><ele>256.0</ele><time>2026-04-25T12:58:10.834Z</time></trkpt><trkpt lat="40.77158" lon="16.166865"><ele>256.0</ele><time>2026-04-25T12:58:11.834Z</time></trkpt><trkpt lat="40.7715" lon="16.1666417"><ele>256.0</ele><time>2026-04-25T12:58:12.833Z</time></trkpt><trkpt lat="40.7714217" lon="16.1664183"><ele>256.0</ele><time>2026-04-25T12:58:13.834Z</time></trkpt><trkpt lat="40.77134" lon="16.16619"><ele>257.0</ele><time>2026-04-25T12:58:14.833Z</time></trkpt><trkpt lat="40.7712517" lon="16.1659567"><ele>258.0</ele><time>2026-04-25T12:58:15.834Z</time></trkpt><trkpt lat="40.7711567" lon="16.1657183"><ele>259.0</ele><time>2026-04-25T12:58:16.833Z</time></trkpt><trkpt lat="40.7710667" lon="16.1654817"><ele>259.66666666666663</ele><time>2026-04-25T12:58:17.833Z</time></trkpt><trkpt lat="40.7709783" lon="16.1652433"><ele>260.3333333333333</ele><time>2026-04-25T12:58:18.832Z</time></trkpt><trkpt lat="40.7708883" lon="16.165"><ele>261.0</ele><time>2026-04-25T12:58:19.832Z</time></trkpt><trkpt lat="40.7708" lon="16.1647683"><ele>263.0</ele><time>2026-04-25T12:58:20.834Z</time></trkpt><trkpt lat="40.770715" lon="16.1645517"><ele>265.0</ele><time>2026-04-25T12:58:21.832Z</time></trkpt><trkpt lat="40.77063" lon="16.1643417"><ele>267.0</ele><time>2026-04-25T12:58:22.832Z</time></trkpt><trkpt lat="40.770545" lon="16.164135"><ele>269.3333333333333</ele><time>2026-04-25T12:58:23.833Z</time></trkpt><trkpt lat="40.7704617" lon="16.1639333"><ele>271.66666666666663</ele><time>2026-04-25T12:58:24.833Z</time></trkpt><trkpt lat="40.7703883" lon="16.1637383"><ele>274.0</ele><time>2026-04-25T12:58:25.833Z</time></trkpt><trkpt lat="40.7703317" lon="16.1635433"><ele>274.0</ele><time>2026-04-25T12:58:26.834Z</time></trkpt><trkpt lat="40.7702817" lon="16.1633367"><ele>274.0</ele><time>2026-04-25T12:58:27.833Z</time></trkpt><trkpt lat="40.7702417" lon="16.16312"><ele>274.0</ele><time>2026-04-25T12:58:28.833Z</time></trkpt><trkpt lat="40.77021" lon="16.1628867"><ele>273.66666666666663</ele><time>2026-04-25T12:58:29.832Z</time></trkpt><trkpt lat="40.7701867" lon="16.1626483"><ele>273.3333333333333</ele><time>2026-04-25T12:58:30.834Z</time></trkpt><trkpt lat="40.7701667" lon="16.162405"><ele>273.0</ele><time>2026-04-25T12:58:31.832Z</time></trkpt><trkpt lat="40.7701433" lon="16.16215"><ele>275.0</ele><time>2026-04-25T12:58:32.833Z</time></trkpt><trkpt lat="40.77012" lon="16.16189"><ele>277.0</ele><time>2026-04-25T12:58:33.832Z</time></trkpt><trkpt lat="40.7700967" lon="16.1616383"><ele>279.0</ele><time>2026-04-25T12:58:34.833Z</time></trkpt><trkpt lat="40.7700717" lon="16.16141"><ele>281.0</ele><time>2026-04-25T12:58:35.833Z</time></trkpt><trkpt lat="40.7700483" lon="16.1612"><ele>283.0</ele><time>2026-04-25T12:58:36.833Z</time></trkpt><trkpt lat="40.77003" lon="16.1609917"><ele>285.0</ele><time>2026-04-25T12:58:37.833Z</time></trkpt><trkpt lat="40.7700083" lon="16.1607767"><ele>287.0</ele><time>2026-04-25T12:58:38.833Z</time></trkpt><trkpt lat="40.7699867" lon="16.1605533"><ele>289.0</ele><time>2026-04-25T12:58:39.833Z</time></trkpt><trkpt lat="40.7699667" lon="16.1603183"><ele>291.0</ele><time>2026-04-25T12:58:40.832Z</time></trkpt><trkpt lat="40.7699483" lon="16.1600733"><ele>292.6666666666667</ele><time>2026-04-25T12:58:41.833Z</time></trkpt><trkpt lat="40.7699317" lon="16.1598233"><ele>294.33333333333337</ele><time>2026-04-25T12:58:42.834Z</time></trkpt><trkpt lat="40.7699133" lon="16.1595733"><ele>296.0</ele><time>2026-04-25T12:58:43.832Z</time></trkpt><trkpt lat="40.7698933" lon="16.1593317"><ele>296.0</ele><time>2026-04-25T12:58:44.835Z</time></trkpt><trkpt lat="40.7698733" lon="16.159105"><ele>296.0</ele><time>2026-04-25T12:58:45.833Z</time></trkpt><trkpt lat="40.7698617" lon="16.1588967"><ele>296.0</ele><time>2026-04-25T12:58:46.833Z</time></trkpt><trkpt lat="40.7698617" lon="16.1586983"><ele>297.0</ele><time>2026-04-25T12:58:47.833Z</time></trkpt><trkpt lat="40.7698683" lon="16.1584967"><ele>298.0</ele><time>2026-04-25T12:58:48.833Z</time></trkpt><trkpt lat="40.7698783" lon="16.1582783"><ele>299.0</ele><time>2026-04-25T12:58:49.834Z</time></trkpt><trkpt lat="40.769895" lon="16.1580367"><ele>299.6666666666667</ele><time>2026-04-25T12:58:50.833Z</time></trkpt><trkpt lat="40.769915" lon="16.157775"><ele>300.3333333333333</ele><time>2026-04-25T12:58:51.832Z</time></trkpt><trkpt lat="40.769935" lon="16.157505"><ele>301.0</ele><time>2026-04-25T12:58:52.833Z</time></trkpt><trkpt lat="40.769955" lon="16.1572267"><ele>301.66666666666663</ele><time>2026-04-25T12:58:53.836Z</time></trkpt><trkpt lat="40.7699767" lon="16.15694"><ele>302.3333333333333</ele><time>2026-04-25T12:58:54.833Z</time></trkpt><trkpt lat="40.7699967" lon="16.1566617"><ele>303.0</ele><time>2026-04-25T12:58:55.833Z</time></trkpt><trkpt lat="40.7700133" lon="16.1564067"><ele>305.0</ele><time>2026-04-25T12:58:56.834Z</time></trkpt><trkpt lat="40.7700299" lon="16.156159"><ele>307.0</ele><time>2026-04-25T12:58:57.833Z</time></trkpt><trkpt lat="40.7700455" lon="16.1559173"><ele>309.0</ele><time>2026-04-25T12:58:58.834Z</time></trkpt><trkpt lat="40.7700638" lon="16.1556899"><ele>310.0</ele><time>2026-04-25T12:58:59.834Z</time></trkpt><trkpt lat="40.7700835" lon="16.1554745"><ele>311.0</ele><time>2026-04-25T12:59:00.832Z</time></trkpt><trkpt lat="40.7701001" lon="16.1552779"><ele>312.0</ele><time>2026-04-25T12:59:01.833Z</time></trkpt><trkpt lat="40.7701107" lon="16.1550946"><ele>312.0</ele><time>2026-04-25T12:59:02.834Z</time></trkpt><trkpt lat="40.7701136" lon="16.1549103"><ele>312.0</ele><time>2026-04-25T12:59:03.833Z</time></trkpt><trkpt lat="40.7701022" lon="16.1547378"><ele>312.0</ele><time>2026-04-25T12:59:04.833Z</time></trkpt><trkpt lat="40.7700741" lon="16.1545778"><ele>312.0</ele><time>2026-04-25T12:59:05.834Z</time></trkpt><trkpt lat="40.770025" lon="16.1544287"><ele>312.25</ele><time>2026-04-25T12:59:06.833Z</time></trkpt><trkpt lat="40.7699525" lon="16.1542916"><ele>312.5</ele><time>2026-04-25T12:59:07.834Z</time></trkpt><trkpt lat="40.7698643" lon="16.1541733"><ele>312.75</ele><time>2026-04-25T12:59:08.833Z</time></trkpt><trkpt lat="40.7697623" lon="16.154078"><ele>313.0</ele><time>2026-04-25T12:59:09.834Z</time></trkpt><trkpt lat="40.769651" lon="16.154009"><ele>313.5</ele><time>2026-04-25T12:59:10.834Z</time></trkpt><trkpt lat="40.7695348" lon="16.1539632"><ele>314.0</ele><time>2026-04-25T12:59:11.834Z</time></trkpt><trkpt lat="40.7694189" lon="16.153943"><ele>314.5</ele><time>2026-04-25T12:59:12.834Z</time></trkpt><trkpt lat="40.7693058" lon="16.1539467"><ele>315.0</ele><time>2026-04-25T12:59:13.834Z</time></trkpt><trkpt lat="40.769198" lon="16.1539712"><ele>315.0</ele><time>2026-04-25T12:59:14.833Z</time></trkpt><trkpt lat="40.7690964" lon="16.1540093"><ele>315.0</ele><time>2026-04-25T12:59:15.833Z</time></trkpt><trkpt lat="40.7690005" lon="16.1540549"><ele>315.0</ele><time>2026-04-25T12:59:16.833Z</time></trkpt><trkpt lat="40.7689074" lon="16.1540958"><ele>315.0</ele><time>2026-04-25T12:59:17.836Z</time></trkpt><trkpt lat="40.7688201" lon="16.1541327"><ele>315.0</ele><time>2026-04-25T12:59:18.835Z</time></trkpt><trkpt lat="40.7687355" lon="16.15417"><ele>313.8333333333333</ele><time>2026-04-25T12:59:19.834Z</time></trkpt><trkpt lat="40.7686553" lon="16.154207"><ele>312.6666666666667</ele><time>2026-04-25T12:59:20.837Z</time></trkpt><trkpt lat="40.7685772" lon="16.1542429"><ele>311.5</ele><time>2026-04-25T12:59:21.834Z</time></trkpt><trkpt lat="40.768502" lon="16.1542743"><ele>310.33333333333337</ele><time>2026-04-25T12:59:22.834Z</time></trkpt><trkpt lat="40.7684293" lon="16.1543042"><ele>309.1666666666667</ele><time>2026-04-25T12:59:23.833Z</time></trkpt><trkpt lat="40.7683606" lon="16.1543326"><ele>308.0</ele><time>2026-04-25T12:59:24.834Z</time></trkpt><trkpt lat="40.7682943" lon="16.1543606"><ele>307.5</ele><time>2026-04-25T12:59:25.833Z</time></trkpt><trkpt lat="40.76823" lon="16.1543888"><ele>307.0</ele><time>2026-04-25T12:59:26.834Z</time></trkpt><trkpt lat="40.7681669" lon="16.1544173"><ele>306.5</ele><time>2026-04-25T12:59:27.833Z</time></trkpt><trkpt lat="40.7681061" lon="16.1544417"><ele>306.0</ele><time>2026-04-25T12:59:28.832Z</time></trkpt><trkpt lat="40.76799" lon="16.15449"><ele>305.5</ele><time>2026-04-25T12:59:30.833Z</time></trkpt><trkpt lat="40.76788" lon="16.154535"><ele>305.0</ele><time>2026-04-25T12:59:32.833Z</time></trkpt><trkpt lat="40.7677933" lon="16.1545733"><ele>305.0</ele><time>2026-04-25T12:59:34.834Z</time></trkpt><trkpt lat="40.7677183" lon="16.1546167"><ele>305.0</ele><time>2026-04-25T12:59:46.834Z</time></trkpt><trkpt lat="40.7675817" lon="16.1546733"><ele>305.0</ele><time>2026-04-25T12:59:48.834Z</time></trkpt><trkpt lat="40.76749" lon="16.1547117"><ele>305.0</ele><time>2026-04-25T12:59:49.833Z</time></trkpt><trkpt lat="40.76739" lon="16.15475"><ele>305.0</ele><time>2026-04-25T12:59:50.836Z</time></trkpt><trkpt lat="40.7672833" lon="16.1547883"><ele>304.25</ele><time>2026-04-25T12:59:51.834Z</time></trkpt><trkpt lat="40.7671617" lon="16.154825"><ele>303.5</ele><time>2026-04-25T12:59:52.834Z</time></trkpt><trkpt lat="40.7670367" lon="16.1548533"><ele>302.75</ele><time>2026-04-25T12:59:53.833Z</time></trkpt><trkpt lat="40.7669067" lon="16.1548767"><ele>302.0</ele><time>2026-04-25T12:59:54.833Z</time></trkpt><trkpt lat="40.766775" lon="16.1549033"><ele>299.5</ele><time>2026-04-25T12:59:55.832Z</time></trkpt><trkpt lat="40.7666417" lon="16.15492"><ele>297.0</ele><time>2026-04-25T12:59:56.833Z</time></trkpt><trkpt lat="40.7665133" lon="16.1549267"><ele>294.5</ele><time>2026-04-25T12:59:57.832Z</time></trkpt><trkpt lat="40.7664" lon="16.1549267"><ele>292.0</ele><time>2026-04-25T12:59:58.833Z</time></trkpt><trkpt lat="40.76629" lon="16.154915"><ele>292.0</ele><time>2026-04-25T12:59:59.834Z</time></trkpt><trkpt lat="40.7661717" lon="16.1548883"><ele>292.0</ele><time>2026-04-25T13:00:00.834Z</time></trkpt><trkpt lat="40.7660433" lon="16.1548467"><ele>292.0</ele><time>2026-04-25T13:00:01.834Z</time></trkpt><trkpt lat="40.7659183" lon="16.1548017"><ele>292.0</ele><time>2026-04-25T13:00:02.835Z</time></trkpt><trkpt lat="40.7658" lon="16.15476"><ele>291.5</ele><time>2026-04-25T13:00:03.834Z</time></trkpt><trkpt lat="40.7656833" lon="16.1547283"><ele>291.0</ele><time>2026-04-25T13:00:04.834Z</time></trkpt><trkpt lat="40.765565" lon="16.1547117"><ele>290.5</ele><time>2026-04-25T13:00:05.834Z</time></trkpt><trkpt lat="40.7654483" lon="16.154715"><ele>290.0</ele><time>2026-04-25T13:00:06.833Z</time></trkpt><trkpt lat="40.76533" lon="16.1547333"><ele>290.0</ele><time>2026-04-25T13:00:07.838Z</time></trkpt><trkpt lat="40.7652083" lon="16.154765"><ele>290.0</ele><time>2026-04-25T13:00:08.834Z</time></trkpt><trkpt lat="40.76509" lon="16.1548"><ele>290.0</ele><time>2026-04-25T13:00:09.832Z</time></trkpt><trkpt lat="40.76498" lon="16.1548233"><ele>290.0</ele><time>2026-04-25T13:00:10.838Z</time></trkpt><trkpt lat="40.76488" lon="16.1548333"><ele>287.4</ele><time>2026-04-25T13:00:11.833Z</time></trkpt><trkpt lat="40.7647867" lon="16.154825"><ele>284.8</ele><time>2026-04-25T13:00:12.832Z</time></trkpt><trkpt lat="40.7646967" lon="16.154795"><ele>282.2</ele><time>2026-04-25T13:00:13.832Z</time></trkpt><trkpt lat="40.7646067" lon="16.15473"><ele>279.6</ele><time>2026-04-25T13:00:14.833Z</time></trkpt><trkpt lat="40.7645167" lon="16.1546333"><ele>277.0</ele><time>2026-04-25T13:00:15.832Z</time></trkpt><trkpt lat="40.7644267" lon="16.1544983"><ele>277.3333333333333</ele><time>2026-04-25T13:00:16.832Z</time></trkpt><trkpt lat="40.764325" lon="16.1543283"><ele>277.6666666666667</ele><time>2026-04-25T13:00:17.832Z</time></trkpt><trkpt lat="40.7642133" lon="16.15414"><ele>278.0</ele><time>2026-04-25T13:00:18.832Z</time></trkpt><trkpt lat="40.764105" lon="16.1539617"><ele>276.75</ele><time>2026-04-25T13:00:19.833Z</time></trkpt><trkpt lat="40.7640083" lon="16.1538"><ele>275.5</ele><time>2026-04-25T13:00:20.834Z</time></trkpt><trkpt lat="40.7639217" lon="16.1536567"><ele>274.25</ele><time>2026-04-25T13:00:21.832Z</time></trkpt><trkpt lat="40.763845" lon="16.1535333"><ele>273.0</ele><time>2026-04-25T13:00:22.833Z</time></trkpt><trkpt lat="40.7637633" lon="16.1534233"><ele>273.0</ele><time>2026-04-25T13:00:23.834Z</time></trkpt><trkpt lat="40.7636767" lon="16.1533283"><ele>273.0</ele><time>2026-04-25T13:00:24.833Z</time></trkpt><trkpt lat="40.7635883" lon="16.1532517"><ele>273.0</ele><time>2026-04-25T13:00:25.834Z</time></trkpt><trkpt lat="40.7634967" lon="16.153195"><ele>273.0</ele><time>2026-04-25T13:00:26.832Z</time></trkpt><trkpt lat="40.7634083" lon="16.15315"><ele>273.0</ele><time>2026-04-25T13:00:27.832Z</time></trkpt><trkpt lat="40.763325" lon="16.1531083"><ele>272.6666666666667</ele><time>2026-04-25T13:00:28.832Z</time></trkpt><trkpt lat="40.7632583" lon="16.15307"><ele>272.3333333333333</ele><time>2026-04-25T13:00:29.833Z</time></trkpt><trkpt lat="40.7631667" lon="16.153025"><ele>272.0</ele><time>2026-04-25T13:00:31.835Z</time></trkpt><trkpt lat="40.7630783" lon="16.1529917"><ele>271.66666666666663</ele><time>2026-04-25T13:00:49.833Z</time></trkpt><trkpt lat="40.763015" lon="16.1529683"><ele>271.3333333333333</ele><time>2026-04-25T13:00:50.834Z</time></trkpt><trkpt lat="40.7629483" lon="16.15295"><ele>271.0</ele><time>2026-04-25T13:00:51.832Z</time></trkpt><trkpt lat="40.7628317" lon="16.1529117"><ele>271.0</ele><time>2026-04-25T13:00:53.833Z</time></trkpt><trkpt lat="40.7627233" lon="16.1528667"><ele>271.0</ele><time>2026-04-25T13:00:55.831Z</time></trkpt><trkpt lat="40.7626233" lon="16.1528283"><ele>271.0</ele><time>2026-04-25T13:00:57.832Z</time></trkpt><trkpt lat="40.7625283" lon="16.1527867"><ele>271.0</ele><time>2026-04-25T13:00:59.832Z</time></trkpt><trkpt lat="40.762435" lon="16.1527483"><ele>271.0</ele><time>2026-04-25T13:01:01.832Z</time></trkpt><trkpt lat="40.7623433" lon="16.15271"><ele>270.66666666666663</ele><time>2026-04-25T13:01:03.833Z</time></trkpt><trkpt lat="40.76226" lon="16.1526767"><ele>270.3333333333333</ele><time>2026-04-25T13:01:05.838Z</time></trkpt><trkpt lat="40.7621783" lon="16.1526467"><ele>270.0</ele><time>2026-04-25T13:01:07.835Z</time></trkpt><trkpt lat="40.7620967" lon="16.1526117"><ele>269.6666666666667</ele><time>2026-04-25T13:01:09.831Z</time></trkpt><trkpt lat="40.76201" lon="16.1525783"><ele>269.33333333333337</ele><time>2026-04-25T13:01:11.833Z</time></trkpt><trkpt lat="40.7619217" lon="16.152545"><ele>269.0</ele><time>2026-04-25T13:01:13.832Z</time></trkpt><trkpt lat="40.7618383" lon="16.1525117"><ele>269.0</ele><time>2026-04-25T13:01:15.833Z</time></trkpt><trkpt lat="40.7617583" lon="16.15248"><ele>269.0</ele><time>2026-04-25T13:01:17.832Z</time></trkpt><trkpt lat="40.761635" lon="16.1524317"><ele>269.0</ele><time>2026-04-25T13:01:19.834Z</time></trkpt><trkpt lat="40.7615517" lon="16.1523983"><ele>269.0</ele><time>2026-04-25T13:01:20.834Z</time></trkpt><trkpt lat="40.7614617" lon="16.15236"><ele>269.0</ele><time>2026-04-25T13:01:21.832Z</time></trkpt><trkpt lat="40.76136" lon="16.1523217"><ele>269.2</ele><time>2026-04-25T13:01:22.833Z</time></trkpt><trkpt lat="40.76125" lon="16.1522817"><ele>269.4</ele><time>2026-04-25T13:01:23.833Z</time></trkpt><trkpt lat="40.7611383" lon="16.1522417"><ele>269.6</ele><time>2026-04-25T13:01:24.833Z</time></trkpt><trkpt lat="40.7610383" lon="16.1522033"><ele>269.8</ele><time>2026-04-25T13:01:25.831Z</time></trkpt><trkpt lat="40.76095" lon="16.152165"><ele>270.0</ele><time>2026-04-25T13:01:26.833Z</time></trkpt><trkpt lat="40.760855" lon="16.1521233"><ele>269.2</ele><time>2026-04-25T13:01:27.832Z</time></trkpt><trkpt lat="40.76076" lon="16.1520817"><ele>268.4</ele><time>2026-04-25T13:01:28.834Z</time></trkpt><trkpt lat="40.7606667" lon="16.1520433"><ele>267.6</ele><time>2026-04-25T13:01:29.832Z</time></trkpt><trkpt lat="40.7605683" lon="16.1520033"><ele>266.8</ele><time>2026-04-25T13:01:30.832Z</time></trkpt><trkpt lat="40.7604583" lon="16.151965"><ele>266.0</ele><time>2026-04-25T13:01:31.831Z</time></trkpt><trkpt lat="40.7603367" lon="16.1519283"><ele>266.0</ele><time>2026-04-25T13:01:32.834Z</time></trkpt><trkpt lat="40.7602133" lon="16.1519"><ele>266.0</ele><time>2026-04-25T13:01:33.832Z</time></trkpt><trkpt lat="40.7600917" lon="16.15188"><ele>266.0</ele><time>2026-04-25T13:01:34.832Z</time></trkpt><trkpt lat="40.75997" lon="16.1518633"><ele>266.0</ele><time>2026-04-25T13:01:35.833Z</time></trkpt><trkpt lat="40.7598483" lon="16.1518467"><ele>265.0</ele><time>2026-04-25T13:01:36.833Z</time></trkpt><trkpt lat="40.7597233" lon="16.1518317"><ele>264.0</ele><time>2026-04-25T13:01:37.833Z</time></trkpt><trkpt lat="40.7595967" lon="16.1518167"><ele>263.0</ele><time>2026-04-25T13:01:38.834Z</time></trkpt><trkpt lat="40.75947" lon="16.151805"><ele>262.0</ele><time>2026-04-25T13:01:39.833Z</time></trkpt><trkpt lat="40.7593517" lon="16.1517933"><ele>261.8333333333333</ele><time>2026-04-25T13:01:40.832Z</time></trkpt><trkpt lat="40.7592517" lon="16.1517833"><ele>261.66666666666663</ele><time>2026-04-25T13:01:41.833Z</time></trkpt><trkpt lat="40.759165" lon="16.1517767"><ele>261.5</ele><time>2026-04-25T13:01:42.832Z</time></trkpt><trkpt lat="40.759095" lon="16.1517717"><ele>261.3333333333333</ele><time>2026-04-25T13:01:43.833Z</time></trkpt><trkpt lat="40.7590317" lon="16.1517733"><ele>261.1666666666667</ele><time>2026-04-25T13:01:44.833Z</time></trkpt><trkpt lat="40.758915" lon="16.1517733"><ele>261.0</ele><time>2026-04-25T13:01:46.832Z</time></trkpt><trkpt lat="40.758805" lon="16.1517683"><ele>261.0</ele><time>2026-04-25T13:01:48.832Z</time></trkpt><trkpt lat="40.7586867" lon="16.1517567"><ele>261.0</ele><time>2026-04-25T13:01:50.832Z</time></trkpt><trkpt lat="40.758575" lon="16.1517417"><ele>261.0</ele><time>2026-04-25T13:01:52.832Z</time></trkpt><trkpt lat="40.7584583" lon="16.1517267"><ele>261.0</ele><time>2026-04-25T13:01:54.832Z</time></trkpt><trkpt lat="40.758395" lon="16.1517183"><ele>261.0</ele><time>2026-04-25T13:01:55.832Z</time></trkpt><trkpt lat="40.7583317" lon="16.15171"><ele>260.40000000000003</ele><time>2026-04-25T13:01:56.833Z</time></trkpt><trkpt lat="40.7582233" lon="16.1517"><ele>259.8</ele><time>2026-04-25T13:01:58.833Z</time></trkpt><trkpt lat="40.7581317" lon="16.1517"><ele>259.20000000000005</ele><time>2026-04-25T13:02:00.832Z</time></trkpt><trkpt lat="40.75801" lon="16.1517017"><ele>258.6</ele><time>2026-04-25T13:02:02.832Z</time></trkpt><trkpt lat="40.7579433" lon="16.151695"><ele>258.0</ele><time>2026-04-25T13:02:03.831Z</time></trkpt><trkpt lat="40.7578333" lon="16.1516883"><ele>258.0</ele><time>2026-04-25T13:02:05.833Z</time></trkpt><trkpt lat="40.7577467" lon="16.151685"><ele>258.0</ele><time>2026-04-25T13:02:07.832Z</time></trkpt><trkpt lat="40.75764" lon="16.1516733"><ele>258.0</ele><time>2026-04-25T13:02:09.832Z</time></trkpt><trkpt lat="40.75757" lon="16.151665"><ele>258.0</ele><time>2026-04-25T13:02:10.832Z</time></trkpt><trkpt lat="40.7575017" lon="16.15166"><ele>258.0</ele><time>2026-04-25T13:02:11.832Z</time></trkpt><trkpt lat="40.7574367" lon="16.1516567"><ele>258.0</ele><time>2026-04-25T13:02:12.832Z</time></trkpt><trkpt lat="40.7573717" lon="16.15165"><ele>257.3333333333333</ele><time>2026-04-25T13:02:13.833Z</time></trkpt><trkpt lat="40.757305" lon="16.1516433"><ele>256.6666666666667</ele><time>2026-04-25T13:02:14.833Z</time></trkpt><trkpt lat="40.7572367" lon="16.1516367"><ele>256.0</ele><time>2026-04-25T13:02:15.831Z</time></trkpt><trkpt lat="40.7571733" lon="16.1516317"><ele>255.33333333333334</ele><time>2026-04-25T13:02:16.832Z</time></trkpt><trkpt lat="40.7570433" lon="16.1516367"><ele>254.66666666666669</ele><time>2026-04-25T13:02:18.832Z</time></trkpt><trkpt lat="40.7569767" lon="16.151635"><ele>254.0</ele><time>2026-04-25T13:02:19.833Z</time></trkpt><trkpt lat="40.75688" lon="16.1516283"><ele>253.66666666666669</ele><time>2026-04-25T13:02:21.832Z</time></trkpt><trkpt lat="40.756815" lon="16.1516267"><ele>253.33333333333334</ele><time>2026-04-25T13:02:24.833Z</time></trkpt><trkpt lat="40.7567433" lon="16.151625"><ele>253.0</ele><time>2026-04-25T13:02:27.833Z</time></trkpt><trkpt lat="40.7566517" lon="16.1516083"><ele>252.66666666666669</ele><time>2026-04-25T13:02:30.832Z</time></trkpt><trkpt lat="40.7565633" lon="16.15159"><ele>252.33333333333334</ele><time>2026-04-25T13:02:33.832Z</time></trkpt><trkpt lat="40.75649" lon="16.1515717"><ele>252.0</ele><time>2026-04-25T13:02:35.832Z</time></trkpt><trkpt lat="40.756405" lon="16.1515817"><ele>252.0</ele><time>2026-04-25T13:02:37.832Z</time></trkpt><trkpt lat="40.7563267" lon="16.151595"><ele>252.0</ele><time>2026-04-25T13:02:39.832Z</time></trkpt><trkpt lat="40.75623" lon="16.151615"><ele>252.0</ele><time>2026-04-25T13:02:41.832Z</time></trkpt><trkpt lat="40.756145" lon="16.15165"><ele>252.0</ele><time>2026-04-25T13:02:43.833Z</time></trkpt><trkpt lat="40.75606" lon="16.151695"><ele>252.0</ele><time>2026-04-25T13:02:45.832Z</time></trkpt><trkpt lat="40.7559333" lon="16.1517517"><ele>251.66666666666666</ele><time>2026-04-25T13:02:47.833Z</time></trkpt><trkpt lat="40.7558533" lon="16.151795"><ele>251.33333333333331</ele><time>2026-04-25T13:02:48.832Z</time></trkpt><trkpt lat="40.755775" lon="16.1518383"><ele>251.0</ele><time>2026-04-25T13:02:49.832Z</time></trkpt><trkpt lat="40.7556983" lon="16.15188"><ele>250.66666666666666</ele><time>2026-04-25T13:02:50.833Z</time></trkpt><trkpt lat="40.755625" lon="16.151925"><ele>250.33333333333331</ele><time>2026-04-25T13:02:51.833Z</time></trkpt><trkpt lat="40.75555" lon="16.1519733"><ele>250.0</ele><time>2026-04-25T13:02:52.833Z</time></trkpt><trkpt lat="40.7554767" lon="16.15202"><ele>249.99999999999997</ele><time>2026-04-25T13:02:53.833Z</time></trkpt><trkpt lat="40.7554117" lon="16.1520567"><ele>250.0</ele><time>2026-04-25T13:02:54.832Z</time></trkpt><trkpt lat="40.75531" lon="16.15211"><ele>250.0</ele><time>2026-04-25T13:02:56.833Z</time></trkpt><trkpt lat="40.7552233" lon="16.15215"><ele>250.0</ele><time>2026-04-25T13:02:58.832Z</time></trkpt><trkpt lat="40.7551417" lon="16.1521883"><ele>249.99999999999997</ele><time>2026-04-25T13:03:00.832Z</time></trkpt><trkpt lat="40.7550583" lon="16.1522267"><ele>250.0</ele><time>2026-04-25T13:03:02.833Z</time></trkpt><trkpt lat="40.7549817" lon="16.1522617"><ele>249.8</ele><time>2026-04-25T13:03:04.831Z</time></trkpt><trkpt lat="40.7548967" lon="16.1522967"><ele>249.6</ele><time>2026-04-25T13:03:06.831Z</time></trkpt><trkpt lat="40.75478" lon="16.152355"><ele>249.39999999999998</ele><time>2026-04-25T13:03:08.833Z</time></trkpt><trkpt lat="40.7547083" lon="16.1523967"><ele>249.2</ele><time>2026-04-25T13:03:09.832Z</time></trkpt><trkpt lat="40.754625" lon="16.1524433"><ele>249.0</ele><time>2026-04-25T13:03:10.833Z</time></trkpt><trkpt lat="40.75453" lon="16.1524917"><ele>249.0</ele><time>2026-04-25T13:03:11.833Z</time></trkpt><trkpt lat="40.754425" lon="16.1525383"><ele>249.0</ele><time>2026-04-25T13:03:12.832Z</time></trkpt><trkpt lat="40.7543117" lon="16.1525933"><ele>249.0</ele><time>2026-04-25T13:03:13.832Z</time></trkpt><trkpt lat="40.7541917" lon="16.1526533"><ele>249.0</ele><time>2026-04-25T13:03:14.833Z</time></trkpt><trkpt lat="40.7540767" lon="16.1527117"><ele>247.5</ele><time>2026-04-25T13:03:15.833Z</time></trkpt><trkpt lat="40.7539767" lon="16.1527617"><ele>246.0</ele><time>2026-04-25T13:03:16.833Z</time></trkpt><trkpt lat="40.7538783" lon="16.1528067"><ele>244.5</ele><time>2026-04-25T13:03:17.832Z</time></trkpt><trkpt lat="40.7537717" lon="16.1528583"><ele>243.0</ele><time>2026-04-25T13:03:18.833Z</time></trkpt><trkpt lat="40.7536417" lon="16.1529267"><ele>243.0</ele><time>2026-04-25T13:03:19.833Z</time></trkpt><trkpt lat="40.753495" lon="16.153005"><ele>243.0</ele><time>2026-04-25T13:03:20.835Z</time></trkpt><trkpt lat="40.7533567" lon="16.1530783"><ele>243.0</ele><time>2026-04-25T13:03:21.833Z</time></trkpt><trkpt lat="40.75323" lon="16.1531433"><ele>243.0</ele><time>2026-04-25T13:03:22.833Z</time></trkpt><trkpt lat="40.75311" lon="16.1532067"><ele>242.75</ele><time>2026-04-25T13:03:23.833Z</time></trkpt><trkpt lat="40.7529767" lon="16.153275"><ele>242.5</ele><time>2026-04-25T13:03:24.833Z</time></trkpt><trkpt lat="40.7528417" lon="16.15335"><ele>242.25</ele><time>2026-04-25T13:03:25.833Z</time></trkpt><trkpt lat="40.752715" lon="16.15342"><ele>242.0</ele><time>2026-04-25T13:03:26.834Z</time></trkpt><trkpt lat="40.7525967" lon="16.1534883"><ele>240.75</ele><time>2026-04-25T13:03:27.834Z</time></trkpt><trkpt lat="40.7524867" lon="16.1535567"><ele>239.5</ele><time>2026-04-25T13:03:28.832Z</time></trkpt><trkpt lat="40.75238" lon="16.1536333"><ele>238.25</ele><time>2026-04-25T13:03:29.832Z</time></trkpt><trkpt lat="40.7522767" lon="16.15372"><ele>237.0</ele><time>2026-04-25T13:03:30.833Z</time></trkpt><trkpt lat="40.7521767" lon="16.1538133"><ele>237.0</ele><time>2026-04-25T13:03:31.834Z</time></trkpt><trkpt lat="40.752085" lon="16.1538967"><ele>237.0</ele><time>2026-04-25T13:03:32.832Z</time></trkpt><trkpt lat="40.7520033" lon="16.153965"><ele>237.0</ele><time>2026-04-25T13:03:33.832Z</time></trkpt><trkpt lat="40.7519383" lon="16.1540167"><ele>237.0</ele><time>2026-04-25T13:03:34.833Z</time></trkpt><trkpt lat="40.7518433" lon="16.15409"><ele>237.0</ele><time>2026-04-25T13:03:36.833Z</time></trkpt><trkpt lat="40.7517667" lon="16.154125"><ele>237.0</ele><time>2026-04-25T13:03:38.834Z</time></trkpt><trkpt lat="40.75169" lon="16.1541817"><ele>237.0</ele><time>2026-04-25T13:03:40.834Z</time></trkpt><trkpt lat="40.7516117" lon="16.1542483"><ele>237.0</ele><time>2026-04-25T13:03:42.831Z</time></trkpt><trkpt lat="40.75154" lon="16.1543167"><ele>237.0</ele><time>2026-04-25T13:03:44.833Z</time></trkpt><trkpt lat="40.751465" lon="16.1543633"><ele>237.0</ele><time>2026-04-25T13:03:46.833Z</time></trkpt><trkpt lat="40.7513817" lon="16.1544367"><ele>237.0</ele><time>2026-04-25T13:03:48.833Z</time></trkpt><trkpt lat="40.7513267" lon="16.1544883"><ele>237.0</ele><time>2026-04-25T13:03:49.833Z</time></trkpt><trkpt lat="40.7512517" lon="16.1545583"><ele>237.0</ele><time>2026-04-25T13:03:50.834Z</time></trkpt><trkpt lat="40.75116" lon="16.1546417"><ele>237.0</ele><time>2026-04-25T13:03:51.834Z</time></trkpt><trkpt lat="40.751065" lon="16.1547283"><ele>237.0</ele><time>2026-04-25T13:03:52.834Z</time></trkpt><trkpt lat="40.7509717" lon="16.1548117"><ele>236.5</ele><time>2026-04-25T13:03:53.833Z</time></trkpt><trkpt lat="40.7508767" lon="16.1548967"><ele>236.0</ele><time>2026-04-25T13:03:54.833Z</time></trkpt><trkpt lat="40.7507717" lon="16.15499"><ele>235.5</ele><time>2026-04-25T13:03:55.835Z</time></trkpt><trkpt lat="40.7506617" lon="16.1550867"><ele>235.0</ele><time>2026-04-25T13:03:56.833Z</time></trkpt><trkpt lat="40.7505567" lon="16.15518"><ele>235.0</ele><time>2026-04-25T13:03:57.833Z</time></trkpt><trkpt lat="40.7504583" lon="16.1552683"><ele>235.0</ele><time>2026-04-25T13:03:58.835Z</time></trkpt><trkpt lat="40.7503667" lon="16.1553567"><ele>235.0</ele><time>2026-04-25T13:03:59.833Z</time></trkpt><trkpt lat="40.7502667" lon="16.155455"><ele>235.0</ele><time>2026-04-25T13:04:00.832Z</time></trkpt><trkpt lat="40.7501567" lon="16.1555633"><ele>233.75</ele><time>2026-04-25T13:04:01.832Z</time></trkpt><trkpt lat="40.7500467" lon="16.1556717"><ele>232.5</ele><time>2026-04-25T13:04:02.832Z</time></trkpt><trkpt lat="40.74994" lon="16.155775"><ele>231.25</ele><time>2026-04-25T13:04:03.834Z</time></trkpt><trkpt lat="40.7498367" lon="16.1558733"><ele>230.0</ele><time>2026-04-25T13:04:04.832Z</time></trkpt><trkpt lat="40.7497417" lon="16.15597"><ele>230.0</ele><time>2026-04-25T13:04:05.838Z</time></trkpt><trkpt lat="40.7496467" lon="16.15606"><ele>230.0</ele><time>2026-04-25T13:04:06.833Z</time></trkpt><trkpt lat="40.7495517" lon="16.1561417"><ele>230.0</ele><time>2026-04-25T13:04:07.833Z</time></trkpt><trkpt lat="40.7494467" lon="16.1562083"><ele>230.0</ele><time>2026-04-25T13:04:08.833Z</time></trkpt><trkpt lat="40.7493283" lon="16.15626"><ele>229.5</ele><time>2026-04-25T13:04:09.833Z</time></trkpt><trkpt lat="40.74919" lon="16.1563"><ele>229.0</ele><time>2026-04-25T13:04:10.832Z</time></trkpt><trkpt lat="40.7490367" lon="16.156335"><ele>228.5</ele><time>2026-04-25T13:04:11.833Z</time></trkpt><trkpt lat="40.74889" lon="16.1563683"><ele>228.0</ele><time>2026-04-25T13:04:12.833Z</time></trkpt><trkpt lat="40.74875" lon="16.1564017"><ele>228.0</ele><time>2026-04-25T13:04:13.834Z</time></trkpt><trkpt lat="40.7486183" lon="16.15644"><ele>228.0</ele><time>2026-04-25T13:04:14.834Z</time></trkpt><trkpt lat="40.74849" lon="16.1564917"><ele>228.0</ele><time>2026-04-25T13:04:15.833Z</time></trkpt><trkpt lat="40.748365" lon="16.15656"><ele>228.0</ele><time>2026-04-25T13:04:16.833Z</time></trkpt><trkpt lat="40.748235" lon="16.1566317"><ele>229.0</ele><time>2026-04-25T13:04:17.831Z</time></trkpt><trkpt lat="40.7481083" lon="16.1566983"><ele>230.0</ele><time>2026-04-25T13:04:18.832Z</time></trkpt><trkpt lat="40.7479883" lon="16.15676"><ele>231.0</ele><time>2026-04-25T13:04:19.834Z</time></trkpt><trkpt lat="40.74788" lon="16.156815"><ele>232.0</ele><time>2026-04-25T13:04:20.833Z</time></trkpt><trkpt lat="40.7477733" lon="16.1568683"><ele>229.75</ele><time>2026-04-25T13:04:21.832Z</time></trkpt><trkpt lat="40.7476617" lon="16.156925"><ele>227.5</ele><time>2026-04-25T13:04:22.832Z</time></trkpt><trkpt lat="40.7475483" lon="16.156985"><ele>225.25</ele><time>2026-04-25T13:04:23.832Z</time></trkpt><trkpt lat="40.74744" lon="16.1570383"><ele>223.0</ele><time>2026-04-25T13:04:24.833Z</time></trkpt><trkpt lat="40.7473383" lon="16.1570817"><ele>223.0</ele><time>2026-04-25T13:04:25.833Z</time></trkpt><trkpt lat="40.7472367" lon="16.157125"><ele>223.0</ele><time>2026-04-25T13:04:26.833Z</time></trkpt><trkpt lat="40.74714" lon="16.157175"><ele>223.0</ele><time>2026-04-25T13:04:27.833Z</time></trkpt><trkpt lat="40.7470567" lon="16.1572217"><ele>223.0</ele><time>2026-04-25T13:04:28.832Z</time></trkpt><trkpt lat="40.7469767" lon="16.15727"><ele>223.0</ele><time>2026-04-25T13:04:29.834Z</time></trkpt><trkpt lat="40.7469017" lon="16.1573167"><ele>222.83333333333331</ele><time>2026-04-25T13:04:30.833Z</time></trkpt><trkpt lat="40.7468383" lon="16.1573567"><ele>222.66666666666666</ele><time>2026-04-25T13:04:31.833Z</time></trkpt><trkpt lat="40.746775" lon="16.1573767"><ele>222.5</ele><time>2026-04-25T13:05:20.833Z</time></trkpt><trkpt lat="40.746675" lon="16.1574217"><ele>222.33333333333331</ele><time>2026-04-25T13:05:37.833Z</time></trkpt><trkpt lat="40.7466117" lon="16.15746"><ele>222.16666666666666</ele><time>2026-04-25T13:05:38.834Z</time></trkpt><trkpt lat="40.746535" lon="16.1575117"><ele>222.0</ele><time>2026-04-25T13:05:39.832Z</time></trkpt><trkpt lat="40.74645" lon="16.1575767"><ele>222.6</ele><time>2026-04-25T13:05:40.833Z</time></trkpt><trkpt lat="40.74636" lon="16.157655"><ele>223.2</ele><time>2026-04-25T13:05:41.833Z</time></trkpt><trkpt lat="40.7462717" lon="16.1577367"><ele>223.8</ele><time>2026-04-25T13:05:42.833Z</time></trkpt><trkpt lat="40.7461933" lon="16.1578217"><ele>224.4</ele><time>2026-04-25T13:05:43.833Z</time></trkpt><trkpt lat="40.7461217" lon="16.1579067"><ele>225.0</ele><time>2026-04-25T13:05:44.832Z</time></trkpt><trkpt lat="40.7460583" lon="16.15799"><ele>224.6</ele><time>2026-04-25T13:05:45.833Z</time></trkpt><trkpt lat="40.7459967" lon="16.15808"><ele>224.2</ele><time>2026-04-25T13:05:46.832Z</time></trkpt><trkpt lat="40.7459367" lon="16.158175"><ele>223.8</ele><time>2026-04-25T13:05:47.833Z</time></trkpt><trkpt lat="40.745885" lon="16.1582683"><ele>223.4</ele><time>2026-04-25T13:05:48.832Z</time></trkpt><trkpt lat="40.7458383" lon="16.1583633"><ele>223.0</ele><time>2026-04-25T13:05:49.833Z</time></trkpt><trkpt lat="40.7457917" lon="16.1584667"><ele>223.0</ele><time>2026-04-25T13:05:50.833Z</time></trkpt><trkpt lat="40.7457417" lon="16.1585783"><ele>223.0</ele><time>2026-04-25T13:05:51.834Z</time></trkpt><trkpt lat="40.7456817" lon="16.1587017"><ele>223.0</ele><time>2026-04-25T13:05:52.833Z</time></trkpt><trkpt lat="40.7456167" lon="16.1588367"><ele>223.0</ele><time>2026-04-25T13:05:53.833Z</time></trkpt><trkpt lat="40.745545" lon="16.1589917"><ele>224.66666666666666</ele><time>2026-04-25T13:05:54.832Z</time></trkpt><trkpt lat="40.7454717" lon="16.1591617"><ele>226.33333333333331</ele><time>2026-04-25T13:05:55.835Z</time></trkpt><trkpt lat="40.7453967" lon="16.1593383"><ele>228.0</ele><time>2026-04-25T13:05:56.833Z</time></trkpt><trkpt lat="40.7453167" lon="16.1595183"><ele>228.0</ele><time>2026-04-25T13:05:57.832Z</time></trkpt><trkpt lat="40.7452383" lon="16.1596933"><ele>228.0</ele><time>2026-04-25T13:05:58.832Z</time></trkpt><trkpt lat="40.745165" lon="16.15985"><ele>228.0</ele><time>2026-04-25T13:05:59.834Z</time></trkpt><trkpt lat="40.745095" lon="16.1599967"><ele>228.0</ele><time>2026-04-25T13:06:00.832Z</time></trkpt><trkpt lat="40.745025" lon="16.160135"><ele>226.25</ele><time>2026-04-25T13:06:01.833Z</time></trkpt><trkpt lat="40.74495" lon="16.160265"><ele>224.5</ele><time>2026-04-25T13:06:02.833Z</time></trkpt><trkpt lat="40.7448717" lon="16.1603783"><ele>222.75</ele><time>2026-04-25T13:06:03.832Z</time></trkpt><trkpt lat="40.7447817" lon="16.1604833"><ele>221.0</ele><time>2026-04-25T13:06:04.834Z</time></trkpt><trkpt lat="40.744675" lon="16.16058"><ele>221.0</ele><time>2026-04-25T13:06:05.834Z</time></trkpt><trkpt lat="40.7445483" lon="16.1606767"><ele>221.0</ele><time>2026-04-25T13:06:06.832Z</time></trkpt><trkpt lat="40.74441" lon="16.1607817"><ele>221.0</ele><time>2026-04-25T13:06:07.833Z</time></trkpt><trkpt lat="40.74427" lon="16.16089"><ele>220.0</ele><time>2026-04-25T13:06:08.832Z</time></trkpt><trkpt lat="40.7441317" lon="16.161"><ele>219.0</ele><time>2026-04-25T13:06:09.832Z</time></trkpt><trkpt lat="40.7440033" lon="16.1610983"><ele>218.0</ele><time>2026-04-25T13:06:10.832Z</time></trkpt><trkpt lat="40.7438917" lon="16.1611767"><ele>217.0</ele><time>2026-04-25T13:06:11.832Z</time></trkpt><trkpt lat="40.7438067" lon="16.1612467"><ele>217.0</ele><time>2026-04-25T13:06:12.834Z</time></trkpt><trkpt lat="40.7437367" lon="16.1613267"><ele>217.0</ele><time>2026-04-25T13:06:13.832Z</time></trkpt><trkpt lat="40.7436733" lon="16.161405"><ele>217.0</ele><time>2026-04-25T13:06:14.833Z</time></trkpt><trkpt lat="40.7435983" lon="16.161465"><ele>217.0</ele><time>2026-04-25T13:06:15.832Z</time></trkpt><trkpt lat="40.7435083" lon="16.1615083"><ele>217.0</ele><time>2026-04-25T13:06:16.832Z</time></trkpt><trkpt lat="40.7434033" lon="16.1615483"><ele>217.25</ele><time>2026-04-25T13:06:17.833Z</time></trkpt><trkpt lat="40.7432883" lon="16.161605"><ele>217.5</ele><time>2026-04-25T13:06:18.834Z</time></trkpt><trkpt lat="40.743165" lon="16.1616833"><ele>217.75</ele><time>2026-04-25T13:06:19.832Z</time></trkpt><trkpt lat="40.7430383" lon="16.1617733"><ele>218.0</ele><time>2026-04-25T13:06:20.832Z</time></trkpt><trkpt lat="40.74291" lon="16.161875"><ele>218.0</ele><time>2026-04-25T13:06:21.833Z</time></trkpt><trkpt lat="40.7427767" lon="16.1619817"><ele>218.0</ele><time>2026-04-25T13:06:22.832Z</time></trkpt><trkpt lat="40.742635" lon="16.162085"><ele>218.0</ele><time>2026-04-25T13:06:23.833Z</time></trkpt><trkpt lat="40.7424933" lon="16.1621833"><ele>217.75</ele><time>2026-04-25T13:06:24.833Z</time></trkpt><trkpt lat="40.7423583" lon="16.1622767"><ele>217.5</ele><time>2026-04-25T13:06:25.832Z</time></trkpt><trkpt lat="40.7422367" lon="16.1623617"><ele>217.25</ele><time>2026-04-25T13:06:26.834Z</time></trkpt><trkpt lat="40.7421167" lon="16.1624383"><ele>217.0</ele><time>2026-04-25T13:06:27.832Z</time></trkpt><trkpt lat="40.7419967" lon="16.1625267"><ele>216.25</ele><time>2026-04-25T13:06:28.832Z</time></trkpt><trkpt lat="40.7418667" lon="16.1626133"><ele>215.5</ele><time>2026-04-25T13:06:29.832Z</time></trkpt><trkpt lat="40.74174" lon="16.162695"><ele>214.75</ele><time>2026-04-25T13:06:30.832Z</time></trkpt><trkpt lat="40.741615" lon="16.1627817"><ele>214.0</ele><time>2026-04-25T13:06:31.832Z</time></trkpt><trkpt lat="40.7415" lon="16.1628633"><ele>214.0</ele><time>2026-04-25T13:06:32.835Z</time></trkpt><trkpt lat="40.7413967" lon="16.1629367"><ele>213.99999999999997</ele><time>2026-04-25T13:06:33.833Z</time></trkpt><trkpt lat="40.7413017" lon="16.1629983"><ele>213.99999999999997</ele><time>2026-04-25T13:06:34.834Z</time></trkpt><trkpt lat="40.7412233" lon="16.1630417"><ele>214.0</ele><time>2026-04-25T13:06:35.835Z</time></trkpt><trkpt lat="40.74116" lon="16.1630783"><ele>214.0</ele><time>2026-04-25T13:06:36.833Z</time></trkpt><trkpt lat="40.7410733" lon="16.16315"><ele>213.6</ele><time>2026-04-25T13:06:38.833Z</time></trkpt><trkpt lat="40.7409917" lon="16.1631783"><ele>213.2</ele><time>2026-04-25T13:06:41.835Z</time></trkpt><trkpt lat="40.7409133" lon="16.1630767"><ele>212.79999999999998</ele><time>2026-04-25T13:06:43.833Z</time></trkpt><trkpt lat="40.7408567" lon="16.1629917"><ele>212.39999999999998</ele><time>2026-04-25T13:06:44.833Z</time></trkpt><trkpt lat="40.7407817" lon="16.1629"><ele>212.0</ele><time>2026-04-25T13:06:45.833Z</time></trkpt><trkpt lat="40.7406867" lon="16.1628033"><ele>212.0</ele><time>2026-04-25T13:06:46.834Z</time></trkpt><trkpt lat="40.7405867" lon="16.1627117"><ele>212.0</ele><time>2026-04-25T13:06:47.832Z</time></trkpt><trkpt lat="40.7404817" lon="16.1626217"><ele>212.0</ele><time>2026-04-25T13:06:48.832Z</time></trkpt><trkpt lat="40.7403683" lon="16.1625317"><ele>212.0</ele><time>2026-04-25T13:06:49.833Z</time></trkpt><trkpt lat="40.74024" lon="16.1624467"><ele>211.75</ele><time>2026-04-25T13:06:50.833Z</time></trkpt><trkpt lat="40.7401017" lon="16.162375"><ele>211.5</ele><time>2026-04-25T13:06:51.833Z</time></trkpt><trkpt lat="40.7399633" lon="16.16232"><ele>211.25</ele><time>2026-04-25T13:06:52.833Z</time></trkpt><trkpt lat="40.7398183" lon="16.162285"><ele>211.0</ele><time>2026-04-25T13:06:53.835Z</time></trkpt><trkpt lat="40.7396683" lon="16.1622717"><ele>211.0</ele><time>2026-04-25T13:06:54.833Z</time></trkpt><trkpt lat="40.739515" lon="16.1622867"><ele>211.0</ele><time>2026-04-25T13:06:55.833Z</time></trkpt><trkpt lat="40.73936" lon="16.1623267"><ele>211.0</ele><time>2026-04-25T13:06:56.833Z</time></trkpt><trkpt lat="40.73921" lon="16.162395"><ele>211.0</ele><time>2026-04-25T13:06:57.834Z</time></trkpt><trkpt lat="40.7390583" lon="16.162495"><ele>211.0</ele><time>2026-04-25T13:06:58.833Z</time></trkpt><trkpt lat="40.7389" lon="16.16261"><ele>211.0</ele><time>2026-04-25T13:06:59.832Z</time></trkpt><trkpt lat="40.7387317" lon="16.16273"><ele>211.0</ele><time>2026-04-25T13:07:00.833Z</time></trkpt><trkpt lat="40.7385567" lon="16.1628467"><ele>211.0</ele><time>2026-04-25T13:07:01.832Z</time></trkpt><trkpt lat="40.7383867" lon="16.1629617"><ele>211.0</ele><time>2026-04-25T13:07:02.834Z</time></trkpt><trkpt lat="40.7382267" lon="16.1630717"><ele>211.33333333333331</ele><time>2026-04-25T13:07:03.832Z</time></trkpt><trkpt lat="40.7380767" lon="16.163175"><ele>211.66666666666669</ele><time>2026-04-25T13:07:04.833Z</time></trkpt><trkpt lat="40.7379383" lon="16.1632817"><ele>212.0</ele><time>2026-04-25T13:07:05.832Z</time></trkpt><trkpt lat="40.7378117" lon="16.1634017"><ele>214.25</ele><time>2026-04-25T13:07:06.832Z</time></trkpt><trkpt lat="40.7377033" lon="16.1635417"><ele>216.5</ele><time>2026-04-25T13:07:07.832Z</time></trkpt><trkpt lat="40.737615" lon="16.1636967"><ele>218.75</ele><time>2026-04-25T13:07:08.833Z</time></trkpt><trkpt lat="40.73754" lon="16.1638667"><ele>221.0</ele><time>2026-04-25T13:07:09.832Z</time></trkpt><trkpt lat="40.7374733" lon="16.1640533"><ele>221.0</ele><time>2026-04-25T13:07:10.832Z</time></trkpt><trkpt lat="40.73742" lon="16.164255"><ele>221.0</ele><time>2026-04-25T13:07:11.834Z</time></trkpt><trkpt lat="40.73738" lon="16.164465"><ele>221.0</ele><time>2026-04-25T13:07:12.832Z</time></trkpt><trkpt lat="40.737355" lon="16.1646867"><ele>219.66666666666669</ele><time>2026-04-25T13:07:13.833Z</time></trkpt><trkpt lat="40.7373383" lon="16.16492"><ele>218.33333333333331</ele><time>2026-04-25T13:07:14.832Z</time></trkpt><trkpt lat="40.7373233" lon="16.1651517"><ele>217.0</ele><time>2026-04-25T13:07:15.833Z</time></trkpt><trkpt lat="40.7373083" lon="16.165375"><ele>217.0</ele><time>2026-04-25T13:07:16.833Z</time></trkpt><trkpt lat="40.7372883" lon="16.165595"><ele>217.0</ele><time>2026-04-25T13:07:17.832Z</time></trkpt><trkpt lat="40.737265" lon="16.1658117"><ele>217.0</ele><time>2026-04-25T13:07:18.832Z</time></trkpt><trkpt lat="40.7372367" lon="16.1660283"><ele>217.66666666666666</ele><time>2026-04-25T13:07:19.834Z</time></trkpt><trkpt lat="40.7371983" lon="16.1662467"><ele>218.33333333333331</ele><time>2026-04-25T13:07:20.833Z</time></trkpt><trkpt lat="40.73715" lon="16.16648"><ele>219.0</ele><time>2026-04-25T13:07:21.834Z</time></trkpt><trkpt lat="40.7370933" lon="16.1667233"><ele>219.0</ele><time>2026-04-25T13:07:22.833Z</time></trkpt><trkpt lat="40.7370333" lon="16.1669683"><ele>219.0</ele><time>2026-04-25T13:07:23.833Z</time></trkpt><trkpt lat="40.73697" lon="16.1672183"><ele>219.0</ele><time>2026-04-25T13:07:24.832Z</time></trkpt><trkpt lat="40.7369033" lon="16.1674717"><ele>223.66666666666669</ele><time>2026-04-25T13:07:25.833Z</time></trkpt><trkpt lat="40.7368483" lon="16.1677133"><ele>228.33333333333334</ele><time>2026-04-25T13:07:26.833Z</time></trkpt><trkpt lat="40.7367983" lon="16.1679367"><ele>233.0</ele><time>2026-04-25T13:07:27.832Z</time></trkpt><trkpt lat="40.73675" lon="16.1681467"><ele>232.75</ele><time>2026-04-25T13:07:28.833Z</time></trkpt><trkpt lat="40.7367083" lon="16.1683433"><ele>232.5</ele><time>2026-04-25T13:07:29.833Z</time></trkpt><trkpt lat="40.7366633" lon="16.1685233"><ele>232.25</ele><time>2026-04-25T13:07:30.833Z</time></trkpt><trkpt lat="40.7366" lon="16.1686767"><ele>232.0</ele><time>2026-04-25T13:07:31.833Z</time></trkpt><trkpt lat="40.7365167" lon="16.16881"><ele>232.0</ele><time>2026-04-25T13:07:32.834Z</time></trkpt><trkpt lat="40.7364083" lon="16.1689167"><ele>232.0</ele><time>2026-04-25T13:07:33.832Z</time></trkpt><trkpt lat="40.7362833" lon="16.168995"><ele>232.0</ele><time>2026-04-25T13:07:34.832Z</time></trkpt><trkpt lat="40.7361417" lon="16.1690383"><ele>232.0</ele><time>2026-04-25T13:07:35.834Z</time></trkpt><trkpt lat="40.7359967" lon="16.1690383"><ele>233.25</ele><time>2026-04-25T13:07:36.832Z</time></trkpt><trkpt lat="40.7358533" lon="16.1689967"><ele>234.5</ele><time>2026-04-25T13:07:37.833Z</time></trkpt><trkpt lat="40.735725" lon="16.1689167"><ele>235.75</ele><time>2026-04-25T13:07:38.834Z</time></trkpt><trkpt lat="40.73561" lon="16.1688067"><ele>237.0</ele><time>2026-04-25T13:07:39.832Z</time></trkpt><trkpt lat="40.7355133" lon="16.1686667"><ele>237.0</ele><time>2026-04-25T13:07:40.833Z</time></trkpt><trkpt lat="40.7354367" lon="16.16849"><ele>237.0</ele><time>2026-04-25T13:07:41.834Z</time></trkpt><trkpt lat="40.7353733" lon="16.168285"><ele>237.0</ele><time>2026-04-25T13:07:42.834Z</time></trkpt><trkpt lat="40.7353083" lon="16.1680567"><ele>237.33333333333331</ele><time>2026-04-25T13:07:43.832Z</time></trkpt><trkpt lat="40.735235" lon="16.1678117"><ele>237.66666666666666</ele><time>2026-04-25T13:07:44.833Z</time></trkpt><trkpt lat="40.7351583" lon="16.1675533"><ele>238.0</ele><time>2026-04-25T13:07:45.832Z</time></trkpt><trkpt lat="40.7350733" lon="16.1672783"><ele>239.0</ele><time>2026-04-25T13:07:46.833Z</time></trkpt><trkpt lat="40.7349833" lon="16.1669883"><ele>240.0</ele><time>2026-04-25T13:07:47.833Z</time></trkpt><trkpt lat="40.7348933" lon="16.1667067"><ele>240.33333333333331</ele><time>2026-04-25T13:07:48.832Z</time></trkpt><trkpt lat="40.7348067" lon="16.1664333"><ele>240.66666666666666</ele><time>2026-04-25T13:07:49.832Z</time></trkpt><trkpt lat="40.7347233" lon="16.1661667"><ele>241.0</ele><time>2026-04-25T13:07:50.834Z</time></trkpt><trkpt lat="40.7346417" lon="16.165905"><ele>242.0</ele><time>2026-04-25T13:07:51.834Z</time></trkpt><trkpt lat="40.7345617" lon="16.1656483"><ele>243.0</ele><time>2026-04-25T13:07:52.833Z</time></trkpt><trkpt lat="40.7344833" lon="16.1653933"><ele>244.0</ele><time>2026-04-25T13:07:53.833Z</time></trkpt><trkpt lat="40.734405" lon="16.16514"><ele>244.0</ele><time>2026-04-25T13:07:54.832Z</time></trkpt><trkpt lat="40.73433" lon="16.1648883"><ele>244.0</ele><time>2026-04-25T13:07:55.833Z</time></trkpt><trkpt lat="40.734255" lon="16.1646383"><ele>244.0</ele><time>2026-04-25T13:07:56.833Z</time></trkpt><trkpt lat="40.7341767" lon="16.1643883"><ele>244.0</ele><time>2026-04-25T13:07:57.832Z</time></trkpt><trkpt lat="40.7340967" lon="16.164135"><ele>244.0</ele><time>2026-04-25T13:07:58.832Z</time></trkpt><trkpt lat="40.7340133" lon="16.1638783"><ele>244.0</ele><time>2026-04-25T13:07:59.832Z</time></trkpt><trkpt lat="40.7339317" lon="16.1636183"><ele>245.0</ele><time>2026-04-25T13:08:00.833Z</time></trkpt><trkpt lat="40.7338517" lon="16.163355"><ele>246.0</ele><time>2026-04-25T13:08:01.833Z</time></trkpt><trkpt lat="40.73377" lon="16.16309"><ele>247.0</ele><time>2026-04-25T13:08:02.834Z</time></trkpt><trkpt lat="40.7336883" lon="16.1628217"><ele>247.33333333333331</ele><time>2026-04-25T13:08:03.833Z</time></trkpt><trkpt lat="40.733605" lon="16.16255"><ele>247.66666666666669</ele><time>2026-04-25T13:08:04.834Z</time></trkpt><trkpt lat="40.7335183" lon="16.1622767"><ele>248.0</ele><time>2026-04-25T13:08:05.834Z</time></trkpt><trkpt lat="40.7334333" lon="16.1620017"><ele>248.33333333333334</ele><time>2026-04-25T13:08:06.835Z</time></trkpt><trkpt lat="40.73335" lon="16.1617283"><ele>248.66666666666669</ele><time>2026-04-25T13:08:07.833Z</time></trkpt><trkpt lat="40.7332628" lon="16.1614564"><ele>249.0</ele><time>2026-04-25T13:08:08.833Z</time></trkpt><trkpt lat="40.7331718" lon="16.1611877"><ele>251.0</ele><time>2026-04-25T13:08:09.833Z</time></trkpt><trkpt lat="40.7330791" lon="16.1609237"><ele>253.0</ele><time>2026-04-25T13:08:10.833Z</time></trkpt><trkpt lat="40.7329777" lon="16.1606712"><ele>255.0</ele><time>2026-04-25T13:08:11.834Z</time></trkpt><trkpt lat="40.7328679" lon="16.160428"><ele>255.33333333333331</ele><time>2026-04-25T13:08:12.833Z</time></trkpt><trkpt lat="40.7327553" lon="16.160186"><ele>255.66666666666666</ele><time>2026-04-25T13:08:13.833Z</time></trkpt><trkpt lat="40.7326418" lon="16.159937"><ele>256.0</ele><time>2026-04-25T13:08:14.834Z</time></trkpt><trkpt lat="40.7325241" lon="16.1596848"><ele>258.3333333333333</ele><time>2026-04-25T13:08:15.834Z</time></trkpt><trkpt lat="40.7324086" lon="16.1594346"><ele>260.6666666666667</ele><time>2026-04-25T13:08:16.833Z</time></trkpt><trkpt lat="40.7322953" lon="16.159187"><ele>263.0</ele><time>2026-04-25T13:08:17.834Z</time></trkpt><trkpt lat="40.7321842" lon="16.1589388"><ele>263.0</ele><time>2026-04-25T13:08:18.833Z</time></trkpt><trkpt lat="40.7320763" lon="16.1586978"><ele>263.0</ele><time>2026-04-25T13:08:19.832Z</time></trkpt><trkpt lat="40.7319739" lon="16.1584675"><ele>263.0</ele><time>2026-04-25T13:08:20.834Z</time></trkpt><trkpt lat="40.7318756" lon="16.1582365"><ele>265.0</ele><time>2026-04-25T13:08:21.834Z</time></trkpt><trkpt lat="40.7317849" lon="16.1579968"><ele>267.0</ele><time>2026-04-25T13:08:22.832Z</time></trkpt><trkpt lat="40.7317065" lon="16.1577445"><ele>269.0</ele><time>2026-04-25T13:08:23.833Z</time></trkpt><trkpt lat="40.7316348" lon="16.157482"><ele>270.33333333333337</ele><time>2026-04-25T13:08:24.834Z</time></trkpt><trkpt lat="40.7315684" lon="16.1572144"><ele>271.6666666666667</ele><time>2026-04-25T13:08:25.833Z</time></trkpt><trkpt lat="40.7315057" lon="16.1569568"><ele>273.0</ele><time>2026-04-25T13:08:26.834Z</time></trkpt><trkpt lat="40.7314482" lon="16.1567059"><ele>274.6666666666667</ele><time>2026-04-25T13:08:27.833Z</time></trkpt><trkpt lat="40.7313931" lon="16.1564525"><ele>276.33333333333337</ele><time>2026-04-25T13:08:28.833Z</time></trkpt><trkpt lat="40.7313374" lon="16.1562022"><ele>278.0</ele><time>2026-04-25T13:08:29.832Z</time></trkpt><trkpt lat="40.7312827" lon="16.1559579"><ele>278.0</ele><time>2026-04-25T13:08:30.833Z</time></trkpt><trkpt lat="40.7312247" lon="16.155724"><ele>278.0</ele><time>2026-04-25T13:08:31.832Z</time></trkpt><trkpt lat="40.7311599" lon="16.1555062"><ele>278.0</ele><time>2026-04-25T13:08:32.834Z</time></trkpt><trkpt lat="40.7310839" lon="16.1552971"><ele>278.0</ele><time>2026-04-25T13:08:33.833Z</time></trkpt><trkpt lat="40.7309948" lon="16.1550952"><ele>278.0</ele><time>2026-04-25T13:08:34.835Z</time></trkpt><trkpt lat="40.7308954" lon="16.1548936"><ele>278.0</ele><time>2026-04-25T13:08:35.832Z</time></trkpt><trkpt lat="40.7307912" lon="16.1546933"><ele>280.6666666666667</ele><time>2026-04-25T13:08:36.833Z</time></trkpt><trkpt lat="40.7306932" lon="16.1544962"><ele>283.3333333333333</ele><time>2026-04-25T13:08:37.833Z</time></trkpt><trkpt lat="40.7306028" lon="16.1542891"><ele>286.0</ele><time>2026-04-25T13:08:38.834Z</time></trkpt><trkpt lat="40.7305224" lon="16.1540639"><ele>288.66666666666663</ele><time>2026-04-25T13:08:39.833Z</time></trkpt><trkpt lat="40.7304513" lon="16.1538114"><ele>291.3333333333333</ele><time>2026-04-25T13:08:40.834Z</time></trkpt><trkpt lat="40.7303867" lon="16.1535367"><ele>294.0</ele><time>2026-04-25T13:08:41.833Z</time></trkpt><trkpt lat="40.7303183" lon="16.1532667"><ele>295.6666666666667</ele><time>2026-04-25T13:08:42.833Z</time></trkpt><trkpt lat="40.73024" lon="16.153"><ele>297.33333333333337</ele><time>2026-04-25T13:08:43.833Z</time></trkpt><trkpt lat="40.7301517" lon="16.1527417"><ele>299.0</ele><time>2026-04-25T13:08:44.834Z</time></trkpt><trkpt lat="40.7300533" lon="16.1524867"><ele>298.6666666666667</ele><time>2026-04-25T13:08:45.833Z</time></trkpt><trkpt lat="40.729945" lon="16.1522417"><ele>298.3333333333333</ele><time>2026-04-25T13:08:46.833Z</time></trkpt><trkpt lat="40.7298283" lon="16.152"><ele>298.0</ele><time>2026-04-25T13:08:47.832Z</time></trkpt><trkpt lat="40.7297067" lon="16.1517683"><ele>298.0</ele><time>2026-04-25T13:08:48.833Z</time></trkpt><trkpt lat="40.72959" lon="16.1515517"><ele>298.0</ele><time>2026-04-25T13:08:49.833Z</time></trkpt><trkpt lat="40.7294767" lon="16.15135"><ele>298.0</ele><time>2026-04-25T13:08:50.833Z</time></trkpt><trkpt lat="40.729365" lon="16.1511533"><ele>298.0</ele><time>2026-04-25T13:08:51.833Z</time></trkpt><trkpt lat="40.72926" lon="16.1509567"><ele>298.0</ele><time>2026-04-25T13:08:52.833Z</time></trkpt><trkpt lat="40.72916" lon="16.1507533"><ele>298.0</ele><time>2026-04-25T13:08:53.833Z</time></trkpt><trkpt lat="40.7290667" lon="16.1505433"><ele>299.3333333333333</ele><time>2026-04-25T13:08:54.833Z</time></trkpt><trkpt lat="40.7289817" lon="16.15032"><ele>300.6666666666667</ele><time>2026-04-25T13:08:55.832Z</time></trkpt><trkpt lat="40.7289" lon="16.1500883"><ele>302.0</ele><time>2026-04-25T13:08:56.834Z</time></trkpt><trkpt lat="40.7288233" lon="16.149845"><ele>303.33333333333337</ele><time>2026-04-25T13:08:57.832Z</time></trkpt><trkpt lat="40.7287517" lon="16.1495917"><ele>304.6666666666667</ele><time>2026-04-25T13:08:58.832Z</time></trkpt><trkpt lat="40.7286917" lon="16.1493283"><ele>306.0</ele><time>2026-04-25T13:08:59.833Z</time></trkpt><trkpt lat="40.728635" lon="16.1490633"><ele>307.0</ele><time>2026-04-25T13:09:00.833Z</time></trkpt><trkpt lat="40.728575" lon="16.148795"><ele>308.0</ele><time>2026-04-25T13:09:01.832Z</time></trkpt><trkpt lat="40.7285083" lon="16.148525"><ele>309.0</ele><time>2026-04-25T13:09:02.833Z</time></trkpt><trkpt lat="40.7284433" lon="16.1482533"><ele>311.0</ele><time>2026-04-25T13:09:03.834Z</time></trkpt><trkpt lat="40.72838" lon="16.1479817"><ele>313.0</ele><time>2026-04-25T13:09:04.833Z</time></trkpt><trkpt lat="40.7283117" lon="16.14771"><ele>315.0</ele><time>2026-04-25T13:09:05.84Z</time></trkpt><trkpt lat="40.7282433" lon="16.147445"><ele>316.6666666666667</ele><time>2026-04-25T13:09:06.833Z</time></trkpt><trkpt lat="40.7281783" lon="16.1471933"><ele>318.33333333333337</ele><time>2026-04-25T13:09:07.834Z</time></trkpt><trkpt lat="40.728115" lon="16.14695"><ele>320.0</ele><time>2026-04-25T13:09:08.834Z</time></trkpt><trkpt lat="40.7280583" lon="16.1467183"><ele>321.6666666666667</ele><time>2026-04-25T13:09:09.834Z</time></trkpt><trkpt lat="40.7280067" lon="16.1465"><ele>323.3333333333333</ele><time>2026-04-25T13:09:10.833Z</time></trkpt><trkpt lat="40.7279467" lon="16.1462733"><ele>325.0</ele><time>2026-04-25T13:09:11.834Z</time></trkpt><trkpt lat="40.7278917" lon="16.146055"><ele>325.0</ele><time>2026-04-25T13:09:12.834Z</time></trkpt><trkpt lat="40.72784" lon="16.1458483"><ele>325.0</ele><time>2026-04-25T13:09:13.833Z</time></trkpt><trkpt lat="40.7277983" lon="16.145655"><ele>325.0</ele><time>2026-04-25T13:09:14.834Z</time></trkpt><trkpt lat="40.727765" lon="16.145465"><ele>325.25</ele><time>2026-04-25T13:09:15.833Z</time></trkpt><trkpt lat="40.7277383" lon="16.1452767"><ele>325.5</ele><time>2026-04-25T13:09:16.833Z</time></trkpt><trkpt lat="40.7277133" lon="16.1450867"><ele>325.75</ele><time>2026-04-25T13:09:17.834Z</time></trkpt><trkpt lat="40.72769" lon="16.144885"><ele>326.0</ele><time>2026-04-25T13:09:18.834Z</time></trkpt><trkpt lat="40.7276767" lon="16.144665"><ele>326.0</ele><time>2026-04-25T13:09:19.832Z</time></trkpt><trkpt lat="40.727665" lon="16.1444233"><ele>326.0</ele><time>2026-04-25T13:09:20.833Z</time></trkpt><trkpt lat="40.7276583" lon="16.1441583"><ele>326.0</ele><time>2026-04-25T13:09:21.833Z</time></trkpt><trkpt lat="40.7276517" lon="16.1438867"><ele>326.33333333333337</ele><time>2026-04-25T13:09:22.832Z</time></trkpt><trkpt lat="40.7276483" lon="16.1436267"><ele>326.6666666666667</ele><time>2026-04-25T13:09:23.833Z</time></trkpt><trkpt lat="40.7276433" lon="16.1433733"><ele>327.0</ele><time>2026-04-25T13:09:24.832Z</time></trkpt><trkpt lat="40.7276233" lon="16.1431167"><ele>328.0</ele><time>2026-04-25T13:09:25.832Z</time></trkpt><trkpt lat="40.7275867" lon="16.14286"><ele>329.0</ele><time>2026-04-25T13:09:26.833Z</time></trkpt><trkpt lat="40.7275517" lon="16.1426"><ele>330.0</ele><time>2026-04-25T13:09:27.834Z</time></trkpt><trkpt lat="40.727525" lon="16.1423433"><ele>331.0</ele><time>2026-04-25T13:09:28.832Z</time></trkpt><trkpt lat="40.72751" lon="16.1420833"><ele>332.0</ele><time>2026-04-25T13:09:29.833Z</time></trkpt><trkpt lat="40.7275067" lon="16.1418183"><ele>333.0</ele><time>2026-04-25T13:09:30.833Z</time></trkpt><trkpt lat="40.7275167" lon="16.1415467"><ele>333.3333333333333</ele><time>2026-04-25T13:09:31.833Z</time></trkpt><trkpt lat="40.7275383" lon="16.14127"><ele>333.66666666666663</ele><time>2026-04-25T13:09:32.835Z</time></trkpt><trkpt lat="40.72756" lon="16.14099"><ele>334.0</ele><time>2026-04-25T13:09:33.833Z</time></trkpt><trkpt lat="40.7275767" lon="16.1407017"><ele>335.66666666666663</ele><time>2026-04-25T13:09:34.833Z</time></trkpt><trkpt lat="40.7275917" lon="16.140405"><ele>337.3333333333333</ele><time>2026-04-25T13:09:35.834Z</time></trkpt><trkpt lat="40.727605" lon="16.1401117"><ele>339.0</ele><time>2026-04-25T13:09:36.833Z</time></trkpt><trkpt lat="40.72762" lon="16.1398217"><ele>341.0</ele><time>2026-04-25T13:09:37.832Z</time></trkpt><trkpt lat="40.727635" lon="16.13953"><ele>343.0</ele><time>2026-04-25T13:09:38.833Z</time></trkpt><trkpt lat="40.7276517" lon="16.13924"><ele>345.0</ele><time>2026-04-25T13:09:39.832Z</time></trkpt><trkpt lat="40.7276683" lon="16.13895"><ele>345.0</ele><time>2026-04-25T13:09:40.833Z</time></trkpt><trkpt lat="40.727685" lon="16.1386583"><ele>345.0</ele><time>2026-04-25T13:09:41.833Z</time></trkpt><trkpt lat="40.7277033" lon="16.138365"><ele>345.0</ele><time>2026-04-25T13:09:42.833Z</time></trkpt><trkpt lat="40.727725" lon="16.13807"><ele>345.0</ele><time>2026-04-25T13:09:43.832Z</time></trkpt><trkpt lat="40.7277433" lon="16.13778"><ele>345.0</ele><time>2026-04-25T13:09:44.833Z</time></trkpt><trkpt lat="40.7277617" lon="16.1374983"><ele>345.0</ele><time>2026-04-25T13:09:45.832Z</time></trkpt><trkpt lat="40.7277783" lon="16.137225"><ele>345.0</ele><time>2026-04-25T13:09:46.833Z</time></trkpt><trkpt lat="40.7277967" lon="16.136945"><ele>345.0</ele><time>2026-04-25T13:09:47.832Z</time></trkpt><trkpt lat="40.727815" lon="16.1366583"><ele>345.0</ele><time>2026-04-25T13:09:48.834Z</time></trkpt><trkpt lat="40.7278317" lon="16.1363817"><ele>346.0</ele><time>2026-04-25T13:09:49.832Z</time></trkpt><trkpt lat="40.7278464" lon="16.1361237"><ele>347.0</ele><time>2026-04-25T13:09:50.834Z</time></trkpt><trkpt lat="40.7278621" lon="16.1358889"><ele>348.0</ele><time>2026-04-25T13:09:51.833Z</time></trkpt><trkpt lat="40.7278767" lon="16.1356748"><ele>348.5</ele><time>2026-04-25T13:09:52.833Z</time></trkpt><trkpt lat="40.7278881" lon="16.1354842"><ele>349.0</ele><time>2026-04-25T13:09:53.833Z</time></trkpt><trkpt lat="40.7278959" lon="16.1353101"><ele>349.5</ele><time>2026-04-25T13:09:54.832Z</time></trkpt><trkpt lat="40.7279045" lon="16.1351481"><ele>350.0</ele><time>2026-04-25T13:09:55.832Z</time></trkpt><trkpt lat="40.7279149" lon="16.1350019"><ele>350.5</ele><time>2026-04-25T13:09:56.836Z</time></trkpt><trkpt lat="40.7279224" lon="16.1348776"><ele>351.0</ele><time>2026-04-25T13:09:57.832Z</time></trkpt><trkpt lat="40.7279257" lon="16.1347756"><ele>351.5</ele><time>2026-04-25T13:09:58.832Z</time></trkpt><trkpt lat="40.7279298" lon="16.1346377"><ele>352.0</ele><time>2026-04-25T13:10:00.834Z</time></trkpt><trkpt lat="40.7279086" lon="16.1345531"><ele>352.5</ele><time>2026-04-25T13:10:02.832Z</time></trkpt><trkpt lat="40.7278799" lon="16.1344657"><ele>353.0</ele><time>2026-04-25T13:10:04.831Z</time></trkpt><trkpt lat="40.727861" lon="16.1343535"><ele>353.0</ele><time>2026-04-25T13:10:06.832Z</time></trkpt><trkpt lat="40.7278348" lon="16.1341829"><ele>353.0</ele><time>2026-04-25T13:10:08.832Z</time></trkpt><trkpt lat="40.7278114" lon="16.1340772"><ele>353.0</ele><time>2026-04-25T13:10:09.833Z</time></trkpt><trkpt lat="40.727787" lon="16.1339642"><ele>353.0</ele><time>2026-04-25T13:10:10.831Z</time></trkpt><trkpt lat="40.7277612" lon="16.1338537"><ele>353.0</ele><time>2026-04-25T13:10:11.832Z</time></trkpt><trkpt lat="40.7277378" lon="16.1337494"><ele>351.4285714285714</ele><time>2026-04-25T13:10:12.832Z</time></trkpt><trkpt lat="40.7277165" lon="16.1336523"><ele>349.8571428571429</ele><time>2026-04-25T13:10:13.832Z</time></trkpt><trkpt lat="40.7276988" lon="16.1335619"><ele>348.2857142857143</ele><time>2026-04-25T13:10:14.833Z</time></trkpt><trkpt lat="40.7276811" lon="16.1334746"><ele>346.71428571428567</ele><time>2026-04-25T13:10:15.831Z</time></trkpt><trkpt lat="40.7276631" lon="16.1333853"><ele>345.1428571428571</ele><time>2026-04-25T13:10:16.833Z</time></trkpt><trkpt lat="40.727644" lon="16.1332964"><ele>343.57142857142856</ele><time>2026-04-25T13:10:17.831Z</time></trkpt><trkpt lat="40.7276286" lon="16.1332015"><ele>342.0</ele><time>2026-04-25T13:10:18.832Z</time></trkpt><trkpt lat="40.7276154" lon="16.1330996"><ele>341.0</ele><time>2026-04-25T13:10:19.832Z</time></trkpt><trkpt lat="40.7276058" lon="16.1329926"><ele>340.0</ele><time>2026-04-25T13:10:20.834Z</time></trkpt><trkpt lat="40.7275952" lon="16.1328811"><ele>339.0</ele><time>2026-04-25T13:10:21.832Z</time></trkpt><trkpt lat="40.7275836" lon="16.1327679"><ele>338.0</ele><time>2026-04-25T13:10:22.832Z</time></trkpt><trkpt lat="40.7275733" lon="16.1326583"><ele>337.0</ele><time>2026-04-25T13:10:23.833Z</time></trkpt><trkpt lat="40.7275667" lon="16.13255"><ele>336.0</ele><time>2026-04-25T13:10:24.832Z</time></trkpt><trkpt lat="40.72756" lon="16.1324417"><ele>334.0</ele><time>2026-04-25T13:10:25.832Z</time></trkpt><trkpt lat="40.7275583" lon="16.13233"><ele>332.0</ele><time>2026-04-25T13:10:26.832Z</time></trkpt><trkpt lat="40.7275567" lon="16.13222"><ele>330.0</ele><time>2026-04-25T13:10:27.832Z</time></trkpt><trkpt lat="40.7275533" lon="16.1321083"><ele>328.0</ele><time>2026-04-25T13:10:28.832Z</time></trkpt><trkpt lat="40.72755" lon="16.1319933"><ele>326.0</ele><time>2026-04-25T13:10:29.831Z</time></trkpt><trkpt lat="40.7275483" lon="16.1318783"><ele>324.0</ele><time>2026-04-25T13:10:30.832Z</time></trkpt><trkpt lat="40.7275483" lon="16.1317583"><ele>324.0</ele><time>2026-04-25T13:10:31.839Z</time></trkpt><trkpt lat="40.7275533" lon="16.1316267"><ele>324.0</ele><time>2026-04-25T13:10:32.834Z</time></trkpt><trkpt lat="40.727565" lon="16.1314967"><ele>324.0</ele><time>2026-04-25T13:10:33.832Z</time></trkpt><trkpt lat="40.7275783" lon="16.13137"><ele>324.0</ele><time>2026-04-25T13:10:34.832Z</time></trkpt><trkpt lat="40.727595" lon="16.1312417"><ele>324.0</ele><time>2026-04-25T13:10:35.832Z</time></trkpt><trkpt lat="40.7276083" lon="16.1311117"><ele>323.0</ele><time>2026-04-25T13:10:36.832Z</time></trkpt><trkpt lat="40.7276217" lon="16.1309933"><ele>322.0</ele><time>2026-04-25T13:10:37.832Z</time></trkpt><trkpt lat="40.727635" lon="16.130885"><ele>321.0</ele><time>2026-04-25T13:10:38.833Z</time></trkpt><trkpt lat="40.7276417" lon="16.13079"><ele>320.0</ele><time>2026-04-25T13:10:39.833Z</time></trkpt><trkpt lat="40.7276533" lon="16.1306333"><ele>319.0</ele><time>2026-04-25T13:10:41.833Z</time></trkpt><trkpt lat="40.727665" lon="16.1305017"><ele>319.0</ele><time>2026-04-25T13:10:43.831Z</time></trkpt><trkpt lat="40.7276533" lon="16.13037"><ele>319.0</ele><time>2026-04-25T13:10:45.833Z</time></trkpt><trkpt lat="40.7276117" lon="16.130255"><ele>319.0</ele><time>2026-04-25T13:10:47.832Z</time></trkpt><trkpt lat="40.7275667" lon="16.1301033"><ele>319.0</ele><time>2026-04-25T13:10:49.833Z</time></trkpt><trkpt lat="40.727545" lon="16.130025"><ele>319.0</ele><time>2026-04-25T13:10:50.834Z</time></trkpt><trkpt lat="40.7275267" lon="16.1299217"><ele>318.59999999999997</ele><time>2026-04-25T13:10:52.831Z</time></trkpt><trkpt lat="40.7275117" lon="16.1298133"><ele>318.2</ele><time>2026-04-25T13:10:54.832Z</time></trkpt><trkpt lat="40.7274983" lon="16.1296433"><ele>317.79999999999995</ele><time>2026-04-25T13:10:56.832Z</time></trkpt><trkpt lat="40.7274917" lon="16.1295167"><ele>317.4</ele><time>2026-04-25T13:10:57.833Z</time></trkpt><trkpt lat="40.7274833" lon="16.12939"><ele>317.0</ele><time>2026-04-25T13:10:58.833Z</time></trkpt><trkpt lat="40.72747" lon="16.12927"><ele>317.0</ele><time>2026-04-25T13:10:59.833Z</time></trkpt><trkpt lat="40.7274583" lon="16.129155"><ele>317.0</ele><time>2026-04-25T13:11:00.832Z</time></trkpt><trkpt lat="40.727445" lon="16.1290317"><ele>317.0</ele><time>2026-04-25T13:11:01.832Z</time></trkpt><trkpt lat="40.7274333" lon="16.1289033"><ele>317.0</ele><time>2026-04-25T13:11:02.834Z</time></trkpt><trkpt lat="40.7274233" lon="16.1287667"><ele>317.0</ele><time>2026-04-25T13:11:03.832Z</time></trkpt><trkpt lat="40.7274167" lon="16.1286133"><ele>316.0</ele><time>2026-04-25T13:11:04.833Z</time></trkpt><trkpt lat="40.7274067" lon="16.1284617"><ele>315.0</ele><time>2026-04-25T13:11:05.832Z</time></trkpt><trkpt lat="40.7273967" lon="16.1283167"><ele>314.0</ele><time>2026-04-25T13:11:06.832Z</time></trkpt><trkpt lat="40.7273883" lon="16.1281817"><ele>313.0</ele><time>2026-04-25T13:11:07.832Z</time></trkpt><trkpt lat="40.7273767" lon="16.1280533"><ele>312.0</ele><time>2026-04-25T13:11:08.833Z</time></trkpt><trkpt lat="40.72736" lon="16.1279267"><ele>310.8</ele><time>2026-04-25T13:11:09.832Z</time></trkpt><trkpt lat="40.72734" lon="16.1277933"><ele>309.6</ele><time>2026-04-25T13:11:10.832Z</time></trkpt><trkpt lat="40.7273183" lon="16.1276617"><ele>308.40000000000003</ele><time>2026-04-25T13:11:11.831Z</time></trkpt><trkpt lat="40.7272917" lon="16.1275367"><ele>307.2</ele><time>2026-04-25T13:11:12.831Z</time></trkpt><trkpt lat="40.727265" lon="16.12742"><ele>306.0</ele><time>2026-04-25T13:11:13.831Z</time></trkpt><trkpt lat="40.72724" lon="16.1273117"><ele>306.0</ele><time>2026-04-25T13:11:14.833Z</time></trkpt><trkpt lat="40.7272167" lon="16.1272133"><ele>306.0</ele><time>2026-04-25T13:11:15.832Z</time></trkpt><trkpt lat="40.7271967" lon="16.12713"><ele>306.0</ele><time>2026-04-25T13:11:16.832Z</time></trkpt><trkpt lat="40.7271617" lon="16.1269867"><ele>306.0</ele><time>2026-04-25T13:11:18.833Z</time></trkpt><trkpt lat="40.727135" lon="16.1268533"><ele>306.0</ele><time>2026-04-25T13:11:20.832Z</time></trkpt><trkpt lat="40.727105" lon="16.126725"><ele>306.0</ele><time>2026-04-25T13:11:22.832Z</time></trkpt><trkpt lat="40.7270933" lon="16.1265883"><ele>306.0</ele><time>2026-04-25T13:11:24.834Z</time></trkpt><trkpt lat="40.7270667" lon="16.1264267"><ele>306.0</ele><time>2026-04-25T13:11:26.833Z</time></trkpt><trkpt lat="40.7270483" lon="16.1263433"><ele>306.0</ele><time>2026-04-25T13:11:27.832Z</time></trkpt><trkpt lat="40.7270317" lon="16.1262583"><ele>306.0</ele><time>2026-04-25T13:11:28.832Z</time></trkpt><trkpt lat="40.727015" lon="16.12617"><ele>306.0</ele><time>2026-04-25T13:11:29.832Z</time></trkpt><trkpt lat="40.7270017" lon="16.126085"><ele>306.2</ele><time>2026-04-25T13:11:30.832Z</time></trkpt><trkpt lat="40.72699" lon="16.1259317"><ele>306.40000000000003</ele><time>2026-04-25T13:11:32.833Z</time></trkpt><trkpt lat="40.726985" lon="16.1258017"><ele>306.6</ele><time>2026-04-25T13:11:34.833Z</time></trkpt><trkpt lat="40.7269417" lon="16.12564"><ele>306.8</ele><time>2026-04-25T13:11:36.832Z</time></trkpt><trkpt lat="40.7269083" lon="16.1255283"><ele>307.0</ele><time>2026-04-25T13:11:37.832Z</time></trkpt><trkpt lat="40.7268683" lon="16.1254017"><ele>305.4</ele><time>2026-04-25T13:11:38.833Z</time></trkpt><trkpt lat="40.7268283" lon="16.1252783"><ele>303.79999999999995</ele><time>2026-04-25T13:11:39.832Z</time></trkpt><trkpt lat="40.726785" lon="16.1251583"><ele>302.2</ele><time>2026-04-25T13:11:40.832Z</time></trkpt><trkpt lat="40.7267417" lon="16.12504"><ele>300.59999999999997</ele><time>2026-04-25T13:11:41.834Z</time></trkpt><trkpt lat="40.726695" lon="16.124925"><ele>299.0</ele><time>2026-04-25T13:11:42.832Z</time></trkpt><trkpt lat="40.7266483" lon="16.1248233"><ele>298.6666666666667</ele><time>2026-04-25T13:11:43.833Z</time></trkpt><trkpt lat="40.7266033" lon="16.124735"><ele>298.33333333333337</ele><time>2026-04-25T13:11:44.833Z</time></trkpt><trkpt lat="40.7265583" lon="16.1246583"><ele>298.0</ele><time>2026-04-25T13:11:45.832Z</time></trkpt><trkpt lat="40.7265167" lon="16.1245933"><ele>297.6666666666667</ele><time>2026-04-25T13:11:46.833Z</time></trkpt><trkpt lat="40.726445" lon="16.1244933"><ele>297.3333333333333</ele><time>2026-04-25T13:11:48.831Z</time></trkpt><trkpt lat="40.7263683" lon="16.1244317"><ele>297.0</ele><time>2026-04-25T13:11:50.834Z</time></trkpt><trkpt lat="40.7262833" lon="16.1244017"><ele>297.0</ele><time>2026-04-25T13:11:52.832Z</time></trkpt><trkpt lat="40.7262183" lon="16.1243767"><ele>297.0</ele><time>2026-04-25T13:11:54.834Z</time></trkpt><trkpt lat="40.726155" lon="16.12439"><ele>297.0</ele><time>2026-04-25T13:11:56.834Z</time></trkpt><trkpt lat="40.7260767" lon="16.1244117"><ele>297.0</ele><time>2026-04-25T13:11:58.832Z</time></trkpt><trkpt lat="40.7259483" lon="16.124395"><ele>297.0</ele><time>2026-04-25T13:12:00.832Z</time></trkpt><trkpt lat="40.7258767" lon="16.1243733"><ele>297.0</ele><time>2026-04-25T13:12:01.832Z</time></trkpt><trkpt lat="40.7258083" lon="16.12434"><ele>296.8</ele><time>2026-04-25T13:12:02.833Z</time></trkpt><trkpt lat="40.7257383" lon="16.124295"><ele>296.6</ele><time>2026-04-25T13:12:03.833Z</time></trkpt><trkpt lat="40.725665" lon="16.12424"><ele>296.40000000000003</ele><time>2026-04-25T13:12:04.832Z</time></trkpt><trkpt lat="40.7255867" lon="16.1241767"><ele>296.2</ele><time>2026-04-25T13:12:05.832Z</time></trkpt><trkpt lat="40.7255017" lon="16.1241067"><ele>296.0</ele><time>2026-04-25T13:12:06.832Z</time></trkpt><trkpt lat="40.7254117" lon="16.124035"><ele>297.0</ele><time>2026-04-25T13:12:07.832Z</time></trkpt><trkpt lat="40.72532" lon="16.123965"><ele>298.0</ele><time>2026-04-25T13:12:08.833Z</time></trkpt><trkpt lat="40.7252283" lon="16.1239"><ele>299.0</ele><time>2026-04-25T13:12:09.832Z</time></trkpt><trkpt lat="40.725135" lon="16.1238333"><ele>300.0</ele><time>2026-04-25T13:12:10.832Z</time></trkpt><trkpt lat="40.7250483" lon="16.1237633"><ele>301.0</ele><time>2026-04-25T13:12:11.832Z</time></trkpt><trkpt lat="40.7249683" lon="16.1236733"><ele>302.25</ele><time>2026-04-25T13:12:12.833Z</time></trkpt><trkpt lat="40.7248983" lon="16.1235717"><ele>303.5</ele><time>2026-04-25T13:12:13.831Z</time></trkpt><trkpt lat="40.7248333" lon="16.1234633"><ele>304.75</ele><time>2026-04-25T13:12:14.832Z</time></trkpt><trkpt lat="40.72477" lon="16.1233317"><ele>306.0</ele><time>2026-04-25T13:12:15.831Z</time></trkpt><trkpt lat="40.7247117" lon="16.12318"><ele>306.75</ele><time>2026-04-25T13:12:16.832Z</time></trkpt><trkpt lat="40.7246533" lon="16.1230233"><ele>307.5</ele><time>2026-04-25T13:12:17.832Z</time></trkpt><trkpt lat="40.7246017" lon="16.1228683"><ele>308.25</ele><time>2026-04-25T13:12:18.834Z</time></trkpt><trkpt lat="40.7245567" lon="16.1227283"><ele>309.0</ele><time>2026-04-25T13:12:19.833Z</time></trkpt><trkpt lat="40.72452" lon="16.1226"><ele>309.0</ele><time>2026-04-25T13:12:20.833Z</time></trkpt><trkpt lat="40.7244817" lon="16.122465"><ele>309.0</ele><time>2026-04-25T13:12:21.833Z</time></trkpt><trkpt lat="40.7244433" lon="16.122315"><ele>309.0</ele><time>2026-04-25T13:12:22.836Z</time></trkpt><trkpt lat="40.7244067" lon="16.1221667"><ele>309.0</ele><time>2026-04-25T13:12:23.834Z</time></trkpt><trkpt lat="40.724375" lon="16.12203"><ele>308.6666666666667</ele><time>2026-04-25T13:12:24.832Z</time></trkpt><trkpt lat="40.7243417" lon="16.1219133"><ele>308.3333333333333</ele><time>2026-04-25T13:12:25.832Z</time></trkpt><trkpt lat="40.7243117" lon="16.1218083"><ele>308.0</ele><time>2026-04-25T13:12:26.832Z</time></trkpt><trkpt lat="40.724285" lon="16.1217117"><ele>307.66666666666663</ele><time>2026-04-25T13:12:27.832Z</time></trkpt><trkpt lat="40.724265" lon="16.12161"><ele>307.3333333333333</ele><time>2026-04-25T13:12:28.832Z</time></trkpt><trkpt lat="40.7242483" lon="16.1215033"><ele>307.0</ele><time>2026-04-25T13:12:29.831Z</time></trkpt><trkpt lat="40.724235" lon="16.1214033"><ele>307.0</ele><time>2026-04-25T13:12:30.831Z</time></trkpt><trkpt lat="40.724225" lon="16.121305"><ele>307.0</ele><time>2026-04-25T13:12:31.832Z</time></trkpt><trkpt lat="40.72421" lon="16.12121"><ele>307.0</ele><time>2026-04-25T13:12:32.833Z</time></trkpt><trkpt lat="40.724185" lon="16.121115"><ele>307.0</ele><time>2026-04-25T13:12:33.832Z</time></trkpt><trkpt lat="40.7241567" lon="16.121015"><ele>307.0</ele><time>2026-04-25T13:12:34.831Z</time></trkpt><trkpt lat="40.7241317" lon="16.1209117"><ele>307.0</ele><time>2026-04-25T13:12:35.83Z</time></trkpt><trkpt lat="40.7241067" lon="16.120805"><ele>306.4</ele><time>2026-04-25T13:12:36.832Z</time></trkpt><trkpt lat="40.7240767" lon="16.1206817"><ele>305.79999999999995</ele><time>2026-04-25T13:12:37.832Z</time></trkpt><trkpt lat="40.7240483" lon="16.1205567"><ele>305.2</ele><time>2026-04-25T13:12:38.832Z</time></trkpt><trkpt lat="40.7240217" lon="16.120435"><ele>304.59999999999997</ele><time>2026-04-25T13:12:39.833Z</time></trkpt><trkpt lat="40.723995" lon="16.1203217"><ele>304.0</ele><time>2026-04-25T13:12:40.832Z</time></trkpt><trkpt lat="40.7239717" lon="16.12022"><ele>304.0</ele><time>2026-04-25T13:12:41.832Z</time></trkpt><trkpt lat="40.72395" lon="16.1201283"><ele>304.0</ele><time>2026-04-25T13:12:42.831Z</time></trkpt><trkpt lat="40.7239267" lon="16.120035"><ele>304.0</ele><time>2026-04-25T13:12:43.831Z</time></trkpt><trkpt lat="40.723905" lon="16.1199317"><ele>304.0</ele><time>2026-04-25T13:12:44.832Z</time></trkpt><trkpt lat="40.7238783" lon="16.1198133"><ele>304.0</ele><time>2026-04-25T13:12:45.833Z</time></trkpt><trkpt lat="40.72385" lon="16.1196883"><ele>304.0</ele><time>2026-04-25T13:12:46.832Z</time></trkpt><trkpt lat="40.7238167" lon="16.11956"><ele>303.75</ele><time>2026-04-25T13:12:47.833Z</time></trkpt><trkpt lat="40.7237817" lon="16.1194233"><ele>303.5</ele><time>2026-04-25T13:12:48.832Z</time></trkpt><trkpt lat="40.723745" lon="16.119285"><ele>303.25</ele><time>2026-04-25T13:12:49.832Z</time></trkpt><trkpt lat="40.7237083" lon="16.1191417"><ele>303.0</ele><time>2026-04-25T13:12:50.834Z</time></trkpt><trkpt lat="40.7236733" lon="16.118965"><ele>302.3333333333333</ele><time>2026-04-25T13:12:51.832Z</time></trkpt><trkpt lat="40.7236317" lon="16.1187583"><ele>301.66666666666663</ele><time>2026-04-25T13:12:52.833Z</time></trkpt><trkpt lat="40.7235867" lon="16.11855"><ele>301.0</ele><time>2026-04-25T13:12:53.832Z</time></trkpt><trkpt lat="40.7235433" lon="16.1183617"><ele>300.25</ele><time>2026-04-25T13:12:54.832Z</time></trkpt><trkpt lat="40.7235033" lon="16.1181917"><ele>299.5</ele><time>2026-04-25T13:12:55.834Z</time></trkpt><trkpt lat="40.7234633" lon="16.1180433"><ele>298.75</ele><time>2026-04-25T13:12:56.833Z</time></trkpt><trkpt lat="40.72343" lon="16.117895"><ele>298.0</ele><time>2026-04-25T13:12:57.832Z</time></trkpt><trkpt lat="40.7234" lon="16.1177433"><ele>298.0</ele><time>2026-04-25T13:12:58.831Z</time></trkpt><trkpt lat="40.7233717" lon="16.1176133"><ele>298.0</ele><time>2026-04-25T13:12:59.832Z</time></trkpt><trkpt lat="40.7233383" lon="16.1175"><ele>298.0</ele><time>2026-04-25T13:13:00.832Z</time></trkpt><trkpt lat="40.7232917" lon="16.1173867"><ele>298.0</ele><time>2026-04-25T13:13:01.831Z</time></trkpt><trkpt lat="40.7232483" lon="16.1172833"><ele>298.0</ele><time>2026-04-25T13:13:02.833Z</time></trkpt><trkpt lat="40.7232067" lon="16.1171933"><ele>297.66666666666663</ele><time>2026-04-25T13:13:03.833Z</time></trkpt><trkpt lat="40.7231783" lon="16.1171133"><ele>297.3333333333333</ele><time>2026-04-25T13:13:04.832Z</time></trkpt><trkpt lat="40.7231717" lon="16.11694"><ele>297.0</ele><time>2026-04-25T13:13:06.832Z</time></trkpt><trkpt lat="40.7231833" lon="16.116835"><ele>296.6666666666667</ele><time>2026-04-25T13:13:07.833Z</time></trkpt><trkpt lat="40.723185" lon="16.1167317"><ele>296.33333333333337</ele><time>2026-04-25T13:13:08.833Z</time></trkpt><trkpt lat="40.7231767" lon="16.1166483"><ele>296.0</ele><time>2026-04-25T13:13:09.833Z</time></trkpt><trkpt lat="40.7231717" lon="16.116525"><ele>295.40000000000003</ele><time>2026-04-25T13:13:11.833Z</time></trkpt><trkpt lat="40.72315" lon="16.1163933"><ele>294.8</ele><time>2026-04-25T13:13:13.833Z</time></trkpt><trkpt lat="40.7231067" lon="16.1162167"><ele>294.20000000000005</ele><time>2026-04-25T13:13:15.831Z</time></trkpt><trkpt lat="40.7230783" lon="16.1161017"><ele>293.6</ele><time>2026-04-25T13:13:16.832Z</time></trkpt><trkpt lat="40.7230533" lon="16.1159833"><ele>293.0</ele><time>2026-04-25T13:13:17.833Z</time></trkpt><trkpt lat="40.7230317" lon="16.11587"><ele>293.0</ele><time>2026-04-25T13:13:18.833Z</time></trkpt><trkpt lat="40.7230083" lon="16.115755"><ele>293.0</ele><time>2026-04-25T13:13:19.833Z</time></trkpt><trkpt lat="40.72298" lon="16.1156317"><ele>293.0</ele><time>2026-04-25T13:13:20.833Z</time></trkpt><trkpt lat="40.7229483" lon="16.1155083"><ele>293.0</ele><time>2026-04-25T13:13:21.832Z</time></trkpt><trkpt lat="40.7229117" lon="16.1153917"><ele>293.0</ele><time>2026-04-25T13:13:22.832Z</time></trkpt><trkpt lat="40.7228767" lon="16.1152733"><ele>292.5</ele><time>2026-04-25T13:13:23.833Z</time></trkpt><trkpt lat="40.7228433" lon="16.115135"><ele>292.0</ele><time>2026-04-25T13:13:24.832Z</time></trkpt><trkpt lat="40.72281" lon="16.1149867"><ele>291.5</ele><time>2026-04-25T13:13:25.832Z</time></trkpt><trkpt lat="40.722775" lon="16.1148367"><ele>291.0</ele><time>2026-04-25T13:13:26.833Z</time></trkpt><trkpt lat="40.7227417" lon="16.1146883"><ele>291.2</ele><time>2026-04-25T13:13:27.832Z</time></trkpt><trkpt lat="40.7227133" lon="16.1145583"><ele>291.40000000000003</ele><time>2026-04-25T13:13:28.832Z</time></trkpt><trkpt lat="40.7226867" lon="16.1144383"><ele>291.6</ele><time>2026-04-25T13:13:29.832Z</time></trkpt><trkpt lat="40.7226617" lon="16.114315"><ele>291.8</ele><time>2026-04-25T13:13:30.834Z</time></trkpt><trkpt lat="40.72263" lon="16.114175"><ele>292.0</ele><time>2026-04-25T13:13:31.832Z</time></trkpt><trkpt lat="40.7225867" lon="16.1140133"><ele>292.0</ele><time>2026-04-25T13:13:32.833Z</time></trkpt><trkpt lat="40.72253" lon="16.113855"><ele>292.0</ele><time>2026-04-25T13:13:33.833Z</time></trkpt><trkpt lat="40.7224683" lon="16.113715"><ele>292.0</ele><time>2026-04-25T13:13:34.831Z</time></trkpt><trkpt lat="40.7223967" lon="16.1135833"><ele>292.0</ele><time>2026-04-25T13:13:35.831Z</time></trkpt><trkpt lat="40.7223217" lon="16.1134667"><ele>292.0</ele><time>2026-04-25T13:13:36.831Z</time></trkpt><trkpt lat="40.7222517" lon="16.1133517"><ele>292.0</ele><time>2026-04-25T13:13:37.833Z</time></trkpt><trkpt lat="40.7221867" lon="16.113225"><ele>292.0</ele><time>2026-04-25T13:13:38.833Z</time></trkpt><trkpt lat="40.722135" lon="16.1131083"><ele>292.0</ele><time>2026-04-25T13:13:39.832Z</time></trkpt><trkpt lat="40.7220917" lon="16.1129983"><ele>292.0</ele><time>2026-04-25T13:13:40.832Z</time></trkpt><trkpt lat="40.72206" lon="16.1128883"><ele>291.0</ele><time>2026-04-25T13:13:41.832Z</time></trkpt><trkpt lat="40.7220317" lon="16.112775"><ele>290.0</ele><time>2026-04-25T13:13:42.833Z</time></trkpt><trkpt lat="40.7220017" lon="16.11267"><ele>289.0</ele><time>2026-04-25T13:13:43.832Z</time></trkpt><trkpt lat="40.721965" lon="16.1125783"><ele>288.0</ele><time>2026-04-25T13:13:44.832Z</time></trkpt><trkpt lat="40.7219083" lon="16.11249"><ele>287.0</ele><time>2026-04-25T13:13:45.833Z</time></trkpt><trkpt lat="40.7218367" lon="16.1124017"><ele>286.0</ele><time>2026-04-25T13:13:46.832Z</time></trkpt><trkpt lat="40.7217633" lon="16.1123167"><ele>286.0</ele><time>2026-04-25T13:13:47.832Z</time></trkpt><trkpt lat="40.721695" lon="16.1122383"><ele>286.0</ele><time>2026-04-25T13:13:48.832Z</time></trkpt><trkpt lat="40.7216317" lon="16.11216"><ele>286.0</ele><time>2026-04-25T13:13:49.832Z</time></trkpt><trkpt lat="40.7215717" lon="16.1120917"><ele>286.0</ele><time>2026-04-25T13:13:50.834Z</time></trkpt><trkpt lat="40.7215167" lon="16.11203"><ele>286.0</ele><time>2026-04-25T13:13:51.832Z</time></trkpt><trkpt lat="40.721465" lon="16.1119733"><ele>286.0</ele><time>2026-04-25T13:13:52.832Z</time></trkpt><trkpt lat="40.7213833" lon="16.1118717"><ele>286.0</ele><time>2026-04-25T13:13:54.832Z</time></trkpt><trkpt lat="40.7213167" lon="16.1117417"><ele>286.0</ele><time>2026-04-25T13:13:56.833Z</time></trkpt><trkpt lat="40.7212867" lon="16.1116617"><ele>286.0</ele><time>2026-04-25T13:13:57.833Z</time></trkpt><trkpt lat="40.7212617" lon="16.1115733"><ele>286.0</ele><time>2026-04-25T13:13:58.831Z</time></trkpt><trkpt lat="40.7212383" lon="16.1114817"><ele>286.0</ele><time>2026-04-25T13:13:59.833Z</time></trkpt><trkpt lat="40.721225" lon="16.1113917"><ele>286.0</ele><time>2026-04-25T13:14:00.832Z</time></trkpt><trkpt lat="40.7212183" lon="16.1112917"><ele>286.0</ele><time>2026-04-25T13:14:01.832Z</time></trkpt><trkpt lat="40.721215" lon="16.1111767"><ele>286.0</ele><time>2026-04-25T13:14:02.832Z</time></trkpt><trkpt lat="40.7212117" lon="16.1110533"><ele>286.0</ele><time>2026-04-25T13:14:03.832Z</time></trkpt><trkpt lat="40.7212117" lon="16.1109233"><ele>286.0</ele><time>2026-04-25T13:14:04.833Z</time></trkpt><trkpt lat="40.7212167" lon="16.1107883"><ele>286.0</ele><time>2026-04-25T13:14:05.832Z</time></trkpt><trkpt lat="40.7212217" lon="16.110655"><ele>285.3333333333333</ele><time>2026-04-25T13:14:06.833Z</time></trkpt><trkpt lat="40.721225" lon="16.110525"><ele>284.66666666666663</ele><time>2026-04-25T13:14:07.833Z</time></trkpt><trkpt lat="40.7212317" lon="16.1103983"><ele>284.0</ele><time>2026-04-25T13:14:08.835Z</time></trkpt><trkpt lat="40.72124" lon="16.1102817"><ele>283.3333333333333</ele><time>2026-04-25T13:14:09.832Z</time></trkpt><trkpt lat="40.7212533" lon="16.1101783"><ele>282.6666666666667</ele><time>2026-04-25T13:14:10.832Z</time></trkpt><trkpt lat="40.7212683" lon="16.1100817"><ele>282.0</ele><time>2026-04-25T13:14:11.833Z</time></trkpt><trkpt lat="40.721275" lon="16.109985"><ele>281.0</ele><time>2026-04-25T13:14:12.834Z</time></trkpt><trkpt lat="40.7212717" lon="16.1098883"><ele>280.0</ele><time>2026-04-25T13:14:13.833Z</time></trkpt><trkpt lat="40.72127" lon="16.1097983"><ele>279.0</ele><time>2026-04-25T13:14:14.833Z</time></trkpt><trkpt lat="40.7212733" lon="16.109715"><ele>278.0</ele><time>2026-04-25T13:14:15.832Z</time></trkpt><trkpt lat="40.7212867" lon="16.1095917"><ele>277.0</ele><time>2026-04-25T13:14:17.832Z</time></trkpt><trkpt lat="40.7212917" lon="16.10949"><ele>276.0</ele><time>2026-04-25T13:14:19.832Z</time></trkpt><trkpt lat="40.7212833" lon="16.1093867"><ele>276.0</ele><time>2026-04-25T13:14:21.832Z</time></trkpt><trkpt lat="40.7212733" lon="16.1092917"><ele>276.0</ele><time>2026-04-25T13:14:24.831Z</time></trkpt><trkpt lat="40.721265" lon="16.1091717"><ele>276.0</ele><time>2026-04-25T13:14:27.832Z</time></trkpt><trkpt lat="40.7212633" lon="16.1090883"><ele>276.0</ele><time>2026-04-25T13:14:29.833Z</time></trkpt><trkpt lat="40.7212533" lon="16.1089783"><ele>276.0</ele><time>2026-04-25T13:14:32.834Z</time></trkpt><trkpt lat="40.7212333" lon="16.1088933"><ele>276.0</ele><time>2026-04-25T13:14:34.833Z</time></trkpt><trkpt lat="40.7212033" lon="16.108815"><ele>276.0</ele><time>2026-04-25T13:14:36.833Z</time></trkpt><trkpt lat="40.7211383" lon="16.1086917"><ele>276.2</ele><time>2026-04-25T13:14:45.833Z</time></trkpt><trkpt lat="40.7210867" lon="16.1085883"><ele>276.40000000000003</ele><time>2026-04-25T13:14:48.834Z</time></trkpt><trkpt lat="40.7210467" lon="16.1084917"><ele>276.6</ele><time>2026-04-25T13:14:50.833Z</time></trkpt><trkpt lat="40.7209883" lon="16.1083583"><ele>276.8</ele><time>2026-04-25T13:14:52.832Z</time></trkpt><trkpt lat="40.7209217" lon="16.10821"><ele>277.0</ele><time>2026-04-25T13:14:54.832Z</time></trkpt><trkpt lat="40.7208933" lon="16.1081317"><ele>277.7142857142857</ele><time>2026-04-25T13:14:55.832Z</time></trkpt><trkpt lat="40.7208633" lon="16.1080567"><ele>278.4285714285714</ele><time>2026-04-25T13:14:56.833Z</time></trkpt><trkpt lat="40.7208317" lon="16.1079767"><ele>279.1428571428571</ele><time>2026-04-25T13:14:57.832Z</time></trkpt><trkpt lat="40.7207967" lon="16.1078867"><ele>279.85714285714283</ele><time>2026-04-25T13:14:58.831Z</time></trkpt><trkpt lat="40.7207623" lon="16.107792"><ele>280.57142857142856</ele><time>2026-04-25T13:14:59.832Z</time></trkpt><trkpt lat="40.7207283" lon="16.1076957"><ele>281.2857142857143</ele><time>2026-04-25T13:15:00.832Z</time></trkpt><trkpt lat="40.7206961" lon="16.1076046"><ele>282.0</ele><time>2026-04-25T13:15:01.833Z</time></trkpt><trkpt lat="40.7206702" lon="16.1075278"><ele>282.0</ele><time>2026-04-25T13:15:02.833Z</time></trkpt><trkpt lat="40.720607" lon="16.1074244"><ele>282.0</ele><time>2026-04-25T13:15:04.832Z</time></trkpt><trkpt lat="40.7205205" lon="16.1073627"><ele>282.0</ele><time>2026-04-25T13:15:06.833Z</time></trkpt><trkpt lat="40.7204075" lon="16.1072863"><ele>282.0</ele><time>2026-04-25T13:15:08.833Z</time></trkpt><trkpt lat="40.7203359" lon="16.1072181"><ele>282.0</ele><time>2026-04-25T13:15:09.832Z</time></trkpt><trkpt lat="40.7202532" lon="16.1071289"><ele>280.8</ele><time>2026-04-25T13:15:10.831Z</time></trkpt><trkpt lat="40.7201607" lon="16.1070298"><ele>279.6</ele><time>2026-04-25T13:15:11.832Z</time></trkpt><trkpt lat="40.7200687" lon="16.1069363"><ele>278.40000000000003</ele><time>2026-04-25T13:15:12.833Z</time></trkpt><trkpt lat="40.7199922" lon="16.1068592"><ele>277.2</ele><time>2026-04-25T13:15:13.832Z</time></trkpt><trkpt lat="40.7199247" lon="16.1067947"><ele>276.0</ele><time>2026-04-25T13:15:14.831Z</time></trkpt><trkpt lat="40.7198635" lon="16.1067462"><ele>276.0</ele><time>2026-04-25T13:15:15.831Z</time></trkpt><trkpt lat="40.7197994" lon="16.1067139"><ele>276.0</ele><time>2026-04-25T13:15:16.832Z</time></trkpt><trkpt lat="40.7197327" lon="16.1066988"><ele>276.0</ele><time>2026-04-25T13:15:17.832Z</time></trkpt><trkpt lat="40.7196606" lon="16.1067012"><ele>276.0</ele><time>2026-04-25T13:15:18.831Z</time></trkpt><trkpt lat="40.7195817" lon="16.1067224"><ele>276.0</ele><time>2026-04-25T13:15:19.834Z</time></trkpt><trkpt lat="40.7195067" lon="16.1067465"><ele>276.0</ele><time>2026-04-25T13:15:20.833Z</time></trkpt><trkpt lat="40.7194378" lon="16.1067647"><ele>276.0</ele><time>2026-04-25T13:15:21.832Z</time></trkpt><trkpt lat="40.7193222" lon="16.1067914"><ele>275.8333333333333</ele><time>2026-04-25T13:15:23.834Z</time></trkpt><trkpt lat="40.7192263" lon="16.1067835"><ele>275.6666666666667</ele><time>2026-04-25T13:15:25.833Z</time></trkpt><trkpt lat="40.7191504" lon="16.106768"><ele>275.5</ele><time>2026-04-25T13:15:27.832Z</time></trkpt><trkpt lat="40.7190722" lon="16.1067362"><ele>275.33333333333337</ele><time>2026-04-25T13:15:30.832Z</time></trkpt><trkpt lat="40.718995" lon="16.1066883"><ele>275.1666666666667</ele><time>2026-04-25T13:15:33.831Z</time></trkpt><trkpt lat="40.7189383" lon="16.1065733"><ele>275.0</ele><time>2026-04-25T13:15:35.834Z</time></trkpt><trkpt lat="40.7188983" lon="16.1064533"><ele>274.6</ele><time>2026-04-25T13:15:37.833Z</time></trkpt><trkpt lat="40.71885" lon="16.1063817"><ele>274.2</ele><time>2026-04-25T13:15:39.834Z</time></trkpt><trkpt lat="40.7187633" lon="16.1063217"><ele>273.8</ele><time>2026-04-25T13:15:41.832Z</time></trkpt><trkpt lat="40.7186533" lon="16.1062417"><ele>273.4</ele><time>2026-04-25T13:15:43.832Z</time></trkpt><trkpt lat="40.71859" lon="16.1061833"><ele>273.0</ele><time>2026-04-25T13:15:44.832Z</time></trkpt><trkpt lat="40.71853" lon="16.1061133"><ele>273.0</ele><time>2026-04-25T13:15:45.832Z</time></trkpt><trkpt lat="40.7184717" lon="16.1060183"><ele>273.0</ele><time>2026-04-25T13:15:46.832Z</time></trkpt><trkpt lat="40.7184117" lon="16.105905"><ele>273.0</ele><time>2026-04-25T13:15:47.832Z</time></trkpt><trkpt lat="40.7183583" lon="16.1058017"><ele>273.0</ele><time>2026-04-25T13:15:48.832Z</time></trkpt><trkpt lat="40.7183067" lon="16.1057133"><ele>273.0</ele><time>2026-04-25T13:15:49.833Z</time></trkpt><trkpt lat="40.71826" lon="16.1056283"><ele>273.5</ele><time>2026-04-25T13:15:50.834Z</time></trkpt><trkpt lat="40.7182067" lon="16.1055433"><ele>274.0</ele><time>2026-04-25T13:15:51.832Z</time></trkpt><trkpt lat="40.7181433" lon="16.10546"><ele>274.5</ele><time>2026-04-25T13:15:52.834Z</time></trkpt><trkpt lat="40.7180733" lon="16.10539"><ele>275.0</ele><time>2026-04-25T13:15:53.833Z</time></trkpt><trkpt lat="40.718005" lon="16.1053167"><ele>275.5</ele><time>2026-04-25T13:15:54.832Z</time></trkpt><trkpt lat="40.7179433" lon="16.105235"><ele>276.0</ele><time>2026-04-25T13:15:55.833Z</time></trkpt><trkpt lat="40.7178933" lon="16.1051433"><ele>276.0</ele><time>2026-04-25T13:15:56.833Z</time></trkpt><trkpt lat="40.7178517" lon="16.1050467"><ele>276.0</ele><time>2026-04-25T13:15:57.832Z</time></trkpt><trkpt lat="40.7178167" lon="16.10494"><ele>276.0</ele><time>2026-04-25T13:15:58.833Z</time></trkpt><trkpt lat="40.71778" lon="16.1048117"><ele>276.0</ele><time>2026-04-25T13:15:59.833Z</time></trkpt><trkpt lat="40.717735" lon="16.1046633"><ele>276.0</ele><time>2026-04-25T13:16:00.833Z</time></trkpt><trkpt lat="40.7176867" lon="16.104505"><ele>275.8</ele><time>2026-04-25T13:16:01.832Z</time></trkpt><trkpt lat="40.7176333" lon="16.1043533"><ele>275.6</ele><time>2026-04-25T13:16:02.832Z</time></trkpt><trkpt lat="40.7175883" lon="16.1042117"><ele>275.4</ele><time>2026-04-25T13:16:03.833Z</time></trkpt><trkpt lat="40.7175467" lon="16.104085"><ele>275.2</ele><time>2026-04-25T13:16:04.833Z</time></trkpt><trkpt lat="40.717505" lon="16.1039733"><ele>275.0</ele><time>2026-04-25T13:16:05.922Z</time></trkpt><trkpt lat="40.7174667" lon="16.1038833"><ele>275.5</ele><time>2026-04-25T13:16:06.831Z</time></trkpt><trkpt lat="40.7174283" lon="16.1038083"><ele>276.0</ele><time>2026-04-25T13:16:07.832Z</time></trkpt><trkpt lat="40.71737" lon="16.1037033"><ele>276.5</ele><time>2026-04-25T13:16:09.833Z</time></trkpt><trkpt lat="40.7173217" lon="16.10361"><ele>277.0</ele><time>2026-04-25T13:16:11.832Z</time></trkpt><trkpt lat="40.7172817" lon="16.103505"><ele>277.5</ele><time>2026-04-25T13:16:13.832Z</time></trkpt><trkpt lat="40.7172567" lon="16.1034"><ele>278.0</ele><time>2026-04-25T13:16:15.832Z</time></trkpt><trkpt lat="40.7172433" lon="16.1033067"><ele>278.0</ele><time>2026-04-25T13:16:17.833Z</time></trkpt><trkpt lat="40.71723" lon="16.1031817"><ele>278.0</ele><time>2026-04-25T13:16:19.834Z</time></trkpt><trkpt lat="40.7172233" lon="16.1030933"><ele>278.0</ele><time>2026-04-25T13:16:20.833Z</time></trkpt><trkpt lat="40.7172217" lon="16.1029917"><ele>278.0</ele><time>2026-04-25T13:16:21.832Z</time></trkpt><trkpt lat="40.7172183" lon="16.1028817"><ele>278.0</ele><time>2026-04-25T13:16:22.833Z</time></trkpt><trkpt lat="40.7172133" lon="16.1027783"><ele>278.0</ele><time>2026-04-25T13:16:23.833Z</time></trkpt><trkpt lat="40.7172033" lon="16.1026933"><ele>278.0</ele><time>2026-04-25T13:16:24.832Z</time></trkpt><trkpt lat="40.7171617" lon="16.1025733"><ele>278.0</ele><time>2026-04-25T13:16:26.834Z</time></trkpt><trkpt lat="40.7171083" lon="16.1025233"><ele>278.0</ele><time>2026-04-25T13:16:29.834Z</time></trkpt><trkpt lat="40.71703" lon="16.1025317"><ele>278.0</ele><time>2026-04-25T13:16:32.833Z</time></trkpt><trkpt lat="40.7169433" lon="16.1025383"><ele>278.0</ele><time>2026-04-25T13:16:35.833Z</time></trkpt><trkpt lat="40.71683" lon="16.1025233"><ele>278.0</ele><time>2026-04-25T13:18:44.832Z</time></trkpt><trkpt lat="40.716775" lon="16.1024817"><ele>278.0</ele><time>2026-04-25T13:18:49.835Z</time></trkpt><trkpt lat="40.7167167" lon="16.1024317"><ele>278.0</ele><time>2026-04-25T13:20:13.832Z</time></trkpt><trkpt lat="40.7166483" lon="16.1023533"><ele>278.0</ele><time>2026-04-25T13:20:16.834Z</time></trkpt><trkpt lat="40.7165567" lon="16.1023267"><ele>278.0</ele><time>2026-04-25T13:20:19.833Z</time></trkpt><trkpt lat="40.7164667" lon="16.1023017"><ele>278.0</ele><time>2026-04-25T13:20:21.832Z</time></trkpt><trkpt lat="40.7163917" lon="16.102225"><ele>278.0</ele><time>2026-04-25T13:20:23.832Z</time></trkpt><trkpt lat="40.7163733" lon="16.10212"><ele>278.0</ele><time>2026-04-25T13:20:25.832Z</time></trkpt><trkpt lat="40.7164" lon="16.1019933"><ele>278.0</ele><time>2026-04-25T13:20:27.832Z</time></trkpt><trkpt lat="40.7164467" lon="16.1018617"><ele>278.0</ele><time>2026-04-25T13:20:29.832Z</time></trkpt><trkpt lat="40.7164717" lon="16.1017567"><ele>278.0</ele><time>2026-04-25T13:20:31.833Z</time></trkpt><trkpt lat="40.7164267" lon="16.101675"><ele>278.0</ele><time>2026-04-25T13:20:33.834Z</time></trkpt><trkpt lat="40.7163233" lon="16.1016117"><ele>278.2</ele><time>2026-04-25T13:20:35.833Z</time></trkpt><trkpt lat="40.7162317" lon="16.1015483"><ele>278.4</ele><time>2026-04-25T13:20:37.834Z</time></trkpt><trkpt lat="40.7161467" lon="16.1014833"><ele>278.59999999999997</ele><time>2026-04-25T13:20:39.833Z</time></trkpt><trkpt lat="40.7160683" lon="16.1014433"><ele>278.8</ele><time>2026-04-25T13:20:41.832Z</time></trkpt><trkpt lat="40.7159883" lon="16.10147"><ele>279.0</ele><time>2026-04-25T13:20:43.832Z</time></trkpt><trkpt lat="40.7158917" lon="16.1015417"><ele>279.8333333333333</ele><time>2026-04-25T13:20:45.833Z</time></trkpt><trkpt lat="40.7158367" lon="16.1015833"><ele>280.6666666666667</ele><time>2026-04-25T13:20:46.832Z</time></trkpt><trkpt lat="40.7157817" lon="16.101625"><ele>281.5</ele><time>2026-04-25T13:20:47.831Z</time></trkpt><trkpt lat="40.7156817" lon="16.1017117"><ele>282.33333333333337</ele><time>2026-04-25T13:20:49.832Z</time></trkpt><trkpt lat="40.7156117" lon="16.1017817"><ele>283.1666666666667</ele><time>2026-04-25T13:20:51.832Z</time></trkpt><trkpt lat="40.7155567" lon="16.1018433"><ele>284.0</ele><time>2026-04-25T13:20:53.832Z</time></trkpt><trkpt lat="40.7154883" lon="16.1018833"><ele>284.0</ele><time>2026-04-25T13:20:56.833Z</time></trkpt><trkpt lat="40.71542" lon="16.1019283"><ele>284.0</ele><time>2026-04-25T13:20:58.831Z</time></trkpt><trkpt lat="40.71534" lon="16.10199"><ele>284.0</ele><time>2026-04-25T13:21:00.832Z</time></trkpt><trkpt lat="40.7152633" lon="16.1020617"><ele>284.0</ele><time>2026-04-25T13:21:02.832Z</time></trkpt><trkpt lat="40.7151717" lon="16.1021483"><ele>284.0</ele><time>2026-04-25T13:21:04.831Z</time></trkpt><trkpt lat="40.7151" lon="16.1022367"><ele>284.83333333333337</ele><time>2026-04-25T13:21:06.832Z</time></trkpt><trkpt lat="40.7150517" lon="16.1023367"><ele>285.6666666666667</ele><time>2026-04-25T13:21:08.832Z</time></trkpt><trkpt lat="40.7150067" lon="16.1024383"><ele>286.5</ele><time>2026-04-25T13:21:10.832Z</time></trkpt><trkpt lat="40.714955" lon="16.1025167"><ele>287.3333333333333</ele><time>2026-04-25T13:21:12.831Z</time></trkpt><trkpt lat="40.7148917" lon="16.1025617"><ele>288.16666666666663</ele><time>2026-04-25T13:21:14.832Z</time></trkpt><trkpt lat="40.7148167" lon="16.102595"><ele>289.0</ele><time>2026-04-25T13:21:16.831Z</time></trkpt><trkpt lat="40.71474" lon="16.1026317"><ele>289.0</ele><time>2026-04-25T13:21:18.833Z</time></trkpt><trkpt lat="40.7146567" lon="16.1026717"><ele>289.0</ele><time>2026-04-25T13:21:20.832Z</time></trkpt><trkpt lat="40.7145733" lon="16.102735"><ele>289.0</ele><time>2026-04-25T13:21:22.833Z</time></trkpt><trkpt lat="40.7144867" lon="16.1028083"><ele>289.0</ele><time>2026-04-25T13:21:24.833Z</time></trkpt><trkpt lat="40.7144333" lon="16.1028567"><ele>289.0</ele><time>2026-04-25T13:21:25.831Z</time></trkpt><trkpt lat="40.7143783" lon="16.1029183"><ele>289.0</ele><time>2026-04-25T13:21:26.832Z</time></trkpt><trkpt lat="40.7143267" lon="16.1029867"><ele>291.16666666666663</ele><time>2026-04-25T13:21:27.831Z</time></trkpt><trkpt lat="40.714275" lon="16.103055"><ele>293.3333333333333</ele><time>2026-04-25T13:21:28.833Z</time></trkpt><trkpt lat="40.7142167" lon="16.1031267"><ele>295.5</ele><time>2026-04-25T13:21:29.832Z</time></trkpt><trkpt lat="40.7141517" lon="16.1032033"><ele>297.6666666666667</ele><time>2026-04-25T13:21:30.832Z</time></trkpt><trkpt lat="40.7140983" lon="16.1032833"><ele>299.83333333333337</ele><time>2026-04-25T13:21:31.832Z</time></trkpt><trkpt lat="40.71405" lon="16.10337"><ele>302.0</ele><time>2026-04-25T13:21:32.833Z</time></trkpt><trkpt lat="40.7140083" lon="16.103465"><ele>302.0</ele><time>2026-04-25T13:21:33.833Z</time></trkpt><trkpt lat="40.7139683" lon="16.103565"><ele>302.0</ele><time>2026-04-25T13:21:34.832Z</time></trkpt><trkpt lat="40.7139283" lon="16.1036633"><ele>302.0</ele><time>2026-04-25T13:21:35.835Z</time></trkpt><trkpt lat="40.7138917" lon="16.1037617"><ele>302.0</ele><time>2026-04-25T13:21:36.832Z</time></trkpt><trkpt lat="40.7138467" lon="16.10386"><ele>302.0</ele><time>2026-04-25T13:21:37.84Z</time></trkpt><trkpt lat="40.7137983" lon="16.103955"><ele>302.0</ele><time>2026-04-25T13:21:38.833Z</time></trkpt><trkpt lat="40.7137517" lon="16.1040483"><ele>303.6</ele><time>2026-04-25T13:21:39.831Z</time></trkpt><trkpt lat="40.7137067" lon="16.1041317"><ele>305.2</ele><time>2026-04-25T13:21:40.834Z</time></trkpt><trkpt lat="40.7136333" lon="16.1042433"><ele>306.8</ele><time>2026-04-25T13:21:42.832Z</time></trkpt><trkpt lat="40.7135433" lon="16.1043083"><ele>308.4</ele><time>2026-04-25T13:21:44.833Z</time></trkpt><trkpt lat="40.7134583" lon="16.1043167"><ele>310.0</ele><time>2026-04-25T13:21:46.831Z</time></trkpt><trkpt lat="40.7133783" lon="16.1042683"><ele>310.0</ele><time>2026-04-25T13:21:48.831Z</time></trkpt><trkpt lat="40.7133333" lon="16.1041817"><ele>310.0</ele><time>2026-04-25T13:21:50.832Z</time></trkpt><trkpt lat="40.7133333" lon="16.1040833"><ele>310.0</ele><time>2026-04-25T13:21:52.833Z</time></trkpt><trkpt lat="40.7133467" lon="16.1039767"><ele>310.0</ele><time>2026-04-25T13:21:54.833Z</time></trkpt><trkpt lat="40.71335" lon="16.1038417"><ele>310.0</ele><time>2026-04-25T13:21:56.832Z</time></trkpt><trkpt lat="40.713355" lon="16.1036867"><ele>311.8333333333333</ele><time>2026-04-25T13:21:58.832Z</time></trkpt><trkpt lat="40.713355" lon="16.103555"><ele>313.66666666666663</ele><time>2026-04-25T13:22:00.832Z</time></trkpt><trkpt lat="40.7133483" lon="16.1034367"><ele>315.5</ele><time>2026-04-25T13:23:00.832Z</time></trkpt><trkpt lat="40.713335" lon="16.103325"><ele>317.3333333333333</ele><time>2026-04-25T13:23:02.834Z</time></trkpt><trkpt lat="40.71332" lon="16.103235"><ele>319.1666666666667</ele><time>2026-04-25T13:23:03.833Z</time></trkpt><trkpt lat="40.7133033" lon="16.10314"><ele>321.0</ele><time>2026-04-25T13:23:04.832Z</time></trkpt><trkpt lat="40.7132783" lon="16.1030483"><ele>322.3333333333333</ele><time>2026-04-25T13:23:05.833Z</time></trkpt><trkpt lat="40.713245" lon="16.1029533"><ele>323.6666666666667</ele><time>2026-04-25T13:23:06.832Z</time></trkpt><trkpt lat="40.713205" lon="16.1028583"><ele>325.0</ele><time>2026-04-25T13:23:07.832Z</time></trkpt><trkpt lat="40.71316" lon="16.1027683"><ele>326.33333333333337</ele><time>2026-04-25T13:23:08.833Z</time></trkpt><trkpt lat="40.71311" lon="16.1026783"><ele>327.6666666666667</ele><time>2026-04-25T13:23:09.833Z</time></trkpt><trkpt lat="40.7130517" lon="16.1025883"><ele>329.0</ele><time>2026-04-25T13:23:10.833Z</time></trkpt><trkpt lat="40.7129767" lon="16.1024933"><ele>331.2</ele><time>2026-04-25T13:23:11.832Z</time></trkpt><trkpt lat="40.71289" lon="16.1024017"><ele>333.4</ele><time>2026-04-25T13:23:12.831Z</time></trkpt><trkpt lat="40.712805" lon="16.10233"><ele>335.6</ele><time>2026-04-25T13:23:13.832Z</time></trkpt><trkpt lat="40.7127117" lon="16.1022667"><ele>337.8</ele><time>2026-04-25T13:23:14.832Z</time></trkpt><trkpt lat="40.7126033" lon="16.102205"><ele>340.0</ele><time>2026-04-25T13:23:15.831Z</time></trkpt><trkpt lat="40.71249" lon="16.1021383"><ele>340.6</ele><time>2026-04-25T13:23:16.832Z</time></trkpt><trkpt lat="40.712385" lon="16.1020733"><ele>341.2</ele><time>2026-04-25T13:23:17.832Z</time></trkpt><trkpt lat="40.71228" lon="16.1020117"><ele>341.79999999999995</ele><time>2026-04-25T13:23:18.831Z</time></trkpt><trkpt lat="40.7121817" lon="16.1019483"><ele>342.4</ele><time>2026-04-25T13:23:19.833Z</time></trkpt><trkpt lat="40.7120883" lon="16.1018833"><ele>343.0</ele><time>2026-04-25T13:23:20.833Z</time></trkpt><trkpt lat="40.7119917" lon="16.10181"><ele>342.59999999999997</ele><time>2026-04-25T13:23:21.832Z</time></trkpt><trkpt lat="40.711895" lon="16.1017283"><ele>342.2</ele><time>2026-04-25T13:23:22.832Z</time></trkpt><trkpt lat="40.7118033" lon="16.1016467"><ele>341.8</ele><time>2026-04-25T13:23:23.832Z</time></trkpt><trkpt lat="40.7117183" lon="16.1015583"><ele>341.4</ele><time>2026-04-25T13:23:24.832Z</time></trkpt><trkpt lat="40.7116383" lon="16.1014617"><ele>341.0</ele><time>2026-04-25T13:23:25.832Z</time></trkpt><trkpt lat="40.7115667" lon="16.1013517"><ele>343.4</ele><time>2026-04-25T13:23:26.833Z</time></trkpt><trkpt lat="40.7115033" lon="16.101235"><ele>345.8</ele><time>2026-04-25T13:23:27.832Z</time></trkpt><trkpt lat="40.71145" lon="16.10112"><ele>348.2</ele><time>2026-04-25T13:23:28.832Z</time></trkpt><trkpt lat="40.7114033" lon="16.1010117"><ele>350.59999999999997</ele><time>2026-04-25T13:23:29.832Z</time></trkpt><trkpt lat="40.7113717" lon="16.1009133"><ele>353.0</ele><time>2026-04-25T13:23:30.832Z</time></trkpt><trkpt lat="40.7113533" lon="16.1008317"><ele>354.4</ele><time>2026-04-25T13:23:31.832Z</time></trkpt><trkpt lat="40.711335" lon="16.100685"><ele>355.79999999999995</ele><time>2026-04-25T13:23:33.832Z</time></trkpt><trkpt lat="40.711325" lon="16.1005367"><ele>357.2</ele><time>2026-04-25T13:23:35.832Z</time></trkpt><trkpt lat="40.711325" lon="16.100435"><ele>358.6</ele><time>2026-04-25T13:23:36.832Z</time></trkpt><trkpt lat="40.71133" lon="16.10033"><ele>360.0</ele><time>2026-04-25T13:23:37.831Z</time></trkpt><trkpt lat="40.7113333" lon="16.1002383"><ele>360.0</ele><time>2026-04-25T13:23:38.833Z</time></trkpt><trkpt lat="40.7113167" lon="16.1001267"><ele>360.0</ele><time>2026-04-25T13:23:40.832Z</time></trkpt><trkpt lat="40.711235" lon="16.1000433"><ele>360.0</ele><time>2026-04-25T13:23:43.833Z</time></trkpt><trkpt lat="40.711145" lon="16.0999217"><ele>360.0</ele><time>2026-04-25T13:23:45.832Z</time></trkpt><trkpt lat="40.7110983" lon="16.09983"><ele>360.0</ele><time>2026-04-25T13:23:46.831Z</time></trkpt><trkpt lat="40.7110433" lon="16.09972"><ele>360.5</ele><time>2026-04-25T13:23:47.832Z</time></trkpt><trkpt lat="40.7109817" lon="16.0996"><ele>361.0</ele><time>2026-04-25T13:23:48.832Z</time></trkpt><trkpt lat="40.7109117" lon="16.0994717"><ele>361.5</ele><time>2026-04-25T13:23:49.833Z</time></trkpt><trkpt lat="40.7108433" lon="16.0993467"><ele>362.0</ele><time>2026-04-25T13:23:50.834Z</time></trkpt><trkpt lat="40.7107733" lon="16.099215"><ele>363.75</ele><time>2026-04-25T13:23:51.833Z</time></trkpt><trkpt lat="40.7106983" lon="16.099075"><ele>365.5</ele><time>2026-04-25T13:23:52.832Z</time></trkpt><trkpt lat="40.7106267" lon="16.09894"><ele>367.25</ele><time>2026-04-25T13:23:53.834Z</time></trkpt><trkpt lat="40.71056" lon="16.0988067"><ele>369.0</ele><time>2026-04-25T13:23:54.833Z</time></trkpt><trkpt lat="40.7104883" lon="16.0986633"><ele>369.0</ele><time>2026-04-25T13:23:55.832Z</time></trkpt><trkpt lat="40.71041" lon="16.0985117"><ele>369.0</ele><time>2026-04-25T13:23:56.834Z</time></trkpt><trkpt lat="40.710335" lon="16.098365"><ele>369.0</ele><time>2026-04-25T13:23:57.832Z</time></trkpt><trkpt lat="40.71027" lon="16.09824"><ele>369.0</ele><time>2026-04-25T13:23:58.832Z</time></trkpt><trkpt lat="40.7102133" lon="16.0981433"><ele>369.1666666666667</ele><time>2026-04-25T13:23:59.831Z</time></trkpt><trkpt lat="40.7101567" lon="16.0980567"><ele>369.3333333333333</ele><time>2026-04-25T13:24:00.833Z</time></trkpt><trkpt lat="40.710095" lon="16.0979733"><ele>369.5</ele><time>2026-04-25T13:24:01.832Z</time></trkpt><trkpt lat="40.7100333" lon="16.0978883"><ele>369.66666666666663</ele><time>2026-04-25T13:24:02.833Z</time></trkpt><trkpt lat="40.7099733" lon="16.0978"><ele>369.8333333333333</ele><time>2026-04-25T13:24:03.832Z</time></trkpt><trkpt lat="40.7099117" lon="16.097705"><ele>370.0</ele><time>2026-04-25T13:24:04.833Z</time></trkpt><trkpt lat="40.70984" lon="16.0975983"><ele>370.0</ele><time>2026-04-25T13:24:05.833Z</time></trkpt><trkpt lat="40.7097683" lon="16.0974917"><ele>370.0</ele><time>2026-04-25T13:24:06.834Z</time></trkpt><trkpt lat="40.7096967" lon="16.0973867"><ele>370.0</ele><time>2026-04-25T13:24:07.832Z</time></trkpt><trkpt lat="40.7096267" lon="16.0972767"><ele>370.0</ele><time>2026-04-25T13:24:08.833Z</time></trkpt><trkpt lat="40.7095583" lon="16.0971667"><ele>370.0</ele><time>2026-04-25T13:24:09.832Z</time></trkpt><trkpt lat="40.7094933" lon="16.0970633"><ele>370.66666666666663</ele><time>2026-04-25T13:24:10.833Z</time></trkpt><trkpt lat="40.709435" lon="16.0969583"><ele>371.3333333333333</ele><time>2026-04-25T13:24:11.836Z</time></trkpt><trkpt lat="40.7093917" lon="16.0968533"><ele>372.0</ele><time>2026-04-25T13:24:12.833Z</time></trkpt><trkpt lat="40.7093617" lon="16.0967483"><ele>372.6666666666667</ele><time>2026-04-25T13:24:13.832Z</time></trkpt><trkpt lat="40.7093367" lon="16.0966433"><ele>373.33333333333337</ele><time>2026-04-25T13:24:14.832Z</time></trkpt><trkpt lat="40.7093083" lon="16.0965467"><ele>374.0</ele><time>2026-04-25T13:24:15.833Z</time></trkpt><trkpt lat="40.7092717" lon="16.0964733"><ele>374.83333333333337</ele><time>2026-04-25T13:24:16.832Z</time></trkpt><trkpt lat="40.7092167" lon="16.0964267"><ele>375.6666666666667</ele><time>2026-04-25T13:24:17.834Z</time></trkpt><trkpt lat="40.709105" lon="16.0963917"><ele>376.5</ele><time>2026-04-25T13:24:19.832Z</time></trkpt><trkpt lat="40.7090383" lon="16.0963867"><ele>377.3333333333333</ele><time>2026-04-25T13:24:22.833Z</time></trkpt><trkpt lat="40.708925" lon="16.0963767"><ele>378.16666666666663</ele><time>2026-04-25T13:24:25.834Z</time></trkpt><trkpt lat="40.7088533" lon="16.096365"><ele>379.0</ele><time>2026-04-25T13:24:26.832Z</time></trkpt><trkpt lat="40.7087633" lon="16.09635"><ele>379.0</ele><time>2026-04-25T13:24:27.832Z</time></trkpt><trkpt lat="40.7086683" lon="16.096335"><ele>379.0</ele><time>2026-04-25T13:24:28.833Z</time></trkpt><trkpt lat="40.708585" lon="16.096325"><ele>379.0</ele><time>2026-04-25T13:24:29.832Z</time></trkpt><trkpt lat="40.7085133" lon="16.0963117"><ele>379.0</ele><time>2026-04-25T13:24:30.837Z</time></trkpt><trkpt lat="40.7084517" lon="16.096285"><ele>379.0</ele><time>2026-04-25T13:24:31.833Z</time></trkpt><trkpt lat="40.7083967" lon="16.0962433"><ele>379.0</ele><time>2026-04-25T13:24:32.833Z</time></trkpt><trkpt lat="40.7083333" lon="16.0961917"><ele>379.79999999999995</ele><time>2026-04-25T13:24:33.834Z</time></trkpt><trkpt lat="40.7082583" lon="16.0961367"><ele>380.59999999999997</ele><time>2026-04-25T13:24:34.832Z</time></trkpt><trkpt lat="40.708165" lon="16.09607"><ele>381.4</ele><time>2026-04-25T13:24:35.833Z</time></trkpt><trkpt lat="40.7080567" lon="16.0959967"><ele>382.2</ele><time>2026-04-25T13:24:36.832Z</time></trkpt><trkpt lat="40.707955" lon="16.0959267"><ele>383.0</ele><time>2026-04-25T13:24:37.833Z</time></trkpt><trkpt lat="40.707855" lon="16.0958617"><ele>383.0</ele><time>2026-04-25T13:24:38.832Z</time></trkpt><trkpt lat="40.7077483" lon="16.0957967"><ele>383.0</ele><time>2026-04-25T13:24:39.832Z</time></trkpt><trkpt lat="40.7076417" lon="16.0957333"><ele>383.0</ele><time>2026-04-25T13:24:40.833Z</time></trkpt><trkpt lat="40.70754" lon="16.0956783"><ele>383.0</ele><time>2026-04-25T13:24:41.833Z</time></trkpt><trkpt lat="40.7074433" lon="16.0956267"><ele>383.0</ele><time>2026-04-25T13:24:42.834Z</time></trkpt><trkpt lat="40.707345" lon="16.0955767"><ele>384.25</ele><time>2026-04-25T13:24:43.833Z</time></trkpt><trkpt lat="40.707245" lon="16.0955167"><ele>385.5</ele><time>2026-04-25T13:24:44.833Z</time></trkpt><trkpt lat="40.7071433" lon="16.09544"><ele>386.75</ele><time>2026-04-25T13:24:45.833Z</time></trkpt><trkpt lat="40.7070467" lon="16.0953533"><ele>388.0</ele><time>2026-04-25T13:24:46.833Z</time></trkpt><trkpt lat="40.7069583" lon="16.0952617"><ele>387.0</ele><time>2026-04-25T13:24:47.832Z</time></trkpt><trkpt lat="40.70688" lon="16.0951517"><ele>386.0</ele><time>2026-04-25T13:24:48.832Z</time></trkpt><trkpt lat="40.7068" lon="16.0950167"><ele>385.0</ele><time>2026-04-25T13:24:49.833Z</time></trkpt><trkpt lat="40.7067217" lon="16.09488"><ele>384.0</ele><time>2026-04-25T13:24:50.833Z</time></trkpt><trkpt lat="40.70665" lon="16.0947583"><ele>385.79999999999995</ele><time>2026-04-25T13:24:51.833Z</time></trkpt><trkpt lat="40.70659" lon="16.0946533"><ele>387.59999999999997</ele><time>2026-04-25T13:24:52.834Z</time></trkpt><trkpt lat="40.7065333" lon="16.0945533"><ele>389.4</ele><time>2026-04-25T13:24:53.834Z</time></trkpt><trkpt lat="40.7064767" lon="16.0944483"><ele>391.2</ele><time>2026-04-25T13:24:54.833Z</time></trkpt><trkpt lat="40.7064167" lon="16.0943467"><ele>393.0</ele><time>2026-04-25T13:24:55.833Z</time></trkpt><trkpt lat="40.706345" lon="16.094255"><ele>393.0</ele><time>2026-04-25T13:24:56.832Z</time></trkpt><trkpt lat="40.706265" lon="16.0941717"><ele>393.0</ele><time>2026-04-25T13:24:57.832Z</time></trkpt><trkpt lat="40.7061867" lon="16.0940967"><ele>393.0</ele><time>2026-04-25T13:24:58.833Z</time></trkpt><trkpt lat="40.7061067" lon="16.09403"><ele>393.0</ele><time>2026-04-25T13:24:59.832Z</time></trkpt><trkpt lat="40.7060283" lon="16.093965"><ele>393.0</ele><time>2026-04-25T13:25:00.832Z</time></trkpt><trkpt lat="40.7059433" lon="16.093895"><ele>394.25</ele><time>2026-04-25T13:25:01.832Z</time></trkpt><trkpt lat="40.705845" lon="16.0938267"><ele>395.5</ele><time>2026-04-25T13:25:02.832Z</time></trkpt><trkpt lat="40.7057333" lon="16.0937567"><ele>396.75</ele><time>2026-04-25T13:25:03.832Z</time></trkpt><trkpt lat="40.7056067" lon="16.0936767"><ele>398.0</ele><time>2026-04-25T13:25:04.832Z</time></trkpt><trkpt lat="40.70547" lon="16.09359"><ele>398.0</ele><time>2026-04-25T13:25:05.832Z</time></trkpt><trkpt lat="40.70533" lon="16.0934983"><ele>398.0</ele><time>2026-04-25T13:25:06.833Z</time></trkpt><trkpt lat="40.705195" lon="16.0934033"><ele>398.0</ele><time>2026-04-25T13:25:07.834Z</time></trkpt><trkpt lat="40.70506" lon="16.093305"><ele>400.75</ele><time>2026-04-25T13:25:08.833Z</time></trkpt><trkpt lat="40.704935" lon="16.0932117"><ele>403.5</ele><time>2026-04-25T13:25:09.833Z</time></trkpt><trkpt lat="40.7048217" lon="16.093125"><ele>406.25</ele><time>2026-04-25T13:25:10.833Z</time></trkpt><trkpt lat="40.7047167" lon="16.093035"><ele>409.0</ele><time>2026-04-25T13:25:11.832Z</time></trkpt><trkpt lat="40.7046183" lon="16.0929417"><ele>409.0</ele><time>2026-04-25T13:25:12.833Z</time></trkpt><trkpt lat="40.7045217" lon="16.0928517"><ele>409.0</ele><time>2026-04-25T13:25:13.832Z</time></trkpt><trkpt lat="40.7044217" lon="16.0927733"><ele>409.0</ele><time>2026-04-25T13:25:14.834Z</time></trkpt><trkpt lat="40.704315" lon="16.0927133"><ele>409.0</ele><time>2026-04-25T13:25:15.832Z</time></trkpt><trkpt lat="40.7042" lon="16.09266"><ele>407.75</ele><time>2026-04-25T13:25:16.833Z</time></trkpt><trkpt lat="40.7040767" lon="16.0926117"><ele>406.5</ele><time>2026-04-25T13:25:17.833Z</time></trkpt><trkpt lat="40.7039433" lon="16.0925617"><ele>405.25</ele><time>2026-04-25T13:25:18.833Z</time></trkpt><trkpt lat="40.7038067" lon="16.092515"><ele>404.0</ele><time>2026-04-25T13:25:19.833Z</time></trkpt><trkpt lat="40.7036817" lon="16.092475"><ele>404.0</ele><time>2026-04-25T13:25:20.834Z</time></trkpt><trkpt lat="40.70357" lon="16.09244"><ele>404.0</ele><time>2026-04-25T13:25:21.833Z</time></trkpt><trkpt lat="40.70347" lon="16.0924017"><ele>404.0</ele><time>2026-04-25T13:25:22.834Z</time></trkpt><trkpt lat="40.703365" lon="16.09234"><ele>404.0</ele><time>2026-04-25T13:25:23.833Z</time></trkpt><trkpt lat="40.7032517" lon="16.0922567"><ele>406.75</ele><time>2026-04-25T13:25:24.833Z</time></trkpt><trkpt lat="40.70314" lon="16.0921667"><ele>409.5</ele><time>2026-04-25T13:25:25.832Z</time></trkpt><trkpt lat="40.7030317" lon="16.0920733"><ele>412.25</ele><time>2026-04-25T13:25:26.833Z</time></trkpt><trkpt lat="40.7029233" lon="16.0919717"><ele>415.0</ele><time>2026-04-25T13:25:27.832Z</time></trkpt><trkpt lat="40.7028067" lon="16.0918667"><ele>415.25</ele><time>2026-04-25T13:25:28.833Z</time></trkpt><trkpt lat="40.70269" lon="16.0917617"><ele>415.5</ele><time>2026-04-25T13:25:29.833Z</time></trkpt><trkpt lat="40.7025767" lon="16.091665"><ele>415.75</ele><time>2026-04-25T13:25:30.832Z</time></trkpt><trkpt lat="40.7024667" lon="16.091575"><ele>416.0</ele><time>2026-04-25T13:25:31.832Z</time></trkpt><trkpt lat="40.702365" lon="16.0914917"><ele>416.0</ele><time>2026-04-25T13:25:32.833Z</time></trkpt><trkpt lat="40.702265" lon="16.0914067"><ele>416.0</ele><time>2026-04-25T13:25:33.833Z</time></trkpt><trkpt lat="40.70216" lon="16.0913083"><ele>416.0</ele><time>2026-04-25T13:25:34.833Z</time></trkpt><trkpt lat="40.70205" lon="16.0912"><ele>416.0</ele><time>2026-04-25T13:25:35.833Z</time></trkpt><trkpt lat="40.7019333" lon="16.0910917"><ele>414.25</ele><time>2026-04-25T13:25:36.833Z</time></trkpt><trkpt lat="40.7018133" lon="16.0909917"><ele>412.5</ele><time>2026-04-25T13:25:37.834Z</time></trkpt><trkpt lat="40.7016983" lon="16.0909083"><ele>410.75</ele><time>2026-04-25T13:25:38.834Z</time></trkpt><trkpt lat="40.7015883" lon="16.0908333"><ele>409.0</ele><time>2026-04-25T13:25:39.833Z</time></trkpt><trkpt lat="40.70148" lon="16.0907717"><ele>410.5</ele><time>2026-04-25T13:25:40.833Z</time></trkpt><trkpt lat="40.7013717" lon="16.0907233"><ele>412.0</ele><time>2026-04-25T13:25:41.832Z</time></trkpt><trkpt lat="40.7012617" lon="16.090665"><ele>413.5</ele><time>2026-04-25T13:25:42.832Z</time></trkpt><trkpt lat="40.7011467" lon="16.0905783"><ele>415.0</ele><time>2026-04-25T13:25:43.832Z</time></trkpt><trkpt lat="40.7010217" lon="16.0904583"><ele>415.0</ele><time>2026-04-25T13:25:44.832Z</time></trkpt><trkpt lat="40.7008833" lon="16.0903217"><ele>415.0</ele><time>2026-04-25T13:25:45.832Z</time></trkpt><trkpt lat="40.70073" lon="16.0901783"><ele>415.0</ele><time>2026-04-25T13:25:46.832Z</time></trkpt><trkpt lat="40.70056" lon="16.0900383"><ele>416.6666666666667</ele><time>2026-04-25T13:25:47.833Z</time></trkpt><trkpt lat="40.7003983" lon="16.0899117"><ele>418.33333333333337</ele><time>2026-04-25T13:25:48.831Z</time></trkpt><trkpt lat="40.70026" lon="16.0898"><ele>420.0</ele><time>2026-04-25T13:25:49.832Z</time></trkpt><trkpt lat="40.7001383" lon="16.0897"><ele>420.0</ele><time>2026-04-25T13:25:50.832Z</time></trkpt><trkpt lat="40.7000167" lon="16.0896133"><ele>420.0</ele><time>2026-04-25T13:25:51.833Z</time></trkpt><trkpt lat="40.6998817" lon="16.0895533"><ele>420.0</ele><time>2026-04-25T13:25:52.833Z</time></trkpt><trkpt lat="40.6997333" lon="16.0895167"><ele>420.0</ele><time>2026-04-25T13:25:53.832Z</time></trkpt><trkpt lat="40.6995667" lon="16.0895017"><ele>422.33333333333337</ele><time>2026-04-25T13:25:54.833Z</time></trkpt><trkpt lat="40.69939" lon="16.0895017"><ele>424.6666666666667</ele><time>2026-04-25T13:25:55.833Z</time></trkpt><trkpt lat="40.69921" lon="16.08951"><ele>427.0</ele><time>2026-04-25T13:25:56.833Z</time></trkpt><trkpt lat="40.6990417" lon="16.0895117"><ele>427.0</ele><time>2026-04-25T13:25:57.833Z</time></trkpt><trkpt lat="40.69888" lon="16.08951"><ele>427.0</ele><time>2026-04-25T13:25:58.832Z</time></trkpt><trkpt lat="40.6987283" lon="16.089495"><ele>427.0</ele><time>2026-04-25T13:25:59.832Z</time></trkpt><trkpt lat="40.6985967" lon="16.0894617"><ele>427.0</ele><time>2026-04-25T13:26:00.832Z</time></trkpt><trkpt lat="40.698485" lon="16.0894017"><ele>429.0</ele><time>2026-04-25T13:26:01.833Z</time></trkpt><trkpt lat="40.6983817" lon="16.0893217"><ele>431.0</ele><time>2026-04-25T13:26:02.834Z</time></trkpt><trkpt lat="40.6982667" lon="16.0892233"><ele>433.0</ele><time>2026-04-25T13:26:03.832Z</time></trkpt><trkpt lat="40.698145" lon="16.0891167"><ele>435.0</ele><time>2026-04-25T13:26:04.832Z</time></trkpt><trkpt lat="40.6980233" lon="16.0890117"><ele>436.33333333333337</ele><time>2026-04-25T13:26:05.833Z</time></trkpt><trkpt lat="40.6979" lon="16.0889133"><ele>437.6666666666667</ele><time>2026-04-25T13:26:06.833Z</time></trkpt><trkpt lat="40.6977617" lon="16.0888217"><ele>439.0</ele><time>2026-04-25T13:26:07.834Z</time></trkpt><trkpt lat="40.6976183" lon="16.0887283"><ele>440.5</ele><time>2026-04-25T13:26:08.833Z</time></trkpt><trkpt lat="40.6974817" lon="16.088645"><ele>442.0</ele><time>2026-04-25T13:26:09.833Z</time></trkpt><trkpt lat="40.6973533" lon="16.088575"><ele>443.5</ele><time>2026-04-25T13:26:10.832Z</time></trkpt><trkpt lat="40.6972267" lon="16.0885183"><ele>445.0</ele><time>2026-04-25T13:26:11.832Z</time></trkpt><trkpt lat="40.6970983" lon="16.08848"><ele>445.0</ele><time>2026-04-25T13:26:12.832Z</time></trkpt><trkpt lat="40.6969667" lon="16.088465"><ele>445.0</ele><time>2026-04-25T13:26:13.833Z</time></trkpt><trkpt lat="40.696835" lon="16.0884567"><ele>445.0</ele><time>2026-04-25T13:26:14.834Z</time></trkpt><trkpt lat="40.6967083" lon="16.08845"><ele>445.0</ele><time>2026-04-25T13:26:15.834Z</time></trkpt><trkpt lat="40.696585" lon="16.088435"><ele>446.75</ele><time>2026-04-25T13:26:16.833Z</time></trkpt><trkpt lat="40.6964583" lon="16.0884033"><ele>448.5</ele><time>2026-04-25T13:26:17.833Z</time></trkpt><trkpt lat="40.696325" lon="16.088355"><ele>450.25</ele><time>2026-04-25T13:26:18.832Z</time></trkpt><trkpt lat="40.69619" lon="16.0883017"><ele>452.0</ele><time>2026-04-25T13:26:19.832Z</time></trkpt><trkpt lat="40.696055" lon="16.0882583"><ele>456.0</ele><time>2026-04-25T13:26:20.832Z</time></trkpt><trkpt lat="40.6959183" lon="16.08823"><ele>460.0</ele><time>2026-04-25T13:26:21.832Z</time></trkpt><trkpt lat="40.69579" lon="16.0881983"><ele>464.0</ele><time>2026-04-25T13:26:22.834Z</time></trkpt><trkpt lat="40.695685" lon="16.08816"><ele>468.0</ele><time>2026-04-25T13:26:23.833Z</time></trkpt><trkpt lat="40.6955967" lon="16.0881"><ele>468.0</ele><time>2026-04-25T13:26:24.832Z</time></trkpt><trkpt lat="40.695515" lon="16.088005"><ele>468.0</ele><time>2026-04-25T13:26:25.832Z</time></trkpt><trkpt lat="40.6954317" lon="16.0878667"><ele>468.0</ele><time>2026-04-25T13:26:26.833Z</time></trkpt><trkpt lat="40.6953383" lon="16.0877017"><ele>468.0</ele><time>2026-04-25T13:26:27.832Z</time></trkpt><trkpt lat="40.6952317" lon="16.08753"><ele>468.0</ele><time>2026-04-25T13:26:28.833Z</time></trkpt><trkpt lat="40.6951267" lon="16.0873717"><ele>468.0</ele><time>2026-04-25T13:26:29.832Z</time></trkpt><trkpt lat="40.6950167" lon="16.0872233"><ele>468.0</ele><time>2026-04-25T13:26:30.833Z</time></trkpt><trkpt lat="40.6949017" lon="16.0870733"><ele>468.0</ele><time>2026-04-25T13:26:31.832Z</time></trkpt><trkpt lat="40.69478" lon="16.08692"><ele>468.0</ele><time>2026-04-25T13:26:32.833Z</time></trkpt><trkpt lat="40.6946567" lon="16.0867633"><ele>468.0</ele><time>2026-04-25T13:26:33.833Z</time></trkpt><trkpt lat="40.69453" lon="16.0866067"><ele>464.66666666666663</ele><time>2026-04-25T13:26:34.834Z</time></trkpt><trkpt lat="40.6944067" lon="16.0864483"><ele>461.3333333333333</ele><time>2026-04-25T13:26:35.833Z</time></trkpt><trkpt lat="40.69428" lon="16.0862933"><ele>458.0</ele><time>2026-04-25T13:26:36.833Z</time></trkpt><trkpt lat="40.6941467" lon="16.0861467"><ele>458.0</ele><time>2026-04-25T13:26:37.833Z</time></trkpt><trkpt lat="40.694015" lon="16.0860117"><ele>458.0</ele><time>2026-04-25T13:26:38.833Z</time></trkpt><trkpt lat="40.693885" lon="16.0858817"><ele>458.0</ele><time>2026-04-25T13:26:39.832Z</time></trkpt><trkpt lat="40.69375" lon="16.085765"><ele>457.25</ele><time>2026-04-25T13:26:40.833Z</time></trkpt><trkpt lat="40.69362" lon="16.08567"><ele>456.5</ele><time>2026-04-25T13:26:41.833Z</time></trkpt><trkpt lat="40.6934933" lon="16.0855967"><ele>455.75</ele><time>2026-04-25T13:26:42.833Z</time></trkpt><trkpt lat="40.6933767" lon="16.085545"><ele>455.0</ele><time>2026-04-25T13:26:43.832Z</time></trkpt><trkpt lat="40.693265" lon="16.085525"><ele>455.0</ele><time>2026-04-25T13:26:44.835Z</time></trkpt><trkpt lat="40.69315" lon="16.0855367"><ele>455.0</ele><time>2026-04-25T13:26:45.836Z</time></trkpt><trkpt lat="40.6930317" lon="16.0855817"><ele>455.0</ele><time>2026-04-25T13:26:46.832Z</time></trkpt><trkpt lat="40.6929117" lon="16.0856567"><ele>455.0</ele><time>2026-04-25T13:26:47.834Z</time></trkpt><trkpt lat="40.6927967" lon="16.0857383"><ele>456.25</ele><time>2026-04-25T13:26:48.832Z</time></trkpt><trkpt lat="40.692685" lon="16.0857967"><ele>457.5</ele><time>2026-04-25T13:26:49.832Z</time></trkpt><trkpt lat="40.6925683" lon="16.0858217"><ele>458.75</ele><time>2026-04-25T13:26:50.836Z</time></trkpt><trkpt lat="40.6924483" lon="16.0858183"><ele>460.0</ele><time>2026-04-25T13:26:51.832Z</time></trkpt><trkpt lat="40.692325" lon="16.0857817"><ele>460.5</ele><time>2026-04-25T13:26:52.833Z</time></trkpt><trkpt lat="40.6922017" lon="16.0857233"><ele>461.0</ele><time>2026-04-25T13:26:53.833Z</time></trkpt><trkpt lat="40.6920883" lon="16.0856667"><ele>461.5</ele><time>2026-04-25T13:26:54.832Z</time></trkpt><trkpt lat="40.691985" lon="16.0856267"><ele>462.0</ele><time>2026-04-25T13:26:55.833Z</time></trkpt><trkpt lat="40.6918917" lon="16.08561"><ele>462.1666666666667</ele><time>2026-04-25T13:26:56.834Z</time></trkpt><trkpt lat="40.6918033" lon="16.0856133"><ele>462.33333333333337</ele><time>2026-04-25T13:26:57.832Z</time></trkpt><trkpt lat="40.691725" lon="16.0856367"><ele>462.5</ele><time>2026-04-25T13:26:58.833Z</time></trkpt><trkpt lat="40.691655" lon="16.0856817"><ele>462.6666666666667</ele><time>2026-04-25T13:26:59.832Z</time></trkpt><trkpt lat="40.6915833" lon="16.085735"><ele>462.83333333333337</ele><time>2026-04-25T13:27:00.833Z</time></trkpt><trkpt lat="40.691505" lon="16.08578"><ele>463.0</ele><time>2026-04-25T13:27:01.832Z</time></trkpt><trkpt lat="40.6914267" lon="16.085795"><ele>463.0</ele><time>2026-04-25T13:27:02.832Z</time></trkpt><trkpt lat="40.6913483" lon="16.0857783"><ele>462.99999999999994</ele><time>2026-04-25T13:27:03.833Z</time></trkpt><trkpt lat="40.6912733" lon="16.0857367"><ele>462.99999999999994</ele><time>2026-04-25T13:27:04.834Z</time></trkpt><trkpt lat="40.6912" lon="16.0856617"><ele>463.0</ele><time>2026-04-25T13:27:05.833Z</time></trkpt><trkpt lat="40.6911183" lon="16.0855783"><ele>463.0</ele><time>2026-04-25T13:27:06.833Z</time></trkpt><trkpt lat="40.6910283" lon="16.0855117"><ele>465.4</ele><time>2026-04-25T13:27:07.926Z</time></trkpt><trkpt lat="40.6909283" lon="16.0854667"><ele>467.79999999999995</ele><time>2026-04-25T13:27:08.833Z</time></trkpt><trkpt lat="40.69082" lon="16.0854367"><ele>470.2</ele><time>2026-04-25T13:27:09.832Z</time></trkpt><trkpt lat="40.69071" lon="16.085425"><ele>472.6</ele><time>2026-04-25T13:27:10.832Z</time></trkpt><trkpt lat="40.6906033" lon="16.085425"><ele>475.0</ele><time>2026-04-25T13:27:11.832Z</time></trkpt><trkpt lat="40.6905083" lon="16.0854233"><ele>475.00000000000006</ele><time>2026-04-25T13:27:12.833Z</time></trkpt><trkpt lat="40.6904117" lon="16.085415"><ele>475.0</ele><time>2026-04-25T13:27:13.833Z</time></trkpt><trkpt lat="40.6903183" lon="16.08541"><ele>475.0</ele><time>2026-04-25T13:27:14.833Z</time></trkpt><trkpt lat="40.6902267" lon="16.0854083"><ele>475.0</ele><time>2026-04-25T13:27:15.832Z</time></trkpt><trkpt lat="40.69014" lon="16.0854083"><ele>475.00000000000006</ele><time>2026-04-25T13:27:16.833Z</time></trkpt><trkpt lat="40.6900683" lon="16.0854117"><ele>475.0</ele><time>2026-04-25T13:27:17.832Z</time></trkpt><trkpt lat="40.6900033" lon="16.0854117"><ele>477.00000000000006</ele><time>2026-04-25T13:27:18.833Z</time></trkpt><trkpt lat="40.6899367" lon="16.0854117"><ele>479.0</ele><time>2026-04-25T13:27:19.832Z</time></trkpt><trkpt lat="40.68986" lon="16.08542"><ele>481.0</ele><time>2026-04-25T13:27:20.834Z</time></trkpt><trkpt lat="40.6897917" lon="16.0854433"><ele>483.0</ele><time>2026-04-25T13:27:21.832Z</time></trkpt><trkpt lat="40.6897083" lon="16.0855167"><ele>485.00000000000006</ele><time>2026-04-25T13:27:23.834Z</time></trkpt><trkpt lat="40.6896233" lon="16.0854883"><ele>487.0</ele><time>2026-04-25T13:27:26.833Z</time></trkpt><trkpt lat="40.68958" lon="16.08536"><ele>487.00000000000006</ele><time>2026-04-25T13:27:28.834Z</time></trkpt><trkpt lat="40.68956" lon="16.0852767"><ele>487.0</ele><time>2026-04-25T13:27:29.833Z</time></trkpt><trkpt lat="40.68954" lon="16.0851967"><ele>487.0</ele><time>2026-04-25T13:27:30.833Z</time></trkpt><trkpt lat="40.6895033" lon="16.08507"><ele>487.0</ele><time>2026-04-25T13:27:32.833Z</time></trkpt><trkpt lat="40.6894817" lon="16.0849867"><ele>487.00000000000006</ele><time>2026-04-25T13:27:34.834Z</time></trkpt><trkpt lat="40.6894517" lon="16.0848617"><ele>487.0</ele><time>2026-04-25T13:29:43.832Z</time></trkpt><trkpt lat="40.689425" lon="16.0847333"><ele>488.6666666666667</ele><time>2026-04-25T13:29:45.833Z</time></trkpt><trkpt lat="40.68938" lon="16.08466"><ele>490.33333333333337</ele><time>2026-04-25T13:29:47.832Z</time></trkpt><trkpt lat="40.6893133" lon="16.0846617"><ele>492.0</ele><time>2026-04-25T13:29:49.833Z</time></trkpt><trkpt lat="40.689235" lon="16.0846983"><ele>493.66666666666663</ele><time>2026-04-25T13:29:51.832Z</time></trkpt><trkpt lat="40.6891617" lon="16.0847167"><ele>495.3333333333333</ele><time>2026-04-25T13:29:53.836Z</time></trkpt><trkpt lat="40.6890533" lon="16.084735"><ele>497.0</ele><time>2026-04-25T13:29:55.832Z</time></trkpt><trkpt lat="40.6889383" lon="16.0847533"><ele>497.0</ele><time>2026-04-25T13:29:57.831Z</time></trkpt><trkpt lat="40.68882" lon="16.0847483"><ele>497.00000000000006</ele><time>2026-04-25T13:29:59.832Z</time></trkpt><trkpt lat="40.688705" lon="16.0847283"><ele>497.00000000000006</ele><time>2026-04-25T13:30:01.834Z</time></trkpt><trkpt lat="40.6885917" lon="16.08471"><ele>497.0</ele><time>2026-04-25T13:30:03.833Z</time></trkpt><trkpt lat="40.6885233" lon="16.0846983"><ele>497.0</ele><time>2026-04-25T13:30:04.833Z</time></trkpt><trkpt lat="40.68845" lon="16.0846683"><ele>499.8333333333333</ele><time>2026-04-25T13:30:05.833Z</time></trkpt><trkpt lat="40.68837" lon="16.0846383"><ele>502.66666666666663</ele><time>2026-04-25T13:30:06.832Z</time></trkpt><trkpt lat="40.688285" lon="16.0846067"><ele>505.5</ele><time>2026-04-25T13:30:07.833Z</time></trkpt><trkpt lat="40.6882" lon="16.084575"><ele>508.33333333333337</ele><time>2026-04-25T13:30:08.834Z</time></trkpt><trkpt lat="40.6881167" lon="16.0845483"><ele>511.1666666666667</ele><time>2026-04-25T13:30:09.832Z</time></trkpt><trkpt lat="40.688035" lon="16.0845217"><ele>514.0</ele><time>2026-04-25T13:30:10.833Z</time></trkpt><trkpt lat="40.68795" lon="16.084505"><ele>514.0</ele><time>2026-04-25T13:30:11.833Z</time></trkpt><trkpt lat="40.6878733" lon="16.084495"><ele>514.0</ele><time>2026-04-25T13:30:12.833Z</time></trkpt><trkpt lat="40.6878" lon="16.0844867"><ele>514.0</ele><time>2026-04-25T13:30:13.832Z</time></trkpt><trkpt lat="40.6877283" lon="16.084475"><ele>514.0</ele><time>2026-04-25T13:30:14.832Z</time></trkpt><trkpt lat="40.68766" lon="16.0844583"><ele>514.0</ele><time>2026-04-25T13:30:15.831Z</time></trkpt><trkpt lat="40.6875967" lon="16.08444"><ele>514.0</ele><time>2026-04-25T13:30:16.833Z</time></trkpt><trkpt lat="40.6874767" lon="16.0844"><ele>516.0</ele><time>2026-04-25T13:30:18.832Z</time></trkpt><trkpt lat="40.6874083" lon="16.08438"><ele>518.0</ele><time>2026-04-25T13:30:19.831Z</time></trkpt><trkpt lat="40.6873333" lon="16.0843583"><ele>520.0</ele><time>2026-04-25T13:30:20.833Z</time></trkpt><trkpt lat="40.6872533" lon="16.0843367"><ele>522.0</ele><time>2026-04-25T13:30:21.831Z</time></trkpt><trkpt lat="40.6871783" lon="16.084315"><ele>524.0</ele><time>2026-04-25T13:30:22.832Z</time></trkpt><trkpt lat="40.6871033" lon="16.0842917"><ele>526.0</ele><time>2026-04-25T13:30:23.832Z</time></trkpt><trkpt lat="40.6870267" lon="16.0842667"><ele>526.0</ele><time>2026-04-25T13:30:24.833Z</time></trkpt><trkpt lat="40.6869517" lon="16.0842417"><ele>526.0</ele><time>2026-04-25T13:30:25.832Z</time></trkpt><trkpt lat="40.6868817" lon="16.0842167"><ele>526.0</ele><time>2026-04-25T13:30:26.834Z</time></trkpt><trkpt lat="40.6868117" lon="16.0841933"><ele>526.0</ele><time>2026-04-25T13:30:27.832Z</time></trkpt><trkpt lat="40.6867417" lon="16.0841733"><ele>526.0</ele><time>2026-04-25T13:30:28.832Z</time></trkpt><trkpt lat="40.6866767" lon="16.0841583"><ele>526.0</ele><time>2026-04-25T13:30:29.833Z</time></trkpt><trkpt lat="40.6865633" lon="16.08413"><ele>527.2</ele><time>2026-04-25T13:30:31.833Z</time></trkpt><trkpt lat="40.68645" lon="16.0840983"><ele>528.4000000000001</ele><time>2026-04-25T13:30:33.834Z</time></trkpt><trkpt lat="40.6863433" lon="16.0840767"><ele>529.6</ele><time>2026-04-25T13:30:35.833Z</time></trkpt><trkpt lat="40.6862237" lon="16.0840525"><ele>530.8000000000001</ele><time>2026-04-25T13:30:37.833Z</time></trkpt><trkpt lat="40.6861541" lon="16.0840348"><ele>532.0</ele><time>2026-04-25T13:30:38.833Z</time></trkpt><trkpt lat="40.6860732" lon="16.0840115"><ele>535.8333333333334</ele><time>2026-04-25T13:30:39.832Z</time></trkpt><trkpt lat="40.6859867" lon="16.0839827"><ele>539.6666666666667</ele><time>2026-04-25T13:30:40.832Z</time></trkpt><trkpt lat="40.6859033" lon="16.0839528"><ele>543.5</ele><time>2026-04-25T13:30:41.833Z</time></trkpt><trkpt lat="40.6858328" lon="16.0839265"><ele>547.3333333333334</ele><time>2026-04-25T13:30:42.832Z</time></trkpt><trkpt lat="40.6857319" lon="16.0838898"><ele>551.1666666666666</ele><time>2026-04-25T13:30:44.834Z</time></trkpt><trkpt lat="40.685644" lon="16.0838469"><ele>555.0</ele><time>2026-04-25T13:30:46.832Z</time></trkpt><trkpt lat="40.68554" lon="16.0838008"><ele>555.0</ele><time>2026-04-25T13:30:48.831Z</time></trkpt><trkpt lat="40.6854376" lon="16.0837529"><ele>555.0</ele><time>2026-04-25T13:30:50.832Z</time></trkpt><trkpt lat="40.6853301" lon="16.0836975"><ele>555.0</ele><time>2026-04-25T13:30:52.832Z</time></trkpt><trkpt lat="40.6852247" lon="16.0836396"><ele>555.0</ele><time>2026-04-25T13:30:54.832Z</time></trkpt><trkpt lat="40.6851303" lon="16.0835692"><ele>555.0</ele><time>2026-04-25T13:30:56.834Z</time></trkpt><trkpt lat="40.6850429" lon="16.0834905"><ele>555.4</ele><time>2026-04-25T13:30:58.833Z</time></trkpt><trkpt lat="40.6849552" lon="16.0834105"><ele>555.8</ele><time>2026-04-25T13:31:00.833Z</time></trkpt><trkpt lat="40.6848605" lon="16.0833191"><ele>556.2</ele><time>2026-04-25T13:31:02.832Z</time></trkpt><trkpt lat="40.6847529" lon="16.0832223"><ele>556.6</ele><time>2026-04-25T13:31:04.833Z</time></trkpt><trkpt lat="40.6847" lon="16.0831708"><ele>557.0</ele><time>2026-04-25T13:31:05.834Z</time></trkpt><trkpt lat="40.6846434" lon="16.0831169"><ele>557.0</ele><time>2026-04-25T13:31:06.833Z</time></trkpt><trkpt lat="40.6845832" lon="16.0830619"><ele>557.0</ele><time>2026-04-25T13:31:07.834Z</time></trkpt><trkpt lat="40.6845173" lon="16.0830021"><ele>557.0</ele><time>2026-04-25T13:31:08.833Z</time></trkpt><trkpt lat="40.6844508" lon="16.0829423"><ele>557.0</ele><time>2026-04-25T13:31:09.832Z</time></trkpt><trkpt lat="40.6843917" lon="16.0828817"><ele>557.0</ele><time>2026-04-25T13:31:10.835Z</time></trkpt><trkpt lat="40.6843383" lon="16.082815"><ele>557.0</ele><time>2026-04-25T13:31:11.833Z</time></trkpt><trkpt lat="40.6842817" lon="16.08275"><ele>560.7142857142858</ele><time>2026-04-25T13:31:12.832Z</time></trkpt><trkpt lat="40.6842233" lon="16.0827017"><ele>564.4285714285714</ele><time>2026-04-25T13:31:13.832Z</time></trkpt><trkpt lat="40.6841583" lon="16.0826733"><ele>568.1428571428571</ele><time>2026-04-25T13:31:14.832Z</time></trkpt><trkpt lat="40.6840917" lon="16.0826433"><ele>571.8571428571429</ele><time>2026-04-25T13:31:15.831Z</time></trkpt><trkpt lat="40.684025" lon="16.0826133"><ele>575.5714285714286</ele><time>2026-04-25T13:31:16.832Z</time></trkpt><trkpt lat="40.6839533" lon="16.0825867"><ele>579.2857142857143</ele><time>2026-04-25T13:31:17.833Z</time></trkpt><trkpt lat="40.6838767" lon="16.0825633"><ele>583.0</ele><time>2026-04-25T13:31:18.832Z</time></trkpt><trkpt lat="40.6838033" lon="16.0825467"><ele>583.0000000000001</ele><time>2026-04-25T13:31:19.834Z</time></trkpt><trkpt lat="40.6837283" lon="16.082525"><ele>583.0</ele><time>2026-04-25T13:31:20.832Z</time></trkpt><trkpt lat="40.6836533" lon="16.0825083"><ele>583.0</ele><time>2026-04-25T13:31:21.833Z</time></trkpt><trkpt lat="40.6835783" lon="16.0825"><ele>583.0</ele><time>2026-04-25T13:31:22.832Z</time></trkpt><trkpt lat="40.6835067" lon="16.0825"><ele>583.0</ele><time>2026-04-25T13:31:23.832Z</time></trkpt><trkpt lat="40.6834433" lon="16.0825117"><ele>583.0000000000001</ele><time>2026-04-25T13:31:24.832Z</time></trkpt><trkpt lat="40.68338" lon="16.082545"><ele>583.0</ele><time>2026-04-25T13:31:25.833Z</time></trkpt><trkpt lat="40.683315" lon="16.08257"><ele>586.1666666666667</ele><time>2026-04-25T13:31:26.832Z</time></trkpt><trkpt lat="40.683195" lon="16.0826183"><ele>589.3333333333334</ele><time>2026-04-25T13:31:28.834Z</time></trkpt><trkpt lat="40.68313" lon="16.0826217"><ele>592.5</ele><time>2026-04-25T13:31:29.833Z</time></trkpt><trkpt lat="40.6830583" lon="16.0826133"><ele>595.6666666666666</ele><time>2026-04-25T13:31:30.832Z</time></trkpt><trkpt lat="40.682985" lon="16.0826033"><ele>598.8333333333333</ele><time>2026-04-25T13:31:31.833Z</time></trkpt><trkpt lat="40.6829067" lon="16.082595"><ele>602.0</ele><time>2026-04-25T13:31:32.835Z</time></trkpt><trkpt lat="40.6828317" lon="16.08258"><ele>603.6666666666666</ele><time>2026-04-25T13:31:33.833Z</time></trkpt><trkpt lat="40.6827633" lon="16.0825533"><ele>605.3333333333333</ele><time>2026-04-25T13:31:34.833Z</time></trkpt><trkpt lat="40.6826917" lon="16.08252"><ele>607.0</ele><time>2026-04-25T13:31:35.834Z</time></trkpt><trkpt lat="40.68262" lon="16.08248"><ele>608.6666666666666</ele><time>2026-04-25T13:31:36.833Z</time></trkpt><trkpt lat="40.682545" lon="16.08244"><ele>610.3333333333334</ele><time>2026-04-25T13:31:37.833Z</time></trkpt><trkpt lat="40.6824683" lon="16.0824033"><ele>612.0</ele><time>2026-04-25T13:31:38.834Z</time></trkpt><trkpt lat="40.6823933" lon="16.0823633"><ele>612.0</ele><time>2026-04-25T13:31:39.834Z</time></trkpt><trkpt lat="40.68232" lon="16.0823183"><ele>612.0</ele><time>2026-04-25T13:31:40.833Z</time></trkpt><trkpt lat="40.68224" lon="16.0822717"><ele>612.0</ele><time>2026-04-25T13:31:41.832Z</time></trkpt><trkpt lat="40.682145" lon="16.0822183"><ele>612.0</ele><time>2026-04-25T13:31:42.832Z</time></trkpt><trkpt lat="40.6820367" lon="16.0821583"><ele>612.0</ele><time>2026-04-25T13:31:43.833Z</time></trkpt><trkpt lat="40.6819317" lon="16.0820967"><ele>613.6666666666666</ele><time>2026-04-25T13:31:44.833Z</time></trkpt><trkpt lat="40.6818433" lon="16.082045"><ele>615.3333333333334</ele><time>2026-04-25T13:31:45.832Z</time></trkpt><trkpt lat="40.6817633" lon="16.0819983"><ele>617.0</ele><time>2026-04-25T13:31:46.833Z</time></trkpt><trkpt lat="40.6816867" lon="16.0819567"><ele>618.6666666666667</ele><time>2026-04-25T13:31:47.832Z</time></trkpt><trkpt lat="40.6816067" lon="16.0819233"><ele>620.3333333333334</ele><time>2026-04-25T13:31:48.832Z</time></trkpt><trkpt lat="40.681525" lon="16.0819017"><ele>622.0</ele><time>2026-04-25T13:31:49.833Z</time></trkpt><trkpt lat="40.6814433" lon="16.0818917"><ele>622.0</ele><time>2026-04-25T13:31:50.833Z</time></trkpt><trkpt lat="40.6813533" lon="16.0819017"><ele>622.0</ele><time>2026-04-25T13:31:51.832Z</time></trkpt><trkpt lat="40.6812533" lon="16.0819217"><ele>622.0</ele><time>2026-04-25T13:31:52.833Z</time></trkpt><trkpt lat="40.6811417" lon="16.0819483"><ele>622.0</ele><time>2026-04-25T13:31:53.833Z</time></trkpt><trkpt lat="40.6810183" lon="16.08199"><ele>622.0</ele><time>2026-04-25T13:31:54.832Z</time></trkpt><trkpt lat="40.680905" lon="16.0820333"><ele>624.6666666666667</ele><time>2026-04-25T13:31:55.832Z</time></trkpt><trkpt lat="40.6808217" lon="16.0820683"><ele>627.3333333333334</ele><time>2026-04-25T13:31:56.833Z</time></trkpt><trkpt lat="40.6807133" lon="16.0821"><ele>630.0</ele><time>2026-04-25T13:31:58.832Z</time></trkpt><trkpt lat="40.68068" lon="16.0819833"><ele>632.6666666666666</ele><time>2026-04-25T13:32:01.833Z</time></trkpt><trkpt lat="40.6806617" lon="16.0818717"><ele>635.3333333333333</ele><time>2026-04-25T13:32:03.831Z</time></trkpt><trkpt lat="40.68065" lon="16.0817833"><ele>638.0</ele><time>2026-04-25T13:32:05.833Z</time></trkpt><trkpt lat="40.6806283" lon="16.0816883"><ele>638.0</ele><time>2026-04-25T13:32:08.832Z</time></trkpt><trkpt lat="40.6805983" lon="16.0816"><ele>638.0</ele><time>2026-04-25T13:32:11.832Z</time></trkpt><trkpt lat="40.680575" lon="16.0815217"><ele>638.0</ele><time>2026-04-25T13:32:15.832Z</time></trkpt><trkpt lat="40.68054" lon="16.081445"><ele>638.0</ele><time>2026-04-25T13:32:22.832Z</time></trkpt><trkpt lat="40.6804933" lon="16.0813733"><ele>638.0</ele><time>2026-04-25T13:32:25.832Z</time></trkpt><trkpt lat="40.6804383" lon="16.0812933"><ele>638.0</ele><time>2026-04-25T13:32:28.833Z</time></trkpt><trkpt lat="40.6804017" lon="16.0812033"><ele>638.0</ele><time>2026-04-25T13:32:31.832Z</time></trkpt><trkpt lat="40.6804067" lon="16.0810883"><ele>639.0</ele><time>2026-04-25T13:32:34.832Z</time></trkpt><trkpt lat="40.680435" lon="16.0809933"><ele>640.0</ele><time>2026-04-25T13:32:36.832Z</time></trkpt><trkpt lat="40.68048" lon="16.08087"><ele>641.0</ele><time>2026-04-25T13:32:38.833Z</time></trkpt><trkpt lat="40.6805217" lon="16.0807367"><ele>642.0</ele><time>2026-04-25T13:32:40.833Z</time></trkpt><trkpt lat="40.6805483" lon="16.0805683"><ele>643.0</ele><time>2026-04-25T13:32:42.832Z</time></trkpt><trkpt lat="40.6805467" lon="16.080485"><ele>644.6666666666667</ele><time>2026-04-25T13:32:43.832Z</time></trkpt><trkpt lat="40.6805583" lon="16.0803483"><ele>646.3333333333334</ele><time>2026-04-25T13:32:45.832Z</time></trkpt><trkpt lat="40.680585" lon="16.08024"><ele>648.0</ele><time>2026-04-25T13:32:47.832Z</time></trkpt><trkpt lat="40.6806317" lon="16.0801783"><ele>649.6666666666666</ele><time>2026-04-25T13:32:49.832Z</time></trkpt><trkpt lat="40.6806867" lon="16.08012"><ele>651.3333333333333</ele><time>2026-04-25T13:32:51.832Z</time></trkpt><trkpt lat="40.6807467" lon="16.0800333"><ele>653.0</ele><time>2026-04-25T13:32:53.832Z</time></trkpt><trkpt lat="40.6808083" lon="16.0799683"><ele>653.8333333333333</ele><time>2026-04-25T13:32:55.832Z</time></trkpt><trkpt lat="40.680895" lon="16.0798967"><ele>654.6666666666666</ele><time>2026-04-25T13:32:57.832Z</time></trkpt><trkpt lat="40.680945" lon="16.0798367"><ele>655.5</ele><time>2026-04-25T13:32:58.832Z</time></trkpt><trkpt lat="40.680995" lon="16.0797667"><ele>656.3333333333334</ele><time>2026-04-25T13:32:59.834Z</time></trkpt><trkpt lat="40.6810417" lon="16.0796717"><ele>657.1666666666667</ele><time>2026-04-25T13:33:00.833Z</time></trkpt><trkpt lat="40.6810917" lon="16.0795667"><ele>658.0</ele><time>2026-04-25T13:33:01.834Z</time></trkpt><trkpt lat="40.6811333" lon="16.07947"><ele>658.0</ele><time>2026-04-25T13:33:02.834Z</time></trkpt><trkpt lat="40.6811633" lon="16.07939"><ele>658.0</ele><time>2026-04-25T13:33:03.833Z</time></trkpt><trkpt lat="40.681145" lon="16.07927"><ele>658.0</ele><time>2026-04-25T13:33:05.833Z</time></trkpt><trkpt lat="40.6810233" lon="16.0792133"><ele>658.0</ele><time>2026-04-25T13:34:16.831Z</time></trkpt><trkpt lat="40.6809667" lon="16.0791767"><ele>658.0</ele><time>2026-04-25T13:34:17.832Z</time></trkpt><trkpt lat="40.6808967" lon="16.0791483"><ele>658.0</ele><time>2026-04-25T13:34:18.833Z</time></trkpt><trkpt lat="40.6808033" lon="16.0791417"><ele>659.75</ele><time>2026-04-25T13:34:19.831Z</time></trkpt><trkpt lat="40.6806883" lon="16.0791633"><ele>661.5</ele><time>2026-04-25T13:34:20.833Z</time></trkpt><trkpt lat="40.6805517" lon="16.07919"><ele>663.25</ele><time>2026-04-25T13:34:21.832Z</time></trkpt><trkpt lat="40.6804167" lon="16.0792133"><ele>665.0</ele><time>2026-04-25T13:34:22.833Z</time></trkpt><trkpt lat="40.6803017" lon="16.0792167"><ele>667.2</ele><time>2026-04-25T13:34:23.832Z</time></trkpt><trkpt lat="40.680215" lon="16.079185"><ele>669.4</ele><time>2026-04-25T13:34:24.832Z</time></trkpt><trkpt lat="40.6801383" lon="16.07913"><ele>671.5999999999999</ele><time>2026-04-25T13:34:25.832Z</time></trkpt><trkpt lat="40.6800667" lon="16.0790383"><ele>673.8</ele><time>2026-04-25T13:34:26.833Z</time></trkpt><trkpt lat="40.6799917" lon="16.0789633"><ele>676.0</ele><time>2026-04-25T13:34:27.831Z</time></trkpt><trkpt lat="40.679915" lon="16.078915"><ele>679.8</ele><time>2026-04-25T13:34:28.832Z</time></trkpt><trkpt lat="40.67984" lon="16.0789083"><ele>683.5999999999999</ele><time>2026-04-25T13:34:29.832Z</time></trkpt><trkpt lat="40.6797617" lon="16.07894"><ele>687.4</ele><time>2026-04-25T13:34:30.833Z</time></trkpt><trkpt lat="40.6796717" lon="16.0789933"><ele>691.2</ele><time>2026-04-25T13:34:31.832Z</time></trkpt><trkpt lat="40.67957" lon="16.0790433"><ele>695.0</ele><time>2026-04-25T13:34:32.832Z</time></trkpt><trkpt lat="40.6794717" lon="16.079075"><ele>697.1666666666666</ele><time>2026-04-25T13:34:33.832Z</time></trkpt><trkpt lat="40.6793817" lon="16.0790867"><ele>699.3333333333333</ele><time>2026-04-25T13:34:34.833Z</time></trkpt><trkpt lat="40.679295" lon="16.0790817"><ele>701.5</ele><time>2026-04-25T13:34:35.833Z</time></trkpt><trkpt lat="40.6792283" lon="16.079055"><ele>703.6666666666666</ele><time>2026-04-25T13:34:36.832Z</time></trkpt><trkpt lat="40.6791617" lon="16.0789467"><ele>705.8333333333334</ele><time>2026-04-25T13:34:38.832Z</time></trkpt><trkpt lat="40.6792133" lon="16.0788683"><ele>708.0</ele><time>2026-04-25T13:34:40.833Z</time></trkpt><trkpt lat="40.67928" lon="16.078845"><ele>708.0</ele><time>2026-04-25T13:34:41.832Z</time></trkpt><trkpt lat="40.67937" lon="16.0788217"><ele>708.0</ele><time>2026-04-25T13:34:42.833Z</time></trkpt><trkpt lat="40.679475" lon="16.0787933"><ele>708.0</ele><time>2026-04-25T13:34:43.833Z</time></trkpt><trkpt lat="40.6795833" lon="16.0787567"><ele>708.0</ele><time>2026-04-25T13:34:44.832Z</time></trkpt><trkpt lat="40.6796883" lon="16.078715"><ele>708.0</ele><time>2026-04-25T13:34:45.831Z</time></trkpt><trkpt lat="40.6797917" lon="16.0786733"><ele>705.4</ele><time>2026-04-25T13:34:46.832Z</time></trkpt><trkpt lat="40.67989" lon="16.0786333"><ele>702.8</ele><time>2026-04-25T13:34:47.833Z</time></trkpt><trkpt lat="40.67998" lon="16.078595"><ele>700.2</ele><time>2026-04-25T13:34:48.834Z</time></trkpt><trkpt lat="40.6800633" lon="16.0785533"><ele>697.6</ele><time>2026-04-25T13:34:49.833Z</time></trkpt><trkpt lat="40.6801417" lon="16.078505"><ele>695.0</ele><time>2026-04-25T13:34:50.834Z</time></trkpt><trkpt lat="40.680215" lon="16.0784533"><ele>696.1666666666666</ele><time>2026-04-25T13:34:51.833Z</time></trkpt><trkpt lat="40.68029" lon="16.0783967"><ele>697.3333333333333</ele><time>2026-04-25T13:34:52.833Z</time></trkpt><trkpt lat="40.6803617" lon="16.0783383"><ele>698.5</ele><time>2026-04-25T13:34:53.834Z</time></trkpt><trkpt lat="40.680435" lon="16.0782733"><ele>699.6666666666666</ele><time>2026-04-25T13:34:54.834Z</time></trkpt><trkpt lat="40.6805033" lon="16.0782117"><ele>700.8333333333334</ele><time>2026-04-25T13:34:55.835Z</time></trkpt><trkpt lat="40.6805667" lon="16.0781533"><ele>702.0</ele><time>2026-04-25T13:34:56.834Z</time></trkpt><trkpt lat="40.6806217" lon="16.0781033"><ele>702.0</ele><time>2026-04-25T13:34:57.835Z</time></trkpt><trkpt lat="40.6807117" lon="16.07802"><ele>702.0</ele><time>2026-04-25T13:34:59.834Z</time></trkpt><trkpt lat="40.6806467" lon="16.078025"><ele>702.0</ele><time>2026-04-25T13:35:14.832Z</time></trkpt><trkpt lat="40.6805433" lon="16.0780633"><ele>702.0</ele><time>2026-04-25T13:35:16.832Z</time></trkpt><trkpt lat="40.6804733" lon="16.0780867"><ele>702.0</ele><time>2026-04-25T13:35:17.833Z</time></trkpt><trkpt lat="40.6804" lon="16.07811"><ele>702.0</ele><time>2026-04-25T13:35:18.831Z</time></trkpt><trkpt lat="40.6803217" lon="16.0781383"><ele>704.0</ele><time>2026-04-25T13:35:19.832Z</time></trkpt><trkpt lat="40.6802483" lon="16.0781633"><ele>706.0</ele><time>2026-04-25T13:35:20.833Z</time></trkpt><trkpt lat="40.6801333" lon="16.0781683"><ele>708.0</ele><time>2026-04-25T13:35:22.832Z</time></trkpt><trkpt lat="40.680025" lon="16.0781433"><ele>710.0</ele><time>2026-04-25T13:35:24.832Z</time></trkpt><trkpt lat="40.67993" lon="16.0781067"><ele>712.0</ele><time>2026-04-25T13:35:26.834Z</time></trkpt><trkpt lat="40.6798717" lon="16.0780383"><ele>712.0</ele><time>2026-04-25T13:35:29.831Z</time></trkpt><trkpt lat="40.6798133" lon="16.0779433"><ele>712.0</ele><time>2026-04-25T13:35:36.834Z</time></trkpt><trkpt lat="40.6797783" lon="16.0778333"><ele>712.0</ele><time>2026-04-25T13:35:38.834Z</time></trkpt><trkpt lat="40.6797233" lon="16.077715"><ele>712.0</ele><time>2026-04-25T13:35:40.834Z</time></trkpt><trkpt lat="40.67966" lon="16.077585"><ele>712.0</ele><time>2026-04-25T13:35:42.832Z</time></trkpt><trkpt lat="40.67963" lon="16.0775067"><ele>713.6666666666667</ele><time>2026-04-25T13:35:43.832Z</time></trkpt><trkpt lat="40.6795933" lon="16.0774083"><ele>715.3333333333334</ele><time>2026-04-25T13:35:44.832Z</time></trkpt><trkpt lat="40.6795517" lon="16.07731"><ele>717.0</ele><time>2026-04-25T13:35:45.832Z</time></trkpt><trkpt lat="40.6795117" lon="16.07723"><ele>718.6666666666666</ele><time>2026-04-25T13:35:46.832Z</time></trkpt><trkpt lat="40.67947" lon="16.0771567"><ele>720.3333333333333</ele><time>2026-04-25T13:35:47.833Z</time></trkpt><trkpt lat="40.6794183" lon="16.077075"><ele>722.0</ele><time>2026-04-25T13:35:48.834Z</time></trkpt><trkpt lat="40.6793583" lon="16.0769917"><ele>722.6</ele><time>2026-04-25T13:35:49.835Z</time></trkpt><trkpt lat="40.6792933" lon="16.0768983"><ele>723.2</ele><time>2026-04-25T13:35:50.833Z</time></trkpt><trkpt lat="40.6792283" lon="16.0767967"><ele>723.8</ele><time>2026-04-25T13:35:51.833Z</time></trkpt><trkpt lat="40.6791683" lon="16.07669"><ele>724.4</ele><time>2026-04-25T13:35:52.832Z</time></trkpt><trkpt lat="40.6791117" lon="16.0765817"><ele>725.0</ele><time>2026-04-25T13:35:53.833Z</time></trkpt><trkpt lat="40.6790567" lon="16.07648"><ele>725.8333333333333</ele><time>2026-04-25T13:35:54.832Z</time></trkpt><trkpt lat="40.679005" lon="16.076395"><ele>726.6666666666666</ele><time>2026-04-25T13:35:55.833Z</time></trkpt><trkpt lat="40.678945" lon="16.0763283"><ele>727.5</ele><time>2026-04-25T13:35:56.834Z</time></trkpt><trkpt lat="40.678875" lon="16.0762783"><ele>728.3333333333334</ele><time>2026-04-25T13:35:57.832Z</time></trkpt><trkpt lat="40.678795" lon="16.0762383"><ele>729.1666666666667</ele><time>2026-04-25T13:35:58.832Z</time></trkpt><trkpt lat="40.6787133" lon="16.0761967"><ele>730.0</ele><time>2026-04-25T13:35:59.832Z</time></trkpt><trkpt lat="40.678635" lon="16.0761467"><ele>730.6666666666667</ele><time>2026-04-25T13:36:00.833Z</time></trkpt><trkpt lat="40.6785617" lon="16.0760867"><ele>731.3333333333334</ele><time>2026-04-25T13:36:01.834Z</time></trkpt><trkpt lat="40.6785" lon="16.0760067"><ele>732.0</ele><time>2026-04-25T13:36:02.833Z</time></trkpt><trkpt lat="40.6784517" lon="16.07591"><ele>732.6666666666666</ele><time>2026-04-25T13:36:03.833Z</time></trkpt><trkpt lat="40.6784117" lon="16.0758167"><ele>733.3333333333333</ele><time>2026-04-25T13:36:04.832Z</time></trkpt><trkpt lat="40.6783833" lon="16.075735"><ele>734.0</ele><time>2026-04-25T13:36:05.832Z</time></trkpt><trkpt lat="40.67836" lon="16.0756083"><ele>734.5</ele><time>2026-04-25T13:36:07.833Z</time></trkpt><trkpt lat="40.6783817" lon="16.0754783"><ele>735.0</ele><time>2026-04-25T13:36:09.831Z</time></trkpt><trkpt lat="40.6784133" lon="16.0753933"><ele>735.5</ele><time>2026-04-25T13:36:10.831Z</time></trkpt><trkpt lat="40.6784567" lon="16.0753083"><ele>736.0</ele><time>2026-04-25T13:36:11.832Z</time></trkpt><trkpt lat="40.6785117" lon="16.0752233"><ele>736.5</ele><time>2026-04-25T13:36:12.832Z</time></trkpt><trkpt lat="40.6785667" lon="16.0751433"><ele>737.0</ele><time>2026-04-25T13:36:13.833Z</time></trkpt><trkpt lat="40.6786183" lon="16.07507"><ele>737.5</ele><time>2026-04-25T13:36:14.834Z</time></trkpt><trkpt lat="40.67866" lon="16.075005"><ele>738.0</ele><time>2026-04-25T13:36:15.831Z</time></trkpt><trkpt lat="40.67873" lon="16.0748767"><ele>738.5</ele><time>2026-04-25T13:36:17.832Z</time></trkpt><trkpt lat="40.6787967" lon="16.0748"><ele>739.0</ele><time>2026-04-25T13:36:19.833Z</time></trkpt><trkpt lat="40.6788433" lon="16.074735"><ele>739.5</ele><time>2026-04-25T13:36:22.834Z</time></trkpt><trkpt lat="40.67877" lon="16.07479"><ele>740.0</ele><time>2026-04-25T13:36:26.833Z</time></trkpt><trkpt lat="40.6787167" lon="16.0749017"><ele>740.0</ele><time>2026-04-25T13:36:28.832Z</time></trkpt><trkpt lat="40.67867" lon="16.0749617"><ele>740.0</ele><time>2026-04-25T13:36:30.833Z</time></trkpt><trkpt lat="40.6787317" lon="16.0748483"><ele>740.0</ele><time>2026-04-25T13:58:02.831Z</time></trkpt><trkpt lat="40.6787767" lon="16.0747783"><ele>740.0</ele><time>2026-04-25T13:58:03.832Z</time></trkpt><trkpt lat="40.6788283" lon="16.0746967"><ele>740.0</ele><time>2026-04-25T13:58:04.832Z</time></trkpt><trkpt lat="40.678875" lon="16.0746167"><ele>740.0</ele><time>2026-04-25T13:58:05.832Z</time></trkpt><trkpt lat="40.6789" lon="16.0745367"><ele>741.4</ele><time>2026-04-25T13:58:06.832Z</time></trkpt><trkpt lat="40.6788917" lon="16.0744083"><ele>742.8</ele><time>2026-04-25T13:58:08.833Z</time></trkpt><trkpt lat="40.67894" lon="16.0742933"><ele>744.2</ele><time>2026-04-25T13:58:10.832Z</time></trkpt><trkpt lat="40.679" lon="16.0741683"><ele>745.6</ele><time>2026-04-25T13:58:12.832Z</time></trkpt><trkpt lat="40.6789717" lon="16.0740617"><ele>747.0</ele><time>2026-04-25T13:58:14.832Z</time></trkpt><trkpt lat="40.6789067" lon="16.073975"><ele>748.1666666666666</ele><time>2026-04-25T13:58:17.833Z</time></trkpt><trkpt lat="40.6788583" lon="16.0738867"><ele>749.3333333333334</ele><time>2026-04-25T13:58:19.832Z</time></trkpt><trkpt lat="40.678855" lon="16.0737733"><ele>750.5</ele><time>2026-04-25T13:58:21.832Z</time></trkpt><trkpt lat="40.6788733" lon="16.0736283"><ele>751.6666666666667</ele><time>2026-04-25T13:58:23.832Z</time></trkpt><trkpt lat="40.6788517" lon="16.0735483"><ele>752.8333333333334</ele><time>2026-04-25T13:58:24.831Z</time></trkpt><trkpt lat="40.6788133" lon="16.0734433"><ele>754.0</ele><time>2026-04-25T13:58:25.831Z</time></trkpt><trkpt lat="40.6787633" lon="16.07331"><ele>754.5</ele><time>2026-04-25T13:58:26.832Z</time></trkpt><trkpt lat="40.6787083" lon="16.0731567"><ele>755.0</ele><time>2026-04-25T13:58:27.831Z</time></trkpt><trkpt lat="40.67865" lon="16.0729983"><ele>755.5</ele><time>2026-04-25T13:58:28.831Z</time></trkpt><trkpt lat="40.6785967" lon="16.0728567"><ele>756.0</ele><time>2026-04-25T13:58:29.831Z</time></trkpt><trkpt lat="40.6785433" lon="16.072735"><ele>753.0</ele><time>2026-04-25T13:58:30.831Z</time></trkpt><trkpt lat="40.6784883" lon="16.0726367"><ele>750.0</ele><time>2026-04-25T13:58:31.832Z</time></trkpt><trkpt lat="40.67842" lon="16.0725617"><ele>747.0</ele><time>2026-04-25T13:58:32.832Z</time></trkpt><trkpt lat="40.6783433" lon="16.07251"><ele>744.0</ele><time>2026-04-25T13:58:33.831Z</time></trkpt><trkpt lat="40.67825" lon="16.0724867"><ele>741.0</ele><time>2026-04-25T13:58:34.837Z</time></trkpt><trkpt lat="40.6781617" lon="16.07248"><ele>741.0</ele><time>2026-04-25T13:58:35.832Z</time></trkpt><trkpt lat="40.6780917" lon="16.07247"><ele>741.0</ele><time>2026-04-25T13:58:36.831Z</time></trkpt><trkpt lat="40.6779933" lon="16.072445"><ele>741.0</ele><time>2026-04-25T13:58:38.831Z</time></trkpt><trkpt lat="40.67795" lon="16.0725117"><ele>741.0</ele><time>2026-04-25T13:58:41.831Z</time></trkpt><trkpt lat="40.6779817" lon="16.072665"><ele>741.0</ele><time>2026-04-25T13:58:43.831Z</time></trkpt><trkpt lat="40.678005" lon="16.0727633"><ele>741.0</ele><time>2026-04-25T13:58:44.831Z</time></trkpt><trkpt lat="40.678025" lon="16.072855"><ele>741.0</ele><time>2026-04-25T13:58:45.831Z</time></trkpt><trkpt lat="40.6780683" lon="16.0729683"><ele>741.0</ele><time>2026-04-25T13:58:47.833Z</time></trkpt><trkpt lat="40.6781417" lon="16.072945"><ele>741.0</ele><time>2026-04-25T13:58:50.832Z</time></trkpt><trkpt lat="40.6780917" lon="16.0727917"><ele>741.0</ele><time>2026-04-25T14:00:40.832Z</time></trkpt><trkpt lat="40.6780217" lon="16.072715"><ele>741.0</ele><time>2026-04-25T14:00:42.832Z</time></trkpt><trkpt lat="40.6779767" lon="16.072615"><ele>741.0</ele><time>2026-04-25T14:00:44.832Z</time></trkpt><trkpt lat="40.6779733" lon="16.0725317"><ele>741.0</ele><time>2026-04-25T14:00:46.832Z</time></trkpt><trkpt lat="40.6779633" lon="16.0724367"><ele>741.0</ele><time>2026-04-25T14:01:21.833Z</time></trkpt><trkpt lat="40.6779467" lon="16.0723067"><ele>741.0</ele><time>2026-04-25T14:01:23.833Z</time></trkpt><trkpt lat="40.6779467" lon="16.0722217"><ele>741.0</ele><time>2026-04-25T14:01:24.833Z</time></trkpt><trkpt lat="40.6779383" lon="16.07212"><ele>741.0</ele><time>2026-04-25T14:01:25.831Z</time></trkpt><trkpt lat="40.6779067" lon="16.071985"><ele>741.0</ele><time>2026-04-25T14:01:26.833Z</time></trkpt><trkpt lat="40.6778833" lon="16.071835"><ele>741.0</ele><time>2026-04-25T14:01:27.833Z</time></trkpt><trkpt lat="40.6778833" lon="16.071675"><ele>741.0</ele><time>2026-04-25T14:01:28.833Z</time></trkpt><trkpt lat="40.6779017" lon="16.0715217"><ele>741.0</ele><time>2026-04-25T14:01:29.833Z</time></trkpt><trkpt lat="40.67792" lon="16.07138"><ele>740.8</ele><time>2026-04-25T14:01:30.831Z</time></trkpt><trkpt lat="40.6779233" lon="16.0712533"><ele>740.5999999999999</ele><time>2026-04-25T14:01:31.832Z</time></trkpt><trkpt lat="40.6779033" lon="16.0711367"><ele>740.4</ele><time>2026-04-25T14:01:32.833Z</time></trkpt><trkpt lat="40.6778617" lon="16.071025"><ele>740.2</ele><time>2026-04-25T14:01:33.833Z</time></trkpt><trkpt lat="40.6777833" lon="16.0709"><ele>740.0</ele><time>2026-04-25T14:01:34.832Z</time></trkpt><trkpt lat="40.6776833" lon="16.0707467"><ele>734.6666666666666</ele><time>2026-04-25T14:01:35.832Z</time></trkpt><trkpt lat="40.677575" lon="16.0705683"><ele>729.3333333333334</ele><time>2026-04-25T14:01:36.831Z</time></trkpt><trkpt lat="40.6774717" lon="16.0703933"><ele>724.0</ele><time>2026-04-25T14:01:37.833Z</time></trkpt><trkpt lat="40.677375" lon="16.0702267"><ele>724.0</ele><time>2026-04-25T14:01:38.833Z</time></trkpt><trkpt lat="40.677285" lon="16.0700667"><ele>724.0</ele><time>2026-04-25T14:01:39.831Z</time></trkpt><trkpt lat="40.6772017" lon="16.069915"><ele>724.0</ele><time>2026-04-25T14:01:40.833Z</time></trkpt><trkpt lat="40.6771283" lon="16.0697683"><ele>724.0</ele><time>2026-04-25T14:01:41.831Z</time></trkpt><trkpt lat="40.6770683" lon="16.0696233"><ele>723.0</ele><time>2026-04-25T14:01:42.832Z</time></trkpt><trkpt lat="40.6770233" lon="16.0694817"><ele>722.0</ele><time>2026-04-25T14:01:43.832Z</time></trkpt><trkpt lat="40.6769883" lon="16.0693417"><ele>721.0</ele><time>2026-04-25T14:01:44.832Z</time></trkpt><trkpt lat="40.67696" lon="16.0692133"><ele>720.0</ele><time>2026-04-25T14:01:45.832Z</time></trkpt><trkpt lat="40.6769283" lon="16.0691133"><ele>719.0</ele><time>2026-04-25T14:01:46.832Z</time></trkpt><trkpt lat="40.6768833" lon="16.069045"><ele>716.6666666666666</ele><time>2026-04-25T14:01:47.831Z</time></trkpt><trkpt lat="40.6768167" lon="16.0690083"><ele>714.3333333333333</ele><time>2026-04-25T14:01:48.832Z</time></trkpt><trkpt lat="40.676735" lon="16.06902"><ele>712.0</ele><time>2026-04-25T14:01:49.833Z</time></trkpt><trkpt lat="40.6766517" lon="16.06907"><ele>709.6666666666666</ele><time>2026-04-25T14:01:50.834Z</time></trkpt><trkpt lat="40.6765733" lon="16.0691283"><ele>707.3333333333334</ele><time>2026-04-25T14:01:51.831Z</time></trkpt><trkpt lat="40.6764967" lon="16.0691633"><ele>705.0</ele><time>2026-04-25T14:01:52.832Z</time></trkpt><trkpt lat="40.6764183" lon="16.0691617"><ele>705.0</ele><time>2026-04-25T14:01:53.832Z</time></trkpt><trkpt lat="40.6763267" lon="16.06911"><ele>705.0</ele><time>2026-04-25T14:01:54.832Z</time></trkpt><trkpt lat="40.676225" lon="16.0690117"><ele>705.0</ele><time>2026-04-25T14:01:55.832Z</time></trkpt><trkpt lat="40.6761267" lon="16.06891"><ele>705.0</ele><time>2026-04-25T14:01:56.833Z</time></trkpt><trkpt lat="40.6760333" lon="16.0688217"><ele>701.2</ele><time>2026-04-25T14:01:57.832Z</time></trkpt><trkpt lat="40.675945" lon="16.0687417"><ele>697.4</ele><time>2026-04-25T14:01:58.832Z</time></trkpt><trkpt lat="40.6758717" lon="16.0686533"><ele>693.5999999999999</ele><time>2026-04-25T14:01:59.833Z</time></trkpt><trkpt lat="40.6758217" lon="16.0685533"><ele>689.8</ele><time>2026-04-25T14:02:00.834Z</time></trkpt><trkpt lat="40.6757933" lon="16.0684517"><ele>686.0</ele><time>2026-04-25T14:02:01.833Z</time></trkpt><trkpt lat="40.6757633" lon="16.0683667"><ele>686.0</ele><time>2026-04-25T14:02:02.833Z</time></trkpt><trkpt lat="40.6756567" lon="16.0682983"><ele>686.0</ele><time>2026-04-25T14:02:04.832Z</time></trkpt><trkpt lat="40.67559" lon="16.0683217"><ele>686.0</ele><time>2026-04-25T14:02:05.832Z</time></trkpt><trkpt lat="40.6755233" lon="16.0683617"><ele>686.0</ele><time>2026-04-25T14:02:06.831Z</time></trkpt><trkpt lat="40.6754567" lon="16.0684067"><ele>686.0</ele><time>2026-04-25T14:02:07.832Z</time></trkpt><trkpt lat="40.6753883" lon="16.0684533"><ele>686.0</ele><time>2026-04-25T14:02:08.832Z</time></trkpt><trkpt lat="40.675325" lon="16.06849"><ele>682.5999999999999</ele><time>2026-04-25T14:02:09.833Z</time></trkpt><trkpt lat="40.67521" lon="16.068485"><ele>679.2</ele><time>2026-04-25T14:02:11.833Z</time></trkpt><trkpt lat="40.6751483" lon="16.0683833"><ele>675.8</ele><time>2026-04-25T14:02:13.832Z</time></trkpt><trkpt lat="40.6751517" lon="16.0682433"><ele>672.4000000000001</ele><time>2026-04-25T14:02:15.835Z</time></trkpt><trkpt lat="40.6751617" lon="16.0681317"><ele>669.0</ele><time>2026-04-25T14:02:17.832Z</time></trkpt><trkpt lat="40.6751633" lon="16.06803"><ele>667.8333333333334</ele><time>2026-04-25T14:02:19.832Z</time></trkpt><trkpt lat="40.6751567" lon="16.0679033"><ele>666.6666666666666</ele><time>2026-04-25T14:02:21.832Z</time></trkpt><trkpt lat="40.6751683" lon="16.0677517"><ele>665.5</ele><time>2026-04-25T14:02:23.832Z</time></trkpt><trkpt lat="40.67518" lon="16.067665"><ele>664.3333333333333</ele><time>2026-04-25T14:02:24.832Z</time></trkpt><trkpt lat="40.67519" lon="16.0675733"><ele>663.1666666666666</ele><time>2026-04-25T14:02:25.831Z</time></trkpt><trkpt lat="40.6751983" lon="16.0674717"><ele>662.0</ele><time>2026-04-25T14:02:26.832Z</time></trkpt><trkpt lat="40.6752067" lon="16.06736"><ele>660.0</ele><time>2026-04-25T14:02:27.832Z</time></trkpt><trkpt lat="40.6752183" lon="16.0672383"><ele>658.0</ele><time>2026-04-25T14:02:28.834Z</time></trkpt><trkpt lat="40.67523" lon="16.067115"><ele>656.0</ele><time>2026-04-25T14:02:29.833Z</time></trkpt><trkpt lat="40.675245" lon="16.0669867"><ele>654.0</ele><time>2026-04-25T14:02:30.832Z</time></trkpt><trkpt lat="40.6752583" lon="16.066855"><ele>652.0</ele><time>2026-04-25T14:02:31.832Z</time></trkpt><trkpt lat="40.6752733" lon="16.06672"><ele>654.6666666666667</ele><time>2026-04-25T14:02:32.832Z</time></trkpt><trkpt lat="40.675285" lon="16.06659"><ele>657.3333333333334</ele><time>2026-04-25T14:02:33.832Z</time></trkpt><trkpt lat="40.6752983" lon="16.0664667"><ele>660.0</ele><time>2026-04-25T14:02:34.832Z</time></trkpt><trkpt lat="40.6753083" lon="16.0663533"><ele>662.6666666666666</ele><time>2026-04-25T14:02:35.832Z</time></trkpt><trkpt lat="40.675315" lon="16.0662533"><ele>665.3333333333333</ele><time>2026-04-25T14:02:36.832Z</time></trkpt><trkpt lat="40.67532" lon="16.06617"><ele>668.0</ele><time>2026-04-25T14:02:37.832Z</time></trkpt><trkpt lat="40.6753217" lon="16.0660483"><ele>664.1666666666666</ele><time>2026-04-25T14:02:39.833Z</time></trkpt><trkpt lat="40.6752533" lon="16.06598"><ele>660.3333333333333</ele><time>2026-04-25T14:02:53.832Z</time></trkpt><trkpt lat="40.6751967" lon="16.065925"><ele>656.5</ele><time>2026-04-25T14:02:55.832Z</time></trkpt><trkpt lat="40.6751333" lon="16.0658333"><ele>652.6666666666666</ele><time>2026-04-25T14:02:58.833Z</time></trkpt><trkpt lat="40.6750883" lon="16.06576"><ele>648.8333333333334</ele><time>2026-04-25T14:03:00.832Z</time></trkpt><trkpt lat="40.67503" lon="16.06568"><ele>645.0</ele><time>2026-04-25T14:03:02.833Z</time></trkpt><trkpt lat="40.67496" lon="16.0656083"><ele>644.4</ele><time>2026-04-25T14:03:04.832Z</time></trkpt><trkpt lat="40.6748783" lon="16.06556"><ele>643.8</ele><time>2026-04-25T14:03:06.831Z</time></trkpt><trkpt lat="40.6747967" lon="16.0655433"><ele>643.2</ele><time>2026-04-25T14:03:08.832Z</time></trkpt><trkpt lat="40.6747117" lon="16.06553"><ele>642.6</ele><time>2026-04-25T14:03:10.834Z</time></trkpt><trkpt lat="40.67463" lon="16.0654633"><ele>642.0</ele><time>2026-04-25T14:03:12.832Z</time></trkpt><trkpt lat="40.6745717" lon="16.0653533"><ele>642.0</ele><time>2026-04-25T14:03:14.832Z</time></trkpt><trkpt lat="40.6745317" lon="16.065215"><ele>642.0</ele><time>2026-04-25T14:03:16.832Z</time></trkpt><trkpt lat="40.6745117" lon="16.065095"><ele>642.0</ele><time>2026-04-25T14:03:18.831Z</time></trkpt><trkpt lat="40.674485" lon="16.0649733"><ele>642.0</ele><time>2026-04-25T14:03:20.833Z</time></trkpt><trkpt lat="40.6744283" lon="16.0648883"><ele>642.0</ele><time>2026-04-25T14:03:22.833Z</time></trkpt><trkpt lat="40.6743533" lon="16.064855"><ele>637.0</ele><time>2026-04-25T14:03:24.833Z</time></trkpt><trkpt lat="40.674265" lon="16.064845"><ele>632.0</ele><time>2026-04-25T14:03:26.834Z</time></trkpt><trkpt lat="40.6741583" lon="16.0647983"><ele>627.0</ele><time>2026-04-25T14:03:28.833Z</time></trkpt><trkpt lat="40.6740733" lon="16.0646983"><ele>622.0</ele><time>2026-04-25T14:03:30.833Z</time></trkpt><trkpt lat="40.674005" lon="16.0645933"><ele>617.0</ele><time>2026-04-25T14:03:32.833Z</time></trkpt><trkpt lat="40.67394" lon="16.0645217"><ele>617.0</ele><time>2026-04-25T14:03:34.833Z</time></trkpt><trkpt lat="40.6738767" lon="16.0644633"><ele>617.0</ele><time>2026-04-25T14:03:36.832Z</time></trkpt><trkpt lat="40.6738117" lon="16.0643983"><ele>617.0</ele><time>2026-04-25T14:03:38.834Z</time></trkpt><trkpt lat="40.673745" lon="16.064315"><ele>617.0</ele><time>2026-04-25T14:03:40.834Z</time></trkpt><trkpt lat="40.6736733" lon="16.0642633"><ele>617.0</ele><time>2026-04-25T14:03:42.832Z</time></trkpt><trkpt lat="40.6736017" lon="16.0642317"><ele>617.0</ele><time>2026-04-25T14:03:44.833Z</time></trkpt><trkpt lat="40.6735133" lon="16.0641967"><ele>615.0</ele><time>2026-04-25T14:03:47.832Z</time></trkpt><trkpt lat="40.6734417" lon="16.0641667"><ele>613.0</ele><time>2026-04-25T14:03:49.832Z</time></trkpt><trkpt lat="40.6733733" lon="16.06414"><ele>611.0</ele><time>2026-04-25T14:03:51.832Z</time></trkpt><trkpt lat="40.673305" lon="16.0641133"><ele>609.0</ele><time>2026-04-25T14:03:53.833Z</time></trkpt><trkpt lat="40.6732383" lon="16.064095"><ele>607.0</ele><time>2026-04-25T14:03:55.832Z</time></trkpt><trkpt lat="40.6731667" lon="16.064075"><ele>605.0</ele><time>2026-04-25T14:03:57.833Z</time></trkpt><trkpt lat="40.6730867" lon="16.0640483"><ele>603.0</ele><time>2026-04-25T14:03:59.834Z</time></trkpt><trkpt lat="40.673" lon="16.064025"><ele>601.8</ele><time>2026-04-25T14:04:01.832Z</time></trkpt><trkpt lat="40.6729183" lon="16.0640133"><ele>600.5999999999999</ele><time>2026-04-25T14:04:03.832Z</time></trkpt><trkpt lat="40.6728233" lon="16.0639933"><ele>599.4000000000001</ele><time>2026-04-25T14:04:05.833Z</time></trkpt><trkpt lat="40.6727267" lon="16.0639417"><ele>598.2</ele><time>2026-04-25T14:04:07.832Z</time></trkpt><trkpt lat="40.672645" lon="16.0638833"><ele>597.0</ele><time>2026-04-25T14:04:09.832Z</time></trkpt><trkpt lat="40.6725767" lon="16.0638333"><ele>595.0</ele><time>2026-04-25T14:04:11.832Z</time></trkpt><trkpt lat="40.67251" lon="16.06381"><ele>593.0</ele><time>2026-04-25T14:04:13.832Z</time></trkpt><trkpt lat="40.6724433" lon="16.0638367"><ele>591.0</ele><time>2026-04-25T14:04:15.832Z</time></trkpt><trkpt lat="40.6723767" lon="16.0639083"><ele>589.0</ele><time>2026-04-25T14:04:17.833Z</time></trkpt><trkpt lat="40.6723" lon="16.0639767"><ele>587.0</ele><time>2026-04-25T14:04:19.832Z</time></trkpt><trkpt lat="40.6722267" lon="16.063985"><ele>585.0</ele><time>2026-04-25T14:04:21.832Z</time></trkpt><trkpt lat="40.6721783" lon="16.063925"><ele>585.0</ele><time>2026-04-25T14:04:23.834Z</time></trkpt><trkpt lat="40.6721667" lon="16.0638333"><ele>585.0</ele><time>2026-04-25T14:04:25.833Z</time></trkpt><trkpt lat="40.672155" lon="16.063725"><ele>585.0</ele><time>2026-04-25T14:04:27.832Z</time></trkpt><trkpt lat="40.672115" lon="16.0636367"><ele>585.0</ele><time>2026-04-25T14:04:29.832Z</time></trkpt><trkpt lat="40.6720317" lon="16.0635667"><ele>585.0</ele><time>2026-04-25T14:04:31.832Z</time></trkpt><trkpt lat="40.6719517" lon="16.0635183"><ele>585.0</ele><time>2026-04-25T14:04:33.831Z</time></trkpt><trkpt lat="40.6719" lon="16.0634467"><ele>584.6666666666666</ele><time>2026-04-25T14:04:36.832Z</time></trkpt><trkpt lat="40.6718433" lon="16.06336"><ele>584.3333333333334</ele><time>2026-04-25T14:06:15.833Z</time></trkpt><trkpt lat="40.6717783" lon="16.0633233"><ele>584.0</ele><time>2026-04-25T14:06:20.833Z</time></trkpt><trkpt lat="40.6717333" lon="16.063245"><ele>583.6666666666667</ele><time>2026-04-25T14:06:24.832Z</time></trkpt><trkpt lat="40.6716983" lon="16.0631183"><ele>583.3333333333334</ele><time>2026-04-25T14:06:42.83Z</time></trkpt><trkpt lat="40.671715" lon="16.0629967"><ele>583.0</ele><time>2026-04-25T14:06:44.834Z</time></trkpt><trkpt lat="40.6717317" lon="16.062915"><ele>585.0</ele><time>2026-04-25T14:06:45.831Z</time></trkpt><trkpt lat="40.67175" lon="16.0627917"><ele>587.0</ele><time>2026-04-25T14:06:46.833Z</time></trkpt><trkpt lat="40.6717733" lon="16.0626467"><ele>589.0</ele><time>2026-04-25T14:06:47.833Z</time></trkpt><trkpt lat="40.6717833" lon="16.0624867"><ele>591.0</ele><time>2026-04-25T14:06:48.832Z</time></trkpt><trkpt lat="40.671795" lon="16.0623067"><ele>591.8</ele><time>2026-04-25T14:06:49.832Z</time></trkpt><trkpt lat="40.6717983" lon="16.0621783"><ele>592.6</ele><time>2026-04-25T14:06:50.832Z</time></trkpt><trkpt lat="40.6717967" lon="16.0620933"><ele>593.4</ele><time>2026-04-25T14:06:51.832Z</time></trkpt><trkpt lat="40.6717417" lon="16.06201"><ele>594.2</ele><time>2026-04-25T14:06:53.831Z</time></trkpt><trkpt lat="40.6716383" lon="16.06199"><ele>595.0</ele><time>2026-04-25T14:06:55.831Z</time></trkpt><trkpt lat="40.6715183" lon="16.061935"><ele>595.0</ele><time>2026-04-25T14:06:57.833Z</time></trkpt><trkpt lat="40.6714467" lon="16.0619267"><ele>595.0</ele><time>2026-04-25T14:06:58.831Z</time></trkpt><trkpt lat="40.67137" lon="16.0619383"><ele>595.0</ele><time>2026-04-25T14:06:59.832Z</time></trkpt><trkpt lat="40.6712833" lon="16.061965"><ele>595.0</ele><time>2026-04-25T14:07:00.832Z</time></trkpt><trkpt lat="40.6712017" lon="16.0620217"><ele>595.0</ele><time>2026-04-25T14:07:01.832Z</time></trkpt><trkpt lat="40.6711317" lon="16.0620917"><ele>595.0</ele><time>2026-04-25T14:07:02.832Z</time></trkpt><trkpt lat="40.6710633" lon="16.0621817"><ele>599.2</ele><time>2026-04-25T14:07:03.831Z</time></trkpt><trkpt lat="40.6709917" lon="16.0622583"><ele>603.4</ele><time>2026-04-25T14:07:04.831Z</time></trkpt><trkpt lat="40.670905" lon="16.062335"><ele>607.6</ele><time>2026-04-25T14:07:05.831Z</time></trkpt><trkpt lat="40.6708183" lon="16.062395"><ele>611.8</ele><time>2026-04-25T14:07:06.832Z</time></trkpt><trkpt lat="40.670735" lon="16.0624333"><ele>616.0</ele><time>2026-04-25T14:07:07.833Z</time></trkpt><trkpt lat="40.670655" lon="16.0624433"><ele>616.0</ele><time>2026-04-25T14:07:08.833Z</time></trkpt><trkpt lat="40.6705817" lon="16.0624333"><ele>616.0</ele><time>2026-04-25T14:07:09.831Z</time></trkpt><trkpt lat="40.6705267" lon="16.0623883"><ele>616.0</ele><time>2026-04-25T14:07:10.832Z</time></trkpt><trkpt lat="40.6704667" lon="16.0622117"><ele>616.0</ele><time>2026-04-25T14:07:12.831Z</time></trkpt><trkpt lat="40.67044" lon="16.0620867"><ele>616.0</ele><time>2026-04-25T14:07:13.833Z</time></trkpt><trkpt lat="40.6703967" lon="16.06193"><ele>616.0</ele><time>2026-04-25T14:07:14.833Z</time></trkpt><trkpt lat="40.670335" lon="16.0617917"><ele>616.0</ele><time>2026-04-25T14:07:15.832Z</time></trkpt><trkpt lat="40.6702567" lon="16.0616467"><ele>616.0</ele><time>2026-04-25T14:07:16.831Z</time></trkpt><trkpt lat="40.67019" lon="16.0615067"><ele>616.0</ele><time>2026-04-25T14:07:17.832Z</time></trkpt><trkpt lat="40.6701233" lon="16.06137"><ele>620.4</ele><time>2026-04-25T14:07:18.831Z</time></trkpt><trkpt lat="40.6700533" lon="16.0612483"><ele>624.8</ele><time>2026-04-25T14:07:19.831Z</time></trkpt><trkpt lat="40.669985" lon="16.06115"><ele>629.1999999999999</ele><time>2026-04-25T14:07:20.832Z</time></trkpt><trkpt lat="40.66989" lon="16.0610783"><ele>633.6</ele><time>2026-04-25T14:07:21.831Z</time></trkpt><trkpt lat="40.6697983" lon="16.0610167"><ele>638.0</ele><time>2026-04-25T14:07:22.831Z</time></trkpt><trkpt lat="40.6696667" lon="16.0609717"><ele>638.0</ele><time>2026-04-25T14:07:23.832Z</time></trkpt><trkpt lat="40.6695317" lon="16.0609467"><ele>638.0</ele><time>2026-04-25T14:07:24.832Z</time></trkpt><trkpt lat="40.6693967" lon="16.0609267"><ele>638.0</ele><time>2026-04-25T14:07:25.832Z</time></trkpt><trkpt lat="40.66928" lon="16.0609217"><ele>638.0</ele><time>2026-04-25T14:07:26.834Z</time></trkpt><trkpt lat="40.669175" lon="16.0609233"><ele>642.0</ele><time>2026-04-25T14:07:27.831Z</time></trkpt><trkpt lat="40.669085" lon="16.0609483"><ele>646.0</ele><time>2026-04-25T14:07:28.832Z</time></trkpt><trkpt lat="40.6690065" lon="16.0609884"><ele>650.0</ele><time>2026-04-25T14:07:29.832Z</time></trkpt><trkpt lat="40.6689353" lon="16.0610566"><ele>654.0</ele><time>2026-04-25T14:07:30.832Z</time></trkpt><trkpt lat="40.6688557" lon="16.0611399"><ele>658.0</ele><time>2026-04-25T14:07:31.833Z</time></trkpt><trkpt lat="40.668772" lon="16.0611971"><ele>658.0</ele><time>2026-04-25T14:07:32.833Z</time></trkpt><trkpt lat="40.6686833" lon="16.0612383"><ele>658.0</ele><time>2026-04-25T14:07:33.831Z</time></trkpt><trkpt lat="40.6686033" lon="16.0612617"><ele>658.0</ele><time>2026-04-25T14:07:34.833Z</time></trkpt><trkpt lat="40.6685317" lon="16.0612767"><ele>658.0</ele><time>2026-04-25T14:07:35.833Z</time></trkpt><trkpt lat="40.66844" lon="16.0612867"><ele>658.0</ele><time>2026-04-25T14:07:36.833Z</time></trkpt><trkpt lat="40.668325" lon="16.0612883"><ele>661.5</ele><time>2026-04-25T14:07:37.832Z</time></trkpt><trkpt lat="40.6682362" lon="16.0612978"><ele>665.0</ele><time>2026-04-25T14:07:38.832Z</time></trkpt><trkpt lat="40.6681564" lon="16.0612861"><ele>668.5</ele><time>2026-04-25T14:07:39.831Z</time></trkpt><trkpt lat="40.6680936" lon="16.0612602"><ele>672.0</ele><time>2026-04-25T14:07:40.831Z</time></trkpt><trkpt lat="40.6680293" lon="16.0611542"><ele>675.5</ele><time>2026-04-25T14:07:42.831Z</time></trkpt><trkpt lat="40.6680311" lon="16.0610667"><ele>679.0</ele><time>2026-04-25T14:07:43.831Z</time></trkpt><trkpt lat="40.6680474" lon="16.0609623"><ele>679.0</ele><time>2026-04-25T14:07:44.834Z</time></trkpt><trkpt lat="40.6680558" lon="16.0608438"><ele>679.0</ele><time>2026-04-25T14:07:45.831Z</time></trkpt><trkpt lat="40.6680614" lon="16.0607137"><ele>679.0</ele><time>2026-04-25T14:07:46.833Z</time></trkpt><trkpt lat="40.6680433" lon="16.060573"><ele>679.0</ele><time>2026-04-25T14:07:47.832Z</time></trkpt><trkpt lat="40.6680085" lon="16.0604241"><ele>679.0</ele><time>2026-04-25T14:07:48.832Z</time></trkpt><trkpt lat="40.6679534" lon="16.0602628"><ele>680.4000000000001</ele><time>2026-04-25T14:07:49.835Z</time></trkpt><trkpt lat="40.6678967" lon="16.0601041"><ele>681.8</ele><time>2026-04-25T14:07:50.833Z</time></trkpt><trkpt lat="40.6678384" lon="16.0599726"><ele>683.2</ele><time>2026-04-25T14:07:51.833Z</time></trkpt><trkpt lat="40.6677869" lon="16.0598922"><ele>684.5999999999999</ele><time>2026-04-25T14:07:52.832Z</time></trkpt><trkpt lat="40.66773" lon="16.05985"><ele>686.0</ele><time>2026-04-25T14:07:53.831Z</time></trkpt><trkpt lat="40.6676117" lon="16.0598017"><ele>690.0</ele><time>2026-04-25T14:07:55.832Z</time></trkpt><trkpt lat="40.667545" lon="16.0598333"><ele>694.0</ele><time>2026-04-25T14:07:56.832Z</time></trkpt><trkpt lat="40.667455" lon="16.0599117"><ele>698.0</ele><time>2026-04-25T14:07:57.832Z</time></trkpt><trkpt lat="40.667365" lon="16.0599833"><ele>702.0</ele><time>2026-04-25T14:07:58.832Z</time></trkpt><trkpt lat="40.6672683" lon="16.060055"><ele>706.0</ele><time>2026-04-25T14:07:59.833Z</time></trkpt><trkpt lat="40.6671867" lon="16.0601317"><ele>706.0</ele><time>2026-04-25T14:08:00.832Z</time></trkpt><trkpt lat="40.66712" lon="16.0601933"><ele>706.0</ele><time>2026-04-25T14:08:01.833Z</time></trkpt><trkpt lat="40.6670583" lon="16.06026"><ele>706.0</ele><time>2026-04-25T14:08:02.833Z</time></trkpt><trkpt lat="40.6670083" lon="16.060345"><ele>706.0</ele><time>2026-04-25T14:08:04.832Z</time></trkpt><trkpt lat="40.6669983" lon="16.06043"><ele>706.0</ele><time>2026-04-25T14:08:06.831Z</time></trkpt><trkpt lat="40.6669483" lon="16.06051"><ele>706.0</ele><time>2026-04-25T14:08:17.832Z</time></trkpt><trkpt lat="40.6668817" lon="16.0605633"><ele>707.5</ele><time>2026-04-25T14:08:18.831Z</time></trkpt><trkpt lat="40.66681" lon="16.0606367"><ele>709.0</ele><time>2026-04-25T14:08:19.831Z</time></trkpt><trkpt lat="40.6666917" lon="16.0607467"><ele>710.5</ele><time>2026-04-25T14:08:20.832Z</time></trkpt><trkpt lat="40.666575" lon="16.060875"><ele>712.0</ele><time>2026-04-25T14:08:21.832Z</time></trkpt><trkpt lat="40.6664817" lon="16.0609767"><ele>712.0</ele><time>2026-04-25T14:08:22.832Z</time></trkpt><trkpt lat="40.6664067" lon="16.06108"><ele>712.0</ele><time>2026-04-25T14:08:23.831Z</time></trkpt><trkpt lat="40.66635" lon="16.061185"><ele>712.0</ele><time>2026-04-25T14:08:24.832Z</time></trkpt><trkpt lat="40.666295" lon="16.0612867"><ele>712.0</ele><time>2026-04-25T14:08:25.831Z</time></trkpt><trkpt lat="40.6662417" lon="16.0613467"><ele>712.0</ele><time>2026-04-25T14:08:26.832Z</time></trkpt><trkpt lat="40.6661717" lon="16.0613983"><ele>712.5</ele><time>2026-04-25T14:08:27.831Z</time></trkpt><trkpt lat="40.6661033" lon="16.0614467"><ele>713.0</ele><time>2026-04-25T14:08:28.831Z</time></trkpt><trkpt lat="40.666035" lon="16.0614833"><ele>713.5</ele><time>2026-04-25T14:08:29.832Z</time></trkpt><trkpt lat="40.6659667" lon="16.0615133"><ele>714.0</ele><time>2026-04-25T14:08:30.832Z</time></trkpt><trkpt lat="40.6658883" lon="16.0615583"><ele>714.5</ele><time>2026-04-25T14:08:31.832Z</time></trkpt><trkpt lat="40.66581" lon="16.061605"><ele>715.0</ele><time>2026-04-25T14:08:32.834Z</time></trkpt><trkpt lat="40.6657417" lon="16.0616633"><ele>715.0</ele><time>2026-04-25T14:08:33.831Z</time></trkpt><trkpt lat="40.6656883" lon="16.0617233"><ele>715.0</ele><time>2026-04-25T14:08:34.831Z</time></trkpt><trkpt lat="40.6656633" lon="16.0618"><ele>715.0</ele><time>2026-04-25T14:08:35.831Z</time></trkpt><trkpt lat="40.6656333" lon="16.06194"><ele>715.0</ele><time>2026-04-25T14:08:37.832Z</time></trkpt><trkpt lat="40.66565" lon="16.0620983"><ele>715.0</ele><time>2026-04-25T14:08:39.831Z</time></trkpt><trkpt lat="40.6656367" lon="16.0621917"><ele>715.0</ele><time>2026-04-25T14:08:40.832Z</time></trkpt><trkpt lat="40.6656167" lon="16.0622767"><ele>715.0</ele><time>2026-04-25T14:08:41.832Z</time></trkpt><trkpt lat="40.6655633" lon="16.0624033"><ele>715.0</ele><time>2026-04-25T14:08:43.833Z</time></trkpt><trkpt lat="40.6655067" lon="16.06248"><ele>715.0</ele><time>2026-04-25T14:08:45.831Z</time></trkpt><trkpt lat="40.6654433" lon="16.06258"><ele>715.0</ele><time>2026-04-25T14:08:48.833Z</time></trkpt><trkpt lat="40.66539" lon="16.062655"><ele>715.0</ele><time>2026-04-25T14:08:50.833Z</time></trkpt><trkpt lat="40.6653667" lon="16.0627383"><ele>715.0</ele><time>2026-04-25T14:08:52.831Z</time></trkpt><trkpt lat="40.66536" lon="16.062835"><ele>713.6</ele><time>2026-04-25T14:08:54.832Z</time></trkpt><trkpt lat="40.6653267" lon="16.0629633"><ele>712.2</ele><time>2026-04-25T14:08:56.832Z</time></trkpt><trkpt lat="40.6653083" lon="16.0630517"><ele>710.8</ele><time>2026-04-25T14:08:57.831Z</time></trkpt><trkpt lat="40.6652783" lon="16.0631767"><ele>709.4</ele><time>2026-04-25T14:08:58.832Z</time></trkpt><trkpt lat="40.6652483" lon="16.0633083"><ele>708.0</ele><time>2026-04-25T14:08:59.832Z</time></trkpt><trkpt lat="40.6652333" lon="16.0634117"><ele>711.4</ele><time>2026-04-25T14:09:00.836Z</time></trkpt><trkpt lat="40.66522" lon="16.063505"><ele>714.8</ele><time>2026-04-25T14:09:01.832Z</time></trkpt><trkpt lat="40.6652017" lon="16.0636"><ele>718.2</ele><time>2026-04-25T14:09:02.833Z</time></trkpt><trkpt lat="40.665175" lon="16.06369"><ele>721.6</ele><time>2026-04-25T14:09:04.832Z</time></trkpt><trkpt lat="40.6651467" lon="16.0638133"><ele>725.0</ele><time>2026-04-25T14:09:07.833Z</time></trkpt><trkpt lat="40.6651183" lon="16.0639983"><ele>725.0</ele><time>2026-04-25T14:09:09.832Z</time></trkpt><trkpt lat="40.6651133" lon="16.0641017"><ele>725.0</ele><time>2026-04-25T14:09:10.832Z</time></trkpt><trkpt lat="40.665115" lon="16.0642017"><ele>725.0</ele><time>2026-04-25T14:09:11.833Z</time></trkpt><trkpt lat="40.6651233" lon="16.0643083"><ele>725.0</ele><time>2026-04-25T14:09:12.832Z</time></trkpt><trkpt lat="40.66513" lon="16.064425"><ele>725.0</ele><time>2026-04-25T14:09:13.833Z</time></trkpt><trkpt lat="40.6651467" lon="16.0645383"><ele>725.0</ele><time>2026-04-25T14:09:14.834Z</time></trkpt><trkpt lat="40.66516" lon="16.0646433"><ele>724.5714285714286</ele><time>2026-04-25T14:09:15.832Z</time></trkpt><trkpt lat="40.66517" lon="16.064745"><ele>724.1428571428571</ele><time>2026-04-25T14:09:16.833Z</time></trkpt><trkpt lat="40.665185" lon="16.06483"><ele>723.7142857142858</ele><time>2026-04-25T14:09:17.831Z</time></trkpt><trkpt lat="40.6652067" lon="16.06492"><ele>723.2857142857142</ele><time>2026-04-25T14:09:18.834Z</time></trkpt><trkpt lat="40.66523" lon="16.0650217"><ele>722.8571428571428</ele><time>2026-04-25T14:09:19.832Z</time></trkpt><trkpt lat="40.6652533" lon="16.0651017"><ele>722.4285714285714</ele><time>2026-04-25T14:09:20.834Z</time></trkpt><trkpt lat="40.6652767" lon="16.06518"><ele>722.0</ele><time>2026-04-25T14:09:21.832Z</time></trkpt><trkpt lat="40.6653067" lon="16.0652533"><ele>718.1666666666666</ele><time>2026-04-25T14:09:22.832Z</time></trkpt><trkpt lat="40.66533" lon="16.0653333"><ele>714.3333333333333</ele><time>2026-04-25T14:09:23.832Z</time></trkpt><trkpt lat="40.6653467" lon="16.06543"><ele>710.5</ele><time>2026-04-25T14:09:24.833Z</time></trkpt><trkpt lat="40.665355" lon="16.0655217"><ele>706.6666666666666</ele><time>2026-04-25T14:09:25.834Z</time></trkpt><trkpt lat="40.6653583" lon="16.0656217"><ele>702.8333333333334</ele><time>2026-04-25T14:09:26.833Z</time></trkpt><trkpt lat="40.665365" lon="16.06574"><ele>699.0</ele><time>2026-04-25T14:09:27.832Z</time></trkpt><trkpt lat="40.6653717" lon="16.0658633"><ele>699.0</ele><time>2026-04-25T14:09:28.832Z</time></trkpt><trkpt lat="40.66537" lon="16.0659917"><ele>699.0</ele><time>2026-04-25T14:09:29.831Z</time></trkpt><trkpt lat="40.6653633" lon="16.0661067"><ele>699.0</ele><time>2026-04-25T14:09:30.831Z</time></trkpt><trkpt lat="40.6653583" lon="16.0662083"><ele>699.0</ele><time>2026-04-25T14:09:31.831Z</time></trkpt><trkpt lat="40.6653467" lon="16.0663217"><ele>699.0</ele><time>2026-04-25T14:09:32.833Z</time></trkpt><trkpt lat="40.6653317" lon="16.06643"><ele>699.0</ele><time>2026-04-25T14:09:33.833Z</time></trkpt><trkpt lat="40.6653167" lon="16.0665183"><ele>697.8333333333334</ele><time>2026-04-25T14:09:34.832Z</time></trkpt><trkpt lat="40.6652867" lon="16.0666117"><ele>696.6666666666666</ele><time>2026-04-25T14:09:35.831Z</time></trkpt><trkpt lat="40.6652433" lon="16.0667117"><ele>695.5</ele><time>2026-04-25T14:09:36.832Z</time></trkpt><trkpt lat="40.665185" lon="16.06681"><ele>694.3333333333333</ele><time>2026-04-25T14:09:37.832Z</time></trkpt><trkpt lat="40.6651267" lon="16.0669"><ele>693.1666666666666</ele><time>2026-04-25T14:09:38.833Z</time></trkpt><trkpt lat="40.6650683" lon="16.0669983"><ele>692.0</ele><time>2026-04-25T14:09:39.832Z</time></trkpt><trkpt lat="40.6650217" lon="16.0670683"><ele>694.0</ele><time>2026-04-25T14:09:40.832Z</time></trkpt><trkpt lat="40.66494" lon="16.0671667"><ele>696.0</ele><time>2026-04-25T14:09:42.832Z</time></trkpt><trkpt lat="40.6648567" lon="16.0672667"><ele>698.0</ele><time>2026-04-25T14:09:44.833Z</time></trkpt><trkpt lat="40.6648033" lon="16.06732"><ele>700.0</ele><time>2026-04-25T14:09:45.832Z</time></trkpt><trkpt lat="40.6647217" lon="16.0674017"><ele>702.0</ele><time>2026-04-25T14:09:47.832Z</time></trkpt><trkpt lat="40.6646633" lon="16.0674667"><ele>702.0</ele><time>2026-04-25T14:09:48.832Z</time></trkpt><trkpt lat="40.6646" lon="16.06753"><ele>702.0</ele><time>2026-04-25T14:09:49.831Z</time></trkpt><trkpt lat="40.664525" lon="16.0675833"><ele>702.0</ele><time>2026-04-25T14:09:50.832Z</time></trkpt><trkpt lat="40.66444" lon="16.0676233"><ele>702.0</ele><time>2026-04-25T14:09:51.832Z</time></trkpt><trkpt lat="40.6643583" lon="16.0676833"><ele>702.0</ele><time>2026-04-25T14:09:52.832Z</time></trkpt><trkpt lat="40.6642783" lon="16.0677583"><ele>702.0</ele><time>2026-04-25T14:09:53.831Z</time></trkpt><trkpt lat="40.6641983" lon="16.0678417"><ele>702.4000000000001</ele><time>2026-04-25T14:09:54.831Z</time></trkpt><trkpt lat="40.66413" lon="16.0679167"><ele>702.8000000000001</ele><time>2026-04-25T14:09:55.831Z</time></trkpt><trkpt lat="40.6640667" lon="16.068"><ele>703.2</ele><time>2026-04-25T14:09:56.832Z</time></trkpt><trkpt lat="40.6640067" lon="16.0681033"><ele>703.6</ele><time>2026-04-25T14:09:57.831Z</time></trkpt><trkpt lat="40.6639483" lon="16.0682"><ele>704.0</ele><time>2026-04-25T14:09:58.832Z</time></trkpt><trkpt lat="40.6639" lon="16.0682917"><ele>704.0</ele><time>2026-04-25T14:09:59.832Z</time></trkpt><trkpt lat="40.6638417" lon="16.0683933"><ele>704.0</ele><time>2026-04-25T14:10:00.831Z</time></trkpt><trkpt lat="40.6637883" lon="16.0684933"><ele>704.0</ele><time>2026-04-25T14:10:01.832Z</time></trkpt><trkpt lat="40.6637483" lon="16.068595"><ele>704.0</ele><time>2026-04-25T14:10:02.833Z</time></trkpt><trkpt lat="40.6637033" lon="16.0686833"><ele>704.0</ele><time>2026-04-25T14:10:03.832Z</time></trkpt><trkpt lat="40.6636433" lon="16.068775"><ele>704.0</ele><time>2026-04-25T14:10:04.832Z</time></trkpt><trkpt lat="40.6635883" lon="16.0688467"><ele>704.8333333333333</ele><time>2026-04-25T14:10:05.832Z</time></trkpt><trkpt lat="40.66353" lon="16.0689283"><ele>705.6666666666666</ele><time>2026-04-25T14:10:06.834Z</time></trkpt><trkpt lat="40.6634767" lon="16.0689883"><ele>706.5</ele><time>2026-04-25T14:10:07.831Z</time></trkpt><trkpt lat="40.6634317" lon="16.0690483"><ele>707.3333333333334</ele><time>2026-04-25T14:10:08.833Z</time></trkpt><trkpt lat="40.663375" lon="16.0692017"><ele>708.1666666666667</ele><time>2026-04-25T14:10:10.832Z</time></trkpt><trkpt lat="40.6633583" lon="16.0692983"><ele>709.0</ele><time>2026-04-25T14:10:11.831Z</time></trkpt><trkpt lat="40.6633433" lon="16.0694033"><ele>709.0</ele><time>2026-04-25T14:10:12.832Z</time></trkpt><trkpt lat="40.6633367" lon="16.06952"><ele>709.0</ele><time>2026-04-25T14:10:14.832Z</time></trkpt><trkpt lat="40.6632983" lon="16.0696517"><ele>709.0</ele><time>2026-04-25T14:11:42.832Z</time></trkpt><trkpt lat="40.6632167" lon="16.06976"><ele>709.0</ele><time>2026-04-25T14:11:44.832Z</time></trkpt><trkpt lat="40.66314" lon="16.0698583"><ele>709.0</ele><time>2026-04-25T14:11:46.832Z</time></trkpt><trkpt lat="40.6630667" lon="16.0699067"><ele>709.0000000000001</ele><time>2026-04-25T14:11:48.832Z</time></trkpt><trkpt lat="40.6630033" lon="16.0698867"><ele>709.0</ele><time>2026-04-25T14:11:50.834Z</time></trkpt><trkpt lat="40.6629383" lon="16.0698583"><ele>709.0</ele><time>2026-04-25T14:12:23.834Z</time></trkpt><trkpt lat="40.6628733" lon="16.0698483"><ele>709.0</ele><time>2026-04-25T14:12:26.832Z</time></trkpt><trkpt lat="40.6627867" lon="16.069855"><ele>709.0</ele><time>2026-04-25T14:12:28.833Z</time></trkpt><trkpt lat="40.66272" lon="16.06983"><ele>709.0000000000001</ele><time>2026-04-25T14:12:30.832Z</time></trkpt><trkpt lat="40.6626533" lon="16.069855"><ele>709.0</ele><time>2026-04-25T14:12:33.834Z</time></trkpt><trkpt lat="40.66256" lon="16.06986"><ele>713.1666666666667</ele><time>2026-04-25T14:12:36.833Z</time></trkpt><trkpt lat="40.662495" lon="16.0698483"><ele>717.3333333333334</ele><time>2026-04-25T14:12:38.831Z</time></trkpt><trkpt lat="40.6624117" lon="16.0698817"><ele>721.5</ele><time>2026-04-25T14:12:53.832Z</time></trkpt><trkpt lat="40.6623033" lon="16.06989"><ele>725.6666666666666</ele><time>2026-04-25T14:13:32.833Z</time></trkpt><trkpt lat="40.6622383" lon="16.0699183"><ele>729.8333333333333</ele><time>2026-04-25T14:13:37.832Z</time></trkpt><trkpt lat="40.662175" lon="16.069885"><ele>734.0</ele><time>2026-04-25T14:13:42.838Z</time></trkpt><trkpt lat="40.6620617" lon="16.0697917"><ele>734.0</ele><time>2026-04-25T14:13:53.833Z</time></trkpt><trkpt lat="40.6619833" lon="16.06977"><ele>734.0</ele><time>2026-04-25T14:13:56.832Z</time></trkpt><trkpt lat="40.6619433" lon="16.0698667"><ele>734.0</ele><time>2026-04-25T14:13:58.833Z</time></trkpt><trkpt lat="40.6619167" lon="16.0699767"><ele>734.0</ele><time>2026-04-25T14:14:00.832Z</time></trkpt><trkpt lat="40.6618533" lon="16.0700233"><ele>734.0</ele><time>2026-04-25T14:14:02.833Z</time></trkpt><trkpt lat="40.6617783" lon="16.0700367"><ele>734.0</ele><time>2026-04-25T14:14:04.832Z</time></trkpt><trkpt lat="40.66169" lon="16.070035"><ele>736.6666666666666</ele><time>2026-04-25T14:14:06.832Z</time></trkpt><trkpt lat="40.6616117" lon="16.0700017"><ele>739.3333333333333</ele><time>2026-04-25T14:14:08.833Z</time></trkpt><trkpt lat="40.6615417" lon="16.0699483"><ele>742.0</ele><time>2026-04-25T14:14:10.834Z</time></trkpt><trkpt lat="40.6614833" lon="16.0698883"><ele>744.6666666666666</ele><time>2026-04-25T14:14:12.832Z</time></trkpt><trkpt lat="40.6614133" lon="16.069805"><ele>747.3333333333334</ele><time>2026-04-25T14:14:14.835Z</time></trkpt><trkpt lat="40.6613583" lon="16.069685"><ele>750.0</ele><time>2026-04-25T14:14:16.833Z</time></trkpt><trkpt lat="40.661305" lon="16.0695983"><ele>751.6666666666666</ele><time>2026-04-25T14:14:18.832Z</time></trkpt><trkpt lat="40.6612183" lon="16.0696367"><ele>753.3333333333334</ele><time>2026-04-25T14:14:21.833Z</time></trkpt><trkpt lat="40.661155" lon="16.069685"><ele>755.0</ele><time>2026-04-25T14:14:23.832Z</time></trkpt><trkpt lat="40.6610767" lon="16.0696617"><ele>756.6666666666667</ele><time>2026-04-25T14:14:26.833Z</time></trkpt><trkpt lat="40.6610617" lon="16.069575"><ele>758.3333333333334</ele><time>2026-04-25T14:14:28.832Z</time></trkpt><trkpt lat="40.6610633" lon="16.0694417"><ele>760.0</ele><time>2026-04-25T14:14:30.833Z</time></trkpt><trkpt lat="40.661035" lon="16.06933"><ele>762.8</ele><time>2026-04-25T14:14:32.834Z</time></trkpt><trkpt lat="40.66096" lon="16.0693133"><ele>765.6</ele><time>2026-04-25T14:14:34.832Z</time></trkpt><trkpt lat="40.6608483" lon="16.0693683"><ele>768.4000000000001</ele><time>2026-04-25T14:14:36.832Z</time></trkpt><trkpt lat="40.6607467" lon="16.0694283"><ele>771.2</ele><time>2026-04-25T14:14:38.832Z</time></trkpt><trkpt lat="40.6606917" lon="16.069485"><ele>774.0</ele><time>2026-04-25T14:14:39.832Z</time></trkpt><trkpt lat="40.6606317" lon="16.0695617"><ele>774.0</ele><time>2026-04-25T14:14:40.833Z</time></trkpt><trkpt lat="40.6605733" lon="16.069635"><ele>774.0</ele><time>2026-04-25T14:14:41.831Z</time></trkpt><trkpt lat="40.6604633" lon="16.0696767"><ele>774.0</ele><time>2026-04-25T14:14:43.832Z</time></trkpt><trkpt lat="40.6603933" lon="16.0696383"><ele>774.0</ele><time>2026-04-25T14:14:45.831Z</time></trkpt><trkpt lat="40.6603767" lon="16.0695433"><ele>774.0</ele><time>2026-04-25T14:14:48.832Z</time></trkpt><trkpt lat="40.6603817" lon="16.069405"><ele>774.0</ele><time>2026-04-25T14:19:24.832Z</time></trkpt><trkpt lat="40.6603833" lon="16.0693217"><ele>774.0</ele><time>2026-04-25T14:19:25.831Z</time></trkpt><trkpt lat="40.6603717" lon="16.0692083"><ele>774.0</ele><time>2026-04-25T14:19:26.832Z</time></trkpt><trkpt lat="40.6603533" lon="16.0690783"><ele>774.0</ele><time>2026-04-25T14:19:27.831Z</time></trkpt><trkpt lat="40.66033" lon="16.0689267"><ele>774.0</ele><time>2026-04-25T14:19:28.832Z</time></trkpt><trkpt lat="40.6603117" lon="16.06877"><ele>773.25</ele><time>2026-04-25T14:19:29.833Z</time></trkpt><trkpt lat="40.6603017" lon="16.0686083"><ele>772.5</ele><time>2026-04-25T14:19:30.833Z</time></trkpt><trkpt lat="40.6602917" lon="16.0684467"><ele>771.75</ele><time>2026-04-25T14:19:31.832Z</time></trkpt><trkpt lat="40.6602767" lon="16.068285"><ele>771.0</ele><time>2026-04-25T14:19:32.833Z</time></trkpt><trkpt lat="40.6602467" lon="16.0681383"><ele>772.8</ele><time>2026-04-25T14:19:33.832Z</time></trkpt><trkpt lat="40.6601983" lon="16.06801"><ele>774.5999999999999</ele><time>2026-04-25T14:19:34.832Z</time></trkpt><trkpt lat="40.6601333" lon="16.0678917"><ele>776.4</ele><time>2026-04-25T14:19:35.832Z</time></trkpt><trkpt lat="40.6600633" lon="16.067775"><ele>778.2</ele><time>2026-04-25T14:19:36.832Z</time></trkpt><trkpt lat="40.6599933" lon="16.06766"><ele>780.0</ele><time>2026-04-25T14:19:37.832Z</time></trkpt><trkpt lat="40.6599217" lon="16.0675367"><ele>782.5</ele><time>2026-04-25T14:19:38.832Z</time></trkpt><trkpt lat="40.6598483" lon="16.0674017"><ele>785.0</ele><time>2026-04-25T14:19:39.831Z</time></trkpt><trkpt lat="40.6597767" lon="16.0672583"><ele>787.5</ele><time>2026-04-25T14:19:40.833Z</time></trkpt><trkpt lat="40.6597133" lon="16.0671083"><ele>790.0</ele><time>2026-04-25T14:19:41.832Z</time></trkpt><trkpt lat="40.6596583" lon="16.0669483"><ele>790.0</ele><time>2026-04-25T14:19:42.831Z</time></trkpt><trkpt lat="40.6596133" lon="16.06677"><ele>790.0</ele><time>2026-04-25T14:19:43.832Z</time></trkpt><trkpt lat="40.6595817" lon="16.066575"><ele>790.0</ele><time>2026-04-25T14:19:44.833Z</time></trkpt><trkpt lat="40.65956" lon="16.0663833"><ele>790.0</ele><time>2026-04-25T14:19:45.831Z</time></trkpt><trkpt lat="40.65955" lon="16.0662"><ele>790.0</ele><time>2026-04-25T14:19:46.831Z</time></trkpt><trkpt lat="40.659555" lon="16.0660183"><ele>790.0</ele><time>2026-04-25T14:19:47.832Z</time></trkpt><trkpt lat="40.65957" lon="16.0658417"><ele>790.0</ele><time>2026-04-25T14:19:48.831Z</time></trkpt><trkpt lat="40.6595983" lon="16.0656683"><ele>790.0</ele><time>2026-04-25T14:19:49.832Z</time></trkpt><trkpt lat="40.6596367" lon="16.06551"><ele>787.0</ele><time>2026-04-25T14:19:50.832Z</time></trkpt><trkpt lat="40.6596867" lon="16.06536"><ele>784.0</ele><time>2026-04-25T14:19:51.831Z</time></trkpt><trkpt lat="40.659755" lon="16.0652117"><ele>781.0</ele><time>2026-04-25T14:19:52.832Z</time></trkpt><trkpt lat="40.6598283" lon="16.0650733"><ele>778.0</ele><time>2026-04-25T14:19:53.831Z</time></trkpt><trkpt lat="40.6599" lon="16.0649533"><ele>778.0</ele><time>2026-04-25T14:19:54.831Z</time></trkpt><trkpt lat="40.6599633" lon="16.0648433"><ele>778.0</ele><time>2026-04-25T14:19:55.833Z</time></trkpt><trkpt lat="40.66001" lon="16.0647283"><ele>778.0</ele><time>2026-04-25T14:19:56.832Z</time></trkpt><trkpt lat="40.6600383" lon="16.0646067"><ele>778.0</ele><time>2026-04-25T14:19:57.832Z</time></trkpt><trkpt lat="40.6600467" lon="16.0644717"><ele>778.0</ele><time>2026-04-25T14:19:58.831Z</time></trkpt><trkpt lat="40.6600383" lon="16.064325"><ele>777.9999999999999</ele><time>2026-04-25T14:19:59.831Z</time></trkpt><trkpt lat="40.6600217" lon="16.0641867"><ele>778.0</ele><time>2026-04-25T14:20:00.832Z</time></trkpt><trkpt lat="40.6600033" lon="16.0640667"><ele>778.0</ele><time>2026-04-25T14:20:01.831Z</time></trkpt><trkpt lat="40.6599733" lon="16.0639617"><ele>778.0</ele><time>2026-04-25T14:20:02.832Z</time></trkpt><trkpt lat="40.6599267" lon="16.0638817"><ele>777.9999999999999</ele><time>2026-04-25T14:20:03.833Z</time></trkpt><trkpt lat="40.65987" lon="16.0638233"><ele>778.0</ele><time>2026-04-25T14:20:04.831Z</time></trkpt><trkpt lat="40.6598" lon="16.06378"><ele>777.8</ele><time>2026-04-25T14:20:05.831Z</time></trkpt><trkpt lat="40.6597183" lon="16.063735"><ele>777.5999999999999</ele><time>2026-04-25T14:20:06.833Z</time></trkpt><trkpt lat="40.65963" lon="16.0636833"><ele>777.4000000000001</ele><time>2026-04-25T14:20:07.832Z</time></trkpt><trkpt lat="40.659535" lon="16.0636183"><ele>777.2</ele><time>2026-04-25T14:20:08.833Z</time></trkpt><trkpt lat="40.659435" lon="16.06354"><ele>777.0</ele><time>2026-04-25T14:20:09.832Z</time></trkpt><trkpt lat="40.6593333" lon="16.0634533"><ele>777.0</ele><time>2026-04-25T14:20:10.832Z</time></trkpt><trkpt lat="40.6592233" lon="16.0633583"><ele>777.0</ele><time>2026-04-25T14:20:11.833Z</time></trkpt><trkpt lat="40.6591117" lon="16.063265"><ele>777.0</ele><time>2026-04-25T14:20:12.831Z</time></trkpt><trkpt lat="40.659" lon="16.06317"><ele>777.0</ele><time>2026-04-25T14:20:13.835Z</time></trkpt><trkpt lat="40.6588933" lon="16.0630833"><ele>776.2</ele><time>2026-04-25T14:20:14.833Z</time></trkpt><trkpt lat="40.6587983" lon="16.0630033"><ele>775.4000000000001</ele><time>2026-04-25T14:20:15.831Z</time></trkpt><trkpt lat="40.6587133" lon="16.062915"><ele>774.5999999999999</ele><time>2026-04-25T14:20:16.832Z</time></trkpt><trkpt lat="40.658635" lon="16.0628083"><ele>773.8</ele><time>2026-04-25T14:20:17.832Z</time></trkpt><trkpt lat="40.6585733" lon="16.06269"><ele>773.0</ele><time>2026-04-25T14:20:18.832Z</time></trkpt><trkpt lat="40.6585217" lon="16.0625633"><ele>775.5</ele><time>2026-04-25T14:20:19.832Z</time></trkpt><trkpt lat="40.6584717" lon="16.0624283"><ele>778.0</ele><time>2026-04-25T14:20:20.833Z</time></trkpt><trkpt lat="40.6584217" lon="16.0622867"><ele>780.5</ele><time>2026-04-25T14:20:21.832Z</time></trkpt><trkpt lat="40.6583767" lon="16.0621467"><ele>783.0</ele><time>2026-04-25T14:20:22.832Z</time></trkpt><trkpt lat="40.6583317" lon="16.062005"><ele>783.0</ele><time>2026-04-25T14:20:23.831Z</time></trkpt><trkpt lat="40.6582733" lon="16.06186"><ele>783.0</ele><time>2026-04-25T14:20:24.834Z</time></trkpt><trkpt lat="40.658205" lon="16.0617083"><ele>783.0</ele><time>2026-04-25T14:20:25.832Z</time></trkpt><trkpt lat="40.6581267" lon="16.0615583"><ele>783.0</ele><time>2026-04-25T14:20:26.832Z</time></trkpt><trkpt lat="40.658045" lon="16.0614117"><ele>785.75</ele><time>2026-04-25T14:20:27.832Z</time></trkpt><trkpt lat="40.65797" lon="16.06128"><ele>788.5</ele><time>2026-04-25T14:20:28.832Z</time></trkpt><trkpt lat="40.6579017" lon="16.061155"><ele>791.25</ele><time>2026-04-25T14:20:29.832Z</time></trkpt><trkpt lat="40.6578417" lon="16.06103"><ele>794.0</ele><time>2026-04-25T14:20:30.833Z</time></trkpt><trkpt lat="40.6577983" lon="16.0608883"><ele>791.25</ele><time>2026-04-25T14:20:31.832Z</time></trkpt><trkpt lat="40.65776" lon="16.0607417"><ele>788.5</ele><time>2026-04-25T14:20:32.834Z</time></trkpt><trkpt lat="40.6577117" lon="16.0605933"><ele>785.75</ele><time>2026-04-25T14:20:33.833Z</time></trkpt><trkpt lat="40.6576467" lon="16.0604467"><ele>783.0</ele><time>2026-04-25T14:20:34.833Z</time></trkpt><trkpt lat="40.6575717" lon="16.06031"><ele>783.0</ele><time>2026-04-25T14:20:35.833Z</time></trkpt><trkpt lat="40.6574983" lon="16.0601833"><ele>783.0</ele><time>2026-04-25T14:20:36.832Z</time></trkpt><trkpt lat="40.6574283" lon="16.06006"><ele>783.0</ele><time>2026-04-25T14:20:37.832Z</time></trkpt><trkpt lat="40.65736" lon="16.0599367"><ele>783.0</ele><time>2026-04-25T14:20:38.833Z</time></trkpt><trkpt lat="40.6572967" lon="16.0598117"><ele>785.25</ele><time>2026-04-25T14:20:39.831Z</time></trkpt><trkpt lat="40.6572467" lon="16.0596717"><ele>787.5</ele><time>2026-04-25T14:20:40.833Z</time></trkpt><trkpt lat="40.6572117" lon="16.05951"><ele>789.75</ele><time>2026-04-25T14:20:41.834Z</time></trkpt><trkpt lat="40.6571817" lon="16.0593317"><ele>792.0</ele><time>2026-04-25T14:20:42.832Z</time></trkpt><trkpt lat="40.6571517" lon="16.0591467"><ele>794.6666666666667</ele><time>2026-04-25T14:20:43.831Z</time></trkpt><trkpt lat="40.6571183" lon="16.058955"><ele>797.3333333333334</ele><time>2026-04-25T14:20:44.832Z</time></trkpt><trkpt lat="40.6570817" lon="16.058765"><ele>800.0</ele><time>2026-04-25T14:20:45.832Z</time></trkpt><trkpt lat="40.657045" lon="16.0585667"><ele>800.0</ele><time>2026-04-25T14:20:46.833Z</time></trkpt><trkpt lat="40.6570033" lon="16.0583733"><ele>800.0</ele><time>2026-04-25T14:20:47.833Z</time></trkpt><trkpt lat="40.6569533" lon="16.0581983"><ele>800.0</ele><time>2026-04-25T14:20:48.832Z</time></trkpt><trkpt lat="40.6568883" lon="16.0580517"><ele>800.0</ele><time>2026-04-25T14:20:49.831Z</time></trkpt><trkpt lat="40.6568017" lon="16.05792"><ele>798.25</ele><time>2026-04-25T14:20:50.832Z</time></trkpt><trkpt lat="40.656705" lon="16.057785"><ele>796.5</ele><time>2026-04-25T14:20:51.832Z</time></trkpt><trkpt lat="40.6566117" lon="16.0576367"><ele>794.75</ele><time>2026-04-25T14:20:52.832Z</time></trkpt><trkpt lat="40.6565233" lon="16.057475"><ele>793.0</ele><time>2026-04-25T14:20:53.832Z</time></trkpt><trkpt lat="40.6564467" lon="16.0573317"><ele>792.9999999999999</ele><time>2026-04-25T14:20:54.832Z</time></trkpt><trkpt lat="40.65638" lon="16.0572183"><ele>793.0</ele><time>2026-04-25T14:20:55.832Z</time></trkpt><trkpt lat="40.6563183" lon="16.0571433"><ele>793.0</ele><time>2026-04-25T14:20:56.834Z</time></trkpt><trkpt lat="40.6562517" lon="16.0571067"><ele>793.0</ele><time>2026-04-25T14:20:57.832Z</time></trkpt><trkpt lat="40.6561817" lon="16.0571017"><ele>792.9999999999999</ele><time>2026-04-25T14:20:58.832Z</time></trkpt><trkpt lat="40.656105" lon="16.05713"><ele>793.0</ele><time>2026-04-25T14:20:59.832Z</time></trkpt><trkpt lat="40.6560133" lon="16.0571817"><ele>793.0</ele><time>2026-04-25T14:21:00.832Z</time></trkpt><trkpt lat="40.655905" lon="16.05725"><ele>793.0</ele><time>2026-04-25T14:21:01.832Z</time></trkpt><trkpt lat="40.6557917" lon="16.0573333"><ele>793.0</ele><time>2026-04-25T14:21:02.833Z</time></trkpt><trkpt lat="40.655685" lon="16.0574183"><ele>793.0</ele><time>2026-04-25T14:21:03.831Z</time></trkpt><trkpt lat="40.6555783" lon="16.057495"><ele>793.0</ele><time>2026-04-25T14:21:04.833Z</time></trkpt><trkpt lat="40.65547" lon="16.057565"><ele>793.0</ele><time>2026-04-25T14:21:05.831Z</time></trkpt><trkpt lat="40.6553583" lon="16.0576417"><ele>793.0</ele><time>2026-04-25T14:21:06.832Z</time></trkpt><trkpt lat="40.65525" lon="16.057715"><ele>793.0</ele><time>2026-04-25T14:21:07.833Z</time></trkpt><trkpt lat="40.6551417" lon="16.0577883"><ele>795.4</ele><time>2026-04-25T14:21:08.832Z</time></trkpt><trkpt lat="40.6550417" lon="16.0578517"><ele>797.8</ele><time>2026-04-25T14:21:09.832Z</time></trkpt><trkpt lat="40.654955" lon="16.0579117"><ele>800.2</ele><time>2026-04-25T14:21:10.832Z</time></trkpt><trkpt lat="40.6548717" lon="16.0579817"><ele>802.6</ele><time>2026-04-25T14:21:11.832Z</time></trkpt><trkpt lat="40.6547983" lon="16.05806"><ele>805.0</ele><time>2026-04-25T14:21:12.834Z</time></trkpt><trkpt lat="40.6547383" lon="16.0581517"><ele>804.9999999999999</ele><time>2026-04-25T14:21:13.832Z</time></trkpt><trkpt lat="40.6546933" lon="16.058245"><ele>805.0</ele><time>2026-04-25T14:21:14.834Z</time></trkpt><trkpt lat="40.6546517" lon="16.0583383"><ele>805.0</ele><time>2026-04-25T14:21:15.832Z</time></trkpt><trkpt lat="40.6546033" lon="16.0584233"><ele>805.0</ele><time>2026-04-25T14:21:16.835Z</time></trkpt><trkpt lat="40.65455" lon="16.058485"><ele>804.9999999999999</ele><time>2026-04-25T14:21:17.833Z</time></trkpt><trkpt lat="40.6544867" lon="16.05852"><ele>805.0</ele><time>2026-04-25T14:21:18.831Z</time></trkpt><trkpt lat="40.654415" lon="16.0585267"><ele>804.4999999999999</ele><time>2026-04-25T14:21:19.832Z</time></trkpt><trkpt lat="40.6543433" lon="16.058505"><ele>804.0</ele><time>2026-04-25T14:21:20.833Z</time></trkpt><trkpt lat="40.65427" lon="16.0584583"><ele>803.5</ele><time>2026-04-25T14:21:21.832Z</time></trkpt><trkpt lat="40.6541967" lon="16.0583967"><ele>803.0</ele><time>2026-04-25T14:21:22.832Z</time></trkpt><trkpt lat="40.6541267" lon="16.05833"><ele>802.4999999999999</ele><time>2026-04-25T14:21:23.832Z</time></trkpt><trkpt lat="40.6540617" lon="16.0582683"><ele>802.0</ele><time>2026-04-25T14:21:24.832Z</time></trkpt><trkpt lat="40.6539983" lon="16.0582117"><ele>802.6666666666666</ele><time>2026-04-25T14:21:25.832Z</time></trkpt><trkpt lat="40.65393" lon="16.0581583"><ele>803.3333333333333</ele><time>2026-04-25T14:21:26.834Z</time></trkpt><trkpt lat="40.6538583" lon="16.0581033"><ele>804.0</ele><time>2026-04-25T14:21:27.832Z</time></trkpt><trkpt lat="40.65379" lon="16.0580483"><ele>804.6666666666667</ele><time>2026-04-25T14:21:28.832Z</time></trkpt><trkpt lat="40.65372" lon="16.0579917"><ele>805.3333333333334</ele><time>2026-04-25T14:21:29.833Z</time></trkpt><trkpt lat="40.6536417" lon="16.0579333"><ele>806.0</ele><time>2026-04-25T14:21:30.832Z</time></trkpt><trkpt lat="40.65356" lon="16.057875"><ele>806.0</ele><time>2026-04-25T14:21:31.832Z</time></trkpt><trkpt lat="40.6534833" lon="16.057815"><ele>806.0</ele><time>2026-04-25T14:21:32.832Z</time></trkpt><trkpt lat="40.6534083" lon="16.0577567"><ele>806.0</ele><time>2026-04-25T14:21:33.833Z</time></trkpt><trkpt lat="40.6533317" lon="16.0576983"><ele>806.0</ele><time>2026-04-25T14:21:34.834Z</time></trkpt><trkpt lat="40.6532467" lon="16.057635"><ele>806.0</ele><time>2026-04-25T14:21:35.831Z</time></trkpt><trkpt lat="40.6531567" lon="16.0575667"><ele>806.0</ele><time>2026-04-25T14:21:36.833Z</time></trkpt><trkpt lat="40.6530667" lon="16.0574933"><ele>806.0</ele><time>2026-04-25T14:21:37.831Z</time></trkpt><trkpt lat="40.6529717" lon="16.0574233"><ele>806.0</ele><time>2026-04-25T14:21:38.832Z</time></trkpt><trkpt lat="40.6528733" lon="16.057355"><ele>806.0</ele><time>2026-04-25T14:21:39.833Z</time></trkpt><trkpt lat="40.6527883" lon="16.0572867"><ele>806.0</ele><time>2026-04-25T14:21:40.832Z</time></trkpt><trkpt lat="40.6527167" lon="16.05722"><ele>807.0</ele><time>2026-04-25T14:21:41.831Z</time></trkpt><trkpt lat="40.65266" lon="16.057155"><ele>808.0</ele><time>2026-04-25T14:21:42.832Z</time></trkpt><trkpt lat="40.6526233" lon="16.0570867"><ele>809.0</ele><time>2026-04-25T14:21:43.832Z</time></trkpt><trkpt lat="40.6526067" lon="16.0569517"><ele>810.0</ele><time>2026-04-25T14:21:45.831Z</time></trkpt><trkpt lat="40.6526633" lon="16.0568067"><ele>811.0</ele><time>2026-04-25T14:21:47.832Z</time></trkpt><trkpt lat="40.6526983" lon="16.0566617"><ele>810.9999999999999</ele><time>2026-04-25T14:21:49.833Z</time></trkpt><trkpt lat="40.6526367" lon="16.0565967"><ele>811.0</ele><time>2026-04-25T14:21:52.831Z</time></trkpt><trkpt lat="40.65259" lon="16.0566883"><ele>811.0</ele><time>2026-04-25T14:21:54.832Z</time></trkpt><trkpt lat="40.652535" lon="16.0568267"><ele>811.0</ele><time>2026-04-25T14:21:56.833Z</time></trkpt><trkpt lat="40.6525017" lon="16.0569067"><ele>810.9999999999999</ele><time>2026-04-25T14:21:57.833Z</time></trkpt><trkpt lat="40.6524633" lon="16.0569817"><ele>811.0</ele><time>2026-04-25T14:21:58.832Z</time></trkpt><trkpt lat="40.6524183" lon="16.057055"><ele>811.0</ele><time>2026-04-25T14:21:59.832Z</time></trkpt><trkpt lat="40.6523717" lon="16.0571333"><ele>811.0</ele><time>2026-04-25T14:22:00.831Z</time></trkpt><trkpt lat="40.6523267" lon="16.0572033"><ele>811.0</ele><time>2026-04-25T14:22:01.833Z</time></trkpt><trkpt lat="40.65228" lon="16.057275"><ele>811.0</ele><time>2026-04-25T14:22:02.834Z</time></trkpt><trkpt lat="40.652235" lon="16.0573433"><ele>811.0</ele><time>2026-04-25T14:22:03.833Z</time></trkpt><trkpt lat="40.6522" lon="16.057415"><ele>811.0</ele><time>2026-04-25T14:22:04.833Z</time></trkpt><trkpt lat="40.65217" lon="16.0574983"><ele>811.0</ele><time>2026-04-25T14:22:05.832Z</time></trkpt><trkpt lat="40.6521133" lon="16.0576317"><ele>810.0</ele><time>2026-04-25T14:22:07.832Z</time></trkpt><trkpt lat="40.6520367" lon="16.057705"><ele>809.0</ele><time>2026-04-25T14:22:09.832Z</time></trkpt><trkpt lat="40.65193" lon="16.0577567"><ele>808.0</ele><time>2026-04-25T14:22:11.832Z</time></trkpt><trkpt lat="40.6518483" lon="16.0578233"><ele>807.0</ele><time>2026-04-25T14:22:13.832Z</time></trkpt><trkpt lat="40.65179" lon="16.0579033"><ele>806.0</ele><time>2026-04-25T14:22:15.832Z</time></trkpt><trkpt lat="40.6517333" lon="16.0579933"><ele>808.1999999999999</ele><time>2026-04-25T14:22:17.833Z</time></trkpt><trkpt lat="40.6516617" lon="16.058085"><ele>810.4</ele><time>2026-04-25T14:22:19.832Z</time></trkpt><trkpt lat="40.6515717" lon="16.0581617"><ele>812.6</ele><time>2026-04-25T14:22:21.832Z</time></trkpt><trkpt lat="40.65147" lon="16.058265"><ele>814.8</ele><time>2026-04-25T14:22:23.834Z</time></trkpt><trkpt lat="40.651425" lon="16.0583267"><ele>817.0</ele><time>2026-04-25T14:22:24.832Z</time></trkpt><trkpt lat="40.6513617" lon="16.0584683"><ele>816.9999999999999</ele><time>2026-04-25T14:22:26.832Z</time></trkpt><trkpt lat="40.6513383" lon="16.0585583"><ele>817.0</ele><time>2026-04-25T14:22:27.831Z</time></trkpt><trkpt lat="40.6513333" lon="16.0586667"><ele>817.0</ele><time>2026-04-25T14:22:28.833Z</time></trkpt><trkpt lat="40.6513517" lon="16.0588233"><ele>817.0</ele><time>2026-04-25T14:22:30.832Z</time></trkpt><trkpt lat="40.6513367" lon="16.0589083"><ele>816.9999999999999</ele><time>2026-04-25T14:22:31.833Z</time></trkpt><trkpt lat="40.6513217" lon="16.0589983"><ele>817.0</ele><time>2026-04-25T14:22:32.833Z</time></trkpt><trkpt lat="40.6512983" lon="16.059085"><ele>815.0</ele><time>2026-04-25T14:22:33.833Z</time></trkpt><trkpt lat="40.6511983" lon="16.0591917"><ele>813.0</ele><time>2026-04-25T14:22:35.832Z</time></trkpt><trkpt lat="40.6511183" lon="16.059235"><ele>811.0</ele><time>2026-04-25T14:22:36.833Z</time></trkpt><trkpt lat="40.6510533" lon="16.059295"><ele>809.0</ele><time>2026-04-25T14:22:37.833Z</time></trkpt><trkpt lat="40.6509867" lon="16.0593633"><ele>807.0</ele><time>2026-04-25T14:22:38.833Z</time></trkpt><trkpt lat="40.6509267" lon="16.059435"><ele>810.8333333333334</ele><time>2026-04-25T14:22:39.832Z</time></trkpt><trkpt lat="40.6508767" lon="16.0595233"><ele>814.6666666666667</ele><time>2026-04-25T14:22:40.832Z</time></trkpt><trkpt lat="40.650835" lon="16.05962"><ele>818.5</ele><time>2026-04-25T14:22:41.833Z</time></trkpt><trkpt lat="40.6507933" lon="16.0597333"><ele>822.3333333333334</ele><time>2026-04-25T14:22:42.833Z</time></trkpt><trkpt lat="40.65075" lon="16.0597967"><ele>826.1666666666667</ele><time>2026-04-25T14:22:43.833Z</time></trkpt><trkpt lat="40.6507067" lon="16.0598733"><ele>830.0</ele><time>2026-04-25T14:22:44.833Z</time></trkpt><trkpt lat="40.6506567" lon="16.0599283"><ele>830.2857142857143</ele><time>2026-04-25T14:22:45.832Z</time></trkpt><trkpt lat="40.650585" lon="16.05996"><ele>830.5714285714287</ele><time>2026-04-25T14:22:46.832Z</time></trkpt><trkpt lat="40.6505" lon="16.0599733"><ele>830.8571428571429</ele><time>2026-04-25T14:22:47.832Z</time></trkpt><trkpt lat="40.6504183" lon="16.0599867"><ele>831.1428571428571</ele><time>2026-04-25T14:22:48.833Z</time></trkpt><trkpt lat="40.6503433" lon="16.059995"><ele>831.4285714285714</ele><time>2026-04-25T14:22:49.833Z</time></trkpt><trkpt lat="40.6502783" lon="16.0600133"><ele>831.7142857142857</ele><time>2026-04-25T14:22:50.834Z</time></trkpt><trkpt lat="40.6502217" lon="16.06005"><ele>832.0</ele><time>2026-04-25T14:22:51.832Z</time></trkpt><trkpt lat="40.6501683" lon="16.0601033"><ele>831.9999999999999</ele><time>2026-04-25T14:22:52.832Z</time></trkpt><trkpt lat="40.6501133" lon="16.0601567"><ele>832.0</ele><time>2026-04-25T14:22:53.833Z</time></trkpt><trkpt lat="40.65004" lon="16.06022"><ele>832.0</ele><time>2026-04-25T14:22:54.833Z</time></trkpt><trkpt lat="40.64998" lon="16.0602767"><ele>832.0</ele><time>2026-04-25T14:22:55.833Z</time></trkpt><trkpt lat="40.6499317" lon="16.0603333"><ele>831.9999999999999</ele><time>2026-04-25T14:22:56.834Z</time></trkpt><trkpt lat="40.6498817" lon="16.06043"><ele>832.0</ele><time>2026-04-25T14:22:58.832Z</time></trkpt><trkpt lat="40.649855" lon="16.060535"><ele>832.0</ele><time>2026-04-25T14:23:00.832Z</time></trkpt><trkpt lat="40.64983" lon="16.06065"><ele>832.0</ele><time>2026-04-25T14:23:02.835Z</time></trkpt><trkpt lat="40.6497483" lon="16.0607933"><ele>832.0</ele><time>2026-04-25T14:23:04.832Z</time></trkpt><trkpt lat="40.6496833" lon="16.060865"><ele>832.0</ele><time>2026-04-25T14:23:05.832Z</time></trkpt><trkpt lat="40.6496183" lon="16.0609383"><ele>832.0</ele><time>2026-04-25T14:23:06.833Z</time></trkpt><trkpt lat="40.64954" lon="16.06101"><ele>832.6</ele><time>2026-04-25T14:23:07.832Z</time></trkpt><trkpt lat="40.6494417" lon="16.0610733"><ele>833.2</ele><time>2026-04-25T14:23:08.832Z</time></trkpt><trkpt lat="40.6493467" lon="16.0611167"><ele>833.8</ele><time>2026-04-25T14:23:09.832Z</time></trkpt><trkpt lat="40.649255" lon="16.0611483"><ele>834.4</ele><time>2026-04-25T14:23:10.832Z</time></trkpt><trkpt lat="40.6491667" lon="16.061185"><ele>835.0</ele><time>2026-04-25T14:23:11.831Z</time></trkpt><trkpt lat="40.6490933" lon="16.06122"><ele>834.9999999999999</ele><time>2026-04-25T14:23:12.832Z</time></trkpt><trkpt lat="40.649025" lon="16.061245"><ele>835.0</ele><time>2026-04-25T14:23:13.837Z</time></trkpt><trkpt lat="40.6489567" lon="16.0612617"><ele>835.0</ele><time>2026-04-25T14:23:14.833Z</time></trkpt><trkpt lat="40.6488867" lon="16.0612783"><ele>835.0</ele><time>2026-04-25T14:23:15.833Z</time></trkpt><trkpt lat="40.648815" lon="16.0613167"><ele>834.9999999999999</ele><time>2026-04-25T14:23:16.832Z</time></trkpt><trkpt lat="40.64874" lon="16.06136"><ele>835.0</ele><time>2026-04-25T14:23:17.832Z</time></trkpt><trkpt lat="40.6486633" lon="16.0614033"><ele>835.8571428571429</ele><time>2026-04-25T14:23:18.832Z</time></trkpt><trkpt lat="40.6485933" lon="16.0614583"><ele>836.7142857142858</ele><time>2026-04-25T14:23:19.832Z</time></trkpt><trkpt lat="40.6485233" lon="16.0615117"><ele>837.5714285714287</ele><time>2026-04-25T14:23:20.835Z</time></trkpt><trkpt lat="40.648465" lon="16.0615583"><ele>838.4285714285714</ele><time>2026-04-25T14:23:21.832Z</time></trkpt><trkpt lat="40.6484033" lon="16.061595"><ele>839.2857142857142</ele><time>2026-04-25T14:23:22.832Z</time></trkpt><trkpt lat="40.648335" lon="16.06162"><ele>840.1428571428572</ele><time>2026-04-25T14:23:23.832Z</time></trkpt><trkpt lat="40.6482583" lon="16.061645"><ele>841.0</ele><time>2026-04-25T14:23:24.833Z</time></trkpt><trkpt lat="40.6481817" lon="16.06167"><ele>837.9999999999999</ele><time>2026-04-25T14:23:25.832Z</time></trkpt><trkpt lat="40.6481167" lon="16.06169"><ele>835.0</ele><time>2026-04-25T14:23:26.833Z</time></trkpt><trkpt lat="40.64803" lon="16.0617533"><ele>832.0</ele><time>2026-04-25T14:23:28.833Z</time></trkpt><trkpt lat="40.6479233" lon="16.0617983"><ele>829.0</ele><time>2026-04-25T14:23:30.831Z</time></trkpt><trkpt lat="40.6478517" lon="16.061825"><ele>825.9999999999999</ele><time>2026-04-25T14:23:31.832Z</time></trkpt><trkpt lat="40.64777" lon="16.061855"><ele>823.0</ele><time>2026-04-25T14:23:32.834Z</time></trkpt><trkpt lat="40.647695" lon="16.0618867"><ele>823.0</ele><time>2026-04-25T14:23:33.831Z</time></trkpt><trkpt lat="40.6476233" lon="16.0619167"><ele>823.0</ele><time>2026-04-25T14:23:34.832Z</time></trkpt><trkpt lat="40.6475617" lon="16.06194"><ele>823.0</ele><time>2026-04-25T14:23:35.833Z</time></trkpt><trkpt lat="40.6474467" lon="16.0619433"><ele>823.0</ele><time>2026-04-25T14:23:37.832Z</time></trkpt><trkpt lat="40.6473817" lon="16.0619117"><ele>823.0</ele><time>2026-04-25T14:23:38.833Z</time></trkpt><trkpt lat="40.6472633" lon="16.0618433"><ele>823.0</ele><time>2026-04-25T14:23:40.832Z</time></trkpt><trkpt lat="40.6472017" lon="16.0618117"><ele>823.0</ele><time>2026-04-25T14:23:41.832Z</time></trkpt><trkpt lat="40.6471033" lon="16.0617867"><ele>823.0</ele><time>2026-04-25T14:23:43.834Z</time></trkpt><trkpt lat="40.646985" lon="16.06183"><ele>823.0</ele><time>2026-04-25T14:23:45.833Z</time></trkpt><trkpt lat="40.6469217" lon="16.0618717"><ele>823.0</ele><time>2026-04-25T14:23:46.833Z</time></trkpt><trkpt lat="40.6468383" lon="16.061965"><ele>823.8333333333333</ele><time>2026-04-25T14:23:48.833Z</time></trkpt><trkpt lat="40.6467867" lon="16.0620233"><ele>824.6666666666666</ele><time>2026-04-25T14:23:50.833Z</time></trkpt><trkpt lat="40.6467017" lon="16.0620867"><ele>825.5</ele><time>2026-04-25T14:23:52.833Z</time></trkpt><trkpt lat="40.64664" lon="16.06212"><ele>826.3333333333333</ele><time>2026-04-25T14:23:53.834Z</time></trkpt><trkpt lat="40.6465683" lon="16.06215"><ele>827.1666666666666</ele><time>2026-04-25T14:23:54.833Z</time></trkpt><trkpt lat="40.6464833" lon="16.0621817"><ele>828.0</ele><time>2026-04-25T14:23:55.833Z</time></trkpt><trkpt lat="40.646395" lon="16.0622233"><ele>828.0</ele><time>2026-04-25T14:23:56.832Z</time></trkpt><trkpt lat="40.6463217" lon="16.0622767"><ele>828.0</ele><time>2026-04-25T14:23:57.833Z</time></trkpt><trkpt lat="40.6462533" lon="16.0623267"><ele>828.0</ele><time>2026-04-25T14:23:58.834Z</time></trkpt><trkpt lat="40.6461917" lon="16.06237"><ele>828.0</ele><time>2026-04-25T14:23:59.832Z</time></trkpt><trkpt lat="40.64614" lon="16.0624183"><ele>828.0</ele><time>2026-04-25T14:24:00.832Z</time></trkpt><trkpt lat="40.6460667" lon="16.06253"><ele>828.0</ele><time>2026-04-25T14:24:02.833Z</time></trkpt><trkpt lat="40.646025" lon="16.0626633"><ele>828.5</ele><time>2026-04-25T14:24:04.834Z</time></trkpt><trkpt lat="40.6459767" lon="16.0627567"><ele>829.0</ele><time>2026-04-25T14:24:06.833Z</time></trkpt><trkpt lat="40.645945" lon="16.0628333"><ele>829.5</ele><time>2026-04-25T14:24:09.832Z</time></trkpt><trkpt lat="40.646015" lon="16.062925"><ele>830.0</ele><time>2026-04-25T14:24:12.833Z</time></trkpt><trkpt lat="40.6460783" lon="16.0630033"><ele>830.5</ele><time>2026-04-25T14:24:14.834Z</time></trkpt><trkpt lat="40.646105" lon="16.0630817"><ele>831.0</ele><time>2026-04-25T14:24:16.833Z</time></trkpt><trkpt lat="40.64609" lon="16.0631717"><ele>829.1999999999999</ele><time>2026-04-25T14:24:18.834Z</time></trkpt><trkpt lat="40.6460683" lon="16.0632883"><ele>827.4</ele><time>2026-04-25T14:24:20.834Z</time></trkpt><trkpt lat="40.6460017" lon="16.0634367"><ele>825.6</ele><time>2026-04-25T14:24:22.833Z</time></trkpt><trkpt lat="40.6459483" lon="16.0635067"><ele>823.8</ele><time>2026-04-25T14:24:23.834Z</time></trkpt><trkpt lat="40.6458667" lon="16.0636217"><ele>822.0</ele><time>2026-04-25T14:24:54.832Z</time></trkpt><trkpt lat="40.6457933" lon="16.0636767"><ele>822.0</ele><time>2026-04-25T14:24:56.834Z</time></trkpt><trkpt lat="40.6457367" lon="16.0638117"><ele>822.0</ele><time>2026-04-25T14:24:58.833Z</time></trkpt><trkpt lat="40.6456517" lon="16.06392"><ele>822.0</ele><time>2026-04-25T14:25:00.833Z</time></trkpt><trkpt lat="40.6455967" lon="16.063965"><ele>822.0</ele><time>2026-04-25T14:25:01.832Z</time></trkpt><trkpt lat="40.6455367" lon="16.0640017"><ele>822.0</ele><time>2026-04-25T14:25:02.832Z</time></trkpt><trkpt lat="40.645463" lon="16.0640588"><ele>824.0</ele><time>2026-04-25T14:25:03.831Z</time></trkpt><trkpt lat="40.6453894" lon="16.0641165"><ele>826.0</ele><time>2026-04-25T14:25:04.832Z</time></trkpt><trkpt lat="40.6453234" lon="16.0641711"><ele>828.0</ele><time>2026-04-25T14:25:05.833Z</time></trkpt><trkpt lat="40.6452276" lon="16.0642609"><ele>830.0</ele><time>2026-04-25T14:25:07.832Z</time></trkpt><trkpt lat="40.6452037" lon="16.0643834"><ele>832.0</ele><time>2026-04-25T14:25:09.833Z</time></trkpt><trkpt lat="40.6452209" lon="16.0644797"><ele>834.6</ele><time>2026-04-25T14:25:10.833Z</time></trkpt><trkpt lat="40.6452273" lon="16.0645665"><ele>837.2</ele><time>2026-04-25T14:25:11.832Z</time></trkpt><trkpt lat="40.6452086" lon="16.0646858"><ele>839.8</ele><time>2026-04-25T14:25:13.833Z</time></trkpt><trkpt lat="40.645172" lon="16.0648131"><ele>842.4</ele><time>2026-04-25T14:25:15.833Z</time></trkpt><trkpt lat="40.6451678" lon="16.0649789"><ele>845.0</ele><time>2026-04-25T14:25:17.834Z</time></trkpt><trkpt lat="40.6451595" lon="16.0650739"><ele>846.3333333333334</ele><time>2026-04-25T14:25:18.835Z</time></trkpt><trkpt lat="40.6451374" lon="16.065173"><ele>847.6666666666667</ele><time>2026-04-25T14:25:19.833Z</time></trkpt><trkpt lat="40.645103" lon="16.0652764"><ele>849.0</ele><time>2026-04-25T14:25:20.834Z</time></trkpt><trkpt lat="40.6450667" lon="16.0653688"><ele>850.3333333333333</ele><time>2026-04-25T14:25:21.832Z</time></trkpt><trkpt lat="40.64503" lon="16.0654433"><ele>851.6666666666666</ele><time>2026-04-25T14:25:22.831Z</time></trkpt><trkpt lat="40.645035" lon="16.0655683"><ele>853.0</ele><time>2026-04-25T14:25:24.833Z</time></trkpt><trkpt lat="40.645075" lon="16.065665"><ele>852.9999999999999</ele><time>2026-04-25T14:25:26.833Z</time></trkpt><trkpt lat="40.64509" lon="16.0657817"><ele>853.0</ele><time>2026-04-25T14:25:28.834Z</time></trkpt><trkpt lat="40.6450533" lon="16.0658883"><ele>853.0</ele><time>2026-04-25T14:25:30.832Z</time></trkpt><trkpt lat="40.6450083" lon="16.0659583"><ele>853.0</ele><time>2026-04-25T14:25:32.833Z</time></trkpt><trkpt lat="40.6449817" lon="16.0660417"><ele>852.9999999999999</ele><time>2026-04-25T14:25:50.832Z</time></trkpt><trkpt lat="40.6449367" lon="16.0661467"><ele>853.0</ele><time>2026-04-25T14:25:52.833Z</time></trkpt><trkpt lat="40.6449517" lon="16.0662583"><ele>852.9999999999999</ele><time>2026-04-25T14:25:54.832Z</time></trkpt><trkpt lat="40.645005" lon="16.066315"><ele>853.0</ele><time>2026-04-25T14:25:56.833Z</time></trkpt><trkpt lat="40.64512" lon="16.0662583"><ele>853.0</ele><time>2026-04-25T14:25:58.832Z</time></trkpt><trkpt lat="40.64519" lon="16.0662233"><ele>853.0</ele><time>2026-04-25T14:25:59.834Z</time></trkpt><trkpt lat="40.645265" lon="16.066205"><ele>852.9999999999999</ele><time>2026-04-25T14:26:00.834Z</time></trkpt><trkpt lat="40.6453367" lon="16.0661967"><ele>853.0</ele><time>2026-04-25T14:26:01.834Z</time></trkpt><trkpt lat="40.6454183" lon="16.0661967"><ele>850.9999999999999</ele><time>2026-04-25T14:26:02.834Z</time></trkpt><trkpt lat="40.6454917" lon="16.0662017"><ele>849.0</ele><time>2026-04-25T14:26:03.833Z</time></trkpt><trkpt lat="40.6455717" lon="16.066205"><ele>847.0</ele><time>2026-04-25T14:26:04.832Z</time></trkpt><trkpt lat="40.645645" lon="16.0662017"><ele>845.0</ele><time>2026-04-25T14:26:05.832Z</time></trkpt><trkpt lat="40.6457267" lon="16.066195"><ele>842.9999999999999</ele><time>2026-04-25T14:26:06.833Z</time></trkpt><trkpt lat="40.6458083" lon="16.0661867"><ele>841.0</ele><time>2026-04-25T14:26:07.832Z</time></trkpt><trkpt lat="40.645895" lon="16.0661933"><ele>840.9999999999999</ele><time>2026-04-25T14:26:08.834Z</time></trkpt><trkpt lat="40.6459733" lon="16.0662117"><ele>841.0</ele><time>2026-04-25T14:26:09.833Z</time></trkpt><trkpt lat="40.6460367" lon="16.0662467"><ele>841.0</ele><time>2026-04-25T14:26:10.833Z</time></trkpt><trkpt lat="40.64609" lon="16.0663067"><ele>841.0</ele><time>2026-04-25T14:26:11.834Z</time></trkpt><trkpt lat="40.64613" lon="16.066395"><ele>840.9999999999999</ele><time>2026-04-25T14:26:12.832Z</time></trkpt><trkpt lat="40.6461667" lon="16.0665033"><ele>841.0</ele><time>2026-04-25T14:26:13.833Z</time></trkpt><trkpt lat="40.646215" lon="16.06661"><ele>836.1999999999999</ele><time>2026-04-25T14:26:14.833Z</time></trkpt><trkpt lat="40.6462767" lon="16.066715"><ele>831.4</ele><time>2026-04-25T14:26:15.832Z</time></trkpt><trkpt lat="40.6463267" lon="16.0668417"><ele>826.6</ele><time>2026-04-25T14:26:16.835Z</time></trkpt><trkpt lat="40.64637" lon="16.0669683"><ele>821.8</ele><time>2026-04-25T14:26:17.832Z</time></trkpt><trkpt lat="40.646415" lon="16.0670817"><ele>817.0</ele><time>2026-04-25T14:26:18.832Z</time></trkpt><trkpt lat="40.6464583" lon="16.0671867"><ele>816.9999999999999</ele><time>2026-04-25T14:26:19.832Z</time></trkpt><trkpt lat="40.6465033" lon="16.0672767"><ele>817.0</ele><time>2026-04-25T14:26:20.832Z</time></trkpt><trkpt lat="40.6465567" lon="16.0673383"><ele>817.0</ele><time>2026-04-25T14:26:21.833Z</time></trkpt><trkpt lat="40.6466267" lon="16.0673783"><ele>817.0</ele><time>2026-04-25T14:26:22.833Z</time></trkpt><trkpt lat="40.646705" lon="16.06741"><ele>816.9999999999999</ele><time>2026-04-25T14:26:23.833Z</time></trkpt><trkpt lat="40.6468033" lon="16.067425"><ele>817.0</ele><time>2026-04-25T14:26:24.833Z</time></trkpt><trkpt lat="40.6469083" lon="16.0674467"><ele>815.8</ele><time>2026-04-25T14:26:25.833Z</time></trkpt><trkpt lat="40.647005" lon="16.0674783"><ele>814.6</ele><time>2026-04-25T14:26:26.833Z</time></trkpt><trkpt lat="40.6470917" lon="16.067525"><ele>813.4</ele><time>2026-04-25T14:26:27.833Z</time></trkpt><trkpt lat="40.6471783" lon="16.0675617"><ele>812.1999999999999</ele><time>2026-04-25T14:26:28.832Z</time></trkpt><trkpt lat="40.6472717" lon="16.0675883"><ele>811.0</ele><time>2026-04-25T14:26:29.832Z</time></trkpt><trkpt lat="40.6473767" lon="16.0676033"><ele>811.0</ele><time>2026-04-25T14:26:30.833Z</time></trkpt><trkpt lat="40.64748" lon="16.0676117"><ele>811.0</ele><time>2026-04-25T14:26:31.832Z</time></trkpt><trkpt lat="40.647585" lon="16.0676217"><ele>811.0</ele><time>2026-04-25T14:26:32.834Z</time></trkpt><trkpt lat="40.64768" lon="16.06763"><ele>811.0</ele><time>2026-04-25T14:26:33.832Z</time></trkpt><trkpt lat="40.6477683" lon="16.0676333"><ele>811.0</ele><time>2026-04-25T14:26:34.835Z</time></trkpt><trkpt lat="40.647855" lon="16.067645"><ele>809.9999999999999</ele><time>2026-04-25T14:26:35.833Z</time></trkpt><trkpt lat="40.647935" lon="16.06765"><ele>809.0</ele><time>2026-04-25T14:26:36.833Z</time></trkpt><trkpt lat="40.6480233" lon="16.067655"><ele>808.0</ele><time>2026-04-25T14:26:37.832Z</time></trkpt><trkpt lat="40.6480867" lon="16.0676617"><ele>807.0</ele><time>2026-04-25T14:26:38.833Z</time></trkpt><trkpt lat="40.64803" lon="16.0677367"><ele>805.9999999999999</ele><time>2026-04-25T14:26:51.832Z</time></trkpt><trkpt lat="40.648085" lon="16.06767"><ele>805.0</ele><time>2026-04-25T14:30:28.833Z</time></trkpt><trkpt lat="40.6482183" lon="16.067675"><ele>805.0</ele><time>2026-04-25T14:30:30.832Z</time></trkpt><trkpt lat="40.6483067" lon="16.0676717"><ele>805.0</ele><time>2026-04-25T14:30:31.832Z</time></trkpt><trkpt lat="40.6484" lon="16.0676633"><ele>805.0</ele><time>2026-04-25T14:30:32.832Z</time></trkpt><trkpt lat="40.648495" lon="16.0676433"><ele>805.0</ele><time>2026-04-25T14:30:33.831Z</time></trkpt><trkpt lat="40.6485833" lon="16.067625"><ele>805.0</ele><time>2026-04-25T14:30:34.832Z</time></trkpt><trkpt lat="40.648665" lon="16.0676133"><ele>802.3333333333333</ele><time>2026-04-25T14:30:35.832Z</time></trkpt><trkpt lat="40.6487433" lon="16.06762"><ele>799.6666666666666</ele><time>2026-04-25T14:30:36.833Z</time></trkpt><trkpt lat="40.6488217" lon="16.0676483"><ele>797.0</ele><time>2026-04-25T14:30:37.833Z</time></trkpt><trkpt lat="40.6489117" lon="16.06771"><ele>794.3333333333333</ele><time>2026-04-25T14:30:38.833Z</time></trkpt><trkpt lat="40.64898" lon="16.0677883"><ele>791.6666666666666</ele><time>2026-04-25T14:30:39.831Z</time></trkpt><trkpt lat="40.649035" lon="16.0678733"><ele>789.0</ele><time>2026-04-25T14:30:40.833Z</time></trkpt><trkpt lat="40.6490767" lon="16.067965"><ele>789.0</ele><time>2026-04-25T14:30:41.832Z</time></trkpt><trkpt lat="40.6491117" lon="16.0680667"><ele>789.0</ele><time>2026-04-25T14:30:42.832Z</time></trkpt><trkpt lat="40.6491517" lon="16.0681633"><ele>789.0</ele><time>2026-04-25T14:30:43.832Z</time></trkpt><trkpt lat="40.6491767" lon="16.0682633"><ele>789.0</ele><time>2026-04-25T14:30:44.833Z</time></trkpt><trkpt lat="40.6491867" lon="16.0683567"><ele>789.0</ele><time>2026-04-25T14:30:45.832Z</time></trkpt><trkpt lat="40.6492" lon="16.0684467"><ele>789.0</ele><time>2026-04-25T14:30:46.831Z</time></trkpt><trkpt lat="40.6492183" lon="16.0685267"><ele>790.2</ele><time>2026-04-25T14:30:47.832Z</time></trkpt><trkpt lat="40.64925" lon="16.0686683"><ele>791.4000000000001</ele><time>2026-04-25T14:30:49.833Z</time></trkpt><trkpt lat="40.64934" lon="16.068705"><ele>792.6</ele><time>2026-04-25T14:30:51.831Z</time></trkpt><trkpt lat="40.6494083" lon="16.0686933"><ele>793.8</ele><time>2026-04-25T14:30:52.834Z</time></trkpt><trkpt lat="40.6495133" lon="16.0686767"><ele>795.0</ele><time>2026-04-25T14:30:54.832Z</time></trkpt><trkpt lat="40.6496283" lon="16.06867"><ele>792.5</ele><time>2026-04-25T14:30:56.832Z</time></trkpt><trkpt lat="40.649745" lon="16.068695"><ele>790.0</ele><time>2026-04-25T14:30:58.835Z</time></trkpt><trkpt lat="40.6498083" lon="16.068715"><ele>787.5</ele><time>2026-04-25T14:30:59.832Z</time></trkpt><trkpt lat="40.6498817" lon="16.0687283"><ele>785.0</ele><time>2026-04-25T14:31:00.831Z</time></trkpt><trkpt lat="40.6499567" lon="16.0687417"><ele>782.5</ele><time>2026-04-25T14:31:01.833Z</time></trkpt><trkpt lat="40.6500333" lon="16.0687567"><ele>780.0</ele><time>2026-04-25T14:31:02.834Z</time></trkpt><trkpt lat="40.6501333" lon="16.06877"><ele>780.0</ele><time>2026-04-25T14:31:03.832Z</time></trkpt><trkpt lat="40.6502317" lon="16.068785"><ele>780.0</ele><time>2026-04-25T14:31:04.832Z</time></trkpt><trkpt lat="40.6503217" lon="16.0688083"><ele>780.0</ele><time>2026-04-25T14:31:05.832Z</time></trkpt><trkpt lat="40.6504017" lon="16.0688417"><ele>780.0</ele><time>2026-04-25T14:31:06.832Z</time></trkpt><trkpt lat="40.650475" lon="16.0688767"><ele>780.0</ele><time>2026-04-25T14:31:07.832Z</time></trkpt><trkpt lat="40.6505433" lon="16.0689017"><ele>780.0</ele><time>2026-04-25T14:31:08.832Z</time></trkpt><trkpt lat="40.6506533" lon="16.0689217"><ele>777.4</ele><time>2026-04-25T14:31:10.832Z</time></trkpt><trkpt lat="40.6507733" lon="16.0689717"><ele>774.8</ele><time>2026-04-25T14:31:12.832Z</time></trkpt><trkpt lat="40.65087" lon="16.069005"><ele>772.2</ele><time>2026-04-25T14:31:13.831Z</time></trkpt><trkpt lat="40.650955" lon="16.0690267"><ele>769.6</ele><time>2026-04-25T14:31:14.833Z</time></trkpt><trkpt lat="40.651025" lon="16.0690483"><ele>767.0</ele><time>2026-04-25T14:31:15.832Z</time></trkpt><trkpt lat="40.6511233" lon="16.0690467"><ele>763.2</ele><time>2026-04-25T14:31:17.832Z</time></trkpt><trkpt lat="40.651195" lon="16.069"><ele>759.4000000000001</ele><time>2026-04-25T14:31:19.833Z</time></trkpt><trkpt lat="40.6512733" lon="16.06898"><ele>755.5999999999999</ele><time>2026-04-25T14:31:21.832Z</time></trkpt><trkpt lat="40.65136" lon="16.0690117"><ele>751.8</ele><time>2026-04-25T14:31:23.832Z</time></trkpt><trkpt lat="40.6514617" lon="16.0690767"><ele>748.0</ele><time>2026-04-25T14:31:25.832Z</time></trkpt><trkpt lat="40.651555" lon="16.0691667"><ele>748.0</ele><time>2026-04-25T14:31:27.831Z</time></trkpt><trkpt lat="40.6516067" lon="16.0692217"><ele>748.0</ele><time>2026-04-25T14:31:28.831Z</time></trkpt><trkpt lat="40.651655" lon="16.0692767"><ele>748.0</ele><time>2026-04-25T14:31:29.833Z</time></trkpt><trkpt lat="40.65177" lon="16.0693567"><ele>748.0</ele><time>2026-04-25T14:31:31.832Z</time></trkpt><trkpt lat="40.651845" lon="16.0693683"><ele>748.0</ele><time>2026-04-25T14:31:32.833Z</time></trkpt><trkpt lat="40.6519317" lon="16.06938"><ele>748.0</ele><time>2026-04-25T14:31:33.832Z</time></trkpt><trkpt lat="40.6520283" lon="16.0693917"><ele>745.5999999999999</ele><time>2026-04-25T14:31:34.834Z</time></trkpt><trkpt lat="40.652125" lon="16.069395"><ele>743.1999999999999</ele><time>2026-04-25T14:31:35.833Z</time></trkpt><trkpt lat="40.6522233" lon="16.0693817"><ele>740.8</ele><time>2026-04-25T14:31:36.832Z</time></trkpt><trkpt lat="40.65232" lon="16.06936"><ele>738.4</ele><time>2026-04-25T14:31:37.833Z</time></trkpt><trkpt lat="40.6524083" lon="16.0693333"><ele>736.0</ele><time>2026-04-25T14:31:38.832Z</time></trkpt><trkpt lat="40.6524933" lon="16.0693117"><ele>736.0</ele><time>2026-04-25T14:31:39.832Z</time></trkpt><trkpt lat="40.652575" lon="16.0693167"><ele>736.0</ele><time>2026-04-25T14:31:40.832Z</time></trkpt><trkpt lat="40.6526533" lon="16.0693367"><ele>736.0</ele><time>2026-04-25T14:31:41.832Z</time></trkpt><trkpt lat="40.6527583" lon="16.06942"><ele>736.0</ele><time>2026-04-25T14:31:43.832Z</time></trkpt><trkpt lat="40.6528183" lon="16.0694817"><ele>736.0</ele><time>2026-04-25T14:31:44.832Z</time></trkpt><trkpt lat="40.652875" lon="16.0695717"><ele>736.0</ele><time>2026-04-25T14:31:45.834Z</time></trkpt><trkpt lat="40.6529117" lon="16.06968"><ele>733.0</ele><time>2026-04-25T14:31:46.831Z</time></trkpt><trkpt lat="40.6529533" lon="16.06978"><ele>730.0</ele><time>2026-04-25T14:31:47.833Z</time></trkpt><trkpt lat="40.652985" lon="16.06988"><ele>727.0</ele><time>2026-04-25T14:31:48.832Z</time></trkpt><trkpt lat="40.653035" lon="16.069985"><ele>724.0</ele><time>2026-04-25T14:31:50.832Z</time></trkpt><trkpt lat="40.6529883" lon="16.0700717"><ele>721.0</ele><time>2026-04-25T14:32:36.832Z</time></trkpt><trkpt lat="40.6528667" lon="16.0701133"><ele>721.0</ele><time>2026-04-25T14:32:38.832Z</time></trkpt><trkpt lat="40.652795" lon="16.070135"><ele>721.0</ele><time>2026-04-25T14:32:39.833Z</time></trkpt><trkpt lat="40.652715" lon="16.070175"><ele>721.0</ele><time>2026-04-25T14:32:40.832Z</time></trkpt><trkpt lat="40.6526317" lon="16.0702183"><ele>721.0</ele><time>2026-04-25T14:32:41.835Z</time></trkpt><trkpt lat="40.6525333" lon="16.0702567"><ele>721.0</ele><time>2026-04-25T14:32:42.833Z</time></trkpt><trkpt lat="40.6524367" lon="16.0702883"><ele>723.5</ele><time>2026-04-25T14:32:43.833Z</time></trkpt><trkpt lat="40.6523283" lon="16.0703217"><ele>726.0</ele><time>2026-04-25T14:32:44.831Z</time></trkpt><trkpt lat="40.6522067" lon="16.07038"><ele>728.5</ele><time>2026-04-25T14:32:45.831Z</time></trkpt><trkpt lat="40.652095" lon="16.0704283"><ele>731.0</ele><time>2026-04-25T14:32:46.831Z</time></trkpt><trkpt lat="40.6519917" lon="16.0704667"><ele>732.5999999999999</ele><time>2026-04-25T14:32:47.834Z</time></trkpt><trkpt lat="40.6518883" lon="16.0704967"><ele>734.2</ele><time>2026-04-25T14:32:48.832Z</time></trkpt><trkpt lat="40.6517833" lon="16.0705267"><ele>735.8</ele><time>2026-04-25T14:32:49.833Z</time></trkpt><trkpt lat="40.6516717" lon="16.0705417"><ele>737.4000000000001</ele><time>2026-04-25T14:32:50.833Z</time></trkpt><trkpt lat="40.6515583" lon="16.0705467"><ele>739.0</ele><time>2026-04-25T14:32:51.831Z</time></trkpt><trkpt lat="40.65145" lon="16.0705317"><ele>739.0</ele><time>2026-04-25T14:32:52.833Z</time></trkpt><trkpt lat="40.6513567" lon="16.0705217"><ele>739.0</ele><time>2026-04-25T14:32:53.833Z</time></trkpt><trkpt lat="40.65126" lon="16.0705283"><ele>739.0</ele><time>2026-04-25T14:32:54.832Z</time></trkpt><trkpt lat="40.6511683" lon="16.0705383"><ele>739.0</ele><time>2026-04-25T14:32:55.831Z</time></trkpt><trkpt lat="40.6510783" lon="16.0705333"><ele>739.0</ele><time>2026-04-25T14:32:56.832Z</time></trkpt><trkpt lat="40.65098" lon="16.0705167"><ele>740.4000000000001</ele><time>2026-04-25T14:32:57.832Z</time></trkpt><trkpt lat="40.6508667" lon="16.0704983"><ele>741.8</ele><time>2026-04-25T14:32:58.833Z</time></trkpt><trkpt lat="40.6507717" lon="16.07048"><ele>743.2</ele><time>2026-04-25T14:32:59.832Z</time></trkpt><trkpt lat="40.6506883" lon="16.0704433"><ele>744.5999999999999</ele><time>2026-04-25T14:33:00.831Z</time></trkpt><trkpt lat="40.6506083" lon="16.0704"><ele>746.0</ele><time>2026-04-25T14:33:01.833Z</time></trkpt><trkpt lat="40.6505117" lon="16.0703533"><ele>746.0</ele><time>2026-04-25T14:33:02.833Z</time></trkpt><trkpt lat="40.6504217" lon="16.07032"><ele>746.0</ele><time>2026-04-25T14:33:03.832Z</time></trkpt><trkpt lat="40.6503383" lon="16.0702867"><ele>746.0</ele><time>2026-04-25T14:33:04.833Z</time></trkpt><trkpt lat="40.65025" lon="16.0702583"><ele>746.0</ele><time>2026-04-25T14:33:05.832Z</time></trkpt><trkpt lat="40.6501367" lon="16.07026"><ele>746.0</ele><time>2026-04-25T14:33:06.833Z</time></trkpt><trkpt lat="40.6500383" lon="16.0702683"><ele>748.0</ele><time>2026-04-25T14:33:07.833Z</time></trkpt><trkpt lat="40.649945" lon="16.0702817"><ele>750.0</ele><time>2026-04-25T14:33:08.832Z</time></trkpt><trkpt lat="40.6498483" lon="16.0702883"><ele>752.0</ele><time>2026-04-25T14:33:09.831Z</time></trkpt><trkpt lat="40.64975" lon="16.0702783"><ele>754.0</ele><time>2026-04-25T14:33:10.832Z</time></trkpt><trkpt lat="40.649655" lon="16.0702633"><ele>756.0</ele><time>2026-04-25T14:33:11.833Z</time></trkpt><trkpt lat="40.6495617" lon="16.0702433"><ele>756.0</ele><time>2026-04-25T14:33:12.832Z</time></trkpt><trkpt lat="40.649475" lon="16.0702167"><ele>756.0</ele><time>2026-04-25T14:33:13.832Z</time></trkpt><trkpt lat="40.649375" lon="16.07019"><ele>756.0</ele><time>2026-04-25T14:33:14.832Z</time></trkpt><trkpt lat="40.64927" lon="16.0701533"><ele>756.0</ele><time>2026-04-25T14:33:15.831Z</time></trkpt><trkpt lat="40.6491533" lon="16.0700983"><ele>756.0</ele><time>2026-04-25T14:33:16.831Z</time></trkpt><trkpt lat="40.6490467" lon="16.0700417"><ele>757.1666666666666</ele><time>2026-04-25T14:33:17.832Z</time></trkpt><trkpt lat="40.6489633" lon="16.0699867"><ele>758.3333333333334</ele><time>2026-04-25T14:33:18.832Z</time></trkpt><trkpt lat="40.64891" lon="16.0699317"><ele>759.5</ele><time>2026-04-25T14:33:19.831Z</time></trkpt><trkpt lat="40.6488433" lon="16.06984"><ele>760.6666666666667</ele><time>2026-04-25T14:33:21.831Z</time></trkpt><trkpt lat="40.648765" lon="16.0698483"><ele>761.8333333333334</ele><time>2026-04-25T14:33:24.833Z</time></trkpt><trkpt lat="40.6486867" lon="16.0699183"><ele>763.0</ele><time>2026-04-25T14:33:26.833Z</time></trkpt><trkpt lat="40.648635" lon="16.0699683"><ele>764.3333333333334</ele><time>2026-04-25T14:33:27.831Z</time></trkpt><trkpt lat="40.6485833" lon="16.0700183"><ele>765.6666666666667</ele><time>2026-04-25T14:33:28.832Z</time></trkpt><trkpt lat="40.6485117" lon="16.0700817"><ele>767.0</ele><time>2026-04-25T14:33:29.832Z</time></trkpt><trkpt lat="40.64844" lon="16.070135"><ele>768.3333333333334</ele><time>2026-04-25T14:33:30.832Z</time></trkpt><trkpt lat="40.64835" lon="16.0702033"><ele>769.6666666666666</ele><time>2026-04-25T14:33:31.833Z</time></trkpt><trkpt lat="40.648265" lon="16.07028"><ele>771.0</ele><time>2026-04-25T14:33:32.833Z</time></trkpt><trkpt lat="40.64819" lon="16.07034"><ele>771.0</ele><time>2026-04-25T14:33:33.831Z</time></trkpt><trkpt lat="40.648115" lon="16.0703933"><ele>771.0</ele><time>2026-04-25T14:33:34.832Z</time></trkpt><trkpt lat="40.6480467" lon="16.07043"><ele>771.0</ele><time>2026-04-25T14:33:35.831Z</time></trkpt><trkpt lat="40.6479828" lon="16.0704782"><ele>771.0</ele><time>2026-04-25T14:33:36.833Z</time></trkpt><trkpt lat="40.6479263" lon="16.0705232"><ele>771.0</ele><time>2026-04-25T14:33:37.832Z</time></trkpt><trkpt lat="40.6478396" lon="16.070592"><ele>771.0</ele><time>2026-04-25T14:33:39.832Z</time></trkpt><trkpt lat="40.6478022" lon="16.0706732"><ele>771.0</ele><time>2026-04-25T14:33:42.832Z</time></trkpt><trkpt lat="40.6478036" lon="16.0707629"><ele>771.0</ele><time>2026-04-25T14:33:45.832Z</time></trkpt><trkpt lat="40.64785" lon="16.0708617"><ele>771.0</ele><time>2026-04-25T14:33:48.833Z</time></trkpt><trkpt lat="40.6479283" lon="16.0710667"><ele>771.0</ele><time>2026-04-25T14:37:46.832Z</time></trkpt><trkpt lat="40.6479733" lon="16.0711733"><ele>771.0</ele><time>2026-04-25T14:37:48.834Z</time></trkpt><trkpt lat="40.648055" lon="16.07127"><ele>769.3333333333334</ele><time>2026-04-25T14:37:50.832Z</time></trkpt><trkpt lat="40.6481267" lon="16.0713283"><ele>767.6666666666666</ele><time>2026-04-25T14:37:51.832Z</time></trkpt><trkpt lat="40.6482017" lon="16.0713767"><ele>766.0</ele><time>2026-04-25T14:37:52.833Z</time></trkpt><trkpt lat="40.6482867" lon="16.0714233"><ele>764.3333333333333</ele><time>2026-04-25T14:37:53.832Z</time></trkpt><trkpt lat="40.6483717" lon="16.0714633"><ele>762.6666666666666</ele><time>2026-04-25T14:37:54.831Z</time></trkpt><trkpt lat="40.6484533" lon="16.0715267"><ele>761.0</ele><time>2026-04-25T14:37:55.831Z</time></trkpt><trkpt lat="40.648535" lon="16.071595"><ele>761.8</ele><time>2026-04-25T14:37:56.832Z</time></trkpt><trkpt lat="40.6486167" lon="16.0716583"><ele>762.5999999999999</ele><time>2026-04-25T14:37:57.832Z</time></trkpt><trkpt lat="40.64869" lon="16.07172"><ele>763.4</ele><time>2026-04-25T14:37:58.832Z</time></trkpt><trkpt lat="40.6487483" lon="16.0717883"><ele>764.2</ele><time>2026-04-25T14:37:59.833Z</time></trkpt><trkpt lat="40.6488" lon="16.071845"><ele>765.0</ele><time>2026-04-25T14:38:00.832Z</time></trkpt><trkpt lat="40.6489217" lon="16.0719133"><ele>762.8333333333334</ele><time>2026-04-25T14:38:02.834Z</time></trkpt><trkpt lat="40.6489983" lon="16.0719483"><ele>760.6666666666666</ele><time>2026-04-25T14:38:03.832Z</time></trkpt><trkpt lat="40.6490617" lon="16.0719917"><ele>758.5</ele><time>2026-04-25T14:38:04.832Z</time></trkpt><trkpt lat="40.6491217" lon="16.072045"><ele>756.3333333333333</ele><time>2026-04-25T14:38:05.833Z</time></trkpt><trkpt lat="40.6491733" lon="16.0721"><ele>754.1666666666666</ele><time>2026-04-25T14:38:06.833Z</time></trkpt><trkpt lat="40.6492217" lon="16.0721533"><ele>752.0</ele><time>2026-04-25T14:38:07.832Z</time></trkpt><trkpt lat="40.6493" lon="16.0722817"><ele>752.0</ele><time>2026-04-25T14:38:09.832Z</time></trkpt><trkpt lat="40.64935" lon="16.0723517"><ele>752.0</ele><time>2026-04-25T14:38:10.833Z</time></trkpt><trkpt lat="40.6494083" lon="16.0724133"><ele>752.0</ele><time>2026-04-25T14:38:11.832Z</time></trkpt><trkpt lat="40.6494583" lon="16.0724967"><ele>752.0</ele><time>2026-04-25T14:38:12.832Z</time></trkpt><trkpt lat="40.649505" lon="16.0725967"><ele>752.0</ele><time>2026-04-25T14:38:13.832Z</time></trkpt><trkpt lat="40.6495433" lon="16.0726967"><ele>752.0</ele><time>2026-04-25T14:38:14.833Z</time></trkpt><trkpt lat="40.6495783" lon="16.0727867"><ele>750.6666666666666</ele><time>2026-04-25T14:38:15.832Z</time></trkpt><trkpt lat="40.6496117" lon="16.0729017"><ele>749.3333333333333</ele><time>2026-04-25T14:38:17.832Z</time></trkpt><trkpt lat="40.649635" lon="16.0730083"><ele>748.0</ele><time>2026-04-25T14:38:20.832Z</time></trkpt><trkpt lat="40.6496467" lon="16.0730933"><ele>746.6666666666666</ele><time>2026-04-25T14:38:23.833Z</time></trkpt><trkpt lat="40.64966" lon="16.0731817"><ele>745.3333333333334</ele><time>2026-04-25T14:38:26.833Z</time></trkpt><trkpt lat="40.6497533" lon="16.0731967"><ele>744.0</ele><time>2026-04-25T14:38:29.835Z</time></trkpt><trkpt lat="40.6498117" lon="16.073165"><ele>744.0</ele><time>2026-04-25T14:38:30.834Z</time></trkpt><trkpt lat="40.6499167" lon="16.073145"><ele>744.0</ele><time>2026-04-25T14:38:32.834Z</time></trkpt><trkpt lat="40.6499933" lon="16.073215"><ele>744.0</ele><time>2026-04-25T14:38:34.833Z</time></trkpt><trkpt lat="40.6500817" lon="16.073335"><ele>744.0</ele><time>2026-04-25T14:38:36.833Z</time></trkpt><trkpt lat="40.6501267" lon="16.0734167"><ele>744.0</ele><time>2026-04-25T14:38:37.833Z</time></trkpt><trkpt lat="40.6501533" lon="16.073495"><ele>744.8571428571429</ele><time>2026-04-25T14:38:38.834Z</time></trkpt><trkpt lat="40.65017" lon="16.07358"><ele>745.7142857142858</ele><time>2026-04-25T14:38:39.832Z</time></trkpt><trkpt lat="40.6501917" lon="16.0736667"><ele>746.5714285714287</ele><time>2026-04-25T14:38:40.832Z</time></trkpt><trkpt lat="40.6502083" lon="16.07376"><ele>747.4285714285714</ele><time>2026-04-25T14:38:41.832Z</time></trkpt><trkpt lat="40.6502167" lon="16.0738533"><ele>748.2857142857142</ele><time>2026-04-25T14:38:42.833Z</time></trkpt><trkpt lat="40.650215" lon="16.0739383"><ele>749.1428571428572</ele><time>2026-04-25T14:38:43.833Z</time></trkpt><trkpt lat="40.650235" lon="16.07407"><ele>750.0</ele><time>2026-04-25T14:38:45.832Z</time></trkpt><trkpt lat="40.6502883" lon="16.07417"><ele>750.6</ele><time>2026-04-25T14:38:47.833Z</time></trkpt><trkpt lat="40.6503733" lon="16.0742667"><ele>751.2</ele><time>2026-04-25T14:38:49.833Z</time></trkpt><trkpt lat="40.6504733" lon="16.07432"><ele>751.8</ele><time>2026-04-25T14:38:51.832Z</time></trkpt><trkpt lat="40.6505983" lon="16.07434"><ele>752.4</ele><time>2026-04-25T14:38:53.832Z</time></trkpt><trkpt lat="40.6506733" lon="16.0743267"><ele>753.0</ele><time>2026-04-25T14:38:54.834Z</time></trkpt><trkpt lat="40.6507417" lon="16.0743167"><ele>753.0</ele><time>2026-04-25T14:38:55.832Z</time></trkpt><trkpt lat="40.65085" lon="16.0743"><ele>753.0</ele><time>2026-04-25T14:38:57.832Z</time></trkpt><trkpt lat="40.65093" lon="16.074325"><ele>753.0</ele><time>2026-04-25T14:38:59.833Z</time></trkpt><trkpt lat="40.6510067" lon="16.0743667"><ele>753.0</ele><time>2026-04-25T14:39:01.832Z</time></trkpt><trkpt lat="40.6510833" lon="16.0744017"><ele>753.0</ele><time>2026-04-25T14:39:03.833Z</time></trkpt><trkpt lat="40.65116" lon="16.0744483"><ele>753.0</ele><time>2026-04-25T14:39:05.834Z</time></trkpt><trkpt lat="40.6512367" lon="16.0745083"><ele>751.5999999999999</ele><time>2026-04-25T14:39:07.833Z</time></trkpt><trkpt lat="40.6512933" lon="16.0745817"><ele>750.1999999999999</ele><time>2026-04-25T14:39:09.832Z</time></trkpt><trkpt lat="40.6513467" lon="16.074675"><ele>748.8</ele><time>2026-04-25T14:39:11.832Z</time></trkpt><trkpt lat="40.6514" lon="16.0747683"><ele>747.4</ele><time>2026-04-25T14:39:13.832Z</time></trkpt><trkpt lat="40.65145" lon="16.0748467"><ele>746.0</ele><time>2026-04-25T14:39:15.834Z</time></trkpt><trkpt lat="40.6515433" lon="16.0750433"><ele>746.0</ele><time>2026-04-25T14:43:08.832Z</time></trkpt><trkpt lat="40.651595" lon="16.0751083"><ele>746.0</ele><time>2026-04-25T14:43:10.832Z</time></trkpt><trkpt lat="40.651665" lon="16.0751583"><ele>746.0</ele><time>2026-04-25T14:43:12.833Z</time></trkpt><trkpt lat="40.651735" lon="16.0752167"><ele>746.0</ele><time>2026-04-25T14:43:15.83Z</time></trkpt><trkpt lat="40.6517683" lon="16.0753067"><ele>746.0</ele><time>2026-04-25T14:43:17.832Z</time></trkpt><trkpt lat="40.651795" lon="16.075405"><ele>746.0</ele><time>2026-04-25T14:43:19.833Z</time></trkpt><trkpt lat="40.6518" lon="16.07551"><ele>746.0</ele><time>2026-04-25T14:43:22.832Z</time></trkpt><trkpt lat="40.6518317" lon="16.07562"><ele>746.0</ele><time>2026-04-25T14:43:24.833Z</time></trkpt><trkpt lat="40.6518667" lon="16.0757467"><ele>746.0</ele><time>2026-04-25T14:43:26.833Z</time></trkpt><trkpt lat="40.6518983" lon="16.0758433"><ele>746.0</ele><time>2026-04-25T14:43:29.837Z</time></trkpt><trkpt lat="40.6519083" lon="16.0759267"><ele>746.0</ele><time>2026-04-25T14:43:31.833Z</time></trkpt><trkpt lat="40.6519433" lon="16.0760067"><ele>746.0</ele><time>2026-04-25T14:43:35.832Z</time></trkpt><trkpt lat="40.6519717" lon="16.0761033"><ele>742.8333333333333</ele><time>2026-04-25T14:43:39.832Z</time></trkpt><trkpt lat="40.6519967" lon="16.0761833"><ele>739.6666666666666</ele><time>2026-04-25T14:43:42.832Z</time></trkpt><trkpt lat="40.6520167" lon="16.07629"><ele>736.5</ele><time>2026-04-25T14:43:45.832Z</time></trkpt><trkpt lat="40.6520317" lon="16.0763767"><ele>733.3333333333334</ele><time>2026-04-25T14:43:47.833Z</time></trkpt><trkpt lat="40.65207" lon="16.07651"><ele>730.1666666666667</ele><time>2026-04-25T14:43:49.832Z</time></trkpt><trkpt lat="40.6521283" lon="16.076635"><ele>727.0</ele><time>2026-04-25T14:43:51.834Z</time></trkpt><trkpt lat="40.6521883" lon="16.0767083"><ele>727.0</ele><time>2026-04-25T14:43:53.832Z</time></trkpt><trkpt lat="40.6522717" lon="16.0767767"><ele>727.0</ele><time>2026-04-25T14:43:56.833Z</time></trkpt><trkpt lat="40.6523217" lon="16.0768283"><ele>727.0</ele><time>2026-04-25T14:43:57.832Z</time></trkpt><trkpt lat="40.65237" lon="16.07689"><ele>727.0</ele><time>2026-04-25T14:43:58.831Z</time></trkpt><trkpt lat="40.6524133" lon="16.0769533"><ele>727.0</ele><time>2026-04-25T14:43:59.834Z</time></trkpt><trkpt lat="40.6524933" lon="16.0770733"><ele>727.0</ele><time>2026-04-25T14:44:01.832Z</time></trkpt><trkpt lat="40.65253" lon="16.0771417"><ele>727.0</ele><time>2026-04-25T14:44:02.834Z</time></trkpt><trkpt lat="40.6525717" lon="16.0772467"><ele>727.0</ele><time>2026-04-25T14:44:03.832Z</time></trkpt><trkpt lat="40.652615" lon="16.0773567"><ele>727.0</ele><time>2026-04-25T14:44:04.833Z</time></trkpt><trkpt lat="40.652655" lon="16.077455"><ele>727.0</ele><time>2026-04-25T14:44:05.832Z</time></trkpt><trkpt lat="40.65269" lon="16.0775433"><ele>727.0</ele><time>2026-04-25T14:44:06.832Z</time></trkpt><trkpt lat="40.65272" lon="16.0776233"><ele>727.0</ele><time>2026-04-25T14:44:07.833Z</time></trkpt><trkpt lat="40.6527583" lon="16.077765"><ele>724.4000000000001</ele><time>2026-04-25T14:44:09.832Z</time></trkpt><trkpt lat="40.6527983" lon="16.0779067"><ele>721.8000000000001</ele><time>2026-04-25T14:44:11.832Z</time></trkpt><trkpt lat="40.65285" lon="16.0780367"><ele>719.2</ele><time>2026-04-25T14:44:13.832Z</time></trkpt><trkpt lat="40.6529033" lon="16.078185"><ele>716.6</ele><time>2026-04-25T14:44:15.834Z</time></trkpt><trkpt lat="40.6529317" lon="16.0782683"><ele>714.0</ele><time>2026-04-25T14:44:16.832Z</time></trkpt><trkpt lat="40.6529567" lon="16.0783467"><ele>713.25</ele><time>2026-04-25T14:44:17.833Z</time></trkpt><trkpt lat="40.6530133" lon="16.0784883"><ele>712.5</ele><time>2026-04-25T14:44:19.832Z</time></trkpt><trkpt lat="40.6530683" lon="16.07861"><ele>711.75</ele><time>2026-04-25T14:44:21.833Z</time></trkpt><trkpt lat="40.6531183" lon="16.07875"><ele>711.0</ele><time>2026-04-25T14:44:23.832Z</time></trkpt><trkpt lat="40.6531767" lon="16.0788917"><ele>711.0</ele><time>2026-04-25T14:44:25.833Z</time></trkpt><trkpt lat="40.653225" lon="16.0790233"><ele>711.0</ele><time>2026-04-25T14:44:27.833Z</time></trkpt><trkpt lat="40.653265" lon="16.0791583"><ele>711.0</ele><time>2026-04-25T14:44:29.832Z</time></trkpt><trkpt lat="40.6532867" lon="16.0792983"><ele>711.0</ele><time>2026-04-25T14:44:31.833Z</time></trkpt><trkpt lat="40.6532967" lon="16.0794083"><ele>711.0</ele><time>2026-04-25T14:44:33.833Z</time></trkpt><trkpt lat="40.653275" lon="16.0795"><ele>711.6666666666666</ele><time>2026-04-25T14:45:53.833Z</time></trkpt><trkpt lat="40.6532033" lon="16.0795167"><ele>712.3333333333334</ele><time>2026-04-25T14:45:55.831Z</time></trkpt><trkpt lat="40.653105" lon="16.07952"><ele>713.0</ele><time>2026-04-25T14:45:57.833Z</time></trkpt><trkpt lat="40.653035" lon="16.0795217"><ele>713.6666666666667</ele><time>2026-04-25T14:45:58.833Z</time></trkpt><trkpt lat="40.6529567" lon="16.0795233"><ele>714.3333333333334</ele><time>2026-04-25T14:45:59.834Z</time></trkpt><trkpt lat="40.6528667" lon="16.0795317"><ele>715.0</ele><time>2026-04-25T14:46:00.832Z</time></trkpt><trkpt lat="40.6527767" lon="16.0795417"><ele>715.0</ele><time>2026-04-25T14:46:01.832Z</time></trkpt><trkpt lat="40.6526867" lon="16.0795583"><ele>715.0</ele><time>2026-04-25T14:46:02.833Z</time></trkpt><trkpt lat="40.65259" lon="16.0795767"><ele>715.0</ele><time>2026-04-25T14:46:03.832Z</time></trkpt><trkpt lat="40.6524917" lon="16.0795933"><ele>715.0</ele><time>2026-04-25T14:46:04.833Z</time></trkpt><trkpt lat="40.6523883" lon="16.0796183"><ele>715.0</ele><time>2026-04-25T14:46:05.833Z</time></trkpt><trkpt lat="40.6522767" lon="16.0796333"><ele>715.0</ele><time>2026-04-25T14:46:06.832Z</time></trkpt><trkpt lat="40.6521667" lon="16.079645"><ele>715.0</ele><time>2026-04-25T14:46:07.833Z</time></trkpt><trkpt lat="40.6520633" lon="16.07967"><ele>715.0</ele><time>2026-04-25T14:46:08.833Z</time></trkpt><trkpt lat="40.6519667" lon="16.0796917"><ele>715.0</ele><time>2026-04-25T14:46:09.833Z</time></trkpt><trkpt lat="40.6518867" lon="16.0797117"><ele>715.0</ele><time>2026-04-25T14:46:10.833Z</time></trkpt><trkpt lat="40.6518117" lon="16.0797417"><ele>714.2</ele><time>2026-04-25T14:46:11.833Z</time></trkpt><trkpt lat="40.651695" lon="16.0798033"><ele>713.4</ele><time>2026-04-25T14:46:13.833Z</time></trkpt><trkpt lat="40.6515717" lon="16.0798317"><ele>712.5999999999999</ele><time>2026-04-25T14:46:15.832Z</time></trkpt><trkpt lat="40.6515067" lon="16.0798517"><ele>711.8</ele><time>2026-04-25T14:46:16.833Z</time></trkpt><trkpt lat="40.651435" lon="16.0798667"><ele>711.0</ele><time>2026-04-25T14:46:17.833Z</time></trkpt><trkpt lat="40.65137" lon="16.079885"><ele>711.0</ele><time>2026-04-25T14:46:18.833Z</time></trkpt><trkpt lat="40.6513017" lon="16.0799167"><ele>711.0</ele><time>2026-04-25T14:46:20.834Z</time></trkpt><trkpt lat="40.65121" lon="16.0799283"><ele>711.0</ele><time>2026-04-25T14:46:32.835Z</time></trkpt><trkpt lat="40.6511033" lon="16.0799417"><ele>711.0</ele><time>2026-04-25T14:46:34.833Z</time></trkpt><trkpt lat="40.6509933" lon="16.07993"><ele>711.0</ele><time>2026-04-25T14:46:43.833Z</time></trkpt><trkpt lat="40.650865" lon="16.0799383"><ele>712.5</ele><time>2026-04-25T14:46:45.832Z</time></trkpt><trkpt lat="40.650785" lon="16.079935"><ele>714.0</ele><time>2026-04-25T14:46:46.833Z</time></trkpt><trkpt lat="40.6507" lon="16.0799317"><ele>715.5</ele><time>2026-04-25T14:46:47.833Z</time></trkpt><trkpt lat="40.6506083" lon="16.0799317"><ele>717.0</ele><time>2026-04-25T14:46:48.832Z</time></trkpt><trkpt lat="40.650545" lon="16.07994"><ele>718.5</ele><time>2026-04-25T14:46:49.834Z</time></trkpt><trkpt lat="40.6504817" lon="16.0799483"><ele>720.0</ele><time>2026-04-25T14:46:51.832Z</time></trkpt><trkpt lat="40.6504217" lon="16.0799867"><ele>716.3333333333334</ele><time>2026-04-25T14:46:59.835Z</time></trkpt><trkpt lat="40.6503767" lon="16.08005"><ele>712.6666666666666</ele><time>2026-04-25T14:47:02.836Z</time></trkpt><trkpt lat="40.6503683" lon="16.0801417"><ele>709.0</ele><time>2026-04-25T14:47:04.834Z</time></trkpt><trkpt lat="40.6503667" lon="16.0802783"><ele>705.3333333333333</ele><time>2026-04-25T14:47:06.833Z</time></trkpt><trkpt lat="40.650375" lon="16.08038"><ele>701.6666666666666</ele><time>2026-04-25T14:47:08.835Z</time></trkpt><trkpt lat="40.6503933" lon="16.0804717"><ele>698.0</ele><time>2026-04-25T14:47:10.833Z</time></trkpt><trkpt lat="40.6503767" lon="16.080565"><ele>698.0</ele><time>2026-04-25T14:47:13.834Z</time></trkpt><trkpt lat="40.65031" lon="16.0806417"><ele>698.0</ele><time>2026-04-25T14:47:44.834Z</time></trkpt><trkpt lat="40.6502583" lon="16.0807133"><ele>698.0</ele><time>2026-04-25T14:47:46.833Z</time></trkpt><trkpt lat="40.6502158" lon="16.0807772"><ele>698.0</ele><time>2026-04-25T14:47:50.917Z</time></trkpt><trkpt lat="40.650166" lon="16.0808987"><ele>698.0</ele><time>2026-04-25T14:48:18.904Z</time></trkpt><trkpt lat="40.6501286" lon="16.0811112"><ele>701.2</ele><time>2026-04-25T14:48:21.833Z</time></trkpt><trkpt lat="40.6501517" lon="16.0812883"><ele>704.4</ele><time>2026-04-25T14:48:45.833Z</time></trkpt><trkpt lat="40.6501517" lon="16.081405"><ele>707.6</ele><time>2026-04-25T14:48:47.832Z</time></trkpt><trkpt lat="40.6501717" lon="16.0815283"><ele>710.8000000000001</ele><time>2026-04-25T14:48:49.833Z</time></trkpt><trkpt lat="40.650235" lon="16.081655"><ele>714.0</ele><time>2026-04-25T14:48:51.833Z</time></trkpt><trkpt lat="40.6502833" lon="16.0817083"><ele>712.1666666666666</ele><time>2026-04-25T14:48:52.833Z</time></trkpt><trkpt lat="40.6503467" lon="16.0817617"><ele>710.3333333333334</ele><time>2026-04-25T14:48:53.834Z</time></trkpt><trkpt lat="40.6504133" lon="16.081805"><ele>708.5</ele><time>2026-04-25T14:48:54.834Z</time></trkpt><trkpt lat="40.6504833" lon="16.0818533"><ele>706.6666666666667</ele><time>2026-04-25T14:48:55.834Z</time></trkpt><trkpt lat="40.6505517" lon="16.0818933"><ele>704.8333333333334</ele><time>2026-04-25T14:48:56.833Z</time></trkpt><trkpt lat="40.6506183" lon="16.08194"><ele>703.0</ele><time>2026-04-25T14:48:57.832Z</time></trkpt><trkpt lat="40.6506817" lon="16.081995"><ele>703.0</ele><time>2026-04-25T14:48:58.833Z</time></trkpt><trkpt lat="40.65073" lon="16.0820533"><ele>703.0</ele><time>2026-04-25T14:48:59.834Z</time></trkpt><trkpt lat="40.65078" lon="16.0821883"><ele>703.0</ele><time>2026-04-25T14:49:01.834Z</time></trkpt><trkpt lat="40.650805" lon="16.08229"><ele>703.0</ele><time>2026-04-25T14:49:03.832Z</time></trkpt><trkpt lat="40.65081" lon="16.0824033"><ele>703.0</ele><time>2026-04-25T14:49:09.832Z</time></trkpt><trkpt lat="40.650855" lon="16.0825017"><ele>703.0</ele><time>2026-04-25T14:49:12.834Z</time></trkpt><trkpt lat="40.6509083" lon="16.0826533"><ele>703.4</ele><time>2026-04-25T14:49:14.835Z</time></trkpt><trkpt lat="40.650965" lon="16.08281"><ele>703.8</ele><time>2026-04-25T14:49:16.833Z</time></trkpt><trkpt lat="40.6509967" lon="16.082895"><ele>704.2</ele><time>2026-04-25T14:49:17.833Z</time></trkpt><trkpt lat="40.6510433" lon="16.0829933"><ele>704.6</ele><time>2026-04-25T14:49:18.832Z</time></trkpt><trkpt lat="40.65108" lon="16.0831067"><ele>705.0</ele><time>2026-04-25T14:49:19.835Z</time></trkpt><trkpt lat="40.651115" lon="16.0832133"><ele>700.8</ele><time>2026-04-25T14:49:20.835Z</time></trkpt><trkpt lat="40.6511467" lon="16.0833367"><ele>696.6</ele><time>2026-04-25T14:49:21.835Z</time></trkpt><trkpt lat="40.6511717" lon="16.0834517"><ele>692.4000000000001</ele><time>2026-04-25T14:49:22.836Z</time></trkpt><trkpt lat="40.65119" lon="16.0835467"><ele>688.2</ele><time>2026-04-25T14:49:23.834Z</time></trkpt><trkpt lat="40.6511883" lon="16.0836317"><ele>684.0</ele><time>2026-04-25T14:49:24.834Z</time></trkpt><trkpt lat="40.6511633" lon="16.0837917"><ele>684.0</ele><time>2026-04-25T14:49:26.833Z</time></trkpt><trkpt lat="40.6511317" lon="16.083945"><ele>684.0</ele><time>2026-04-25T14:49:28.833Z</time></trkpt><trkpt lat="40.6511333" lon="16.0840533"><ele>684.0</ele><time>2026-04-25T14:49:30.832Z</time></trkpt><trkpt lat="40.6511633" lon="16.08415"><ele>684.0</ele><time>2026-04-25T14:49:32.833Z</time></trkpt><trkpt lat="40.651285" lon="16.0842133"><ele>684.0</ele><time>2026-04-25T14:49:34.833Z</time></trkpt><trkpt lat="40.6513617" lon="16.084235"><ele>685.6</ele><time>2026-04-25T14:49:35.833Z</time></trkpt><trkpt lat="40.6514467" lon="16.084265"><ele>687.2</ele><time>2026-04-25T14:49:36.832Z</time></trkpt><trkpt lat="40.6515283" lon="16.0843233"><ele>688.8000000000001</ele><time>2026-04-25T14:49:37.833Z</time></trkpt><trkpt lat="40.6516167" lon="16.0843967"><ele>690.4000000000001</ele><time>2026-04-25T14:49:38.833Z</time></trkpt><trkpt lat="40.6516933" lon="16.08447"><ele>692.0</ele><time>2026-04-25T14:49:39.832Z</time></trkpt><trkpt lat="40.6517733" lon="16.0845317"><ele>692.0</ele><time>2026-04-25T14:49:40.832Z</time></trkpt><trkpt lat="40.6518283" lon="16.0846"><ele>692.0</ele><time>2026-04-25T14:49:41.832Z</time></trkpt><trkpt lat="40.6518917" lon="16.0846717"><ele>692.0</ele><time>2026-04-25T14:49:42.833Z</time></trkpt><trkpt lat="40.651955" lon="16.08473"><ele>692.0</ele><time>2026-04-25T14:49:43.832Z</time></trkpt><trkpt lat="40.6520133" lon="16.08478"><ele>692.0</ele><time>2026-04-25T14:49:44.832Z</time></trkpt><trkpt lat="40.6520867" lon="16.0848567"><ele>692.0</ele><time>2026-04-25T14:49:46.833Z</time></trkpt><trkpt lat="40.6521333" lon="16.0849517"><ele>691.2</ele><time>2026-04-25T14:50:01.832Z</time></trkpt><trkpt lat="40.652155" lon="16.085055"><ele>690.4000000000001</ele><time>2026-04-25T14:50:03.833Z</time></trkpt><trkpt lat="40.6521883" lon="16.0851817"><ele>689.5999999999999</ele><time>2026-04-25T14:50:05.831Z</time></trkpt><trkpt lat="40.6522467" lon="16.0853"><ele>688.8</ele><time>2026-04-25T14:50:07.837Z</time></trkpt><trkpt lat="40.652305" lon="16.0854317"><ele>688.0</ele><time>2026-04-25T14:50:09.833Z</time></trkpt><trkpt lat="40.6523267" lon="16.0855133"><ele>688.0</ele><time>2026-04-25T14:50:10.831Z</time></trkpt><trkpt lat="40.6523767" lon="16.085675"><ele>688.0</ele><time>2026-04-25T14:50:12.833Z</time></trkpt><trkpt lat="40.6524083" lon="16.08578"><ele>688.0</ele><time>2026-04-25T14:50:13.832Z</time></trkpt><trkpt lat="40.6524367" lon="16.0858883"><ele>688.0</ele><time>2026-04-25T14:50:14.833Z</time></trkpt><trkpt lat="40.6524717" lon="16.0859817"><ele>688.0</ele><time>2026-04-25T14:50:15.831Z</time></trkpt><trkpt lat="40.652505" lon="16.086075"><ele>687.4</ele><time>2026-04-25T14:50:16.832Z</time></trkpt><trkpt lat="40.6525533" lon="16.08617"><ele>686.8</ele><time>2026-04-25T14:50:17.834Z</time></trkpt><trkpt lat="40.65261" lon="16.0862417"><ele>686.2</ele><time>2026-04-25T14:50:18.833Z</time></trkpt><trkpt lat="40.6526917" lon="16.0863317"><ele>685.6</ele><time>2026-04-25T14:50:19.833Z</time></trkpt><trkpt lat="40.6527983" lon="16.0864133"><ele>685.0</ele><time>2026-04-25T14:50:20.832Z</time></trkpt><trkpt lat="40.65288" lon="16.086475"><ele>683.6666666666667</ele><time>2026-04-25T14:50:21.832Z</time></trkpt><trkpt lat="40.6529617" lon="16.086555"><ele>682.3333333333334</ele><time>2026-04-25T14:50:22.832Z</time></trkpt><trkpt lat="40.6530183" lon="16.0866383"><ele>681.0</ele><time>2026-04-25T14:50:23.831Z</time></trkpt><trkpt lat="40.6530583" lon="16.0867267"><ele>679.6666666666666</ele><time>2026-04-25T14:50:24.831Z</time></trkpt><trkpt lat="40.6530867" lon="16.08681"><ele>678.3333333333333</ele><time>2026-04-25T14:50:25.832Z</time></trkpt><trkpt lat="40.6531317" lon="16.0869017"><ele>677.0</ele><time>2026-04-25T14:50:27.832Z</time></trkpt><trkpt lat="40.653205" lon="16.0869983"><ele>677.0</ele><time>2026-04-25T14:50:53.832Z</time></trkpt><trkpt lat="40.653255" lon="16.0871117"><ele>677.0</ele><time>2026-04-25T14:50:55.832Z</time></trkpt><trkpt lat="40.6532983" lon="16.08723"><ele>677.0</ele><time>2026-04-25T14:50:57.832Z</time></trkpt><trkpt lat="40.6533617" lon="16.0872967"><ele>677.0</ele><time>2026-04-25T14:50:59.831Z</time></trkpt><trkpt lat="40.6534283" lon="16.0873117"><ele>677.0</ele><time>2026-04-25T14:51:01.833Z</time></trkpt><trkpt lat="40.65353" lon="16.087295"><ele>669.8</ele><time>2026-04-25T14:51:04.831Z</time></trkpt><trkpt lat="40.6536267" lon="16.087265"><ele>662.6</ele><time>2026-04-25T14:51:06.831Z</time></trkpt><trkpt lat="40.653725" lon="16.0871967"><ele>655.4</ele><time>2026-04-25T14:51:08.832Z</time></trkpt><trkpt lat="40.65383" lon="16.08715"><ele>648.1999999999999</ele><time>2026-04-25T14:51:10.831Z</time></trkpt><trkpt lat="40.6539" lon="16.0871517"><ele>641.0</ele><time>2026-04-25T14:51:12.833Z</time></trkpt><trkpt lat="40.6539717" lon="16.0872383"><ele>641.0</ele><time>2026-04-25T14:51:14.831Z</time></trkpt><trkpt lat="40.6540217" lon="16.0873383"><ele>641.0</ele><time>2026-04-25T14:51:16.831Z</time></trkpt><trkpt lat="40.654055" lon="16.087445"><ele>641.0</ele><time>2026-04-25T14:51:18.832Z</time></trkpt><trkpt lat="40.6541033" lon="16.087555"><ele>641.0</ele><time>2026-04-25T14:51:20.834Z</time></trkpt><trkpt lat="40.6541717" lon="16.0876633"><ele>641.0</ele><time>2026-04-25T14:51:22.833Z</time></trkpt><trkpt lat="40.65422" lon="16.087795"><ele>641.0</ele><time>2026-04-25T14:51:24.832Z</time></trkpt><trkpt lat="40.6542483" lon="16.08787"><ele>641.0</ele><time>2026-04-25T14:51:25.833Z</time></trkpt><trkpt lat="40.65431" lon="16.0879983"><ele>641.0</ele><time>2026-04-25T14:51:27.831Z</time></trkpt><trkpt lat="40.65436" lon="16.08805"><ele>641.0</ele><time>2026-04-25T14:51:28.832Z</time></trkpt><trkpt lat="40.654425" lon="16.088085"><ele>641.0</ele><time>2026-04-25T14:51:30.833Z</time></trkpt><trkpt lat="40.65452" lon="16.0880717"><ele>641.0</ele><time>2026-04-25T14:51:33.831Z</time></trkpt><trkpt lat="40.6546233" lon="16.088075"><ele>635.1999999999999</ele><time>2026-04-25T14:51:35.832Z</time></trkpt><trkpt lat="40.65469" lon="16.08807"><ele>629.4</ele><time>2026-04-25T14:51:36.831Z</time></trkpt><trkpt lat="40.6547917" lon="16.0880483"><ele>623.6</ele><time>2026-04-25T14:51:38.833Z</time></trkpt><trkpt lat="40.6548967" lon="16.0880233"><ele>617.8</ele><time>2026-04-25T14:51:40.834Z</time></trkpt><trkpt lat="40.65498" lon="16.0880333"><ele>612.0</ele><time>2026-04-25T14:51:42.833Z</time></trkpt><trkpt lat="40.6550383" lon="16.088125"><ele>612.0</ele><time>2026-04-25T14:51:45.831Z</time></trkpt><trkpt lat="40.65506" lon="16.0882233"><ele>612.0</ele><time>2026-04-25T14:51:47.833Z</time></trkpt><trkpt lat="40.65509" lon="16.0883167"><ele>612.0</ele><time>2026-04-25T14:51:49.832Z</time></trkpt><trkpt lat="40.655145" lon="16.088365"><ele>612.0</ele><time>2026-04-25T14:51:52.834Z</time></trkpt><trkpt lat="40.65521" lon="16.08835"><ele>612.0</ele><time>2026-04-25T14:51:54.833Z</time></trkpt><trkpt lat="40.6553117" lon="16.0883617"><ele>612.0</ele><time>2026-04-25T14:51:56.832Z</time></trkpt><trkpt lat="40.655385" lon="16.088405"><ele>607.1666666666666</ele><time>2026-04-25T14:51:58.833Z</time></trkpt><trkpt lat="40.6554317" lon="16.0884717"><ele>602.3333333333334</ele><time>2026-04-25T14:52:00.832Z</time></trkpt><trkpt lat="40.65545" lon="16.0885517"><ele>597.5</ele><time>2026-04-25T14:52:02.833Z</time></trkpt><trkpt lat="40.6554733" lon="16.0886633"><ele>592.6666666666667</ele><time>2026-04-25T14:52:05.831Z</time></trkpt><trkpt lat="40.655535" lon="16.0886983"><ele>587.8333333333334</ele><time>2026-04-25T14:52:07.832Z</time></trkpt><trkpt lat="40.6556167" lon="16.0887283"><ele>583.0</ele><time>2026-04-25T14:52:09.832Z</time></trkpt><trkpt lat="40.6557033" lon="16.0887817"><ele>583.0</ele><time>2026-04-25T14:52:11.834Z</time></trkpt><trkpt lat="40.6558033" lon="16.0888483"><ele>583.0</ele><time>2026-04-25T14:52:13.833Z</time></trkpt><trkpt lat="40.6558667" lon="16.0889267"><ele>583.0</ele><time>2026-04-25T14:52:15.833Z</time></trkpt><trkpt lat="40.655805" lon="16.0889917"><ele>583.0</ele><time>2026-04-25T14:52:18.833Z</time></trkpt><trkpt lat="40.6557433" lon="16.0890183"><ele>583.0</ele><time>2026-04-25T14:52:20.835Z</time></trkpt><trkpt lat="40.6556867" lon="16.089255"><ele>582.0</ele><time>2026-04-25T14:53:50.833Z</time></trkpt><trkpt lat="40.65565" lon="16.0893367"><ele>581.0</ele><time>2026-04-25T14:53:53.832Z</time></trkpt><trkpt lat="40.6556133" lon="16.0894083"><ele>580.0</ele><time>2026-04-25T14:53:56.832Z</time></trkpt><trkpt lat="40.655585" lon="16.0895067"><ele>579.0</ele><time>2026-04-25T14:54:00.832Z</time></trkpt><trkpt lat="40.6555217" lon="16.08963"><ele>578.0</ele><time>2026-04-25T14:54:06.833Z</time></trkpt><trkpt lat="40.6554683" lon="16.0897083"><ele>577.0</ele><time>2026-04-25T14:54:08.834Z</time></trkpt><trkpt lat="40.6554133" lon="16.0898333"><ele>578.8000000000001</ele><time>2026-04-25T14:54:10.833Z</time></trkpt><trkpt lat="40.6553633" lon="16.0899733"><ele>580.6</ele><time>2026-04-25T14:54:12.832Z</time></trkpt><trkpt lat="40.6553483" lon="16.090055"><ele>582.4000000000001</ele><time>2026-04-25T14:54:13.832Z</time></trkpt><trkpt lat="40.65531" lon="16.09019"><ele>584.2</ele><time>2026-04-25T14:54:15.832Z</time></trkpt><trkpt lat="40.6552967" lon="16.0903067"><ele>586.0</ele><time>2026-04-25T14:54:17.832Z</time></trkpt><trkpt lat="40.6553033" lon="16.0904133"><ele>586.0</ele><time>2026-04-25T14:54:19.832Z</time></trkpt><trkpt lat="40.6553183" lon="16.0905217"><ele>586.0</ele><time>2026-04-25T14:54:21.831Z</time></trkpt><trkpt lat="40.6553267" lon="16.0906817"><ele>586.0</ele><time>2026-04-25T14:54:23.835Z</time></trkpt><trkpt lat="40.6553383" lon="16.0907683"><ele>586.0</ele><time>2026-04-25T14:54:24.832Z</time></trkpt><trkpt lat="40.6553517" lon="16.0909117"><ele>586.0</ele><time>2026-04-25T14:54:26.833Z</time></trkpt><trkpt lat="40.6553233" lon="16.0910517"><ele>587.0</ele><time>2026-04-25T14:54:28.832Z</time></trkpt><trkpt lat="40.6553" lon="16.091195"><ele>588.0</ele><time>2026-04-25T14:54:30.831Z</time></trkpt><trkpt lat="40.6552717" lon="16.09133"><ele>589.0</ele><time>2026-04-25T14:54:32.833Z</time></trkpt><trkpt lat="40.6552" lon="16.0914683"><ele>590.0</ele><time>2026-04-25T14:54:34.832Z</time></trkpt><trkpt lat="40.655155" lon="16.0915333"><ele>591.0</ele><time>2026-04-25T14:54:35.833Z</time></trkpt><trkpt lat="40.655085" lon="16.0916467"><ele>585.6</ele><time>2026-04-25T14:54:37.832Z</time></trkpt><trkpt lat="40.6550433" lon="16.0917617"><ele>580.2</ele><time>2026-04-25T14:54:39.831Z</time></trkpt><trkpt lat="40.6549867" lon="16.0918517"><ele>574.8</ele><time>2026-04-25T14:54:41.833Z</time></trkpt><trkpt lat="40.6549167" lon="16.0919467"><ele>569.4</ele><time>2026-04-25T14:54:43.833Z</time></trkpt><trkpt lat="40.65484" lon="16.09206"><ele>564.0</ele><time>2026-04-25T14:54:45.832Z</time></trkpt><trkpt lat="40.6547633" lon="16.09214"><ele>564.0</ele><time>2026-04-25T14:54:47.832Z</time></trkpt><trkpt lat="40.6547083" lon="16.0922283"><ele>564.0</ele><time>2026-04-25T14:54:49.832Z</time></trkpt><trkpt lat="40.65464" lon="16.09234"><ele>564.0</ele><time>2026-04-25T14:55:07.834Z</time></trkpt><trkpt lat="40.6546167" lon="16.0924483"><ele>564.0</ele><time>2026-04-25T14:55:09.833Z</time></trkpt><trkpt lat="40.6546033" lon="16.0926333"><ele>564.0</ele><time>2026-04-25T14:55:11.833Z</time></trkpt><trkpt lat="40.6546" lon="16.0927183"><ele>564.3333333333334</ele><time>2026-04-25T14:55:12.832Z</time></trkpt><trkpt lat="40.6545667" lon="16.0928433"><ele>564.6666666666666</ele><time>2026-04-25T14:55:14.833Z</time></trkpt><trkpt lat="40.6544717" lon="16.092945"><ele>565.0</ele><time>2026-04-25T14:55:16.833Z</time></trkpt><trkpt lat="40.6544167" lon="16.0929983"><ele>565.3333333333333</ele><time>2026-04-25T14:55:17.832Z</time></trkpt><trkpt lat="40.654365" lon="16.0930633"><ele>565.6666666666666</ele><time>2026-04-25T14:55:18.833Z</time></trkpt><trkpt lat="40.6543117" lon="16.0931433"><ele>566.0</ele><time>2026-04-25T14:55:19.833Z</time></trkpt><trkpt lat="40.6542683" lon="16.0932333"><ele>564.5</ele><time>2026-04-25T14:55:20.834Z</time></trkpt><trkpt lat="40.654225" lon="16.09331"><ele>563.0</ele><time>2026-04-25T14:55:21.832Z</time></trkpt><trkpt lat="40.654125" lon="16.09341"><ele>561.5</ele><time>2026-04-25T14:55:23.832Z</time></trkpt><trkpt lat="40.65405" lon="16.0934417"><ele>560.0</ele><time>2026-04-25T14:55:24.832Z</time></trkpt><trkpt lat="40.65398" lon="16.0934717"><ele>558.5</ele><time>2026-04-25T14:55:25.832Z</time></trkpt><trkpt lat="40.6538883" lon="16.09352"><ele>557.0</ele><time>2026-04-25T14:55:27.834Z</time></trkpt><trkpt lat="40.653805" lon="16.0935517"><ele>557.0</ele><time>2026-04-25T14:55:29.833Z</time></trkpt><trkpt lat="40.6537083" lon="16.093565"><ele>557.0</ele><time>2026-04-25T14:55:31.832Z</time></trkpt><trkpt lat="40.65363" lon="16.0935583"><ele>557.0</ele><time>2026-04-25T14:55:33.832Z</time></trkpt><trkpt lat="40.653555" lon="16.0934983"><ele>557.0</ele><time>2026-04-25T14:55:48.832Z</time></trkpt><trkpt lat="40.6534817" lon="16.0934733"><ele>557.0</ele><time>2026-04-25T14:55:53.831Z</time></trkpt><trkpt lat="40.6534017" lon="16.0934783"><ele>557.0</ele><time>2026-04-25T14:56:39.831Z</time></trkpt><trkpt lat="40.6533117" lon="16.0935083"><ele>558.4</ele><time>2026-04-25T14:57:27.834Z</time></trkpt><trkpt lat="40.6532417" lon="16.093575"><ele>559.8000000000001</ele><time>2026-04-25T14:57:30.834Z</time></trkpt><trkpt lat="40.6531717" lon="16.0936567"><ele>561.2</ele><time>2026-04-25T14:57:32.834Z</time></trkpt><trkpt lat="40.65309" lon="16.0937883"><ele>562.6</ele><time>2026-04-25T14:57:34.834Z</time></trkpt><trkpt lat="40.65305" lon="16.093855"><ele>564.0</ele><time>2026-04-25T14:57:35.832Z</time></trkpt><trkpt lat="40.6529717" lon="16.093935"><ele>564.0</ele><time>2026-04-25T14:57:37.833Z</time></trkpt><trkpt lat="40.6529033" lon="16.0939217"><ele>564.0</ele><time>2026-04-25T14:57:40.834Z</time></trkpt><trkpt lat="40.6528333" lon="16.0939483"><ele>564.0</ele><time>2026-04-25T14:58:58.834Z</time></trkpt><trkpt lat="40.6527883" lon="16.0938517"><ele>564.0</ele><time>2026-04-25T14:59:00.832Z</time></trkpt><trkpt lat="40.6527417" lon="16.093745"><ele>564.0</ele><time>2026-04-25T14:59:02.834Z</time></trkpt><trkpt lat="40.6526783" lon="16.0936417"><ele>564.0</ele><time>2026-04-25T14:59:04.834Z</time></trkpt><trkpt lat="40.6525833" lon="16.0935467"><ele>569.0</ele><time>2026-04-25T14:59:06.832Z</time></trkpt><trkpt lat="40.65248" lon="16.0934517"><ele>574.0</ele><time>2026-04-25T14:59:08.834Z</time></trkpt><trkpt lat="40.6523717" lon="16.0933983"><ele>579.0</ele><time>2026-04-25T14:59:10.832Z</time></trkpt><trkpt lat="40.6522983" lon="16.0934667"><ele>584.0</ele><time>2026-04-25T14:59:13.833Z</time></trkpt><trkpt lat="40.6522633" lon="16.09358"><ele>589.0</ele><time>2026-04-25T14:59:15.832Z</time></trkpt><trkpt lat="40.652215" lon="16.0937183"><ele>589.0</ele><time>2026-04-25T14:59:17.833Z</time></trkpt><trkpt lat="40.6521483" lon="16.0938083"><ele>589.0</ele><time>2026-04-25T14:59:19.833Z</time></trkpt><trkpt lat="40.6520733" lon="16.0938683"><ele>589.0</ele><time>2026-04-25T14:59:21.833Z</time></trkpt><trkpt lat="40.6519683" lon="16.0939017"><ele>589.0</ele><time>2026-04-25T14:59:23.834Z</time></trkpt><trkpt lat="40.6518383" lon="16.0938767"><ele>589.0</ele><time>2026-04-25T14:59:25.833Z</time></trkpt><trkpt lat="40.6517717" lon="16.09386"><ele>587.6</ele><time>2026-04-25T14:59:26.833Z</time></trkpt><trkpt lat="40.6517067" lon="16.0938583"><ele>586.2</ele><time>2026-04-25T14:59:27.834Z</time></trkpt><trkpt lat="40.6515817" lon="16.0939133"><ele>584.8000000000001</ele><time>2026-04-25T14:59:29.834Z</time></trkpt><trkpt lat="40.651465" lon="16.094005"><ele>583.4</ele><time>2026-04-25T14:59:31.834Z</time></trkpt><trkpt lat="40.6513883" lon="16.094055"><ele>582.0</ele><time>2026-04-25T14:59:32.837Z</time></trkpt><trkpt lat="40.6513233" lon="16.0941"><ele>582.0</ele><time>2026-04-25T14:59:33.833Z</time></trkpt><trkpt lat="40.6512633" lon="16.09415"><ele>582.0</ele><time>2026-04-25T14:59:34.835Z</time></trkpt><trkpt lat="40.6512133" lon="16.0942267"><ele>582.0</ele><time>2026-04-25T14:59:35.834Z</time></trkpt><trkpt lat="40.651175" lon="16.0943083"><ele>582.0</ele><time>2026-04-25T14:59:36.833Z</time></trkpt><trkpt lat="40.65114" lon="16.0943833"><ele>582.0</ele><time>2026-04-25T14:59:37.834Z</time></trkpt><trkpt lat="40.65109" lon="16.0944667"><ele>582.0</ele><time>2026-04-25T14:59:38.834Z</time></trkpt><trkpt lat="40.6510317" lon="16.0945517"><ele>582.75</ele><time>2026-04-25T14:59:39.832Z</time></trkpt><trkpt lat="40.650975" lon="16.0946583"><ele>583.5</ele><time>2026-04-25T14:59:40.833Z</time></trkpt><trkpt lat="40.6509167" lon="16.094775"><ele>584.25</ele><time>2026-04-25T14:59:41.834Z</time></trkpt><trkpt lat="40.6508467" lon="16.094915"><ele>585.0</ele><time>2026-04-25T14:59:42.832Z</time></trkpt><trkpt lat="40.6507683" lon="16.095055"><ele>585.0</ele><time>2026-04-25T14:59:43.833Z</time></trkpt><trkpt lat="40.65072" lon="16.0951783"><ele>585.0</ele><time>2026-04-25T14:59:44.834Z</time></trkpt><trkpt lat="40.6506883" lon="16.0952633"><ele>585.0</ele><time>2026-04-25T14:59:45.832Z</time></trkpt><trkpt lat="40.65065" lon="16.095375"><ele>585.0</ele><time>2026-04-25T14:59:47.833Z</time></trkpt><trkpt lat="40.65065" lon="16.0954583"><ele>585.0</ele><time>2026-04-25T14:59:55.833Z</time></trkpt><trkpt lat="40.6506333" lon="16.0955417"><ele>585.0</ele><time>2026-04-25T14:59:57.833Z</time></trkpt><trkpt lat="40.6505567" lon="16.0956433"><ele>585.0</ele><time>2026-04-25T14:59:59.833Z</time></trkpt><trkpt lat="40.65045" lon="16.0956717"><ele>585.0</ele><time>2026-04-25T15:00:01.833Z</time></trkpt><trkpt lat="40.6503583" lon="16.095615"><ele>585.0</ele><time>2026-04-25T15:00:03.833Z</time></trkpt><trkpt lat="40.6502917" lon="16.0955483"><ele>585.0</ele><time>2026-04-25T15:00:05.832Z</time></trkpt><trkpt lat="40.6502317" lon="16.0954833"><ele>585.0</ele><time>2026-04-25T15:00:07.833Z</time></trkpt><trkpt lat="40.6501933" lon="16.0953783"><ele>587.0</ele><time>2026-04-25T15:00:09.831Z</time></trkpt><trkpt lat="40.6501717" lon="16.0952733"><ele>589.0</ele><time>2026-04-25T15:00:11.834Z</time></trkpt><trkpt lat="40.6501067" lon="16.0952117"><ele>591.0</ele><time>2026-04-25T15:00:13.833Z</time></trkpt><trkpt lat="40.6499933" lon="16.0951667"><ele>593.0</ele><time>2026-04-25T15:00:15.831Z</time></trkpt><trkpt lat="40.6499267" lon="16.095155"><ele>595.0</ele><time>2026-04-25T15:00:16.832Z</time></trkpt><trkpt lat="40.6498183" lon="16.0951633"><ele>595.0</ele><time>2026-04-25T15:00:18.833Z</time></trkpt><trkpt lat="40.6497" lon="16.09518"><ele>595.0</ele><time>2026-04-25T15:00:20.833Z</time></trkpt><trkpt lat="40.6496283" lon="16.09519"><ele>595.0</ele><time>2026-04-25T15:00:21.831Z</time></trkpt><trkpt lat="40.649505" lon="16.0952267"><ele>595.0</ele><time>2026-04-25T15:00:23.832Z</time></trkpt><trkpt lat="40.649405" lon="16.095265"><ele>595.0</ele><time>2026-04-25T15:00:25.832Z</time></trkpt><trkpt lat="40.6493183" lon="16.09536"><ele>593.0</ele><time>2026-04-25T15:00:27.831Z</time></trkpt><trkpt lat="40.6492333" lon="16.0954883"><ele>591.0</ele><time>2026-04-25T15:00:29.832Z</time></trkpt><trkpt lat="40.6491683" lon="16.0956283"><ele>589.0</ele><time>2026-04-25T15:00:31.832Z</time></trkpt><trkpt lat="40.6491267" lon="16.0957083"><ele>587.0</ele><time>2026-04-25T15:00:32.833Z</time></trkpt><trkpt lat="40.6490933" lon="16.0957933"><ele>585.0</ele><time>2026-04-25T15:00:33.832Z</time></trkpt><trkpt lat="40.64906" lon="16.0958983"><ele>581.5</ele><time>2026-04-25T15:00:34.832Z</time></trkpt><trkpt lat="40.6490517" lon="16.0960433"><ele>578.0</ele><time>2026-04-25T15:00:36.832Z</time></trkpt><trkpt lat="40.64904" lon="16.0961717"><ele>574.5</ele><time>2026-04-25T15:00:38.833Z</time></trkpt><trkpt lat="40.649025" lon="16.09627"><ele>571.0</ele><time>2026-04-25T15:00:59.832Z</time></trkpt><trkpt lat="40.64902" lon="16.0963817"><ele>567.5</ele><time>2026-04-25T15:01:03.831Z</time></trkpt><trkpt lat="40.6490133" lon="16.09648"><ele>564.0</ele><time>2026-04-25T15:01:05.832Z</time></trkpt><trkpt lat="40.6490217" lon="16.0965717"><ele>561.2</ele><time>2026-04-25T15:01:07.832Z</time></trkpt><trkpt lat="40.6490767" lon="16.096655"><ele>558.4</ele><time>2026-04-25T15:01:09.833Z</time></trkpt><trkpt lat="40.6491717" lon="16.0967417"><ele>555.6</ele><time>2026-04-25T15:01:11.832Z</time></trkpt><trkpt lat="40.649285" lon="16.0968033"><ele>552.8</ele><time>2026-04-25T15:01:13.833Z</time></trkpt><trkpt lat="40.6493867" lon="16.096825"><ele>550.0</ele><time>2026-04-25T15:01:15.831Z</time></trkpt><trkpt lat="40.6494867" lon="16.09684"><ele>550.0</ele><time>2026-04-25T15:01:17.833Z</time></trkpt><trkpt lat="40.64956" lon="16.0968667"><ele>550.0</ele><time>2026-04-25T15:01:19.835Z</time></trkpt><trkpt lat="40.6496183" lon="16.0969"><ele>550.0</ele><time>2026-04-25T15:01:21.833Z</time></trkpt><trkpt lat="40.6496767" lon="16.0969633"><ele>550.0</ele><time>2026-04-25T15:01:28.832Z</time></trkpt><trkpt lat="40.6497383" lon="16.096995"><ele>550.0</ele><time>2026-04-25T15:01:31.832Z</time></trkpt><trkpt lat="40.64982" lon="16.09704"><ele>550.0</ele><time>2026-04-25T15:01:34.832Z</time></trkpt><trkpt lat="40.6498883" lon="16.0970767"><ele>550.0</ele><time>2026-04-25T15:01:37.832Z</time></trkpt><trkpt lat="40.6499467" lon="16.0971333"><ele>550.0</ele><time>2026-04-25T15:01:40.833Z</time></trkpt><trkpt lat="40.650035" lon="16.0971683"><ele>550.0</ele><time>2026-04-25T15:01:42.832Z</time></trkpt><trkpt lat="40.6501067" lon="16.0972233"><ele>550.0</ele><time>2026-04-25T15:01:44.832Z</time></trkpt><trkpt lat="40.6501367" lon="16.0973"><ele>550.0</ele><time>2026-04-25T15:01:46.833Z</time></trkpt><trkpt lat="40.6501283" lon="16.0974083"><ele>550.0</ele><time>2026-04-25T15:01:49.833Z</time></trkpt><trkpt lat="40.65011" lon="16.0975067"><ele>550.0</ele><time>2026-04-25T15:01:51.832Z</time></trkpt><trkpt lat="40.6500867" lon="16.09761"><ele>547.1666666666667</ele><time>2026-04-25T15:01:53.832Z</time></trkpt><trkpt lat="40.6500667" lon="16.0977133"><ele>544.3333333333334</ele><time>2026-04-25T15:01:55.833Z</time></trkpt><trkpt lat="40.6500467" lon="16.097795"><ele>541.5</ele><time>2026-04-25T15:01:57.831Z</time></trkpt><trkpt lat="40.6500333" lon="16.09792"><ele>538.6666666666666</ele><time>2026-04-25T15:02:00.832Z</time></trkpt><trkpt lat="40.6500167" lon="16.09801"><ele>535.8333333333333</ele><time>2026-04-25T15:02:02.833Z</time></trkpt><trkpt lat="40.6500033" lon="16.0980933"><ele>533.0</ele><time>2026-04-25T15:02:04.833Z</time></trkpt><trkpt lat="40.6499683" lon="16.0982133"><ele>532.8333333333333</ele><time>2026-04-25T15:02:10.832Z</time></trkpt><trkpt lat="40.6499567" lon="16.098335"><ele>532.6666666666666</ele><time>2026-04-25T15:02:12.832Z</time></trkpt><trkpt lat="40.649945" lon="16.0984217"><ele>532.5</ele><time>2026-04-25T15:02:13.833Z</time></trkpt><trkpt lat="40.6499333" lon="16.0985217"><ele>532.3333333333334</ele><time>2026-04-25T15:02:14.834Z</time></trkpt><trkpt lat="40.64992" lon="16.098615"><ele>532.1666666666667</ele><time>2026-04-25T15:02:15.831Z</time></trkpt><trkpt lat="40.649895" lon="16.0987367"><ele>532.0</ele><time>2026-04-25T15:02:17.832Z</time></trkpt><trkpt lat="40.649855" lon="16.0988217"><ele>532.0</ele><time>2026-04-25T15:02:19.833Z</time></trkpt><trkpt lat="40.6498167" lon="16.0989467"><ele>532.0</ele><time>2026-04-25T15:02:21.832Z</time></trkpt><trkpt lat="40.6497633" lon="16.0990933"><ele>532.0</ele><time>2026-04-25T15:02:23.833Z</time></trkpt><trkpt lat="40.64971" lon="16.0991867"><ele>532.0</ele><time>2026-04-25T15:02:24.831Z</time></trkpt><trkpt lat="40.6496567" lon="16.0992783"><ele>532.0</ele><time>2026-04-25T15:02:25.832Z</time></trkpt><trkpt lat="40.6496267" lon="16.0993717"><ele>532.1666666666667</ele><time>2026-04-25T15:02:26.832Z</time></trkpt><trkpt lat="40.6496133" lon="16.099475"><ele>532.3333333333334</ele><time>2026-04-25T15:02:27.833Z</time></trkpt><trkpt lat="40.6496133" lon="16.0995967"><ele>532.5</ele><time>2026-04-25T15:02:28.832Z</time></trkpt><trkpt lat="40.64962" lon="16.09971"><ele>532.6666666666666</ele><time>2026-04-25T15:02:29.833Z</time></trkpt><trkpt lat="40.6496183" lon="16.099795"><ele>532.8333333333333</ele><time>2026-04-25T15:02:30.832Z</time></trkpt><trkpt lat="40.64962" lon="16.09991"><ele>533.0</ele><time>2026-04-25T15:02:38.835Z</time></trkpt><trkpt lat="40.6496233" lon="16.1000033"><ele>531.6</ele><time>2026-04-25T15:02:40.833Z</time></trkpt><trkpt lat="40.6496483" lon="16.1000917"><ele>530.1999999999999</ele><time>2026-04-25T15:02:42.832Z</time></trkpt><trkpt lat="40.6496783" lon="16.1001967"><ele>528.8</ele><time>2026-04-25T15:02:44.833Z</time></trkpt><trkpt lat="40.649685" lon="16.1003217"><ele>527.4</ele><time>2026-04-25T15:02:46.832Z</time></trkpt><trkpt lat="40.64972" lon="16.1004983"><ele>526.0</ele><time>2026-04-25T15:02:48.831Z</time></trkpt><trkpt lat="40.6497333" lon="16.1006233"><ele>525.0</ele><time>2026-04-25T15:02:49.833Z</time></trkpt><trkpt lat="40.6497517" lon="16.10076"><ele>524.0</ele><time>2026-04-25T15:02:50.919Z</time></trkpt><trkpt lat="40.64978" lon="16.1009"><ele>523.0</ele><time>2026-04-25T15:02:51.831Z</time></trkpt><trkpt lat="40.6498167" lon="16.1010217"><ele>522.0</ele><time>2026-04-25T15:02:52.832Z</time></trkpt><trkpt lat="40.6498467" lon="16.1011317"><ele>521.0</ele><time>2026-04-25T15:02:53.833Z</time></trkpt><trkpt lat="40.6498633" lon="16.10125"><ele>521.0</ele><time>2026-04-25T15:02:54.832Z</time></trkpt><trkpt lat="40.6498667" lon="16.1013767"><ele>521.0</ele><time>2026-04-25T15:02:55.833Z</time></trkpt><trkpt lat="40.6498533" lon="16.1014983"><ele>521.0</ele><time>2026-04-25T15:02:56.833Z</time></trkpt><trkpt lat="40.6498417" lon="16.1016117"><ele>521.0</ele><time>2026-04-25T15:02:57.832Z</time></trkpt><trkpt lat="40.64984" lon="16.10171"><ele>521.0</ele><time>2026-04-25T15:02:58.833Z</time></trkpt><trkpt lat="40.6499083" lon="16.1018333"><ele>520.2</ele><time>2026-04-25T15:03:00.832Z</time></trkpt><trkpt lat="40.6499683" lon="16.101895"><ele>519.4000000000001</ele><time>2026-04-25T15:03:01.832Z</time></trkpt><trkpt lat="40.65004" lon="16.1019617"><ele>518.6</ele><time>2026-04-25T15:03:02.832Z</time></trkpt><trkpt lat="40.650115" lon="16.1020367"><ele>517.8000000000001</ele><time>2026-04-25T15:03:03.831Z</time></trkpt><trkpt lat="40.6501817" lon="16.1021083"><ele>517.0</ele><time>2026-04-25T15:03:04.833Z</time></trkpt><trkpt lat="40.6502533" lon="16.1022183"><ele>517.0</ele><time>2026-04-25T15:03:06.834Z</time></trkpt><trkpt lat="40.65027" lon="16.102395"><ele>517.0</ele><time>2026-04-25T15:03:08.833Z</time></trkpt><trkpt lat="40.65026" lon="16.1025183"><ele>517.0</ele><time>2026-04-25T15:03:09.831Z</time></trkpt><trkpt lat="40.6502433" lon="16.10265"><ele>517.0</ele><time>2026-04-25T15:03:10.832Z</time></trkpt><trkpt lat="40.6502333" lon="16.1027583"><ele>517.0</ele><time>2026-04-25T15:03:11.832Z</time></trkpt><trkpt lat="40.6502083" lon="16.1028683"><ele>516.8333333333334</ele><time>2026-04-25T15:03:12.831Z</time></trkpt><trkpt lat="40.6501883" lon="16.102995"><ele>516.6666666666667</ele><time>2026-04-25T15:03:13.833Z</time></trkpt><trkpt lat="40.650175" lon="16.103125"><ele>516.5</ele><time>2026-04-25T15:03:14.832Z</time></trkpt><trkpt lat="40.650165" lon="16.1032367"><ele>516.3333333333334</ele><time>2026-04-25T15:03:15.832Z</time></trkpt><trkpt lat="40.65015" lon="16.1033367"><ele>516.1666666666666</ele><time>2026-04-25T15:03:16.832Z</time></trkpt><trkpt lat="40.6501333" lon="16.1034283"><ele>516.0</ele><time>2026-04-25T15:03:17.832Z</time></trkpt><trkpt lat="40.65013" lon="16.103595"><ele>515.8</ele><time>2026-04-25T15:03:19.834Z</time></trkpt><trkpt lat="40.6501517" lon="16.10368"><ele>515.6</ele><time>2026-04-25T15:03:20.833Z</time></trkpt><trkpt lat="40.6501783" lon="16.1038367"><ele>515.4</ele><time>2026-04-25T15:03:22.832Z</time></trkpt><trkpt lat="40.6501567" lon="16.10399"><ele>515.2</ele><time>2026-04-25T15:03:24.832Z</time></trkpt><trkpt lat="40.6501317" lon="16.1041367"><ele>515.0</ele><time>2026-04-25T15:03:26.833Z</time></trkpt><trkpt lat="40.6501317" lon="16.1042867"><ele>515.3333333333333</ele><time>2026-04-25T15:03:28.836Z</time></trkpt><trkpt lat="40.6501417" lon="16.1044217"><ele>515.6666666666666</ele><time>2026-04-25T15:03:30.831Z</time></trkpt><trkpt lat="40.6501683" lon="16.104535"><ele>516.0</ele><time>2026-04-25T15:03:32.833Z</time></trkpt><trkpt lat="40.650205" lon="16.1046367"><ele>516.3333333333334</ele><time>2026-04-25T15:03:34.833Z</time></trkpt><trkpt lat="40.6502417" lon="16.1047317"><ele>516.6666666666667</ele><time>2026-04-25T15:03:36.832Z</time></trkpt><trkpt lat="40.6502717" lon="16.10483"><ele>517.0</ele><time>2026-04-25T15:03:38.832Z</time></trkpt><trkpt lat="40.6503017" lon="16.104925"><ele>517.0</ele><time>2026-04-25T15:03:40.832Z</time></trkpt><trkpt lat="40.650325" lon="16.1050117"><ele>517.0</ele><time>2026-04-25T15:03:42.833Z</time></trkpt><trkpt lat="40.6503333" lon="16.1051017"><ele>517.0</ele><time>2026-04-25T15:03:44.833Z</time></trkpt><trkpt lat="40.6503217" lon="16.1051983"><ele>517.0</ele><time>2026-04-25T15:03:46.832Z</time></trkpt><trkpt lat="40.650295" lon="16.1052867"><ele>517.0</ele><time>2026-04-25T15:03:48.833Z</time></trkpt><trkpt lat="40.65027" lon="16.1053933"><ele>517.0</ele><time>2026-04-25T15:03:50.833Z</time></trkpt><trkpt lat="40.650245" lon="16.1055317"><ele>517.4</ele><time>2026-04-25T15:03:52.833Z</time></trkpt><trkpt lat="40.650255" lon="16.1056817"><ele>517.8000000000001</ele><time>2026-04-25T15:03:54.833Z</time></trkpt><trkpt lat="40.650295" lon="16.1058233"><ele>518.2</ele><time>2026-04-25T15:03:56.833Z</time></trkpt><trkpt lat="40.6502783" lon="16.1059583"><ele>518.6</ele><time>2026-04-25T15:03:58.832Z</time></trkpt><trkpt lat="40.6502067" lon="16.10607"><ele>519.0</ele><time>2026-04-25T15:04:00.833Z</time></trkpt><trkpt lat="40.6501083" lon="16.1061683"><ele>516.6</ele><time>2026-04-25T15:04:02.833Z</time></trkpt><trkpt lat="40.6500333" lon="16.1062917"><ele>514.2</ele><time>2026-04-25T15:04:04.833Z</time></trkpt><trkpt lat="40.6500133" lon="16.1063867"><ele>511.80000000000007</ele><time>2026-04-25T15:04:05.833Z</time></trkpt><trkpt lat="40.6500083" lon="16.1064983"><ele>509.40000000000003</ele><time>2026-04-25T15:04:06.834Z</time></trkpt><trkpt lat="40.65002" lon="16.1066133"><ele>507.0</ele><time>2026-04-25T15:04:07.833Z</time></trkpt><trkpt lat="40.6500333" lon="16.1067383"><ele>506.6666666666667</ele><time>2026-04-25T15:04:08.834Z</time></trkpt><trkpt lat="40.6500383" lon="16.1068617"><ele>506.33333333333337</ele><time>2026-04-25T15:04:09.834Z</time></trkpt><trkpt lat="40.6500333" lon="16.1069633"><ele>506.0</ele><time>2026-04-25T15:04:10.834Z</time></trkpt><trkpt lat="40.650025" lon="16.10709"><ele>505.6666666666667</ele><time>2026-04-25T15:04:12.833Z</time></trkpt><trkpt lat="40.6500017" lon="16.1071883"><ele>505.33333333333337</ele><time>2026-04-25T15:04:14.833Z</time></trkpt><trkpt lat="40.6499567" lon="16.107305"><ele>505.0</ele><time>2026-04-25T15:04:16.834Z</time></trkpt><trkpt lat="40.649865" lon="16.1074133"><ele>504.33333333333337</ele><time>2026-04-25T15:04:18.834Z</time></trkpt><trkpt lat="40.64981" lon="16.1074633"><ele>503.6666666666667</ele><time>2026-04-25T15:04:19.833Z</time></trkpt><trkpt lat="40.649755" lon="16.10751"><ele>503.0</ele><time>2026-04-25T15:04:20.836Z</time></trkpt><trkpt lat="40.6496867" lon="16.107615"><ele>502.33333333333337</ele><time>2026-04-25T15:04:22.833Z</time></trkpt><trkpt lat="40.649675" lon="16.1077383"><ele>501.6666666666667</ele><time>2026-04-25T15:04:24.834Z</time></trkpt><trkpt lat="40.649725" lon="16.1078583"><ele>501.0</ele><time>2026-04-25T15:04:26.833Z</time></trkpt><trkpt lat="40.6497767" lon="16.1079283"><ele>501.0</ele><time>2026-04-25T15:04:27.834Z</time></trkpt><trkpt lat="40.64983" lon="16.1080133"><ele>501.0</ele><time>2026-04-25T15:04:28.833Z</time></trkpt><trkpt lat="40.6498683" lon="16.1080983"><ele>501.0</ele><time>2026-04-25T15:04:29.833Z</time></trkpt><trkpt lat="40.6498883" lon="16.1081817"><ele>501.0</ele><time>2026-04-25T15:04:30.833Z</time></trkpt><trkpt lat="40.6498833" lon="16.1083633"><ele>501.0</ele><time>2026-04-25T15:04:32.834Z</time></trkpt><trkpt lat="40.6498683" lon="16.1084683"><ele>501.0</ele><time>2026-04-25T15:04:33.831Z</time></trkpt><trkpt lat="40.6498467" lon="16.1085683"><ele>501.0</ele><time>2026-04-25T15:04:34.832Z</time></trkpt><trkpt lat="40.6498183" lon="16.1086567"><ele>501.0</ele><time>2026-04-25T15:04:35.831Z</time></trkpt><trkpt lat="40.6497833" lon="16.10873"><ele>501.0</ele><time>2026-04-25T15:04:36.832Z</time></trkpt><trkpt lat="40.6497433" lon="16.108805"><ele>501.0</ele><time>2026-04-25T15:04:37.833Z</time></trkpt><trkpt lat="40.6497117" lon="16.1089017"><ele>501.0</ele><time>2026-04-25T15:04:38.834Z</time></trkpt><trkpt lat="40.6496583" lon="16.1090083"><ele>501.0</ele><time>2026-04-25T15:04:39.833Z</time></trkpt><trkpt lat="40.64961" lon="16.1091317"><ele>500.6</ele><time>2026-04-25T15:04:40.832Z</time></trkpt><trkpt lat="40.6495583" lon="16.1092733"><ele>500.20000000000005</ele><time>2026-04-25T15:04:41.832Z</time></trkpt><trkpt lat="40.649505" lon="16.1094067"><ele>499.79999999999995</ele><time>2026-04-25T15:04:42.832Z</time></trkpt><trkpt lat="40.6494517" lon="16.10953"><ele>499.4</ele><time>2026-04-25T15:04:43.833Z</time></trkpt><trkpt lat="40.6493933" lon="16.1096333"><ele>499.0</ele><time>2026-04-25T15:04:44.833Z</time></trkpt><trkpt lat="40.6493333" lon="16.1097233"><ele>499.0</ele><time>2026-04-25T15:04:45.831Z</time></trkpt><trkpt lat="40.6492867" lon="16.1098"><ele>499.0</ele><time>2026-04-25T15:04:46.832Z</time></trkpt><trkpt lat="40.649235" lon="16.1099367"><ele>499.0</ele><time>2026-04-25T15:04:48.832Z</time></trkpt><trkpt lat="40.6492367" lon="16.1101167"><ele>499.0</ele><time>2026-04-25T15:04:50.833Z</time></trkpt><trkpt lat="40.649265" lon="16.1102783"><ele>498.33333333333337</ele><time>2026-04-25T15:04:51.832Z</time></trkpt><trkpt lat="40.6493133" lon="16.1104833"><ele>497.66666666666663</ele><time>2026-04-25T15:04:52.833Z</time></trkpt><trkpt lat="40.6493717" lon="16.1107083"><ele>497.0</ele><time>2026-04-25T15:04:53.832Z</time></trkpt><trkpt lat="40.6494267" lon="16.1109167"><ele>498.8</ele><time>2026-04-25T15:04:54.832Z</time></trkpt><trkpt lat="40.649475" lon="16.1110917"><ele>500.6</ele><time>2026-04-25T15:04:55.833Z</time></trkpt><trkpt lat="40.6495083" lon="16.1112317"><ele>502.40000000000003</ele><time>2026-04-25T15:04:56.832Z</time></trkpt><trkpt lat="40.649525" lon="16.111345"><ele>504.20000000000005</ele><time>2026-04-25T15:04:57.831Z</time></trkpt><trkpt lat="40.64953" lon="16.1114483"><ele>506.0</ele><time>2026-04-25T15:04:58.832Z</time></trkpt><trkpt lat="40.6495267" lon="16.111535"><ele>504.99999999999994</ele><time>2026-04-25T15:04:59.833Z</time></trkpt><trkpt lat="40.64946" lon="16.1116667"><ele>504.0</ele><time>2026-04-25T15:05:01.833Z</time></trkpt><trkpt lat="40.6494117" lon="16.1117283"><ele>503.0</ele><time>2026-04-25T15:05:02.833Z</time></trkpt><trkpt lat="40.6493567" lon="16.111795"><ele>502.0</ele><time>2026-04-25T15:05:03.833Z</time></trkpt><trkpt lat="40.649295" lon="16.111855"><ele>500.99999999999994</ele><time>2026-04-25T15:05:04.834Z</time></trkpt><trkpt lat="40.6492467" lon="16.1119183"><ele>500.0</ele><time>2026-04-25T15:05:05.832Z</time></trkpt><trkpt lat="40.64921" lon="16.11199"><ele>498.3333333333333</ele><time>2026-04-25T15:05:06.834Z</time></trkpt><trkpt lat="40.6491817" lon="16.11207"><ele>496.66666666666663</ele><time>2026-04-25T15:05:07.833Z</time></trkpt><trkpt lat="40.6491583" lon="16.11216"><ele>495.0</ele><time>2026-04-25T15:05:08.834Z</time></trkpt><trkpt lat="40.649135" lon="16.112255"><ele>493.33333333333337</ele><time>2026-04-25T15:05:09.832Z</time></trkpt><trkpt lat="40.6490933" lon="16.11236"><ele>491.6666666666667</ele><time>2026-04-25T15:05:10.833Z</time></trkpt><trkpt lat="40.64904" lon="16.1124717"><ele>490.0</ele><time>2026-04-25T15:05:11.832Z</time></trkpt><trkpt lat="40.648985" lon="16.1125817"><ele>489.6</ele><time>2026-04-25T15:05:12.833Z</time></trkpt><trkpt lat="40.6489417" lon="16.1126783"><ele>489.2</ele><time>2026-04-25T15:05:13.833Z</time></trkpt><trkpt lat="40.6489" lon="16.112775"><ele>488.79999999999995</ele><time>2026-04-25T15:05:14.833Z</time></trkpt><trkpt lat="40.6488733" lon="16.112865"><ele>488.4</ele><time>2026-04-25T15:05:15.832Z</time></trkpt><trkpt lat="40.6488583" lon="16.113025"><ele>488.0</ele><time>2026-04-25T15:05:17.832Z</time></trkpt><trkpt lat="40.64885" lon="16.1131917"><ele>487.8333333333333</ele><time>2026-04-25T15:05:19.832Z</time></trkpt><trkpt lat="40.648835" lon="16.1132817"><ele>487.66666666666663</ele><time>2026-04-25T15:05:20.833Z</time></trkpt><trkpt lat="40.6488117" lon="16.1133767"><ele>487.5</ele><time>2026-04-25T15:05:21.832Z</time></trkpt><trkpt lat="40.6487867" lon="16.1134833"><ele>487.33333333333337</ele><time>2026-04-25T15:05:22.833Z</time></trkpt><trkpt lat="40.6487633" lon="16.1135933"><ele>487.1666666666667</ele><time>2026-04-25T15:05:23.834Z</time></trkpt><trkpt lat="40.6487533" lon="16.1137267"><ele>487.0</ele><time>2026-04-25T15:05:24.833Z</time></trkpt><trkpt lat="40.648755" lon="16.1138767"><ele>487.0</ele><time>2026-04-25T15:05:25.834Z</time></trkpt><trkpt lat="40.6487683" lon="16.11404"><ele>487.0</ele><time>2026-04-25T15:05:26.833Z</time></trkpt><trkpt lat="40.6487883" lon="16.1142217"><ele>487.0</ele><time>2026-04-25T15:05:27.831Z</time></trkpt><trkpt lat="40.64881" lon="16.1144017"><ele>487.0</ele><time>2026-04-25T15:05:28.834Z</time></trkpt><trkpt lat="40.64883" lon="16.1145583"><ele>486.6</ele><time>2026-04-25T15:05:29.833Z</time></trkpt><trkpt lat="40.6488367" lon="16.1146933"><ele>486.20000000000005</ele><time>2026-04-25T15:05:30.833Z</time></trkpt><trkpt lat="40.648835" lon="16.1148133"><ele>485.8</ele><time>2026-04-25T15:05:31.833Z</time></trkpt><trkpt lat="40.6488283" lon="16.1149117"><ele>485.4</ele><time>2026-04-25T15:05:32.833Z</time></trkpt><trkpt lat="40.6487917" lon="16.1150383"><ele>485.0</ele><time>2026-04-25T15:05:34.832Z</time></trkpt><trkpt lat="40.6487617" lon="16.115135"><ele>485.0</ele><time>2026-04-25T15:05:36.832Z</time></trkpt><trkpt lat="40.6487483" lon="16.1152933"><ele>485.0</ele><time>2026-04-25T15:05:38.833Z</time></trkpt><trkpt lat="40.648745" lon="16.115415"><ele>485.0</ele><time>2026-04-25T15:05:39.833Z</time></trkpt><trkpt lat="40.648735" lon="16.11557"><ele>485.0</ele><time>2026-04-25T15:05:40.834Z</time></trkpt><trkpt lat="40.648725" lon="16.11572"><ele>485.0</ele><time>2026-04-25T15:05:41.833Z</time></trkpt><trkpt lat="40.6487133" lon="16.1158567"><ele>484.99999999999994</ele><time>2026-04-25T15:05:42.834Z</time></trkpt><trkpt lat="40.6487067" lon="16.115975"><ele>485.0</ele><time>2026-04-25T15:05:43.832Z</time></trkpt><trkpt lat="40.648705" lon="16.1160767"><ele>485.0</ele><time>2026-04-25T15:05:44.834Z</time></trkpt><trkpt lat="40.64869" lon="16.1161767"><ele>485.0</ele><time>2026-04-25T15:05:45.832Z</time></trkpt><trkpt lat="40.6486667" lon="16.1162617"><ele>484.99999999999994</ele><time>2026-04-25T15:05:46.832Z</time></trkpt><trkpt lat="40.6486333" lon="16.1163383"><ele>485.0</ele><time>2026-04-25T15:05:47.832Z</time></trkpt><trkpt lat="40.6485783" lon="16.116475"><ele>484.49999999999994</ele><time>2026-04-25T15:05:49.835Z</time></trkpt><trkpt lat="40.64855" lon="16.116605"><ele>484.0</ele><time>2026-04-25T15:05:51.832Z</time></trkpt><trkpt lat="40.64854" lon="16.1166917"><ele>483.5</ele><time>2026-04-25T15:05:52.833Z</time></trkpt><trkpt lat="40.6485233" lon="16.1167717"><ele>483.0</ele><time>2026-04-25T15:05:53.834Z</time></trkpt><trkpt lat="40.6484783" lon="16.1168933"><ele>482.49999999999994</ele><time>2026-04-25T15:05:55.835Z</time></trkpt><trkpt lat="40.6484" lon="16.1169933"><ele>482.0</ele><time>2026-04-25T15:05:57.832Z</time></trkpt><trkpt lat="40.6483217" lon="16.117115"><ele>482.0</ele><time>2026-04-25T15:05:59.832Z</time></trkpt><trkpt lat="40.6482767" lon="16.1171867"><ele>482.00000000000006</ele><time>2026-04-25T15:06:00.833Z</time></trkpt><trkpt lat="40.6482383" lon="16.11727"><ele>482.0</ele><time>2026-04-25T15:06:01.832Z</time></trkpt><trkpt lat="40.64821" lon="16.11736"><ele>482.0</ele><time>2026-04-25T15:06:02.834Z</time></trkpt><trkpt lat="40.64819" lon="16.11745"><ele>482.00000000000006</ele><time>2026-04-25T15:06:03.831Z</time></trkpt><trkpt lat="40.6481783" lon="16.1175383"><ele>482.0</ele><time>2026-04-25T15:06:04.832Z</time></trkpt><trkpt lat="40.648165" lon="16.1176533"><ele>482.0</ele><time>2026-04-25T15:06:06.832Z</time></trkpt><trkpt lat="40.6481383" lon="16.1178133"><ele>481.49999999999994</ele><time>2026-04-25T15:06:18.832Z</time></trkpt><trkpt lat="40.6481133" lon="16.11793"><ele>481.0</ele><time>2026-04-25T15:06:20.833Z</time></trkpt><trkpt lat="40.6480817" lon="16.118005"><ele>480.5</ele><time>2026-04-25T15:06:22.835Z</time></trkpt><trkpt lat="40.6480567" lon="16.118125"><ele>480.0</ele><time>2026-04-25T15:06:34.832Z</time></trkpt><trkpt lat="40.64804" lon="16.11826"><ele>479.49999999999994</ele><time>2026-04-25T15:06:36.833Z</time></trkpt><trkpt lat="40.648015" lon="16.1183683"><ele>479.0</ele><time>2026-04-25T15:06:38.833Z</time></trkpt><trkpt lat="40.6479733" lon="16.11844"><ele>478.99999999999994</ele><time>2026-04-25T15:06:40.832Z</time></trkpt><trkpt lat="40.6479533" lon="16.1185317"><ele>479.0</ele><time>2026-04-25T15:06:43.833Z</time></trkpt><trkpt lat="40.64793" lon="16.1186517"><ele>479.0</ele><time>2026-04-25T15:06:52.832Z</time></trkpt><trkpt lat="40.6479033" lon="16.1187317"><ele>479.0</ele><time>2026-04-25T15:06:54.833Z</time></trkpt><trkpt lat="40.647865" lon="16.118805"><ele>478.99999999999994</ele><time>2026-04-25T15:06:56.833Z</time></trkpt><trkpt lat="40.64781" lon="16.1188767"><ele>479.0</ele><time>2026-04-25T15:06:58.833Z</time></trkpt><trkpt lat="40.64777" lon="16.1189633"><ele>479.4</ele><time>2026-04-25T15:07:00.833Z</time></trkpt><trkpt lat="40.647755" lon="16.119075"><ele>479.79999999999995</ele><time>2026-04-25T15:07:02.834Z</time></trkpt><trkpt lat="40.647765" lon="16.1192233"><ele>480.20000000000005</ele><time>2026-04-25T15:07:04.832Z</time></trkpt><trkpt lat="40.6477567" lon="16.1193233"><ele>480.6</ele><time>2026-04-25T15:07:05.833Z</time></trkpt><trkpt lat="40.6477367" lon="16.1194383"><ele>481.0</ele><time>2026-04-25T15:07:06.833Z</time></trkpt><trkpt lat="40.6476967" lon="16.1195733"><ele>481.0</ele><time>2026-04-25T15:07:07.833Z</time></trkpt><trkpt lat="40.6476717" lon="16.119695"><ele>481.0</ele><time>2026-04-25T15:07:08.835Z</time></trkpt><trkpt lat="40.6476417" lon="16.1197967"><ele>481.0</ele><time>2026-04-25T15:07:09.832Z</time></trkpt><trkpt lat="40.6476167" lon="16.1198967"><ele>481.0</ele><time>2026-04-25T15:07:10.833Z</time></trkpt><trkpt lat="40.647595" lon="16.1199883"><ele>481.0</ele><time>2026-04-25T15:07:11.832Z</time></trkpt><trkpt lat="40.6475717" lon="16.1201417"><ele>481.4</ele><time>2026-04-25T15:07:13.833Z</time></trkpt><trkpt lat="40.6475733" lon="16.1202617"><ele>481.8</ele><time>2026-04-25T15:07:15.832Z</time></trkpt><trkpt lat="40.6476167" lon="16.12039"><ele>482.19999999999993</ele><time>2026-04-25T15:07:17.833Z</time></trkpt><trkpt lat="40.6476417" lon="16.120555"><ele>482.59999999999997</ele><time>2026-04-25T15:07:19.833Z</time></trkpt><trkpt lat="40.64764" lon="16.1206383"><ele>483.0</ele><time>2026-04-25T15:07:20.833Z</time></trkpt><trkpt lat="40.6476267" lon="16.1207267"><ele>482.2</ele><time>2026-04-25T15:07:21.833Z</time></trkpt><trkpt lat="40.6476" lon="16.1208317"><ele>481.4</ele><time>2026-04-25T15:07:22.833Z</time></trkpt><trkpt lat="40.647565" lon="16.12094"><ele>480.59999999999997</ele><time>2026-04-25T15:07:23.833Z</time></trkpt><trkpt lat="40.6475083" lon="16.1210617"><ele>479.79999999999995</ele><time>2026-04-25T15:07:24.834Z</time></trkpt><trkpt lat="40.6474467" lon="16.1212"><ele>479.0</ele><time>2026-04-25T15:07:25.832Z</time></trkpt><trkpt lat="40.6474117" lon="16.1213283"><ele>479.0</ele><time>2026-04-25T15:07:26.834Z</time></trkpt><trkpt lat="40.6473733" lon="16.121465"><ele>479.0</ele><time>2026-04-25T15:07:27.832Z</time></trkpt><trkpt lat="40.6473533" lon="16.1215967"><ele>479.0</ele><time>2026-04-25T15:07:28.834Z</time></trkpt><trkpt lat="40.64735" lon="16.1217183"><ele>479.0</ele><time>2026-04-25T15:07:29.834Z</time></trkpt><trkpt lat="40.647345" lon="16.12182"><ele>479.0</ele><time>2026-04-25T15:07:30.832Z</time></trkpt><trkpt lat="40.64733" lon="16.1219167"><ele>477.3333333333333</ele><time>2026-04-25T15:07:31.832Z</time></trkpt><trkpt lat="40.6473" lon="16.1220133"><ele>475.66666666666663</ele><time>2026-04-25T15:07:32.833Z</time></trkpt><trkpt lat="40.6472583" lon="16.122105"><ele>474.0</ele><time>2026-04-25T15:07:33.832Z</time></trkpt><trkpt lat="40.6472167" lon="16.1222"><ele>472.33333333333337</ele><time>2026-04-25T15:07:34.833Z</time></trkpt><trkpt lat="40.6471867" lon="16.1222933"><ele>470.6666666666667</ele><time>2026-04-25T15:07:35.833Z</time></trkpt><trkpt lat="40.64717" lon="16.122385"><ele>469.0</ele><time>2026-04-25T15:07:36.832Z</time></trkpt><trkpt lat="40.64717" lon="16.1224817"><ele>468.0</ele><time>2026-04-25T15:07:37.833Z</time></trkpt><trkpt lat="40.6471917" lon="16.1225717"><ele>467.0</ele><time>2026-04-25T15:07:38.834Z</time></trkpt><trkpt lat="40.6472283" lon="16.1226567"><ele>466.0</ele><time>2026-04-25T15:07:39.833Z</time></trkpt><trkpt lat="40.647325" lon="16.12276"><ele>465.0</ele><time>2026-04-25T15:07:41.833Z</time></trkpt><trkpt lat="40.6474033" lon="16.1228817"><ele>464.0</ele><time>2026-04-25T15:07:43.833Z</time></trkpt><trkpt lat="40.647435" lon="16.1229633"><ele>463.99999999999994</ele><time>2026-04-25T15:07:44.833Z</time></trkpt><trkpt lat="40.6474633" lon="16.1230417"><ele>464.0</ele><time>2026-04-25T15:07:45.832Z</time></trkpt><trkpt lat="40.647505" lon="16.1231117"><ele>464.0</ele><time>2026-04-25T15:07:46.833Z</time></trkpt><trkpt lat="40.647555" lon="16.123175"><ele>464.0</ele><time>2026-04-25T15:07:47.834Z</time></trkpt><trkpt lat="40.6476217" lon="16.1232667"><ele>463.99999999999994</ele><time>2026-04-25T15:07:49.833Z</time></trkpt><trkpt lat="40.6476967" lon="16.12327"><ele>464.0</ele><time>2026-04-25T15:07:53.832Z</time></trkpt><trkpt lat="40.6476283" lon="16.1232217"><ele>463.99999999999994</ele><time>2026-04-25T15:07:55.832Z</time></trkpt><trkpt lat="40.6475567" lon="16.1232017"><ele>464.0</ele><time>2026-04-25T15:07:57.832Z</time></trkpt><trkpt lat="40.6474917" lon="16.1232583"><ele>464.0</ele><time>2026-04-25T15:08:00.834Z</time></trkpt><trkpt lat="40.6474817" lon="16.1233733"><ele>464.0</ele><time>2026-04-25T15:08:02.833Z</time></trkpt><trkpt lat="40.6474567" lon="16.12351"><ele>463.99999999999994</ele><time>2026-04-25T15:08:04.838Z</time></trkpt><trkpt lat="40.6474183" lon="16.1236217"><ele>464.0</ele><time>2026-04-25T15:08:06.834Z</time></trkpt><trkpt lat="40.6473817" lon="16.12369"><ele>464.0</ele><time>2026-04-25T15:08:08.834Z</time></trkpt><trkpt lat="40.647325" lon="16.1238417"><ele>464.0</ele><time>2026-04-25T15:08:17.833Z</time></trkpt><trkpt lat="40.6473517" lon="16.1239633"><ele>464.0</ele><time>2026-04-25T15:08:26.833Z</time></trkpt><trkpt lat="40.6473667" lon="16.12407"><ele>464.0</ele><time>2026-04-25T15:08:29.833Z</time></trkpt><trkpt lat="40.64731" lon="16.12418"><ele>464.0</ele><time>2026-04-25T15:08:31.833Z</time></trkpt><trkpt lat="40.6472483" lon="16.1243117"><ele>464.00000000000006</ele><time>2026-04-25T15:08:33.832Z</time></trkpt><trkpt lat="40.647185" lon="16.1243983"><ele>464.0</ele><time>2026-04-25T15:08:34.833Z</time></trkpt><trkpt lat="40.647135" lon="16.1244767"><ele>464.00000000000006</ele><time>2026-04-25T15:08:35.833Z</time></trkpt><trkpt lat="40.647085" lon="16.12453"><ele>464.00000000000006</ele><time>2026-04-25T15:08:36.832Z</time></trkpt><trkpt lat="40.6470233" lon="16.1245583"><ele>464.0</ele><time>2026-04-25T15:08:37.834Z</time></trkpt><trkpt lat="40.646945" lon="16.1245617"><ele>464.00000000000006</ele><time>2026-04-25T15:08:38.835Z</time></trkpt><trkpt lat="40.6468783" lon="16.124555"><ele>464.00000000000006</ele><time>2026-04-25T15:08:39.832Z</time></trkpt><trkpt lat="40.6468017" lon="16.124505"><ele>465.49999999999994</ele><time>2026-04-25T15:08:41.833Z</time></trkpt><trkpt lat="40.6467567" lon="16.1244067"><ele>467.0</ele><time>2026-04-25T15:08:43.833Z</time></trkpt><trkpt lat="40.6466833" lon="16.12437"><ele>468.5</ele><time>2026-04-25T15:08:45.832Z</time></trkpt><trkpt lat="40.6465867" lon="16.1243667"><ele>470.0</ele><time>2026-04-25T15:08:47.834Z</time></trkpt><trkpt lat="40.6464933" lon="16.1243767"><ele>471.49999999999994</ele><time>2026-04-25T15:08:49.834Z</time></trkpt><trkpt lat="40.6464" lon="16.1243733"><ele>473.0</ele><time>2026-04-25T15:08:51.832Z</time></trkpt><trkpt lat="40.6463133" lon="16.1243217"><ele>473.0</ele><time>2026-04-25T15:08:54.832Z</time></trkpt><trkpt lat="40.6462917" lon="16.1242"><ele>472.99999999999994</ele><time>2026-04-25T15:08:56.836Z</time></trkpt><trkpt lat="40.646255" lon="16.1240767"><ele>472.99999999999994</ele><time>2026-04-25T15:08:58.834Z</time></trkpt><trkpt lat="40.6462167" lon="16.12401"><ele>473.0</ele><time>2026-04-25T15:09:00.833Z</time></trkpt><trkpt lat="40.6460783" lon="16.1238967"><ele>473.0</ele><time>2026-04-25T15:09:20.835Z</time></trkpt><trkpt lat="40.64599" lon="16.123795"><ele>474.4</ele><time>2026-04-25T15:09:22.833Z</time></trkpt><trkpt lat="40.6459333" lon="16.1236933"><ele>475.79999999999995</ele><time>2026-04-25T15:09:24.833Z</time></trkpt><trkpt lat="40.645865" lon="16.1236517"><ele>477.2</ele><time>2026-04-25T15:09:26.835Z</time></trkpt><trkpt lat="40.645775" lon="16.1236267"><ele>478.6</ele><time>2026-04-25T15:09:28.833Z</time></trkpt><trkpt lat="40.64568" lon="16.1235633"><ele>480.0</ele><time>2026-04-25T15:09:30.834Z</time></trkpt><trkpt lat="40.6456117" lon="16.1234483"><ele>480.0</ele><time>2026-04-25T15:09:32.833Z</time></trkpt><trkpt lat="40.6455117" lon="16.123385"><ele>480.0</ele><time>2026-04-25T15:09:34.833Z</time></trkpt><trkpt lat="40.645405" lon="16.12335"><ele>480.0</ele><time>2026-04-25T15:09:36.833Z</time></trkpt><trkpt lat="40.6453267" lon="16.1233117"><ele>480.0</ele><time>2026-04-25T15:09:41.836Z</time></trkpt><trkpt lat="40.645265" lon="16.1233917"><ele>480.0</ele><time>2026-04-25T15:09:45.832Z</time></trkpt><trkpt lat="40.6452067" lon="16.1235033"><ele>483.0</ele><time>2026-04-25T15:09:47.834Z</time></trkpt><trkpt lat="40.6452789" lon="16.1235403"><ele>486.0</ele><time>2026-04-25T15:09:48.85Z</time></trkpt><trkpt lat="40.645142" lon="16.1236074"><ele>489.0</ele><time>2026-04-25T15:09:50.764Z</time></trkpt><trkpt lat="40.6451017" lon="16.1236778"><ele>492.0</ele><time>2026-04-25T15:09:51.87Z</time></trkpt><trkpt lat="40.6449067" lon="16.1239367"><ele>492.0</ele><time>2026-04-25T15:09:53.833Z</time></trkpt><trkpt lat="40.64482" lon="16.1240183"><ele>492.0</ele><time>2026-04-25T15:09:54.832Z</time></trkpt><trkpt lat="40.6447683" lon="16.1240767"><ele>492.0</ele><time>2026-04-25T15:09:55.833Z</time></trkpt><trkpt lat="40.6447183" lon="16.1241317"><ele>492.0</ele><time>2026-04-25T15:09:56.832Z</time></trkpt><trkpt lat="40.6446485" lon="16.1241737"><ele>492.0</ele><time>2026-04-25T15:09:58.833Z</time></trkpt><trkpt lat="40.6445657" lon="16.1242443"><ele>492.0</ele><time>2026-04-25T15:10:00.833Z</time></trkpt><trkpt lat="40.6444996" lon="16.1242751"><ele>493.8</ele><time>2026-04-25T15:10:04.857Z</time></trkpt><trkpt lat="40.6444555" lon="16.1243402"><ele>495.6</ele><time>2026-04-25T15:10:19.857Z</time></trkpt><trkpt lat="40.6443452" lon="16.1242631"><ele>497.40000000000003</ele><time>2026-04-25T15:10:27.911Z</time></trkpt><trkpt lat="40.6443018" lon="16.1240858"><ele>499.20000000000005</ele><time>2026-04-25T15:10:31.836Z</time></trkpt><trkpt lat="40.6442806" lon="16.1240029"><ele>501.0</ele><time>2026-04-25T15:10:34.856Z</time></trkpt><trkpt lat="40.6441681" lon="16.1240581"><ele>504.5</ele><time>2026-04-25T15:10:36.87Z</time></trkpt><trkpt lat="40.6441098" lon="16.1241181"><ele>508.0</ele><time>2026-04-25T15:10:38.824Z</time></trkpt><trkpt lat="40.6440118" lon="16.124304"><ele>511.5</ele><time>2026-04-25T15:10:40.862Z</time></trkpt><trkpt lat="40.6439696" lon="16.1243694"><ele>515.0</ele><time>2026-04-25T15:10:41.885Z</time></trkpt><trkpt lat="40.6438383" lon="16.12451"><ele>515.0</ele><time>2026-04-25T15:10:42.831Z</time></trkpt><trkpt lat="40.643775" lon="16.1246083"><ele>515.0</ele><time>2026-04-25T15:10:44.834Z</time></trkpt><trkpt lat="40.643745" lon="16.1247267"><ele>515.0</ele><time>2026-04-25T15:10:46.833Z</time></trkpt><trkpt lat="40.6436967" lon="16.12488"><ele>515.0</ele><time>2026-04-25T15:10:48.832Z</time></trkpt><trkpt lat="40.64368" lon="16.1249617"><ele>515.0</ele><time>2026-04-25T15:10:49.832Z</time></trkpt><trkpt lat="40.64364" lon="16.1250883"><ele>517.0</ele><time>2026-04-25T15:10:51.832Z</time></trkpt><trkpt lat="40.64359" lon="16.1251483"><ele>519.0</ele><time>2026-04-25T15:10:53.833Z</time></trkpt><trkpt lat="40.6435233" lon="16.1252117"><ele>521.0</ele><time>2026-04-25T15:11:12.832Z</time></trkpt><trkpt lat="40.6434933" lon="16.1253117"><ele>523.0</ele><time>2026-04-25T15:11:14.833Z</time></trkpt><trkpt lat="40.64345" lon="16.1253983"><ele>525.0</ele><time>2026-04-25T15:11:16.832Z</time></trkpt><trkpt lat="40.6433733" lon="16.125425"><ele>527.0</ele><time>2026-04-25T15:11:18.832Z</time></trkpt><trkpt lat="40.6432933" lon="16.12534"><ele>527.0</ele><time>2026-04-25T15:11:20.831Z</time></trkpt><trkpt lat="40.6431783" lon="16.1252683"><ele>527.0</ele><time>2026-04-25T15:11:22.832Z</time></trkpt><trkpt lat="40.643095" lon="16.1252333"><ele>527.0</ele><time>2026-04-25T15:11:23.833Z</time></trkpt><trkpt lat="40.6430067" lon="16.1251917"><ele>527.0</ele><time>2026-04-25T15:11:24.831Z</time></trkpt><trkpt lat="40.6429267" lon="16.12515"><ele>527.0</ele><time>2026-04-25T15:11:25.833Z</time></trkpt><trkpt lat="40.6428533" lon="16.1251083"><ele>526.7142857142858</ele><time>2026-04-25T15:11:26.833Z</time></trkpt><trkpt lat="40.6427867" lon="16.1250717"><ele>526.4285714285714</ele><time>2026-04-25T15:11:27.831Z</time></trkpt><trkpt lat="40.6427233" lon="16.1250383"><ele>526.1428571428571</ele><time>2026-04-25T15:11:28.832Z</time></trkpt><trkpt lat="40.6426617" lon="16.125005"><ele>525.8571428571429</ele><time>2026-04-25T15:11:29.832Z</time></trkpt><trkpt lat="40.6426" lon="16.1249717"><ele>525.5714285714286</ele><time>2026-04-25T15:11:30.834Z</time></trkpt><trkpt lat="40.6425417" lon="16.1249383"><ele>525.2857142857143</ele><time>2026-04-25T15:11:31.832Z</time></trkpt><trkpt lat="40.6424517" lon="16.1249"><ele>525.0</ele><time>2026-04-25T15:11:33.831Z</time></trkpt><trkpt lat="40.6423767" lon="16.1248283"><ele>524.4</ele><time>2026-04-25T15:11:35.835Z</time></trkpt><trkpt lat="40.6423217" lon="16.1246983"><ele>523.8</ele><time>2026-04-25T15:11:37.832Z</time></trkpt><trkpt lat="40.642305" lon="16.1246"><ele>523.2</ele><time>2026-04-25T15:11:38.833Z</time></trkpt><trkpt lat="40.642285" lon="16.12449"><ele>522.6</ele><time>2026-04-25T15:11:39.832Z</time></trkpt><trkpt lat="40.6422667" lon="16.1243617"><ele>522.0</ele><time>2026-04-25T15:11:40.833Z</time></trkpt><trkpt lat="40.6422617" lon="16.1242217"><ele>522.0</ele><time>2026-04-25T15:11:41.833Z</time></trkpt><trkpt lat="40.642255" lon="16.1240833"><ele>522.0</ele><time>2026-04-25T15:11:42.832Z</time></trkpt><trkpt lat="40.6422417" lon="16.12395"><ele>522.0</ele><time>2026-04-25T15:11:43.831Z</time></trkpt><trkpt lat="40.642225" lon="16.1238017"><ele>522.0</ele><time>2026-04-25T15:11:44.833Z</time></trkpt><trkpt lat="40.642215" lon="16.123655"><ele>522.0</ele><time>2026-04-25T15:11:45.832Z</time></trkpt><trkpt lat="40.6422117" lon="16.1235317"><ele>522.0</ele><time>2026-04-25T15:11:46.832Z</time></trkpt><trkpt lat="40.64222" lon="16.1234417"><ele>522.0</ele><time>2026-04-25T15:11:47.832Z</time></trkpt><trkpt lat="40.642215" lon="16.1233233"><ele>522.0</ele><time>2026-04-25T15:12:03.83Z</time></trkpt><trkpt lat="40.64212" lon="16.1233133"><ele>522.0</ele><time>2026-04-25T15:12:15.832Z</time></trkpt><trkpt lat="40.642025" lon="16.1233067"><ele>522.0</ele><time>2026-04-25T15:12:17.834Z</time></trkpt><trkpt lat="40.6419617" lon="16.1233"><ele>522.0</ele><time>2026-04-25T15:12:18.832Z</time></trkpt><trkpt lat="40.6418917" lon="16.1232917"><ele>523.2</ele><time>2026-04-25T15:12:19.833Z</time></trkpt><trkpt lat="40.6418017" lon="16.123285"><ele>524.4000000000001</ele><time>2026-04-25T15:12:20.833Z</time></trkpt><trkpt lat="40.6417033" lon="16.1232633"><ele>525.5999999999999</ele><time>2026-04-25T15:12:21.832Z</time></trkpt><trkpt lat="40.64159" lon="16.1232317"><ele>526.8</ele><time>2026-04-25T15:12:22.833Z</time></trkpt><trkpt lat="40.6414983" lon="16.1231833"><ele>528.0</ele><time>2026-04-25T15:12:23.832Z</time></trkpt><trkpt lat="40.64141" lon="16.1231433"><ele>528.0</ele><time>2026-04-25T15:12:24.832Z</time></trkpt><trkpt lat="40.64133" lon="16.12312"><ele>528.0</ele><time>2026-04-25T15:12:25.831Z</time></trkpt><trkpt lat="40.6412533" lon="16.1231233"><ele>528.0</ele><time>2026-04-25T15:12:26.832Z</time></trkpt><trkpt lat="40.6411717" lon="16.1231817"><ele>528.0</ele><time>2026-04-25T15:12:27.832Z</time></trkpt><trkpt lat="40.6410783" lon="16.1232633"><ele>528.0</ele><time>2026-04-25T15:12:28.833Z</time></trkpt><trkpt lat="40.6409767" lon="16.12336"><ele>532.5</ele><time>2026-04-25T15:12:29.833Z</time></trkpt><trkpt lat="40.64087" lon="16.1234433"><ele>537.0</ele><time>2026-04-25T15:12:30.833Z</time></trkpt><trkpt lat="40.640755" lon="16.1235083"><ele>541.5</ele><time>2026-04-25T15:12:31.832Z</time></trkpt><trkpt lat="40.640625" lon="16.1235583"><ele>546.0</ele><time>2026-04-25T15:12:32.832Z</time></trkpt><trkpt lat="40.6404817" lon="16.1236017"><ele>546.0</ele><time>2026-04-25T15:12:33.833Z</time></trkpt><trkpt lat="40.6403283" lon="16.1236617"><ele>546.0</ele><time>2026-04-25T15:12:34.83Z</time></trkpt><trkpt lat="40.6401917" lon="16.1237183"><ele>546.0</ele><time>2026-04-25T15:12:35.831Z</time></trkpt><trkpt lat="40.64006" lon="16.123765"><ele>546.0</ele><time>2026-04-25T15:12:36.832Z</time></trkpt><trkpt lat="40.6399117" lon="16.1237983"><ele>548.75</ele><time>2026-04-25T15:12:37.833Z</time></trkpt><trkpt lat="40.63977" lon="16.123815"><ele>551.5</ele><time>2026-04-25T15:12:38.832Z</time></trkpt><trkpt lat="40.6396383" lon="16.1238367"><ele>554.25</ele><time>2026-04-25T15:12:39.836Z</time></trkpt><trkpt lat="40.6395017" lon="16.1238767"><ele>557.0</ele><time>2026-04-25T15:12:40.832Z</time></trkpt><trkpt lat="40.6393533" lon="16.1239383"><ele>558.5</ele><time>2026-04-25T15:12:41.832Z</time></trkpt><trkpt lat="40.6392133" lon="16.1240017"><ele>560.0</ele><time>2026-04-25T15:12:42.831Z</time></trkpt><trkpt lat="40.6390883" lon="16.1240633"><ele>561.5</ele><time>2026-04-25T15:12:43.832Z</time></trkpt><trkpt lat="40.6389817" lon="16.124125"><ele>563.0</ele><time>2026-04-25T15:12:44.833Z</time></trkpt><trkpt lat="40.6388983" lon="16.12418"><ele>565.0</ele><time>2026-04-25T15:12:45.831Z</time></trkpt><trkpt lat="40.6388283" lon="16.124215"><ele>567.0</ele><time>2026-04-25T15:12:46.831Z</time></trkpt><trkpt lat="40.6387067" lon="16.1241967"><ele>569.0</ele><time>2026-04-25T15:12:48.833Z</time></trkpt><trkpt lat="40.63865" lon="16.1241517"><ele>571.0</ele><time>2026-04-25T15:12:49.834Z</time></trkpt><trkpt lat="40.6385933" lon="16.1241117"><ele>573.0</ele><time>2026-04-25T15:12:50.834Z</time></trkpt><trkpt lat="40.6385283" lon="16.1241033"><ele>575.0</ele><time>2026-04-25T15:12:51.833Z</time></trkpt><trkpt lat="40.638445" lon="16.1241267"><ele>577.0</ele><time>2026-04-25T15:12:52.832Z</time></trkpt><trkpt lat="40.6383367" lon="16.124175"><ele>579.0</ele><time>2026-04-25T15:12:53.833Z</time></trkpt><trkpt lat="40.6382233" lon="16.1242317"><ele>581.0</ele><time>2026-04-25T15:12:54.833Z</time></trkpt><trkpt lat="40.6381" lon="16.1242833"><ele>583.0</ele><time>2026-04-25T15:12:55.833Z</time></trkpt><trkpt lat="40.6379683" lon="16.1243283"><ele>583.0</ele><time>2026-04-25T15:12:56.833Z</time></trkpt><trkpt lat="40.6378433" lon="16.124375"><ele>583.0</ele><time>2026-04-25T15:12:57.831Z</time></trkpt><trkpt lat="40.6377317" lon="16.12444"><ele>583.0</ele><time>2026-04-25T15:12:58.832Z</time></trkpt><trkpt lat="40.6376433" lon="16.1245083"><ele>583.0</ele><time>2026-04-25T15:12:59.832Z</time></trkpt><trkpt lat="40.6375717" lon="16.1245567"><ele>583.0</ele><time>2026-04-25T15:13:00.831Z</time></trkpt><trkpt lat="40.6375033" lon="16.1246"><ele>584.3333333333334</ele><time>2026-04-25T15:13:01.834Z</time></trkpt><trkpt lat="40.6374333" lon="16.1246217"><ele>585.6666666666667</ele><time>2026-04-25T15:13:02.832Z</time></trkpt><trkpt lat="40.637355" lon="16.124625"><ele>587.0</ele><time>2026-04-25T15:13:03.832Z</time></trkpt><trkpt lat="40.63728" lon="16.1246067"><ele>588.3333333333334</ele><time>2026-04-25T15:13:04.832Z</time></trkpt><trkpt lat="40.6372083" lon="16.1245733"><ele>589.6666666666666</ele><time>2026-04-25T15:13:05.832Z</time></trkpt><trkpt lat="40.6371417" lon="16.1245233"><ele>591.0</ele><time>2026-04-25T15:13:06.834Z</time></trkpt><trkpt lat="40.6370833" lon="16.124465"><ele>591.0</ele><time>2026-04-25T15:13:07.832Z</time></trkpt><trkpt lat="40.63703" lon="16.12442"><ele>591.0</ele><time>2026-04-25T15:13:08.834Z</time></trkpt><trkpt lat="40.6369267" lon="16.1244067"><ele>591.0</ele><time>2026-04-25T15:13:10.834Z</time></trkpt><trkpt lat="40.6368317" lon="16.1244767"><ele>591.0</ele><time>2026-04-25T15:13:12.832Z</time></trkpt><trkpt lat="40.63678" lon="16.124525"><ele>591.0</ele><time>2026-04-25T15:13:13.833Z</time></trkpt><trkpt lat="40.6367167" lon="16.1245817"><ele>591.0</ele><time>2026-04-25T15:13:14.832Z</time></trkpt><trkpt lat="40.6366483" lon="16.1246433"><ele>593.0</ele><time>2026-04-25T15:13:15.832Z</time></trkpt><trkpt lat="40.6365783" lon="16.1246983"><ele>595.0</ele><time>2026-04-25T15:13:16.832Z</time></trkpt><trkpt lat="40.6365" lon="16.1247433"><ele>597.0</ele><time>2026-04-25T15:13:17.832Z</time></trkpt><trkpt lat="40.636425" lon="16.1247783"><ele>599.0</ele><time>2026-04-25T15:13:18.832Z</time></trkpt><trkpt lat="40.6363217" lon="16.124805"><ele>601.0</ele><time>2026-04-25T15:13:20.834Z</time></trkpt><trkpt lat="40.6362567" lon="16.1247667"><ele>603.0</ele><time>2026-04-25T15:13:22.832Z</time></trkpt><trkpt lat="40.63621" lon="16.1246417"><ele>603.0</ele><time>2026-04-25T15:13:24.832Z</time></trkpt><trkpt lat="40.6361683" lon="16.124545"><ele>603.0</ele><time>2026-04-25T15:13:25.833Z</time></trkpt><trkpt lat="40.636095" lon="16.12445"><ele>603.0</ele><time>2026-04-25T15:13:26.834Z</time></trkpt><trkpt lat="40.6359967" lon="16.1243667"><ele>603.0</ele><time>2026-04-25T15:13:27.834Z</time></trkpt><trkpt lat="40.6358917" lon="16.1243083"><ele>603.0</ele><time>2026-04-25T15:13:28.833Z</time></trkpt><trkpt lat="40.6357783" lon="16.1242717"><ele>606.6</ele><time>2026-04-25T15:13:29.832Z</time></trkpt><trkpt lat="40.63566" lon="16.12425"><ele>610.1999999999999</ele><time>2026-04-25T15:13:30.833Z</time></trkpt><trkpt lat="40.635545" lon="16.1242467"><ele>613.8</ele><time>2026-04-25T15:13:31.832Z</time></trkpt><trkpt lat="40.6354367" lon="16.1242733"><ele>617.4</ele><time>2026-04-25T15:13:32.833Z</time></trkpt><trkpt lat="40.6353417" lon="16.1243233"><ele>621.0</ele><time>2026-04-25T15:13:33.832Z</time></trkpt><trkpt lat="40.63526" lon="16.1244017"><ele>621.0</ele><time>2026-04-25T15:13:34.832Z</time></trkpt><trkpt lat="40.635185" lon="16.124505"><ele>621.0</ele><time>2026-04-25T15:13:35.833Z</time></trkpt><trkpt lat="40.6351183" lon="16.12462"><ele>621.0</ele><time>2026-04-25T15:13:36.833Z</time></trkpt><trkpt lat="40.63505" lon="16.1247233"><ele>621.0</ele><time>2026-04-25T15:13:37.833Z</time></trkpt><trkpt lat="40.6349667" lon="16.1248217"><ele>621.0</ele><time>2026-04-25T15:13:38.834Z</time></trkpt><trkpt lat="40.6348683" lon="16.1249267"><ele>626.0</ele><time>2026-04-25T15:13:39.832Z</time></trkpt><trkpt lat="40.6347717" lon="16.1250433"><ele>631.0</ele><time>2026-04-25T15:13:40.834Z</time></trkpt><trkpt lat="40.6346933" lon="16.125175"><ele>636.0</ele><time>2026-04-25T15:13:41.833Z</time></trkpt><trkpt lat="40.634625" lon="16.1253417"><ele>641.0</ele><time>2026-04-25T15:13:42.835Z</time></trkpt><trkpt lat="40.634545" lon="16.12554"><ele>637.3333333333333</ele><time>2026-04-25T15:13:43.832Z</time></trkpt><trkpt lat="40.6344617" lon="16.125745"><ele>633.6666666666666</ele><time>2026-04-25T15:13:44.834Z</time></trkpt><trkpt lat="40.6343783" lon="16.1259617"><ele>630.0</ele><time>2026-04-25T15:13:45.833Z</time></trkpt><trkpt lat="40.6343067" lon="16.1261767"><ele>630.0</ele><time>2026-04-25T15:13:46.833Z</time></trkpt><trkpt lat="40.6342433" lon="16.1263733"><ele>630.0</ele><time>2026-04-25T15:13:47.832Z</time></trkpt><trkpt lat="40.6341767" lon="16.1265533"><ele>630.0</ele><time>2026-04-25T15:13:48.832Z</time></trkpt><trkpt lat="40.6341017" lon="16.1267267"><ele>632.3333333333334</ele><time>2026-04-25T15:13:49.832Z</time></trkpt><trkpt lat="40.63401" lon="16.1269217"><ele>634.6666666666667</ele><time>2026-04-25T15:13:50.836Z</time></trkpt><trkpt lat="40.63391" lon="16.1271417"><ele>637.0</ele><time>2026-04-25T15:13:51.831Z</time></trkpt><trkpt lat="40.6338167" lon="16.1273567"><ele>633.6666666666667</ele><time>2026-04-25T15:13:52.832Z</time></trkpt><trkpt lat="40.6337133" lon="16.1275733"><ele>630.3333333333334</ele><time>2026-04-25T15:13:53.832Z</time></trkpt><trkpt lat="40.633605" lon="16.127785"><ele>627.0</ele><time>2026-04-25T15:13:54.831Z</time></trkpt><trkpt lat="40.6335033" lon="16.127975"><ele>627.0</ele><time>2026-04-25T15:13:55.832Z</time></trkpt><trkpt lat="40.63341" lon="16.1281533"><ele>627.0</ele><time>2026-04-25T15:13:56.834Z</time></trkpt><trkpt lat="40.6333267" lon="16.1283217"><ele>627.0</ele><time>2026-04-25T15:13:57.834Z</time></trkpt><trkpt lat="40.6332417" lon="16.1284867"><ele>631.6666666666666</ele><time>2026-04-25T15:13:58.834Z</time></trkpt><trkpt lat="40.6331533" lon="16.1286467"><ele>636.3333333333333</ele><time>2026-04-25T15:13:59.832Z</time></trkpt><trkpt lat="40.6330567" lon="16.128805"><ele>641.0</ele><time>2026-04-25T15:14:00.832Z</time></trkpt><trkpt lat="40.6329617" lon="16.12896"><ele>639.75</ele><time>2026-04-25T15:14:01.833Z</time></trkpt><trkpt lat="40.6328732" lon="16.1291126"><ele>638.5</ele><time>2026-04-25T15:14:02.833Z</time></trkpt><trkpt lat="40.6327909" lon="16.1292634"><ele>637.25</ele><time>2026-04-25T15:14:03.831Z</time></trkpt><trkpt lat="40.6327075" lon="16.1293952"><ele>636.0</ele><time>2026-04-25T15:14:04.832Z</time></trkpt><trkpt lat="40.6326193" lon="16.1295179"><ele>636.0</ele><time>2026-04-25T15:14:05.833Z</time></trkpt><trkpt lat="40.6325204" lon="16.1296526"><ele>636.0</ele><time>2026-04-25T15:14:06.832Z</time></trkpt><trkpt lat="40.6324112" lon="16.1297903"><ele>636.0</ele><time>2026-04-25T15:14:07.832Z</time></trkpt><trkpt lat="40.6322943" lon="16.1299239"><ele>636.0</ele><time>2026-04-25T15:14:08.833Z</time></trkpt><trkpt lat="40.6321872" lon="16.1300532"><ele>635.25</ele><time>2026-04-25T15:14:09.832Z</time></trkpt><trkpt lat="40.6320892" lon="16.1301793"><ele>634.5</ele><time>2026-04-25T15:14:10.832Z</time></trkpt><trkpt lat="40.6319916" lon="16.1302909"><ele>633.75</ele><time>2026-04-25T15:14:11.832Z</time></trkpt><trkpt lat="40.631898" lon="16.1303922"><ele>633.0</ele><time>2026-04-25T15:14:12.832Z</time></trkpt><trkpt lat="40.6318111" lon="16.130496"><ele>633.0</ele><time>2026-04-25T15:14:13.832Z</time></trkpt><trkpt lat="40.631734" lon="16.1306001"><ele>633.0</ele><time>2026-04-25T15:14:14.833Z</time></trkpt><trkpt lat="40.6316686" lon="16.1307005"><ele>633.0</ele><time>2026-04-25T15:14:15.832Z</time></trkpt><trkpt lat="40.6316127" lon="16.1307864"><ele>633.0</ele><time>2026-04-25T15:14:16.832Z</time></trkpt><trkpt lat="40.6315623" lon="16.1308599"><ele>633.0</ele><time>2026-04-25T15:14:17.832Z</time></trkpt><trkpt lat="40.6315054" lon="16.1309122"><ele>633.0</ele><time>2026-04-25T15:14:18.833Z</time></trkpt><trkpt lat="40.6314385" lon="16.1309346"><ele>633.8</ele><time>2026-04-25T15:14:19.832Z</time></trkpt><trkpt lat="40.6313655" lon="16.1309226"><ele>634.5999999999999</ele><time>2026-04-25T15:14:20.833Z</time></trkpt><trkpt lat="40.631294" lon="16.130883"><ele>635.4000000000001</ele><time>2026-04-25T15:14:21.835Z</time></trkpt><trkpt lat="40.6312209" lon="16.1308088"><ele>636.2</ele><time>2026-04-25T15:14:22.832Z</time></trkpt><trkpt lat="40.6311318" lon="16.1307125"><ele>637.0</ele><time>2026-04-25T15:14:23.833Z</time></trkpt><trkpt lat="40.6310244" lon="16.1306134"><ele>635.0</ele><time>2026-04-25T15:14:24.831Z</time></trkpt><trkpt lat="40.6309092" lon="16.1305183"><ele>633.0</ele><time>2026-04-25T15:14:25.832Z</time></trkpt><trkpt lat="40.6308008" lon="16.1304322"><ele>631.0</ele><time>2026-04-25T15:14:26.832Z</time></trkpt><trkpt lat="40.6307016" lon="16.1303566"><ele>629.0</ele><time>2026-04-25T15:14:27.832Z</time></trkpt><trkpt lat="40.6306085" lon="16.1302877"><ele>629.0</ele><time>2026-04-25T15:14:28.833Z</time></trkpt><trkpt lat="40.6305223" lon="16.1302243"><ele>629.0</ele><time>2026-04-25T15:14:29.832Z</time></trkpt><trkpt lat="40.6304466" lon="16.130166"><ele>629.0</ele><time>2026-04-25T15:14:30.834Z</time></trkpt><trkpt lat="40.6303754" lon="16.1301195"><ele>629.0</ele><time>2026-04-25T15:14:31.835Z</time></trkpt><trkpt lat="40.6303113" lon="16.130091"><ele>629.0</ele><time>2026-04-25T15:14:32.833Z</time></trkpt><trkpt lat="40.6302461" lon="16.1300915"><ele>629.0</ele><time>2026-04-25T15:14:33.833Z</time></trkpt><trkpt lat="40.630185" lon="16.1301233"><ele>629.6</ele><time>2026-04-25T15:14:34.832Z</time></trkpt><trkpt lat="40.63013" lon="16.13017"><ele>630.2</ele><time>2026-04-25T15:14:35.832Z</time></trkpt><trkpt lat="40.630075" lon="16.1302417"><ele>630.8000000000001</ele><time>2026-04-25T15:14:36.832Z</time></trkpt><trkpt lat="40.63001" lon="16.130335"><ele>631.4</ele><time>2026-04-25T15:14:37.832Z</time></trkpt><trkpt lat="40.6299217" lon="16.1304633"><ele>632.0</ele><time>2026-04-25T15:14:38.833Z</time></trkpt><trkpt lat="40.6298117" lon="16.1306267"><ele>630.0</ele><time>2026-04-25T15:14:39.832Z</time></trkpt><trkpt lat="40.6296967" lon="16.1308033"><ele>628.0</ele><time>2026-04-25T15:14:40.832Z</time></trkpt><trkpt lat="40.6295833" lon="16.1309783"><ele>626.0</ele><time>2026-04-25T15:14:41.833Z</time></trkpt><trkpt lat="40.62947" lon="16.13115"><ele>624.0</ele><time>2026-04-25T15:14:42.833Z</time></trkpt><trkpt lat="40.6293617" lon="16.131315"><ele>622.0</ele><time>2026-04-25T15:14:43.831Z</time></trkpt><trkpt lat="40.6292667" lon="16.1314767"><ele>620.0</ele><time>2026-04-25T15:14:44.832Z</time></trkpt><trkpt lat="40.6291817" lon="16.1316367"><ele>618.0</ele><time>2026-04-25T15:14:45.833Z</time></trkpt><trkpt lat="40.6291133" lon="16.1317933"><ele>616.0</ele><time>2026-04-25T15:14:46.833Z</time></trkpt><trkpt lat="40.6290567" lon="16.1319467"><ele>614.0</ele><time>2026-04-25T15:14:47.832Z</time></trkpt><trkpt lat="40.62901" lon="16.1320983"><ele>612.0</ele><time>2026-04-25T15:14:48.831Z</time></trkpt><trkpt lat="40.6289667" lon="16.13226"><ele>610.75</ele><time>2026-04-25T15:14:49.832Z</time></trkpt><trkpt lat="40.6289217" lon="16.132425"><ele>609.5</ele><time>2026-04-25T15:14:50.834Z</time></trkpt><trkpt lat="40.6288683" lon="16.1325783"><ele>608.25</ele><time>2026-04-25T15:14:51.832Z</time></trkpt><trkpt lat="40.62882" lon="16.1327217"><ele>607.0</ele><time>2026-04-25T15:14:52.832Z</time></trkpt><trkpt lat="40.6287783" lon="16.1328583"><ele>607.0</ele><time>2026-04-25T15:14:53.833Z</time></trkpt><trkpt lat="40.62875" lon="16.132995"><ele>607.0</ele><time>2026-04-25T15:14:54.832Z</time></trkpt><trkpt lat="40.6287283" lon="16.1331317"><ele>607.0</ele><time>2026-04-25T15:14:55.834Z</time></trkpt><trkpt lat="40.6287017" lon="16.1332683"><ele>607.0</ele><time>2026-04-25T15:14:56.833Z</time></trkpt><trkpt lat="40.6286667" lon="16.1334033"><ele>607.0</ele><time>2026-04-25T15:14:57.833Z</time></trkpt><trkpt lat="40.6286233" lon="16.1335367"><ele>605.8000000000001</ele><time>2026-04-25T15:14:58.833Z</time></trkpt><trkpt lat="40.6285717" lon="16.1336683"><ele>604.6</ele><time>2026-04-25T15:14:59.833Z</time></trkpt><trkpt lat="40.6285117" lon="16.133795"><ele>603.4000000000001</ele><time>2026-04-25T15:15:00.833Z</time></trkpt><trkpt lat="40.6284417" lon="16.1339083"><ele>602.2</ele><time>2026-04-25T15:15:01.832Z</time></trkpt><trkpt lat="40.62836" lon="16.1340067"><ele>601.0</ele><time>2026-04-25T15:15:02.832Z</time></trkpt><trkpt lat="40.6282733" lon="16.1341"><ele>599.4</ele><time>2026-04-25T15:15:03.832Z</time></trkpt><trkpt lat="40.62819" lon="16.1341883"><ele>597.8</ele><time>2026-04-25T15:15:04.832Z</time></trkpt><trkpt lat="40.628105" lon="16.134265"><ele>596.1999999999999</ele><time>2026-04-25T15:15:05.833Z</time></trkpt><trkpt lat="40.62802" lon="16.1343233"><ele>594.6</ele><time>2026-04-25T15:15:06.833Z</time></trkpt><trkpt lat="40.62794" lon="16.1343717"><ele>593.0</ele><time>2026-04-25T15:15:07.833Z</time></trkpt><trkpt lat="40.6278717" lon="16.134405"><ele>592.0</ele><time>2026-04-25T15:15:08.834Z</time></trkpt><trkpt lat="40.6278067" lon="16.1344283"><ele>591.0</ele><time>2026-04-25T15:15:09.832Z</time></trkpt><trkpt lat="40.6277317" lon="16.1344417"><ele>590.0</ele><time>2026-04-25T15:15:10.833Z</time></trkpt><trkpt lat="40.62764" lon="16.134455"><ele>589.0</ele><time>2026-04-25T15:15:11.834Z</time></trkpt><trkpt lat="40.6275333" lon="16.13448"><ele>588.0</ele><time>2026-04-25T15:15:12.832Z</time></trkpt><trkpt lat="40.6274217" lon="16.1345267"><ele>588.0</ele><time>2026-04-25T15:15:13.832Z</time></trkpt><trkpt lat="40.6273117" lon="16.1346017"><ele>588.0</ele><time>2026-04-25T15:15:14.832Z</time></trkpt><trkpt lat="40.6272117" lon="16.1346933"><ele>588.0</ele><time>2026-04-25T15:15:15.831Z</time></trkpt><trkpt lat="40.6271183" lon="16.13479"><ele>588.0</ele><time>2026-04-25T15:15:16.833Z</time></trkpt><trkpt lat="40.627045" lon="16.1348783"><ele>588.4</ele><time>2026-04-25T15:15:17.832Z</time></trkpt><trkpt lat="40.6269817" lon="16.1349617"><ele>588.8</ele><time>2026-04-25T15:15:18.833Z</time></trkpt><trkpt lat="40.6269183" lon="16.1350483"><ele>589.2</ele><time>2026-04-25T15:15:19.832Z</time></trkpt><trkpt lat="40.6268483" lon="16.1351383"><ele>589.6</ele><time>2026-04-25T15:15:20.833Z</time></trkpt><trkpt lat="40.6267683" lon="16.1352317"><ele>590.0</ele><time>2026-04-25T15:15:21.832Z</time></trkpt><trkpt lat="40.626675" lon="16.1353133"><ele>590.0</ele><time>2026-04-25T15:15:22.833Z</time></trkpt><trkpt lat="40.6265617" lon="16.135375"><ele>590.0</ele><time>2026-04-25T15:15:23.835Z</time></trkpt><trkpt lat="40.6264267" lon="16.13541"><ele>590.0</ele><time>2026-04-25T15:15:24.833Z</time></trkpt><trkpt lat="40.6262717" lon="16.1354183"><ele>590.0</ele><time>2026-04-25T15:15:25.833Z</time></trkpt><trkpt lat="40.6261283" lon="16.1354117"><ele>591.0</ele><time>2026-04-25T15:15:26.834Z</time></trkpt><trkpt lat="40.626005" lon="16.1353933"><ele>592.0</ele><time>2026-04-25T15:15:27.834Z</time></trkpt><trkpt lat="40.6258933" lon="16.1353817"><ele>593.0</ele><time>2026-04-25T15:15:28.833Z</time></trkpt><trkpt lat="40.62579" lon="16.135395"><ele>594.0</ele><time>2026-04-25T15:15:29.835Z</time></trkpt><trkpt lat="40.6256967" lon="16.13544"><ele>595.0</ele><time>2026-04-25T15:15:30.832Z</time></trkpt><trkpt lat="40.6256133" lon="16.1355067"><ele>595.0</ele><time>2026-04-25T15:15:31.832Z</time></trkpt><trkpt lat="40.6255533" lon="16.135595"><ele>595.0</ele><time>2026-04-25T15:15:32.834Z</time></trkpt><trkpt lat="40.625515" lon="16.1357117"><ele>595.0</ele><time>2026-04-25T15:15:33.833Z</time></trkpt><trkpt lat="40.6254933" lon="16.1358533"><ele>595.0</ele><time>2026-04-25T15:15:34.832Z</time></trkpt><trkpt lat="40.62548" lon="16.1360167"><ele>595.0</ele><time>2026-04-25T15:15:35.833Z</time></trkpt><trkpt lat="40.6254667" lon="16.1361917"><ele>593.0</ele><time>2026-04-25T15:15:36.833Z</time></trkpt><trkpt lat="40.625455" lon="16.1363733"><ele>591.0</ele><time>2026-04-25T15:15:37.834Z</time></trkpt><trkpt lat="40.62545" lon="16.1365617"><ele>589.0</ele><time>2026-04-25T15:15:38.833Z</time></trkpt><trkpt lat="40.62545" lon="16.136745"><ele>587.0</ele><time>2026-04-25T15:15:39.834Z</time></trkpt><trkpt lat="40.625445" lon="16.1369317"><ele>587.0</ele><time>2026-04-25T15:15:40.832Z</time></trkpt><trkpt lat="40.6254267" lon="16.1371117"><ele>587.0</ele><time>2026-04-25T15:15:41.832Z</time></trkpt><trkpt lat="40.625385" lon="16.13729"><ele>587.0</ele><time>2026-04-25T15:15:42.834Z</time></trkpt><trkpt lat="40.62532" lon="16.1374717"><ele>587.0</ele><time>2026-04-25T15:15:43.833Z</time></trkpt><trkpt lat="40.6252417" lon="16.137655"><ele>589.3333333333333</ele><time>2026-04-25T15:15:44.833Z</time></trkpt><trkpt lat="40.6251467" lon="16.1378333"><ele>591.6666666666666</ele><time>2026-04-25T15:15:45.833Z</time></trkpt><trkpt lat="40.6250383" lon="16.138"><ele>594.0</ele><time>2026-04-25T15:15:46.834Z</time></trkpt><trkpt lat="40.6249133" lon="16.1381583"><ele>597.6666666666666</ele><time>2026-04-25T15:15:47.832Z</time></trkpt><trkpt lat="40.62479" lon="16.1383267"><ele>601.3333333333333</ele><time>2026-04-25T15:15:48.832Z</time></trkpt><trkpt lat="40.624685" lon="16.1385083"><ele>605.0</ele><time>2026-04-25T15:15:49.832Z</time></trkpt><trkpt lat="40.6246" lon="16.138695"><ele>605.0</ele><time>2026-04-25T15:15:50.832Z</time></trkpt><trkpt lat="40.6245183" lon="16.1388783"><ele>605.0</ele><time>2026-04-25T15:15:51.832Z</time></trkpt><trkpt lat="40.6244367" lon="16.1390633"><ele>605.0</ele><time>2026-04-25T15:15:52.833Z</time></trkpt><trkpt lat="40.6243583" lon="16.1392417"><ele>606.75</ele><time>2026-04-25T15:15:53.832Z</time></trkpt><trkpt lat="40.6242833" lon="16.1394067"><ele>608.5</ele><time>2026-04-25T15:15:54.832Z</time></trkpt><trkpt lat="40.6242033" lon="16.1395567"><ele>610.25</ele><time>2026-04-25T15:15:55.832Z</time></trkpt><trkpt lat="40.624115" lon="16.1396917"><ele>612.0</ele><time>2026-04-25T15:15:56.832Z</time></trkpt><trkpt lat="40.6240267" lon="16.13981"><ele>611.25</ele><time>2026-04-25T15:15:57.831Z</time></trkpt><trkpt lat="40.62394" lon="16.13992"><ele>610.5</ele><time>2026-04-25T15:15:58.832Z</time></trkpt><trkpt lat="40.623855" lon="16.1400217"><ele>609.75</ele><time>2026-04-25T15:15:59.832Z</time></trkpt><trkpt lat="40.623755" lon="16.1401167"><ele>609.0</ele><time>2026-04-25T15:16:00.834Z</time></trkpt><trkpt lat="40.6236483" lon="16.1402117"><ele>612.6666666666666</ele><time>2026-04-25T15:16:01.833Z</time></trkpt><trkpt lat="40.6235333" lon="16.140315"><ele>616.3333333333333</ele><time>2026-04-25T15:16:02.834Z</time></trkpt><trkpt lat="40.623405" lon="16.140435"><ele>620.0</ele><time>2026-04-25T15:16:03.833Z</time></trkpt><trkpt lat="40.623265" lon="16.1405517"><ele>620.0</ele><time>2026-04-25T15:16:04.831Z</time></trkpt><trkpt lat="40.62312" lon="16.1406533"><ele>620.0</ele><time>2026-04-25T15:16:05.832Z</time></trkpt><trkpt lat="40.62296" lon="16.140745"><ele>620.0</ele><time>2026-04-25T15:16:06.833Z</time></trkpt><trkpt lat="40.6227967" lon="16.1408283"><ele>621.0</ele><time>2026-04-25T15:16:07.832Z</time></trkpt><trkpt lat="40.6226483" lon="16.1409117"><ele>622.0</ele><time>2026-04-25T15:16:08.833Z</time></trkpt><trkpt lat="40.6225133" lon="16.1410167"><ele>623.0</ele><time>2026-04-25T15:16:09.832Z</time></trkpt><trkpt lat="40.622385" lon="16.14114"><ele>623.0</ele><time>2026-04-25T15:16:10.832Z</time></trkpt><trkpt lat="40.62226" lon="16.1412817"><ele>623.0</ele><time>2026-04-25T15:16:11.833Z</time></trkpt><trkpt lat="40.6221383" lon="16.1414317"><ele>623.0</ele><time>2026-04-25T15:16:12.833Z</time></trkpt><trkpt lat="40.6220217" lon="16.1415933"><ele>624.0</ele><time>2026-04-25T15:16:13.833Z</time></trkpt><trkpt lat="40.62191" lon="16.1417567"><ele>625.0</ele><time>2026-04-25T15:16:14.834Z</time></trkpt><trkpt lat="40.6218017" lon="16.1419133"><ele>626.0</ele><time>2026-04-25T15:16:15.833Z</time></trkpt><trkpt lat="40.621695" lon="16.1420633"><ele>626.0</ele><time>2026-04-25T15:16:16.832Z</time></trkpt><trkpt lat="40.6215933" lon="16.142205"><ele>626.0</ele><time>2026-04-25T15:16:17.832Z</time></trkpt><trkpt lat="40.6215" lon="16.1423417"><ele>626.0</ele><time>2026-04-25T15:16:18.832Z</time></trkpt><trkpt lat="40.621415" lon="16.14247"><ele>626.0</ele><time>2026-04-25T15:16:19.833Z</time></trkpt><trkpt lat="40.6213417" lon="16.142595"><ele>624.75</ele><time>2026-04-25T15:16:20.833Z</time></trkpt><trkpt lat="40.6212833" lon="16.1427283"><ele>623.5</ele><time>2026-04-25T15:16:21.832Z</time></trkpt><trkpt lat="40.6212533" lon="16.14288"><ele>622.25</ele><time>2026-04-25T15:16:22.834Z</time></trkpt><trkpt lat="40.6212433" lon="16.14305"><ele>621.0</ele><time>2026-04-25T15:16:23.832Z</time></trkpt><trkpt lat="40.621235" lon="16.1432267"><ele>621.25</ele><time>2026-04-25T15:16:24.833Z</time></trkpt><trkpt lat="40.62121" lon="16.1434017"><ele>621.5</ele><time>2026-04-25T15:16:25.833Z</time></trkpt><trkpt lat="40.62116" lon="16.14357"><ele>621.75</ele><time>2026-04-25T15:16:26.834Z</time></trkpt><trkpt lat="40.6210867" lon="16.143745"><ele>622.0</ele><time>2026-04-25T15:16:27.833Z</time></trkpt><trkpt lat="40.62099" lon="16.14393"><ele>626.0</ele><time>2026-04-25T15:16:28.832Z</time></trkpt><trkpt lat="40.620875" lon="16.1441283"><ele>630.0</ele><time>2026-04-25T15:16:29.833Z</time></trkpt><trkpt lat="40.6207567" lon="16.1443317"><ele>634.0</ele><time>2026-04-25T15:16:30.833Z</time></trkpt><trkpt lat="40.6206483" lon="16.14452"><ele>634.0</ele><time>2026-04-25T15:16:31.832Z</time></trkpt><trkpt lat="40.6205467" lon="16.14469"><ele>634.0</ele><time>2026-04-25T15:16:32.834Z</time></trkpt><trkpt lat="40.62045" lon="16.1448417"><ele>634.0</ele><time>2026-04-25T15:16:33.833Z</time></trkpt><trkpt lat="40.62035" lon="16.1449767"><ele>634.75</ele><time>2026-04-25T15:16:34.833Z</time></trkpt><trkpt lat="40.6202417" lon="16.1450967"><ele>635.5</ele><time>2026-04-25T15:16:35.833Z</time></trkpt><trkpt lat="40.6201333" lon="16.1452083"><ele>636.25</ele><time>2026-04-25T15:16:36.832Z</time></trkpt><trkpt lat="40.6200367" lon="16.1453033"><ele>637.0</ele><time>2026-04-25T15:16:37.832Z</time></trkpt><trkpt lat="40.6199633" lon="16.1453767"><ele>637.0</ele><time>2026-04-25T15:16:38.834Z</time></trkpt><trkpt lat="40.6199017" lon="16.145425"><ele>637.0</ele><time>2026-04-25T15:16:39.832Z</time></trkpt><trkpt lat="40.61981" lon="16.1454433"><ele>637.0</ele><time>2026-04-25T15:16:41.834Z</time></trkpt><trkpt lat="40.6197283" lon="16.1453783"><ele>637.0</ele><time>2026-04-25T15:16:43.833Z</time></trkpt><trkpt lat="40.6196767" lon="16.14533"><ele>637.0</ele><time>2026-04-25T15:16:44.834Z</time></trkpt><trkpt lat="40.6195633" lon="16.1452417"><ele>637.0</ele><time>2026-04-25T15:16:46.832Z</time></trkpt><trkpt lat="40.619505" lon="16.1452033"><ele>637.0</ele><time>2026-04-25T15:16:47.833Z</time></trkpt><trkpt lat="40.619445" lon="16.1451767"><ele>637.0</ele><time>2026-04-25T15:16:48.833Z</time></trkpt><trkpt lat="40.6193233" lon="16.1451783"><ele>637.0</ele><time>2026-04-25T15:16:50.834Z</time></trkpt><trkpt lat="40.619265" lon="16.1452117"><ele>637.0</ele><time>2026-04-25T15:16:51.833Z</time></trkpt><trkpt lat="40.6191983" lon="16.1452517"><ele>637.0</ele><time>2026-04-25T15:16:52.834Z</time></trkpt><trkpt lat="40.6191333" lon="16.145285"><ele>637.6666666666667</ele><time>2026-04-25T15:16:53.832Z</time></trkpt><trkpt lat="40.6190717" lon="16.1453033"><ele>638.3333333333334</ele><time>2026-04-25T15:16:54.834Z</time></trkpt><trkpt lat="40.6190083" lon="16.1453083"><ele>639.0</ele><time>2026-04-25T15:16:55.834Z</time></trkpt><trkpt lat="40.618915" lon="16.145305"><ele>639.6666666666666</ele><time>2026-04-25T15:16:57.832Z</time></trkpt><trkpt lat="40.6187733" lon="16.1452717"><ele>640.3333333333333</ele><time>2026-04-25T15:17:15.831Z</time></trkpt><trkpt lat="40.6187" lon="16.145295"><ele>641.0</ele><time>2026-04-25T15:17:18.832Z</time></trkpt><trkpt lat="40.6186467" lon="16.14535"><ele>642.5</ele><time>2026-04-25T15:17:22.833Z</time></trkpt><trkpt lat="40.6186067" lon="16.1454533"><ele>644.0</ele><time>2026-04-25T15:17:28.833Z</time></trkpt><trkpt lat="40.6185583" lon="16.1455567"><ele>645.5</ele><time>2026-04-25T15:17:30.833Z</time></trkpt><trkpt lat="40.6184917" lon="16.14561"><ele>647.0</ele><time>2026-04-25T15:17:32.834Z</time></trkpt><trkpt lat="40.6184167" lon="16.1456167"><ele>648.5</ele><time>2026-04-25T15:17:34.832Z</time></trkpt><trkpt lat="40.6183083" lon="16.14563"><ele>650.0</ele><time>2026-04-25T15:17:36.834Z</time></trkpt><trkpt lat="40.6181833" lon="16.145665"><ele>650.0</ele><time>2026-04-25T15:17:38.833Z</time></trkpt><trkpt lat="40.618115" lon="16.1456833"><ele>650.0</ele><time>2026-04-25T15:17:39.832Z</time></trkpt><trkpt lat="40.6180433" lon="16.1457083"><ele>650.0</ele><time>2026-04-25T15:17:40.832Z</time></trkpt><trkpt lat="40.617975" lon="16.1457317"><ele>650.0</ele><time>2026-04-25T15:17:41.834Z</time></trkpt><trkpt lat="40.6179067" lon="16.1457483"><ele>650.0</ele><time>2026-04-25T15:17:42.832Z</time></trkpt><trkpt lat="40.61784" lon="16.1457583"><ele>650.0</ele><time>2026-04-25T15:17:43.832Z</time></trkpt><trkpt lat="40.61777" lon="16.14576"><ele>650.0</ele><time>2026-04-25T15:17:44.832Z</time></trkpt><trkpt lat="40.6176933" lon="16.14576"><ele>651.6666666666666</ele><time>2026-04-25T15:17:45.832Z</time></trkpt><trkpt lat="40.6176133" lon="16.1457533"><ele>653.3333333333333</ele><time>2026-04-25T15:17:46.832Z</time></trkpt><trkpt lat="40.6175333" lon="16.145745"><ele>655.0</ele><time>2026-04-25T15:17:47.834Z</time></trkpt><trkpt lat="40.61745" lon="16.1457433"><ele>656.6666666666666</ele><time>2026-04-25T15:17:48.832Z</time></trkpt><trkpt lat="40.61737" lon="16.1457483"><ele>658.3333333333334</ele><time>2026-04-25T15:17:49.833Z</time></trkpt><trkpt lat="40.61729" lon="16.1457617"><ele>660.0</ele><time>2026-04-25T15:17:50.833Z</time></trkpt><trkpt lat="40.6172133" lon="16.1457833"><ele>660.0</ele><time>2026-04-25T15:17:51.832Z</time></trkpt><trkpt lat="40.61714" lon="16.1458083"><ele>660.0</ele><time>2026-04-25T15:17:52.834Z</time></trkpt><trkpt lat="40.6170667" lon="16.1458283"><ele>660.0</ele><time>2026-04-25T15:17:53.833Z</time></trkpt><trkpt lat="40.6169883" lon="16.145835"><ele>660.0</ele><time>2026-04-25T15:17:54.832Z</time></trkpt><trkpt lat="40.61691" lon="16.1458217"><ele>660.0</ele><time>2026-04-25T15:17:55.831Z</time></trkpt><trkpt lat="40.6168333" lon="16.1457967"><ele>660.0</ele><time>2026-04-25T15:17:56.833Z</time></trkpt><trkpt lat="40.6167533" lon="16.1457417"><ele>661.1428571428572</ele><time>2026-04-25T15:17:57.835Z</time></trkpt><trkpt lat="40.6166783" lon="16.1457083"><ele>662.2857142857143</ele><time>2026-04-25T15:17:58.833Z</time></trkpt><trkpt lat="40.6166067" lon="16.1456767"><ele>663.4285714285714</ele><time>2026-04-25T15:17:59.833Z</time></trkpt><trkpt lat="40.6165433" lon="16.1456383"><ele>664.5714285714287</ele><time>2026-04-25T15:18:00.834Z</time></trkpt><trkpt lat="40.61649" lon="16.1455733"><ele>665.7142857142858</ele><time>2026-04-25T15:18:01.833Z</time></trkpt><trkpt lat="40.6164417" lon="16.1455067"><ele>666.8571428571429</ele><time>2026-04-25T15:18:02.833Z</time></trkpt><trkpt lat="40.6163917" lon="16.1454483"><ele>668.0</ele><time>2026-04-25T15:18:03.833Z</time></trkpt><trkpt lat="40.61633" lon="16.1454067"><ele>668.0</ele><time>2026-04-25T15:18:04.835Z</time></trkpt><trkpt lat="40.6162583" lon="16.1453767"><ele>668.0</ele><time>2026-04-25T15:18:05.833Z</time></trkpt><trkpt lat="40.6161683" lon="16.14536"><ele>668.0</ele><time>2026-04-25T15:18:06.832Z</time></trkpt><trkpt lat="40.6160667" lon="16.14535"><ele>668.0</ele><time>2026-04-25T15:18:07.834Z</time></trkpt><trkpt lat="40.6159533" lon="16.1453433"><ele>668.0</ele><time>2026-04-25T15:18:08.833Z</time></trkpt><trkpt lat="40.6158267" lon="16.1453283"><ele>670.2</ele><time>2026-04-25T15:18:09.833Z</time></trkpt><trkpt lat="40.6157017" lon="16.14531"><ele>672.4</ele><time>2026-04-25T15:18:10.832Z</time></trkpt><trkpt lat="40.6156" lon="16.145295"><ele>674.6</ele><time>2026-04-25T15:18:11.832Z</time></trkpt><trkpt lat="40.615505" lon="16.1452917"><ele>676.8000000000001</ele><time>2026-04-25T15:18:12.833Z</time></trkpt><trkpt lat="40.6154267" lon="16.1453"><ele>679.0</ele><time>2026-04-25T15:18:13.832Z</time></trkpt><trkpt lat="40.61535" lon="16.1453267"><ele>681.0</ele><time>2026-04-25T15:18:14.835Z</time></trkpt><trkpt lat="40.6152717" lon="16.1453617"><ele>683.0</ele><time>2026-04-25T15:18:15.832Z</time></trkpt><trkpt lat="40.6151783" lon="16.1454133"><ele>685.0</ele><time>2026-04-25T15:18:16.832Z</time></trkpt><trkpt lat="40.615075" lon="16.1454783"><ele>687.0</ele><time>2026-04-25T15:18:17.833Z</time></trkpt><trkpt lat="40.6149817" lon="16.1455467"><ele>689.0</ele><time>2026-04-25T15:18:18.831Z</time></trkpt><trkpt lat="40.6148967" lon="16.1456117"><ele>689.0</ele><time>2026-04-25T15:18:19.832Z</time></trkpt><trkpt lat="40.614825" lon="16.14566"><ele>689.0</ele><time>2026-04-25T15:18:20.833Z</time></trkpt><trkpt lat="40.6147683" lon="16.1457033"><ele>689.0</ele><time>2026-04-25T15:18:21.833Z</time></trkpt><trkpt lat="40.6146783" lon="16.14578"><ele>689.0</ele><time>2026-04-25T15:18:23.832Z</time></trkpt><trkpt lat="40.6146267" lon="16.1458467"><ele>689.0</ele><time>2026-04-25T15:18:25.832Z</time></trkpt><trkpt lat="40.61462" lon="16.1459767"><ele>689.0</ele><time>2026-04-25T15:18:28.833Z</time></trkpt><trkpt lat="40.61468" lon="16.14612"><ele>689.6666666666666</ele><time>2026-04-25T15:18:30.833Z</time></trkpt><trkpt lat="40.6147233" lon="16.1461983"><ele>690.3333333333333</ele><time>2026-04-25T15:18:31.832Z</time></trkpt><trkpt lat="40.6147583" lon="16.1462783"><ele>691.0</ele><time>2026-04-25T15:18:32.832Z</time></trkpt><trkpt lat="40.6147867" lon="16.1463583"><ele>691.6666666666666</ele><time>2026-04-25T15:18:33.832Z</time></trkpt><trkpt lat="40.6148167" lon="16.146435"><ele>692.3333333333334</ele><time>2026-04-25T15:18:34.833Z</time></trkpt><trkpt lat="40.6148783" lon="16.1465733"><ele>693.0</ele><time>2026-04-25T15:18:36.833Z</time></trkpt><trkpt lat="40.614915" lon="16.146685"><ele>693.4</ele><time>2026-04-25T15:18:38.833Z</time></trkpt><trkpt lat="40.614885" lon="16.1467867"><ele>693.8</ele><time>2026-04-25T15:18:41.833Z</time></trkpt><trkpt lat="40.61478" lon="16.1468267"><ele>694.2</ele><time>2026-04-25T15:26:19.838Z</time></trkpt><trkpt lat="40.6147133" lon="16.1468083"><ele>694.6</ele><time>2026-04-25T15:26:23.833Z</time></trkpt><trkpt lat="40.6146467" lon="16.1467867"><ele>695.0</ele><time>2026-04-25T15:26:27.831Z</time></trkpt><trkpt lat="40.6148755" lon="16.1468481"><ele>674.0</ele><time>2026-04-25T15:26:40.42Z</time></trkpt><trkpt lat="40.6188261" lon="16.1487875"><ele>695.0</ele><time>2026-04-25T15:28:03.753Z</time></trkpt><trkpt lat="40.6148749" lon="16.1468462"><ele>667.0</ele><time>2026-04-25T15:28:08.834Z</time></trkpt><trkpt lat="40.6181868" lon="16.1485983"><ele>708.0</ele><time>2026-04-25T15:28:34.636Z</time></trkpt><trkpt lat="40.6143583" lon="16.1468483"><ele>701.5</ele><time>2026-04-25T15:28:40.833Z</time></trkpt><trkpt lat="40.61458" lon="16.1468317"><ele>695.0</ele><time>2026-04-25T15:28:42.832Z</time></trkpt><trkpt lat="40.614835" lon="16.1468267"><ele>695.0</ele><time>2026-04-25T15:28:45.831Z</time></trkpt><trkpt lat="40.6149333" lon="16.14675"><ele>695.0</ele><time>2026-04-25T15:30:13.832Z</time></trkpt><trkpt lat="40.6150033" lon="16.1468433"><ele>695.0</ele><time>2026-04-25T15:30:16.834Z</time></trkpt><trkpt lat="40.61504" lon="16.1469833"><ele>695.0</ele><time>2026-04-25T15:30:18.832Z</time></trkpt><trkpt lat="40.615055" lon="16.147105"><ele>695.0</ele><time>2026-04-25T15:30:20.833Z</time></trkpt><trkpt lat="40.6150583" lon="16.1472383"><ele>695.0</ele><time>2026-04-25T15:30:22.833Z</time></trkpt><trkpt lat="40.6150367" lon="16.147365"><ele>695.0</ele><time>2026-04-25T15:30:24.831Z</time></trkpt><trkpt lat="40.61502" lon="16.147445"><ele>695.0</ele><time>2026-04-25T15:30:26.834Z</time></trkpt><trkpt lat="40.6150033" lon="16.147555"><ele>695.0</ele><time>2026-04-25T15:30:29.833Z</time></trkpt><trkpt lat="40.615005" lon="16.1476717"><ele>695.0</ele><time>2026-04-25T15:30:31.834Z</time></trkpt><trkpt lat="40.6150617" lon="16.1478217"><ele>695.2</ele><time>2026-04-25T15:30:33.833Z</time></trkpt><trkpt lat="40.6151567" lon="16.14793"><ele>695.4</ele><time>2026-04-25T15:30:35.832Z</time></trkpt><trkpt lat="40.6152233" lon="16.147965"><ele>695.5999999999999</ele><time>2026-04-25T15:30:36.835Z</time></trkpt><trkpt lat="40.6152917" lon="16.147995"><ele>695.8</ele><time>2026-04-25T15:30:37.834Z</time></trkpt><trkpt lat="40.6153617" lon="16.1480167"><ele>696.0</ele><time>2026-04-25T15:30:38.834Z</time></trkpt><trkpt lat="40.6154833" lon="16.1480467"><ele>694.8</ele><time>2026-04-25T15:30:40.834Z</time></trkpt><trkpt lat="40.61559" lon="16.1480833"><ele>693.5999999999999</ele><time>2026-04-25T15:30:42.834Z</time></trkpt><trkpt lat="40.6156983" lon="16.1481233"><ele>692.4</ele><time>2026-04-25T15:30:44.832Z</time></trkpt><trkpt lat="40.6158233" lon="16.1481767"><ele>691.2</ele><time>2026-04-25T15:30:46.835Z</time></trkpt><trkpt lat="40.6158983" lon="16.1482267"><ele>690.0</ele><time>2026-04-25T15:30:47.833Z</time></trkpt><trkpt lat="40.61599" lon="16.1482983"><ele>690.0</ele><time>2026-04-25T15:30:48.833Z</time></trkpt><trkpt lat="40.6160883" lon="16.1483933"><ele>690.0</ele><time>2026-04-25T15:30:49.832Z</time></trkpt><trkpt lat="40.6161867" lon="16.148505"><ele>690.0</ele><time>2026-04-25T15:30:50.833Z</time></trkpt><trkpt lat="40.6162833" lon="16.1486217"><ele>690.0</ele><time>2026-04-25T15:30:51.835Z</time></trkpt><trkpt lat="40.6163733" lon="16.1487367"><ele>689.0</ele><time>2026-04-25T15:30:52.834Z</time></trkpt><trkpt lat="40.6164633" lon="16.1488483"><ele>688.0</ele><time>2026-04-25T15:30:53.834Z</time></trkpt><trkpt lat="40.6165533" lon="16.1489567"><ele>687.0</ele><time>2026-04-25T15:30:54.833Z</time></trkpt><trkpt lat="40.61664" lon="16.1490633"><ele>686.0</ele><time>2026-04-25T15:30:55.832Z</time></trkpt><trkpt lat="40.6167167" lon="16.14917"><ele>686.0</ele><time>2026-04-25T15:30:56.833Z</time></trkpt><trkpt lat="40.6167867" lon="16.14929"><ele>686.0</ele><time>2026-04-25T15:30:57.832Z</time></trkpt><trkpt lat="40.6168417" lon="16.1494167"><ele>686.0</ele><time>2026-04-25T15:30:58.832Z</time></trkpt><trkpt lat="40.6168885" lon="16.149539"><ele>686.0</ele><time>2026-04-25T15:30:59.834Z</time></trkpt><trkpt lat="40.6169306" lon="16.1496551"><ele>686.0</ele><time>2026-04-25T15:31:00.832Z</time></trkpt><trkpt lat="40.6169748" lon="16.1497596"><ele>685.6666666666666</ele><time>2026-04-25T15:31:01.833Z</time></trkpt><trkpt lat="40.6170241" lon="16.1498493"><ele>685.3333333333333</ele><time>2026-04-25T15:31:02.833Z</time></trkpt><trkpt lat="40.617082" lon="16.149922"><ele>685.0</ele><time>2026-04-25T15:31:03.833Z</time></trkpt><trkpt lat="40.6171522" lon="16.1499742"><ele>684.6666666666666</ele><time>2026-04-25T15:31:04.833Z</time></trkpt><trkpt lat="40.6172326" lon="16.1500019"><ele>684.3333333333334</ele><time>2026-04-25T15:31:05.834Z</time></trkpt><trkpt lat="40.6173211" lon="16.150007"><ele>684.0</ele><time>2026-04-25T15:31:06.833Z</time></trkpt><trkpt lat="40.6174148" lon="16.1499928"><ele>684.0</ele><time>2026-04-25T15:31:07.833Z</time></trkpt><trkpt lat="40.617509" lon="16.1499733"><ele>684.0</ele><time>2026-04-25T15:31:08.833Z</time></trkpt><trkpt lat="40.6175986" lon="16.1499543"><ele>684.0</ele><time>2026-04-25T15:31:09.832Z</time></trkpt><trkpt lat="40.6176812" lon="16.1499348"><ele>684.0</ele><time>2026-04-25T15:31:10.832Z</time></trkpt><trkpt lat="40.6177575" lon="16.1499174"><ele>684.0</ele><time>2026-04-25T15:31:11.835Z</time></trkpt><trkpt lat="40.6178317" lon="16.149904"><ele>684.0</ele><time>2026-04-25T15:31:12.832Z</time></trkpt><trkpt lat="40.6179036" lon="16.1498911"><ele>683.8333333333334</ele><time>2026-04-25T15:31:13.833Z</time></trkpt><trkpt lat="40.6179766" lon="16.1498762"><ele>683.6666666666666</ele><time>2026-04-25T15:31:14.833Z</time></trkpt><trkpt lat="40.61805" lon="16.1498615"><ele>683.5</ele><time>2026-04-25T15:31:15.831Z</time></trkpt><trkpt lat="40.6181153" lon="16.1498483"><ele>683.3333333333333</ele><time>2026-04-25T15:31:16.831Z</time></trkpt><trkpt lat="40.6182078" lon="16.149853"><ele>683.1666666666666</ele><time>2026-04-25T15:31:18.833Z</time></trkpt><trkpt lat="40.6182519" lon="16.1499201"><ele>683.0</ele><time>2026-04-25T15:31:20.835Z</time></trkpt><trkpt lat="40.6182664" lon="16.1500258"><ele>683.0</ele><time>2026-04-25T15:31:22.834Z</time></trkpt><trkpt lat="40.6182583" lon="16.1499283"><ele>683.0</ele><time>2026-04-25T15:31:37.833Z</time></trkpt><trkpt lat="40.618205" lon="16.1498533"><ele>683.0</ele><time>2026-04-25T15:31:39.833Z</time></trkpt><trkpt lat="40.6181217" lon="16.1498333"><ele>683.0</ele><time>2026-04-25T15:31:41.834Z</time></trkpt><trkpt lat="40.6180283" lon="16.1498417"><ele>683.0</ele><time>2026-04-25T15:31:43.833Z</time></trkpt><trkpt lat="40.6179267" lon="16.149855"><ele>683.0</ele><time>2026-04-25T15:31:45.833Z</time></trkpt><trkpt lat="40.6178117" lon="16.1498767"><ele>683.2</ele><time>2026-04-25T15:31:47.838Z</time></trkpt><trkpt lat="40.6177033" lon="16.149935"><ele>683.4</ele><time>2026-04-25T15:31:49.833Z</time></trkpt><trkpt lat="40.6176483" lon="16.1499933"><ele>683.6</ele><time>2026-04-25T15:31:50.833Z</time></trkpt><trkpt lat="40.617585" lon="16.15005"><ele>683.8000000000001</ele><time>2026-04-25T15:31:51.833Z</time></trkpt><trkpt lat="40.61749" lon="16.1501383"><ele>684.0</ele><time>2026-04-25T15:31:52.833Z</time></trkpt><trkpt lat="40.6173817" lon="16.1502383"><ele>684.0</ele><time>2026-04-25T15:31:53.832Z</time></trkpt><trkpt lat="40.61727" lon="16.15032"><ele>684.0</ele><time>2026-04-25T15:31:54.833Z</time></trkpt><trkpt lat="40.6171817" lon="16.150405"><ele>684.0</ele><time>2026-04-25T15:31:55.832Z</time></trkpt><trkpt lat="40.6170933" lon="16.1505117"><ele>684.0</ele><time>2026-04-25T15:31:56.834Z</time></trkpt><trkpt lat="40.6169883" lon="16.150615"><ele>685.4000000000001</ele><time>2026-04-25T15:31:57.832Z</time></trkpt><trkpt lat="40.6168833" lon="16.1507117"><ele>686.8</ele><time>2026-04-25T15:31:58.833Z</time></trkpt><trkpt lat="40.6167967" lon="16.1507933"><ele>688.2</ele><time>2026-04-25T15:31:59.834Z</time></trkpt><trkpt lat="40.6167233" lon="16.1508667"><ele>689.5999999999999</ele><time>2026-04-25T15:32:00.833Z</time></trkpt><trkpt lat="40.61666" lon="16.150935"><ele>691.0</ele><time>2026-04-25T15:32:01.833Z</time></trkpt><trkpt lat="40.61661" lon="16.1509867"><ele>691.0</ele><time>2026-04-25T15:32:02.835Z</time></trkpt><trkpt lat="40.6165283" lon="16.15105"><ele>691.0</ele><time>2026-04-25T15:32:04.833Z</time></trkpt><trkpt lat="40.616425" lon="16.1510967"><ele>691.0</ele><time>2026-04-25T15:32:06.837Z</time></trkpt><trkpt lat="40.6163417" lon="16.151105"><ele>691.0</ele><time>2026-04-25T15:32:07.833Z</time></trkpt><trkpt lat="40.61623" lon="16.1510867"><ele>691.0</ele><time>2026-04-25T15:32:08.835Z</time></trkpt><trkpt lat="40.6161083" lon="16.15105"><ele>690.75</ele><time>2026-04-25T15:32:09.832Z</time></trkpt><trkpt lat="40.615985" lon="16.151015"><ele>690.5</ele><time>2026-04-25T15:32:10.832Z</time></trkpt><trkpt lat="40.61586" lon="16.1509933"><ele>690.25</ele><time>2026-04-25T15:32:11.834Z</time></trkpt><trkpt lat="40.61573" lon="16.150985"><ele>690.0</ele><time>2026-04-25T15:32:12.834Z</time></trkpt><trkpt lat="40.6155933" lon="16.1509883"><ele>690.0</ele><time>2026-04-25T15:32:13.833Z</time></trkpt><trkpt lat="40.6154583" lon="16.1510033"><ele>690.0</ele><time>2026-04-25T15:32:14.836Z</time></trkpt><trkpt lat="40.6153217" lon="16.15102"><ele>690.0</ele><time>2026-04-25T15:32:15.833Z</time></trkpt><trkpt lat="40.61518" lon="16.1510333"><ele>690.0</ele><time>2026-04-25T15:32:16.833Z</time></trkpt><trkpt lat="40.6150383" lon="16.1510417"><ele>687.75</ele><time>2026-04-25T15:32:17.834Z</time></trkpt><trkpt lat="40.6149" lon="16.151045"><ele>685.5</ele><time>2026-04-25T15:32:18.833Z</time></trkpt><trkpt lat="40.614765" lon="16.1510517"><ele>683.25</ele><time>2026-04-25T15:32:19.835Z</time></trkpt><trkpt lat="40.6146333" lon="16.15107"><ele>681.0</ele><time>2026-04-25T15:32:20.834Z</time></trkpt><trkpt lat="40.6145033" lon="16.1510983"><ele>680.5</ele><time>2026-04-25T15:32:21.834Z</time></trkpt><trkpt lat="40.614375" lon="16.1511383"><ele>680.0</ele><time>2026-04-25T15:32:22.833Z</time></trkpt><trkpt lat="40.6142517" lon="16.1511933"><ele>679.5</ele><time>2026-04-25T15:32:23.834Z</time></trkpt><trkpt lat="40.6141283" lon="16.1512633"><ele>679.0</ele><time>2026-04-25T15:32:24.833Z</time></trkpt><trkpt lat="40.614005" lon="16.15134"><ele>679.0</ele><time>2026-04-25T15:32:25.834Z</time></trkpt><trkpt lat="40.6138883" lon="16.1514217"><ele>679.0</ele><time>2026-04-25T15:32:26.833Z</time></trkpt><trkpt lat="40.613775" lon="16.1515067"><ele>679.0</ele><time>2026-04-25T15:32:27.833Z</time></trkpt><trkpt lat="40.6136667" lon="16.1515833"><ele>679.0</ele><time>2026-04-25T15:32:28.833Z</time></trkpt><trkpt lat="40.6135683" lon="16.1516517"><ele>676.4000000000001</ele><time>2026-04-25T15:32:29.832Z</time></trkpt><trkpt lat="40.613475" lon="16.1517133"><ele>673.8</ele><time>2026-04-25T15:32:30.834Z</time></trkpt><trkpt lat="40.61339" lon="16.1517817"><ele>671.2</ele><time>2026-04-25T15:32:31.831Z</time></trkpt><trkpt lat="40.61331" lon="16.1518567"><ele>668.5999999999999</ele><time>2026-04-25T15:32:32.832Z</time></trkpt><trkpt lat="40.6132383" lon="16.151945"><ele>666.0</ele><time>2026-04-25T15:32:33.831Z</time></trkpt><trkpt lat="40.6131767" lon="16.1520417"><ele>666.0</ele><time>2026-04-25T15:32:34.833Z</time></trkpt><trkpt lat="40.6131267" lon="16.15214"><ele>666.0</ele><time>2026-04-25T15:32:35.832Z</time></trkpt><trkpt lat="40.613085" lon="16.1522367"><ele>666.0</ele><time>2026-04-25T15:32:36.833Z</time></trkpt><trkpt lat="40.6130583" lon="16.15234"><ele>666.0</ele><time>2026-04-25T15:32:37.834Z</time></trkpt><trkpt lat="40.61304" lon="16.1524567"><ele>666.0</ele><time>2026-04-25T15:32:38.832Z</time></trkpt><trkpt lat="40.613035" lon="16.1526033"><ele>661.75</ele><time>2026-04-25T15:32:39.832Z</time></trkpt><trkpt lat="40.6130283" lon="16.152755"><ele>657.5</ele><time>2026-04-25T15:32:40.833Z</time></trkpt><trkpt lat="40.61303" lon="16.1529117"><ele>653.25</ele><time>2026-04-25T15:32:41.832Z</time></trkpt><trkpt lat="40.6130467" lon="16.153075"><ele>649.0</ele><time>2026-04-25T15:32:42.832Z</time></trkpt><trkpt lat="40.6130667" lon="16.153245"><ele>647.0</ele><time>2026-04-25T15:32:43.831Z</time></trkpt><trkpt lat="40.61308" lon="16.1534183"><ele>645.0</ele><time>2026-04-25T15:32:44.832Z</time></trkpt><trkpt lat="40.6130917" lon="16.153595"><ele>643.0</ele><time>2026-04-25T15:32:45.831Z</time></trkpt><trkpt lat="40.6131017" lon="16.153775"><ele>641.0</ele><time>2026-04-25T15:32:46.832Z</time></trkpt><trkpt lat="40.6131117" lon="16.1539433"><ele>639.5999999999999</ele><time>2026-04-25T15:32:47.833Z</time></trkpt><trkpt lat="40.613125" lon="16.154095"><ele>638.1999999999999</ele><time>2026-04-25T15:32:48.833Z</time></trkpt><trkpt lat="40.613135" lon="16.1542217"><ele>636.8</ele><time>2026-04-25T15:32:49.832Z</time></trkpt><trkpt lat="40.6131383" lon="16.154325"><ele>635.4</ele><time>2026-04-25T15:32:50.833Z</time></trkpt><trkpt lat="40.613105" lon="16.1544583"><ele>634.0</ele><time>2026-04-25T15:32:52.832Z</time></trkpt><trkpt lat="40.6129833" lon="16.1545333"><ele>634.0</ele><time>2026-04-25T15:32:54.832Z</time></trkpt><trkpt lat="40.6128917" lon="16.1545783"><ele>634.0</ele><time>2026-04-25T15:32:55.832Z</time></trkpt><trkpt lat="40.6127967" lon="16.1546267"><ele>634.0</ele><time>2026-04-25T15:32:56.833Z</time></trkpt><trkpt lat="40.6127033" lon="16.1546867"><ele>634.0</ele><time>2026-04-25T15:32:57.831Z</time></trkpt><trkpt lat="40.6126167" lon="16.15477"><ele>634.0</ele><time>2026-04-25T15:32:58.833Z</time></trkpt><trkpt lat="40.6125367" lon="16.154865"><ele>638.75</ele><time>2026-04-25T15:32:59.832Z</time></trkpt><trkpt lat="40.61246" lon="16.1549733"><ele>643.5</ele><time>2026-04-25T15:33:00.832Z</time></trkpt><trkpt lat="40.6123933" lon="16.1550933"><ele>648.25</ele><time>2026-04-25T15:33:01.834Z</time></trkpt><trkpt lat="40.612325" lon="16.155235"><ele>653.0</ele><time>2026-04-25T15:33:02.834Z</time></trkpt><trkpt lat="40.6122567" lon="16.15539"><ele>653.0</ele><time>2026-04-25T15:33:03.832Z</time></trkpt><trkpt lat="40.6121883" lon="16.1555417"><ele>653.0</ele><time>2026-04-25T15:33:04.834Z</time></trkpt><trkpt lat="40.6121233" lon="16.1556883"><ele>653.0</ele><time>2026-04-25T15:33:05.832Z</time></trkpt><trkpt lat="40.6120617" lon="16.1558183"><ele>653.0</ele><time>2026-04-25T15:33:06.832Z</time></trkpt><trkpt lat="40.6120033" lon="16.1559233"><ele>652.5</ele><time>2026-04-25T15:33:07.832Z</time></trkpt><trkpt lat="40.611945" lon="16.1560117"><ele>652.0</ele><time>2026-04-25T15:33:08.832Z</time></trkpt><trkpt lat="40.61188" lon="16.15608"><ele>651.5</ele><time>2026-04-25T15:33:09.831Z</time></trkpt><trkpt lat="40.6118117" lon="16.1561217"><ele>651.0</ele><time>2026-04-25T15:33:10.833Z</time></trkpt><trkpt lat="40.6117367" lon="16.1561333"><ele>650.5</ele><time>2026-04-25T15:33:11.834Z</time></trkpt><trkpt lat="40.6116567" lon="16.15613"><ele>650.0</ele><time>2026-04-25T15:33:12.833Z</time></trkpt><trkpt lat="40.6115683" lon="16.156125"><ele>650.0</ele><time>2026-04-25T15:33:13.834Z</time></trkpt><trkpt lat="40.61147" lon="16.1561267"><ele>650.0</ele><time>2026-04-25T15:33:14.833Z</time></trkpt><trkpt lat="40.61137" lon="16.1561383"><ele>650.0</ele><time>2026-04-25T15:33:15.833Z</time></trkpt><trkpt lat="40.611275" lon="16.1561483"><ele>650.0</ele><time>2026-04-25T15:33:16.832Z</time></trkpt><trkpt lat="40.6111817" lon="16.1561483"><ele>650.0</ele><time>2026-04-25T15:33:17.831Z</time></trkpt><trkpt lat="40.611085" lon="16.15615"><ele>646.2</ele><time>2026-04-25T15:33:18.831Z</time></trkpt><trkpt lat="40.6109833" lon="16.1561583"><ele>642.4</ele><time>2026-04-25T15:33:19.832Z</time></trkpt><trkpt lat="40.61088" lon="16.156175"><ele>638.6</ele><time>2026-04-25T15:33:20.832Z</time></trkpt><trkpt lat="40.610775" lon="16.15619"><ele>634.8</ele><time>2026-04-25T15:33:21.833Z</time></trkpt><trkpt lat="40.6106667" lon="16.156205"><ele>631.0</ele><time>2026-04-25T15:33:22.834Z</time></trkpt><trkpt lat="40.6105617" lon="16.1562183"><ele>631.0</ele><time>2026-04-25T15:33:23.832Z</time></trkpt><trkpt lat="40.61047" lon="16.1562283"><ele>631.0</ele><time>2026-04-25T15:33:24.832Z</time></trkpt><trkpt lat="40.6103917" lon="16.1562383"><ele>631.0</ele><time>2026-04-25T15:33:25.832Z</time></trkpt><trkpt lat="40.610325" lon="16.15626"><ele>631.0</ele><time>2026-04-25T15:33:26.833Z</time></trkpt><trkpt lat="40.6102617" lon="16.1562983"><ele>631.0</ele><time>2026-04-25T15:33:27.833Z</time></trkpt><trkpt lat="40.6101983" lon="16.15634"><ele>631.0</ele><time>2026-04-25T15:33:28.832Z</time></trkpt><trkpt lat="40.6101367" lon="16.156385"><ele>629.0</ele><time>2026-04-25T15:33:29.833Z</time></trkpt><trkpt lat="40.610085" lon="16.1564383"><ele>627.0</ele><time>2026-04-25T15:33:30.833Z</time></trkpt><trkpt lat="40.6100333" lon="16.1565083"><ele>625.0</ele><time>2026-04-25T15:33:31.833Z</time></trkpt><trkpt lat="40.6099933" lon="16.156585"><ele>623.0</ele><time>2026-04-25T15:33:32.833Z</time></trkpt><trkpt lat="40.6099617" lon="16.1566683"><ele>621.0</ele><time>2026-04-25T15:33:33.832Z</time></trkpt><trkpt lat="40.6099383" lon="16.1567533"><ele>619.0</ele><time>2026-04-25T15:33:34.831Z</time></trkpt><trkpt lat="40.6099333" lon="16.1568467"><ele>617.0</ele><time>2026-04-25T15:33:35.832Z</time></trkpt><trkpt lat="40.6099283" lon="16.1569417"><ele>617.0</ele><time>2026-04-25T15:33:36.833Z</time></trkpt><trkpt lat="40.6099167" lon="16.1570233"><ele>617.0</ele><time>2026-04-25T15:33:37.831Z</time></trkpt><trkpt lat="40.6098683" lon="16.1570983"><ele>617.0</ele><time>2026-04-25T15:33:40.833Z</time></trkpt><trkpt lat="40.6098017" lon="16.1571367"><ele>617.0</ele><time>2026-04-25T15:33:59.834Z</time></trkpt><trkpt lat="40.6096817" lon="16.1571417"><ele>617.0</ele><time>2026-04-25T15:34:01.833Z</time></trkpt><trkpt lat="40.6096033" lon="16.1571433"><ele>617.0</ele><time>2026-04-25T15:34:02.832Z</time></trkpt><trkpt lat="40.609515" lon="16.157145"><ele>611.4</ele><time>2026-04-25T15:34:03.833Z</time></trkpt><trkpt lat="40.609425" lon="16.1571483"><ele>605.8000000000001</ele><time>2026-04-25T15:34:04.832Z</time></trkpt><trkpt lat="40.6093383" lon="16.1571567"><ele>600.2</ele><time>2026-04-25T15:34:05.833Z</time></trkpt><trkpt lat="40.60925" lon="16.1571767"><ele>594.6</ele><time>2026-04-25T15:34:06.832Z</time></trkpt><trkpt lat="40.6091567" lon="16.1572"><ele>589.0</ele><time>2026-04-25T15:34:07.832Z</time></trkpt><trkpt lat="40.6090583" lon="16.1572233"><ele>589.0</ele><time>2026-04-25T15:34:08.834Z</time></trkpt><trkpt lat="40.608965" lon="16.1572483"><ele>589.0</ele><time>2026-04-25T15:34:09.832Z</time></trkpt><trkpt lat="40.6088733" lon="16.1572733"><ele>589.0</ele><time>2026-04-25T15:34:10.832Z</time></trkpt><trkpt lat="40.60878" lon="16.157305"><ele>589.0</ele><time>2026-04-25T15:34:11.833Z</time></trkpt><trkpt lat="40.6086967" lon="16.157345"><ele>589.0</ele><time>2026-04-25T15:34:12.833Z</time></trkpt><trkpt lat="40.6086183" lon="16.157385"><ele>586.0</ele><time>2026-04-25T15:34:13.831Z</time></trkpt><trkpt lat="40.60854" lon="16.1574217"><ele>583.0</ele><time>2026-04-25T15:34:14.835Z</time></trkpt><trkpt lat="40.6084533" lon="16.157445"><ele>580.0</ele><time>2026-04-25T15:34:15.831Z</time></trkpt><trkpt lat="40.6083567" lon="16.1574583"><ele>577.0</ele><time>2026-04-25T15:34:16.832Z</time></trkpt><trkpt lat="40.6082533" lon="16.1574683"><ele>574.0</ele><time>2026-04-25T15:34:17.833Z</time></trkpt><trkpt lat="40.60815" lon="16.157485"><ele>574.0</ele><time>2026-04-25T15:34:18.834Z</time></trkpt><trkpt lat="40.6080533" lon="16.157505"><ele>574.0</ele><time>2026-04-25T15:34:19.834Z</time></trkpt><trkpt lat="40.6079567" lon="16.1575183"><ele>574.0</ele><time>2026-04-25T15:34:20.833Z</time></trkpt><trkpt lat="40.6078617" lon="16.15754"><ele>574.0</ele><time>2026-04-25T15:34:21.833Z</time></trkpt><trkpt lat="40.607765" lon="16.1575833"><ele>574.0</ele><time>2026-04-25T15:34:22.832Z</time></trkpt><trkpt lat="40.6076733" lon="16.1576383"><ele>571.2857142857143</ele><time>2026-04-25T15:34:23.832Z</time></trkpt><trkpt lat="40.6075883" lon="16.15769"><ele>568.5714285714286</ele><time>2026-04-25T15:34:24.833Z</time></trkpt><trkpt lat="40.6075183" lon="16.1577467"><ele>565.8571428571429</ele><time>2026-04-25T15:34:25.833Z</time></trkpt><trkpt lat="40.6074583" lon="16.15779"><ele>563.1428571428571</ele><time>2026-04-25T15:34:26.834Z</time></trkpt><trkpt lat="40.60742" lon="16.1577233"><ele>560.4285714285714</ele><time>2026-04-25T15:36:14.833Z</time></trkpt><trkpt lat="40.60749" lon="16.157725"><ele>557.7142857142858</ele><time>2026-04-25T15:38:44.832Z</time></trkpt><trkpt lat="40.607555" lon="16.157705"><ele>555.0</ele><time>2026-04-25T15:38:46.832Z</time></trkpt><trkpt lat="40.6076483" lon="16.15763"><ele>555.0</ele><time>2026-04-25T15:38:48.834Z</time></trkpt><trkpt lat="40.6077083" lon="16.1575883"><ele>555.0</ele><time>2026-04-25T15:38:49.832Z</time></trkpt><trkpt lat="40.6077783" lon="16.15755"><ele>555.0</ele><time>2026-04-25T15:38:50.833Z</time></trkpt><trkpt lat="40.6079867" lon="16.1574783"><ele>555.0</ele><time>2026-04-25T15:38:52.832Z</time></trkpt><trkpt lat="40.6081267" lon="16.1574533"><ele>558.8</ele><time>2026-04-25T15:38:53.832Z</time></trkpt><trkpt lat="40.6082633" lon="16.1574367"><ele>562.6</ele><time>2026-04-25T15:38:54.833Z</time></trkpt><trkpt lat="40.60837" lon="16.1574317"><ele>566.4</ele><time>2026-04-25T15:38:55.833Z</time></trkpt><trkpt lat="40.6084617" lon="16.1574233"><ele>570.2</ele><time>2026-04-25T15:38:56.834Z</time></trkpt><trkpt lat="40.6085483" lon="16.1573967"><ele>574.0</ele><time>2026-04-25T15:38:57.832Z</time></trkpt><trkpt lat="40.6087283" lon="16.15731"><ele>577.75</ele><time>2026-04-25T15:38:59.833Z</time></trkpt><trkpt lat="40.608825" lon="16.15727"><ele>581.5</ele><time>2026-04-25T15:39:00.832Z</time></trkpt><trkpt lat="40.60893" lon="16.1572333"><ele>585.25</ele><time>2026-04-25T15:39:01.832Z</time></trkpt><trkpt lat="40.6091617" lon="16.1571733"><ele>589.0</ele><time>2026-04-25T15:39:03.832Z</time></trkpt><trkpt lat="40.6092583" lon="16.1571533"><ele>589.0</ele><time>2026-04-25T15:39:04.832Z</time></trkpt><trkpt lat="40.6093467" lon="16.1571367"><ele>589.0</ele><time>2026-04-25T15:39:05.833Z</time></trkpt><trkpt lat="40.6094383" lon="16.1571267"><ele>589.0</ele><time>2026-04-25T15:39:06.832Z</time></trkpt><trkpt lat="40.6096275" lon="16.1571228"><ele>589.0</ele><time>2026-04-25T15:39:08.833Z</time></trkpt><trkpt lat="40.6097162" lon="16.157125"><ele>594.6</ele><time>2026-04-25T15:39:09.832Z</time></trkpt><trkpt lat="40.6097932" lon="16.157129"><ele>600.2</ele><time>2026-04-25T15:39:10.832Z</time></trkpt><trkpt lat="40.609917" lon="16.1571194"><ele>605.8000000000001</ele><time>2026-04-25T15:39:13.833Z</time></trkpt><trkpt lat="40.6099288" lon="16.1568908"><ele>611.4</ele><time>2026-04-25T15:39:16.831Z</time></trkpt><trkpt lat="40.6099293" lon="16.1568049"><ele>617.0</ele><time>2026-04-25T15:39:17.832Z</time></trkpt><trkpt lat="40.6099652" lon="16.1566501"><ele>617.0</ele><time>2026-04-25T15:39:19.834Z</time></trkpt><trkpt lat="40.6100041" lon="16.1565769"><ele>617.0</ele><time>2026-04-25T15:39:20.833Z</time></trkpt><trkpt lat="40.6100982" lon="16.1564333"><ele>617.0</ele><time>2026-04-25T15:39:22.833Z</time></trkpt><trkpt lat="40.6101588" lon="16.1563702"><ele>617.0</ele><time>2026-04-25T15:39:23.834Z</time></trkpt><trkpt lat="40.6102951" lon="16.1562542"><ele>620.5</ele><time>2026-04-25T15:39:25.832Z</time></trkpt><trkpt lat="40.6103689" lon="16.1562056"><ele>624.0</ele><time>2026-04-25T15:39:26.834Z</time></trkpt><trkpt lat="40.6104619" lon="16.1561735"><ele>627.5</ele><time>2026-04-25T15:39:27.832Z</time></trkpt><trkpt lat="40.6106005" lon="16.1561544"><ele>631.0</ele><time>2026-04-25T15:39:28.832Z</time></trkpt><trkpt lat="40.6109015" lon="16.156113"><ele>631.0</ele><time>2026-04-25T15:39:30.831Z</time></trkpt><trkpt lat="40.6111355" lon="16.1560819"><ele>631.0</ele><time>2026-04-25T15:39:32.832Z</time></trkpt><trkpt lat="40.6112522" lon="16.1560835"><ele>631.0</ele><time>2026-04-25T15:39:33.831Z</time></trkpt><trkpt lat="40.6114826" lon="16.156071"><ele>635.75</ele><time>2026-04-25T15:39:35.831Z</time></trkpt><trkpt lat="40.6115907" lon="16.1560722"><ele>640.5</ele><time>2026-04-25T15:39:36.832Z</time></trkpt><trkpt lat="40.6116829" lon="16.1560805"><ele>645.25</ele><time>2026-04-25T15:39:37.832Z</time></trkpt><trkpt lat="40.6118261" lon="16.1560791"><ele>650.0</ele><time>2026-04-25T15:39:39.832Z</time></trkpt><trkpt lat="40.611965" lon="16.1559967"><ele>651.0</ele><time>2026-04-25T15:39:41.831Z</time></trkpt><trkpt lat="40.6120917" lon="16.155825"><ele>652.0</ele><time>2026-04-25T15:39:43.831Z</time></trkpt><trkpt lat="40.612205" lon="16.15558"><ele>653.0</ele><time>2026-04-25T15:39:45.831Z</time></trkpt><trkpt lat="40.6122617" lon="16.1554483"><ele>653.0</ele><time>2026-04-25T15:39:46.832Z</time></trkpt><trkpt lat="40.6123217" lon="16.1553217"><ele>653.0</ele><time>2026-04-25T15:39:47.831Z</time></trkpt><trkpt lat="40.6124467" lon="16.1550867"><ele>653.0</ele><time>2026-04-25T15:39:49.832Z</time></trkpt><trkpt lat="40.6125167" lon="16.15497"><ele>653.0</ele><time>2026-04-25T15:39:50.833Z</time></trkpt><trkpt lat="40.6125967" lon="16.15486"><ele>646.6666666666666</ele><time>2026-04-25T15:39:51.831Z</time></trkpt><trkpt lat="40.612805" lon="16.1546533"><ele>640.3333333333334</ele><time>2026-04-25T15:39:53.831Z</time></trkpt><trkpt lat="40.6129117" lon="16.1545833"><ele>634.0</ele><time>2026-04-25T15:39:54.831Z</time></trkpt><trkpt lat="40.613005" lon="16.1545267"><ele>634.0</ele><time>2026-04-25T15:39:55.831Z</time></trkpt><trkpt lat="40.6131267" lon="16.154415"><ele>634.0</ele><time>2026-04-25T15:39:57.831Z</time></trkpt><trkpt lat="40.6131767" lon="16.15426"><ele>634.0</ele><time>2026-04-25T15:39:59.831Z</time></trkpt><trkpt lat="40.61317" lon="16.154145"><ele>634.0</ele><time>2026-04-25T15:40:00.832Z</time></trkpt><trkpt lat="40.6131583" lon="16.1540217"><ele>636.3333333333334</ele><time>2026-04-25T15:40:01.833Z</time></trkpt><trkpt lat="40.6131383" lon="16.15386"><ele>638.6666666666666</ele><time>2026-04-25T15:40:02.832Z</time></trkpt><trkpt lat="40.6131167" lon="16.1534633"><ele>641.0</ele><time>2026-04-25T15:40:04.831Z</time></trkpt><trkpt lat="40.6130917" lon="16.1530883"><ele>643.0</ele><time>2026-04-25T15:40:06.832Z</time></trkpt><trkpt lat="40.613085" lon="16.1529233"><ele>645.0</ele><time>2026-04-25T15:40:07.831Z</time></trkpt><trkpt lat="40.613085" lon="16.1527517"><ele>647.0</ele><time>2026-04-25T15:40:08.832Z</time></trkpt><trkpt lat="40.6130917" lon="16.15258"><ele>649.0</ele><time>2026-04-25T15:40:09.831Z</time></trkpt><trkpt lat="40.6131133" lon="16.1523133"><ele>653.25</ele><time>2026-04-25T15:40:11.831Z</time></trkpt><trkpt lat="40.6131633" lon="16.1521083"><ele>657.5</ele><time>2026-04-25T15:40:13.831Z</time></trkpt><trkpt lat="40.6132167" lon="16.1520017"><ele>661.75</ele><time>2026-04-25T15:40:14.832Z</time></trkpt><trkpt lat="40.6132917" lon="16.1518933"><ele>666.0</ele><time>2026-04-25T15:40:15.833Z</time></trkpt><trkpt lat="40.6133733" lon="16.1518017"><ele>666.0</ele><time>2026-04-25T15:40:16.831Z</time></trkpt><trkpt lat="40.613555" lon="16.15166"><ele>666.0</ele><time>2026-04-25T15:40:18.831Z</time></trkpt><trkpt lat="40.6137917" lon="16.1515183"><ele>670.3333333333334</ele><time>2026-04-25T15:40:20.833Z</time></trkpt><trkpt lat="40.6139433" lon="16.1514167"><ele>674.6666666666667</ele><time>2026-04-25T15:40:21.832Z</time></trkpt><trkpt lat="40.6141017" lon="16.1513133"><ele>679.0</ele><time>2026-04-25T15:40:22.832Z</time></trkpt><trkpt lat="40.6142467" lon="16.151225"><ele>679.0</ele><time>2026-04-25T15:40:23.831Z</time></trkpt><trkpt lat="40.6143917" lon="16.1511567"><ele>679.0</ele><time>2026-04-25T15:40:24.831Z</time></trkpt><trkpt lat="40.6145517" lon="16.1511067"><ele>679.0</ele><time>2026-04-25T15:40:25.832Z</time></trkpt><trkpt lat="40.6149517" lon="16.151045"><ele>684.5</ele><time>2026-04-25T15:40:27.831Z</time></trkpt><trkpt lat="40.6153533" lon="16.1510167"><ele>690.0</ele><time>2026-04-25T15:40:29.831Z</time></trkpt><trkpt lat="40.6155217" lon="16.1510033"><ele>690.0</ele><time>2026-04-25T15:40:30.832Z</time></trkpt><trkpt lat="40.61567" lon="16.1509917"><ele>690.0</ele><time>2026-04-25T15:40:31.832Z</time></trkpt><trkpt lat="40.6158183" lon="16.151"><ele>690.0</ele><time>2026-04-25T15:40:32.833Z</time></trkpt><trkpt lat="40.6161033" lon="16.1510767"><ele>690.3333333333334</ele><time>2026-04-25T15:40:34.831Z</time></trkpt><trkpt lat="40.6162217" lon="16.1511183"><ele>690.6666666666667</ele><time>2026-04-25T15:40:35.832Z</time></trkpt><trkpt lat="40.61641" lon="16.1511417"><ele>691.0</ele><time>2026-04-25T15:40:37.831Z</time></trkpt><trkpt lat="40.6165433" lon="16.1510867"><ele>691.0</ele><time>2026-04-25T15:40:39.831Z</time></trkpt><trkpt lat="40.61663" lon="16.1510017"><ele>691.0</ele><time>2026-04-25T15:40:41.832Z</time></trkpt><trkpt lat="40.6167167" lon="16.1508933"><ele>691.0</ele><time>2026-04-25T15:40:43.831Z</time></trkpt><trkpt lat="40.616765" lon="16.1508317"><ele>691.0</ele><time>2026-04-25T15:40:44.833Z</time></trkpt><trkpt lat="40.6168767" lon="16.15071"><ele>691.0</ele><time>2026-04-25T15:40:46.832Z</time></trkpt><trkpt lat="40.61699" lon="16.1506067"><ele>689.9999999999999</ele><time>2026-04-25T15:40:48.831Z</time></trkpt><trkpt lat="40.6170417" lon="16.150555"><ele>689.0</ele><time>2026-04-25T15:40:49.831Z</time></trkpt><trkpt lat="40.6170933" lon="16.1505017"><ele>688.0</ele><time>2026-04-25T15:40:50.833Z</time></trkpt><trkpt lat="40.6171467" lon="16.1504467"><ele>687.0</ele><time>2026-04-25T15:40:51.831Z</time></trkpt><trkpt lat="40.6172083" lon="16.150395"><ele>686.0</ele><time>2026-04-25T15:40:52.832Z</time></trkpt><trkpt lat="40.6172717" lon="16.1503433"><ele>684.9999999999999</ele><time>2026-04-25T15:40:53.832Z</time></trkpt><trkpt lat="40.6173367" lon="16.150295"><ele>684.0</ele><time>2026-04-25T15:40:54.832Z</time></trkpt><trkpt lat="40.6174" lon="16.15024"><ele>684.0</ele><time>2026-04-25T15:40:55.835Z</time></trkpt><trkpt lat="40.6174617" lon="16.150185"><ele>684.0</ele><time>2026-04-25T15:40:56.833Z</time></trkpt><trkpt lat="40.6175233" lon="16.1501283"><ele>684.0</ele><time>2026-04-25T15:40:57.831Z</time></trkpt><trkpt lat="40.61758" lon="16.150075"><ele>684.0</ele><time>2026-04-25T15:40:58.832Z</time></trkpt><trkpt lat="40.6176633" lon="16.1500067"><ele>684.0</ele><time>2026-04-25T15:41:00.831Z</time></trkpt></trkseg></trk></gpx>